<?xml version='1.0' encoding='UTF-8'?><gpx version="1.1" creator="JPX - https://github.com/jenetics/jpx" xmlns="http://www.topografix.com/GPX/1/1"><trk><trkseg><trkpt lat="45.46725484719773" lon="9.160602025408172"><ele>130.0</ele><time>2026-04-04T06:31:27.318Z</time></trkpt><trkpt lat="45.46721338864337" lon="9.160224029497245"><ele>130.0</ele><time>2026-04-04T06:32:09.316Z</time></trkpt><trkpt lat="45.46714954799596" lon="9.159712436247403"><ele>130.0</ele><time>2026-04-04T06:32:17.369Z</time></trkpt><trkpt lat="45.46700976719512" lon="9.159385747863967"><ele>130.0</ele><time>2026-04-04T06:32:36.777Z</time></trkpt><trkpt lat="45.46737932207228" lon="9.159516137452782"><ele>130.0</ele><time>2026-04-04T06:32:50.169Z</time></trkpt><trkpt lat="45.46730272535678" lon="9.159486096468026"><ele>130.0</ele><time>2026-04-04T06:32:52.169Z</time></trkpt><trkpt lat="45.46724694344518" lon="9.159427328896157"><ele>130.0</ele><time>2026-04-04T06:32:54.169Z</time></trkpt><trkpt lat="45.46711905242505" lon="9.159403041665382"><ele>130.0</ele><time>2026-04-04T06:32:57.174Z</time></trkpt><trkpt lat="45.46705849692007" lon="9.15936289754375"><ele>130.0</ele><time>2026-04-04T06:33:00.174Z</time></trkpt><trkpt lat="45.46694811041123" lon="9.159309173778388"><ele>130.0</ele><time>2026-04-04T06:33:04.174Z</time></trkpt><trkpt lat="45.46688418476984" lon="9.159329776450372"><ele>130.0</ele><time>2026-04-04T06:33:10.175Z</time></trkpt><trkpt lat="45.46680864089526" lon="9.15940272578006"><ele>130.0</ele><time>2026-04-04T06:33:13.175Z</time></trkpt><trkpt lat="45.46674372743454" lon="9.159473541504502"><ele>130.0</ele><time>2026-04-04T06:33:15.175Z</time></trkpt><trkpt lat="45.46671022872183" lon="9.159567256346717"><ele>130.0</ele><time>2026-04-04T06:33:17.175Z</time></trkpt><trkpt lat="45.466713424521785" lon="9.159680609262265"><ele>130.0</ele><time>2026-04-04T06:33:19.174Z</time></trkpt><trkpt lat="45.46669848339569" lon="9.159817345345468"><ele>130.2</ele><time>2026-04-04T06:33:21.174Z</time></trkpt><trkpt lat="45.46670388776548" lon="9.159982149254041"><ele>130.4</ele><time>2026-04-04T06:33:23.174Z</time></trkpt><trkpt lat="45.466658092804984" lon="9.16009649555115"><ele>130.6</ele><time>2026-04-04T06:33:25.174Z</time></trkpt><trkpt lat="45.4666573476907" lon="9.160230704719574"><ele>130.8</ele><time>2026-04-04T06:33:27.174Z</time></trkpt><trkpt lat="45.46667035262316" lon="9.160367400164468"><ele>131.0</ele><time>2026-04-04T06:33:29.174Z</time></trkpt><trkpt lat="45.466616593404616" lon="9.160439876857035"><ele>131.0</ele><time>2026-04-04T06:33:30.174Z</time></trkpt><trkpt lat="45.46660721128575" lon="9.160580032225424"><ele>131.0</ele><time>2026-04-04T06:33:32.174Z</time></trkpt><trkpt lat="45.46659302517301" lon="9.160716808389202"><ele>131.0</ele><time>2026-04-04T06:33:34.174Z</time></trkpt><trkpt lat="45.466579412311056" lon="9.160859515037055"><ele>131.0</ele><time>2026-04-04T06:33:36.174Z</time></trkpt><trkpt lat="45.46655196504991" lon="9.160987946112392"><ele>131.0</ele><time>2026-04-04T06:33:38.174Z</time></trkpt><trkpt lat="45.46653943561167" lon="9.161124924232354"><ele>130.83333333333331</ele><time>2026-04-04T06:33:40.174Z</time></trkpt><trkpt lat="45.466527835713514" lon="9.161255180261804"><ele>130.66666666666666</ele><time>2026-04-04T06:33:42.174Z</time></trkpt><trkpt lat="45.46651753208411" lon="9.16138693057202"><ele>130.5</ele><time>2026-04-04T06:33:44.174Z</time></trkpt><trkpt lat="45.466509322282164" lon="9.161503454235126"><ele>130.33333333333334</ele><time>2026-04-04T06:33:46.174Z</time></trkpt><trkpt lat="45.46650133155542" lon="9.16162439632963"><ele>130.16666666666669</ele><time>2026-04-04T06:33:48.174Z</time></trkpt><trkpt lat="45.46648084353155" lon="9.161736801101418"><ele>130.0</ele><time>2026-04-04T06:33:50.174Z</time></trkpt><trkpt lat="45.466323514794944" lon="9.161846237113831"><ele>130.0</ele><time>2026-04-04T06:33:51.124Z</time></trkpt><trkpt lat="45.466367375843745" lon="9.161930671524754"><ele>130.0</ele><time>2026-04-04T06:33:54.961Z</time></trkpt><trkpt lat="45.46633837822604" lon="9.16203745664628"><ele>130.0</ele><time>2026-04-04T06:33:57.961Z</time></trkpt><trkpt lat="45.466334294637775" lon="9.162144393604112"><ele>130.0</ele><time>2026-04-04T06:33:59.961Z</time></trkpt><trkpt lat="45.466332229669604" lon="9.162272514863695"><ele>130.0</ele><time>2026-04-04T06:34:01.961Z</time></trkpt><trkpt lat="45.46634918484102" lon="9.162389044449766"><ele>130.0</ele><time>2026-04-04T06:34:03.961Z</time></trkpt><trkpt lat="45.466365740861946" lon="9.162514735326948"><ele>130.0</ele><time>2026-04-04T06:34:05.961Z</time></trkpt><trkpt lat="45.46636388767013" lon="9.16265964499012"><ele>130.0</ele><time>2026-04-04T06:34:07.961Z</time></trkpt><trkpt lat="45.46633687444409" lon="9.162797463669209"><ele>130.0</ele><time>2026-04-04T06:34:09.961Z</time></trkpt><trkpt lat="45.4663108808364" lon="9.162947130360687"><ele>130.0</ele><time>2026-04-04T06:34:11.961Z</time></trkpt><trkpt lat="45.46631468847783" lon="9.163079929970372"><ele>130.0</ele><time>2026-04-04T06:34:13.961Z</time></trkpt><trkpt lat="45.466304456030144" lon="9.163207797734355"><ele>130.0</ele><time>2026-04-04T06:34:15.961Z</time></trkpt><trkpt lat="45.4663074209768" lon="9.163341124297133"><ele>130.0</ele><time>2026-04-04T06:34:17.961Z</time></trkpt><trkpt lat="45.4663057623829" lon="9.16347954295596"><ele>130.0</ele><time>2026-04-04T06:34:19.961Z</time></trkpt><trkpt lat="45.46629839671032" lon="9.163613670944605"><ele>130.0</ele><time>2026-04-04T06:34:21.961Z</time></trkpt><trkpt lat="45.466263577106965" lon="9.163768270274604"><ele>130.0</ele><time>2026-04-04T06:34:23.961Z</time></trkpt><trkpt lat="45.46628787580394" lon="9.163893099453935"><ele>130.0</ele><time>2026-04-04T06:34:25.961Z</time></trkpt><trkpt lat="45.466265968346676" lon="9.164036507019937"><ele>130.0</ele><time>2026-04-04T06:34:27.961Z</time></trkpt><trkpt lat="45.46625548658049" lon="9.164173526077315"><ele>130.0</ele><time>2026-04-04T06:34:29.961Z</time></trkpt><trkpt lat="45.46621698168411" lon="9.164305397849212"><ele>130.0</ele><time>2026-04-04T06:34:31.961Z</time></trkpt><trkpt lat="45.46622772721588" lon="9.16443248065744"><ele>130.0</ele><time>2026-04-04T06:34:34.961Z</time></trkpt><trkpt lat="45.46626299108178" lon="9.164509861331181"><ele>130.0</ele><time>2026-04-04T06:34:36.961Z</time></trkpt><trkpt lat="45.466275921867854" lon="9.164622049881988"><ele>130.0</ele><time>2026-04-04T06:34:39.961Z</time></trkpt><trkpt lat="45.4662543058927" lon="9.164743860242032"><ele>130.0</ele><time>2026-04-04T06:34:43.961Z</time></trkpt><trkpt lat="45.46624425256307" lon="9.164840323241346"><ele>130.0</ele><time>2026-04-04T06:34:45.961Z</time></trkpt><trkpt lat="45.46622282619694" lon="9.164951737496672"><ele>130.0</ele><time>2026-04-04T06:34:47.961Z</time></trkpt><trkpt lat="45.46623046376832" lon="9.165066058512977"><ele>130.0</ele><time>2026-04-04T06:34:49.961Z</time></trkpt><trkpt lat="45.46622216230247" lon="9.165181221653752"><ele>129.83333333333334</ele><time>2026-04-04T06:34:51.961Z</time></trkpt><trkpt lat="45.46622735369425" lon="9.165294062459116"><ele>129.66666666666669</ele><time>2026-04-04T06:34:53.961Z</time></trkpt><trkpt lat="45.46621634865103" lon="9.165399215627453"><ele>129.5</ele><time>2026-04-04T06:34:55.961Z</time></trkpt><trkpt lat="45.46620142806081" lon="9.165507945428693"><ele>129.33333333333334</ele><time>2026-04-04T06:34:57.961Z</time></trkpt><trkpt lat="45.46614589274573" lon="9.16559541060825"><ele>129.16666666666666</ele><time>2026-04-04T06:34:59.961Z</time></trkpt><trkpt lat="45.466082203968" lon="9.165666780266342"><ele>129.0</ele><time>2026-04-04T06:35:01.961Z</time></trkpt><trkpt lat="45.46601666879072" lon="9.165668317570457"><ele>129.0</ele><time>2026-04-04T06:35:03.962Z</time></trkpt><trkpt lat="45.46593591377944" lon="9.165637015991653"><ele>129.0</ele><time>2026-04-04T06:35:05.962Z</time></trkpt><trkpt lat="45.46586404707273" lon="9.165636311746626"><ele>129.0</ele><time>2026-04-04T06:35:06.962Z</time></trkpt><trkpt lat="45.46577311220835" lon="9.165628605220176"><ele>129.0</ele><time>2026-04-04T06:35:08.962Z</time></trkpt><trkpt lat="45.46567106159981" lon="9.165600422108083"><ele>129.0</ele><time>2026-04-04T06:35:10.962Z</time></trkpt><trkpt lat="45.46557328270531" lon="9.165578723208954"><ele>129.0</ele><time>2026-04-04T06:35:12.962Z</time></trkpt><trkpt lat="45.46549806901923" lon="9.165565317886127"><ele>129.0</ele><time>2026-04-04T06:35:13.962Z</time></trkpt><trkpt lat="45.46539734554087" lon="9.165526260432992"><ele>129.0</ele><time>2026-04-04T06:35:15.962Z</time></trkpt><trkpt lat="45.46529500665531" lon="9.165544057549742"><ele>129.0</ele><time>2026-04-04T06:35:17.962Z</time></trkpt><trkpt lat="45.46521145642711" lon="9.16551332561859"><ele>129.0</ele><time>2026-04-04T06:35:19.962Z</time></trkpt><trkpt lat="45.46511250335238" lon="9.165464334469634"><ele>129.6</ele><time>2026-04-04T06:35:21.962Z</time></trkpt><trkpt lat="45.46504954820191" lon="9.165433852733988"><ele>130.2</ele><time>2026-04-04T06:35:22.962Z</time></trkpt><trkpt lat="45.46495250066509" lon="9.165373745620279"><ele>130.79999999999998</ele><time>2026-04-04T06:35:24.962Z</time></trkpt><trkpt lat="45.46483107082619" lon="9.165342661019585"><ele>131.4</ele><time>2026-04-04T06:35:26.962Z</time></trkpt><trkpt lat="45.46473380353408" lon="9.165286147626375"><ele>132.0</ele><time>2026-04-04T06:35:28.962Z</time></trkpt><trkpt lat="45.46463015228246" lon="9.165251128110702"><ele>131.2</ele><time>2026-04-04T06:35:30.962Z</time></trkpt><trkpt lat="45.46452352856598" lon="9.16520192973999"><ele>130.39999999999998</ele><time>2026-04-04T06:35:32.962Z</time></trkpt><trkpt lat="45.46445505249833" lon="9.165179526121877"><ele>129.60000000000002</ele><time>2026-04-04T06:35:33.962Z</time></trkpt><trkpt lat="45.46438257678206" lon="9.165163784238683"><ele>128.8</ele><time>2026-04-04T06:35:34.962Z</time></trkpt><trkpt lat="45.464256165864626" lon="9.165152251253824"><ele>128.0</ele><time>2026-04-04T06:35:36.962Z</time></trkpt><trkpt lat="45.464154194269895" lon="9.16508795364641"><ele>128.0</ele><time>2026-04-04T06:35:38.962Z</time></trkpt><trkpt lat="45.46411062022912" lon="9.165019974677612"><ele>128.0</ele><time>2026-04-04T06:35:39.962Z</time></trkpt><trkpt lat="45.46401752743147" lon="9.164974779638866"><ele>128.0</ele><time>2026-04-04T06:35:41.962Z</time></trkpt><trkpt lat="45.46390460376817" lon="9.164970033552313"><ele>128.0</ele><time>2026-04-04T06:35:43.962Z</time></trkpt><trkpt lat="45.463778553228536" lon="9.164922327340083"><ele>128.0</ele><time>2026-04-04T06:35:45.962Z</time></trkpt><trkpt lat="45.46365846674735" lon="9.164868325375743"><ele>127.80000000000001</ele><time>2026-04-04T06:35:47.962Z</time></trkpt><trkpt lat="45.4635970562576" lon="9.16484615803276"><ele>127.60000000000001</ele><time>2026-04-04T06:35:48.962Z</time></trkpt><trkpt lat="45.463485819416036" lon="9.164808181198548"><ele>127.39999999999999</ele><time>2026-04-04T06:35:50.962Z</time></trkpt><trkpt lat="45.46337750896692" lon="9.164767615246076"><ele>127.19999999999999</ele><time>2026-04-04T06:35:52.962Z</time></trkpt><trkpt lat="45.4632701410051" lon="9.164702448391473"><ele>127.0</ele><time>2026-04-04T06:35:54.962Z</time></trkpt><trkpt lat="45.46320261946788" lon="9.16470008730663"><ele>127.0</ele><time>2026-04-04T06:35:55.962Z</time></trkpt><trkpt lat="45.46308859908278" lon="9.164673432165236"><ele>126.99999999999999</ele><time>2026-04-04T06:35:57.962Z</time></trkpt><trkpt lat="45.4629788768654" lon="9.16462959194849"><ele>126.99999999999999</ele><time>2026-04-04T06:35:59.962Z</time></trkpt><trkpt lat="45.462912081500455" lon="9.164605676245184"><ele>127.0</ele><time>2026-04-04T06:36:00.962Z</time></trkpt><trkpt lat="45.462801541286666" lon="9.164564316261162"><ele>127.0</ele><time>2026-04-04T06:36:02.962Z</time></trkpt><trkpt lat="45.46269042383325" lon="9.16453915612562"><ele>126.0</ele><time>2026-04-04T06:36:04.962Z</time></trkpt><trkpt lat="45.46259714609142" lon="9.16451322097811"><ele>124.99999999999999</ele><time>2026-04-04T06:36:06.962Z</time></trkpt><trkpt lat="45.462473140498" lon="9.164461309731387"><ele>123.99999999999999</ele><time>2026-04-04T06:36:08.962Z</time></trkpt><trkpt lat="45.46240257197073" lon="9.16444368460555"><ele>123.0</ele><time>2026-04-04T06:36:09.962Z</time></trkpt><trkpt lat="45.46226509807331" lon="9.16440607161891"><ele>122.0</ele><time>2026-04-04T06:36:11.962Z</time></trkpt><trkpt lat="45.46220366342126" lon="9.164385404772464"><ele>121.8</ele><time>2026-04-04T06:36:12.962Z</time></trkpt><trkpt lat="45.46209037305748" lon="9.164334564423488"><ele>121.6</ele><time>2026-04-04T06:36:14.962Z</time></trkpt><trkpt lat="45.46197574398501" lon="9.16430163845815"><ele>121.39999999999999</ele><time>2026-04-04T06:36:16.962Z</time></trkpt><trkpt lat="45.46187079378424" lon="9.164245039964785"><ele>121.19999999999999</ele><time>2026-04-04T06:36:18.962Z</time></trkpt><trkpt lat="45.46180188794579" lon="9.164192948667989"><ele>121.0</ele><time>2026-04-04T06:36:20.962Z</time></trkpt><trkpt lat="45.4617220088804" lon="9.164151454318493"><ele>121.00000000000001</ele><time>2026-04-04T06:36:22.962Z</time></trkpt><trkpt lat="45.46163048686358" lon="9.164142903511495"><ele>121.0</ele><time>2026-04-04T06:36:24.962Z</time></trkpt><trkpt lat="45.461563667348656" lon="9.164167176393297"><ele>121.0</ele><time>2026-04-04T06:36:25.962Z</time></trkpt><trkpt lat="45.4614514894074" lon="9.164233578688144"><ele>121.0</ele><time>2026-04-04T06:36:27.962Z</time></trkpt><trkpt lat="45.46137699603186" lon="9.164268384279668"><ele>121.00000000000001</ele><time>2026-04-04T06:36:28.962Z</time></trkpt><trkpt lat="45.46131351730132" lon="9.164288506924734"><ele>121.0</ele><time>2026-04-04T06:36:29.962Z</time></trkpt><trkpt lat="45.46120232908554" lon="9.164352924329291"><ele>121.0</ele><time>2026-04-04T06:36:31.962Z</time></trkpt><trkpt lat="45.46112763903275" lon="9.164463532325271"><ele>121.0</ele><time>2026-04-04T06:36:33.962Z</time></trkpt><trkpt lat="45.46105421486508" lon="9.164558947042698"><ele>121.0</ele><time>2026-04-04T06:36:35.962Z</time></trkpt><trkpt lat="45.46097012171556" lon="9.164682574540828"><ele>121.0</ele><time>2026-04-04T06:36:37.962Z</time></trkpt><trkpt lat="45.46093750227196" lon="9.164769117485497"><ele>121.0</ele><time>2026-04-04T06:36:38.962Z</time></trkpt><trkpt lat="45.46088853714989" lon="9.164910032281025"><ele>121.33333333333334</ele><time>2026-04-04T06:36:40.962Z</time></trkpt><trkpt lat="45.460845093789196" lon="9.165001115355897"><ele>121.66666666666667</ele><time>2026-04-04T06:36:41.962Z</time></trkpt><trkpt lat="45.46080935031502" lon="9.165087394874806"><ele>122.0</ele><time>2026-04-04T06:36:42.962Z</time></trkpt><trkpt lat="45.4607641288465" lon="9.165169340258611"><ele>122.33333333333334</ele><time>2026-04-04T06:36:43.962Z</time></trkpt><trkpt lat="45.46072264975798" lon="9.16524293913739"><ele>122.66666666666667</ele><time>2026-04-04T06:36:44.962Z</time></trkpt><trkpt lat="45.4606509356047" lon="9.165390122887477"><ele>123.0</ele><time>2026-04-04T06:36:46.962Z</time></trkpt><trkpt lat="45.460613536496645" lon="9.165466970264504"><ele>123.0</ele><time>2026-04-04T06:36:47.962Z</time></trkpt><trkpt lat="45.46051721589637" lon="9.16556521554893"><ele>123.00000000000001</ele><time>2026-04-04T06:36:49.962Z</time></trkpt><trkpt lat="45.46047471814622" lon="9.165653452975398"><ele>123.00000000000001</ele><time>2026-04-04T06:36:50.962Z</time></trkpt><trkpt lat="45.46041510469939" lon="9.165783872091788"><ele>123.0</ele><time>2026-04-04T06:36:52.962Z</time></trkpt><trkpt lat="45.46038695769949" lon="9.16588179914071"><ele>123.0</ele><time>2026-04-04T06:36:53.962Z</time></trkpt><trkpt lat="45.46034855879298" lon="9.16602423286911"><ele>123.83333333333333</ele><time>2026-04-04T06:36:55.962Z</time></trkpt><trkpt lat="45.46026050443126" lon="9.166128908500216"><ele>124.66666666666666</ele><time>2026-04-04T06:36:57.962Z</time></trkpt><trkpt lat="45.460223257731116" lon="9.166213990873105"><ele>125.5</ele><time>2026-04-04T06:36:59.962Z</time></trkpt><trkpt lat="45.46016538643066" lon="9.166304367789824"><ele>126.33333333333333</ele><time>2026-04-04T06:37:01.962Z</time></trkpt><trkpt lat="45.46011655874969" lon="9.166380550652557"><ele>127.16666666666666</ele><time>2026-04-04T06:37:05.962Z</time></trkpt><trkpt lat="45.460056476265976" lon="9.166422937061032"><ele>128.0</ele><time>2026-04-04T06:37:08.963Z</time></trkpt><trkpt lat="45.46000612521124" lon="9.166510848580105"><ele>127.33333333333333</ele><time>2026-04-04T06:37:11.963Z</time></trkpt><trkpt lat="45.45995820460358" lon="9.166595496107284"><ele>126.66666666666666</ele><time>2026-04-04T06:37:13.963Z</time></trkpt><trkpt lat="45.45990359925109" lon="9.166691904719423"><ele>126.0</ele><time>2026-04-04T06:37:15.963Z</time></trkpt><trkpt lat="45.459839221710716" lon="9.166788311412843"><ele>125.33333333333334</ele><time>2026-04-04T06:37:17.963Z</time></trkpt><trkpt lat="45.459768198289844" lon="9.16690132952766"><ele>124.66666666666667</ele><time>2026-04-04T06:37:19.963Z</time></trkpt><trkpt lat="45.4597128327813" lon="9.166989359794137"><ele>124.0</ele><time>2026-04-04T06:37:21.963Z</time></trkpt><trkpt lat="45.45965089953832" lon="9.167054845012728"><ele>124.0</ele><time>2026-04-04T06:37:23.963Z</time></trkpt><trkpt lat="45.459590043599896" lon="9.167218198515787"><ele>124.0</ele><time>2026-04-04T06:37:25.963Z</time></trkpt><trkpt lat="45.45953473478499" lon="9.167288612329482"><ele>124.0</ele><time>2026-04-04T06:37:26.963Z</time></trkpt><trkpt lat="45.45950157281805" lon="9.167419226781405"><ele>124.0</ele><time>2026-04-04T06:37:28.963Z</time></trkpt><trkpt lat="45.45941727789916" lon="9.167518422740264"><ele>124.0</ele><time>2026-04-04T06:37:30.963Z</time></trkpt><trkpt lat="45.45935170860229" lon="9.167620919543317"><ele>124.0</ele><time>2026-04-04T06:37:32.963Z</time></trkpt><trkpt lat="45.45933890888763" lon="9.167720210162301"><ele>124.0</ele><time>2026-04-04T06:37:35.963Z</time></trkpt><trkpt lat="45.45924149065134" lon="9.167844937645617"><ele>124.0</ele><time>2026-04-04T06:37:37.963Z</time></trkpt><trkpt lat="45.4592034713545" lon="9.167918338573998"><ele>124.0</ele><time>2026-04-04T06:37:38.963Z</time></trkpt><trkpt lat="45.45914283516032" lon="9.168021888915142"><ele>124.0</ele><time>2026-04-04T06:37:40.963Z</time></trkpt><trkpt lat="45.4590446594027" lon="9.168138815414538"><ele>123.6</ele><time>2026-04-04T06:37:42.963Z</time></trkpt><trkpt lat="45.45899813368453" lon="9.16820439506588"><ele>123.2</ele><time>2026-04-04T06:37:43.963Z</time></trkpt><trkpt lat="45.45892028649301" lon="9.168338063027038"><ele>122.79999999999998</ele><time>2026-04-04T06:37:45.963Z</time></trkpt><trkpt lat="45.45885835207881" lon="9.16844508095798"><ele>122.39999999999999</ele><time>2026-04-04T06:37:47.963Z</time></trkpt><trkpt lat="45.458804588350525" lon="9.168588174369093"><ele>122.0</ele><time>2026-04-04T06:37:49.963Z</time></trkpt><trkpt lat="45.45874239800103" lon="9.168706541446042"><ele>122.0</ele><time>2026-04-04T06:37:51.963Z</time></trkpt><trkpt lat="45.45865967863036" lon="9.1688029393593"><ele>121.99999999999999</ele><time>2026-04-04T06:37:53.963Z</time></trkpt><trkpt lat="45.458581514561594" lon="9.168902075859352"><ele>121.99999999999999</ele><time>2026-04-04T06:37:55.963Z</time></trkpt><trkpt lat="45.45850657805939" lon="9.168996515920796"><ele>122.0</ele><time>2026-04-04T06:37:57.963Z</time></trkpt><trkpt lat="45.45844697724092" lon="9.16909772951868"><ele>122.0</ele><time>2026-04-04T06:37:59.963Z</time></trkpt><trkpt lat="45.45837757257975" lon="9.16916853870072"><ele>122.16666666666666</ele><time>2026-04-04T06:38:01.963Z</time></trkpt><trkpt lat="45.458319336854096" lon="9.169247759081811"><ele>122.33333333333333</ele><time>2026-04-04T06:38:03.963Z</time></trkpt><trkpt lat="45.45826620335156" lon="9.169332514995626"><ele>122.5</ele><time>2026-04-04T06:38:05.963Z</time></trkpt><trkpt lat="45.45818691944348" lon="9.169412094123478"><ele>122.66666666666666</ele><time>2026-04-04T06:38:07.963Z</time></trkpt><trkpt lat="45.45815291886696" lon="9.16948847302052"><ele>122.83333333333333</ele><time>2026-04-04T06:38:08.963Z</time></trkpt><trkpt lat="45.45810466830377" lon="9.169620083803586"><ele>123.0</ele><time>2026-04-04T06:38:10.963Z</time></trkpt><trkpt lat="45.45802389795741" lon="9.169764068262566"><ele>123.0</ele><time>2026-04-04T06:38:12.963Z</time></trkpt><trkpt lat="45.457942333997416" lon="9.16989450770447"><ele>123.00000000000001</ele><time>2026-04-04T06:38:14.963Z</time></trkpt><trkpt lat="45.457874366890756" lon="9.170029378617297"><ele>123.00000000000001</ele><time>2026-04-04T06:38:16.963Z</time></trkpt><trkpt lat="45.457785826694554" lon="9.170148428261056"><ele>123.0</ele><time>2026-04-04T06:38:18.963Z</time></trkpt><trkpt lat="45.45771594372543" lon="9.170199392175642"><ele>123.0</ele><time>2026-04-04T06:38:19.963Z</time></trkpt><trkpt lat="45.45766449713742" lon="9.17025805728569"><ele>123.0</ele><time>2026-04-04T06:38:20.963Z</time></trkpt><trkpt lat="45.45761329494905" lon="9.170317347195878"><ele>123.00000000000001</ele><time>2026-04-04T06:38:21.963Z</time></trkpt><trkpt lat="45.45753353786165" lon="9.170442965892795"><ele>123.00000000000001</ele><time>2026-04-04T06:38:23.963Z</time></trkpt><trkpt lat="45.457457998042905" lon="9.170573997465516"><ele>123.0</ele><time>2026-04-04T06:38:25.963Z</time></trkpt><trkpt lat="45.45737607453629" lon="9.170649061231996"><ele>123.0</ele><time>2026-04-04T06:38:27.963Z</time></trkpt><trkpt lat="45.457321203678134" lon="9.170781982724836"><ele>123.2</ele><time>2026-04-04T06:38:29.963Z</time></trkpt><trkpt lat="45.45723657692895" lon="9.170884700581864"><ele>123.4</ele><time>2026-04-04T06:38:31.963Z</time></trkpt><trkpt lat="45.457154460466775" lon="9.171009990924277"><ele>123.60000000000001</ele><time>2026-04-04T06:38:33.963Z</time></trkpt><trkpt lat="45.457108511427485" lon="9.171088333848024"><ele>123.80000000000001</ele><time>2026-04-04T06:38:34.963Z</time></trkpt><trkpt lat="45.457046943313166" lon="9.171212432998427"><ele>124.0</ele><time>2026-04-04T06:38:36.963Z</time></trkpt><trkpt lat="45.45697126861212" lon="9.171326375657626"><ele>123.5</ele><time>2026-04-04T06:38:38.963Z</time></trkpt><trkpt lat="45.456914238601314" lon="9.171453283910926"><ele>123.0</ele><time>2026-04-04T06:38:40.963Z</time></trkpt><trkpt lat="45.456842988498586" lon="9.17157968949482"><ele>122.5</ele><time>2026-04-04T06:38:42.963Z</time></trkpt><trkpt lat="45.45676730037801" lon="9.171711112042189"><ele>122.0</ele><time>2026-04-04T06:38:44.963Z</time></trkpt><trkpt lat="45.456701862332665" lon="9.171848104485907"><ele>121.8</ele><time>2026-04-04T06:38:46.963Z</time></trkpt><trkpt lat="45.45663586086244" lon="9.171979895918764"><ele>121.6</ele><time>2026-04-04T06:38:48.963Z</time></trkpt><trkpt lat="45.456563291947" lon="9.172122054189739"><ele>121.39999999999999</ele><time>2026-04-04T06:38:50.963Z</time></trkpt><trkpt lat="45.45650175208709" lon="9.172264522416057"><ele>121.19999999999999</ele><time>2026-04-04T06:38:52.963Z</time></trkpt><trkpt lat="45.45642929774118" lon="9.1723371905767"><ele>121.0</ele><time>2026-04-04T06:38:53.963Z</time></trkpt><trkpt lat="45.45638266255885" lon="9.17247334424602"><ele>121.0</ele><time>2026-04-04T06:38:55.963Z</time></trkpt><trkpt lat="45.456311609196476" lon="9.172608533897234"><ele>121.0</ele><time>2026-04-04T06:38:57.963Z</time></trkpt><trkpt lat="45.45623676940378" lon="9.172721052498204"><ele>121.0</ele><time>2026-04-04T06:38:59.963Z</time></trkpt><trkpt lat="45.45616490824299" lon="9.172827843142116"><ele>121.0</ele><time>2026-04-04T06:39:01.963Z</time></trkpt><trkpt lat="45.4561048148387" lon="9.17293542403192"><ele>121.0</ele><time>2026-04-04T06:39:03.963Z</time></trkpt><trkpt lat="45.4560330208948" lon="9.172997698459763"><ele>121.00000000000001</ele><time>2026-04-04T06:39:05.963Z</time></trkpt><trkpt lat="45.45596810713745" lon="9.173094083963294"><ele>121.0</ele><time>2026-04-04T06:39:07.963Z</time></trkpt><trkpt lat="45.45594672219585" lon="9.173196029489716"><ele>121.0</ele><time>2026-04-04T06:39:10.963Z</time></trkpt><trkpt lat="45.45588631588598" lon="9.173260315280222"><ele>121.0</ele><time>2026-04-04T06:39:14.964Z</time></trkpt><trkpt lat="45.4558441704953" lon="9.173336938020507"><ele>121.00000000000001</ele><time>2026-04-04T06:39:20.964Z</time></trkpt><trkpt lat="45.45575095228784" lon="9.173374882876665"><ele>121.0</ele><time>2026-04-04T06:39:24.964Z</time></trkpt><trkpt lat="45.45570748673814" lon="9.173474934323782"><ele>121.00000000000001</ele><time>2026-04-04T06:39:27.964Z</time></trkpt><trkpt lat="45.455680924642074" lon="9.173559781073408"><ele>121.0</ele><time>2026-04-04T06:39:30.964Z</time></trkpt><trkpt lat="45.45562394696474" lon="9.173618911849646"><ele>121.0</ele><time>2026-04-04T06:39:34.964Z</time></trkpt><trkpt lat="45.45555396683256" lon="9.173684811307671"><ele>121.0</ele><time>2026-04-04T06:39:38.964Z</time></trkpt><trkpt lat="45.455489225176414" lon="9.173766981616913"><ele>121.00000000000001</ele><time>2026-04-04T06:39:41.964Z</time></trkpt><trkpt lat="45.45542578879243" lon="9.17386896449073"><ele>121.0</ele><time>2026-04-04T06:39:43.964Z</time></trkpt><trkpt lat="45.45538011974804" lon="9.17394491057351"><ele>121.50000000000001</ele><time>2026-04-04T06:39:45.964Z</time></trkpt><trkpt lat="45.45532438335196" lon="9.17400733352501"><ele>122.0</ele><time>2026-04-04T06:39:47.964Z</time></trkpt><trkpt lat="45.45527020354799" lon="9.174079594322178"><ele>122.5</ele><time>2026-04-04T06:39:50.964Z</time></trkpt><trkpt lat="45.45520697194763" lon="9.17408658297371"><ele>123.0</ele><time>2026-04-04T06:39:52.964Z</time></trkpt><trkpt lat="45.45512938518569" lon="9.174078626853522"><ele>123.50000000000001</ele><time>2026-04-04T06:39:55.964Z</time></trkpt><trkpt lat="45.45508155408514" lon="9.174139240935572"><ele>124.0</ele><time>2026-04-04T06:39:57.964Z</time></trkpt><trkpt lat="45.45502000263652" lon="9.17425089651149"><ele>123.00000000000001</ele><time>2026-04-04T06:39:59.964Z</time></trkpt><trkpt lat="45.454971425124945" lon="9.17433561215771"><ele>122.0</ele><time>2026-04-04T06:40:01.964Z</time></trkpt><trkpt lat="45.454916711436546" lon="9.17441014442404"><ele>121.0</ele><time>2026-04-04T06:40:03.964Z</time></trkpt><trkpt lat="45.45485191131871" lon="9.174486890628462"><ele>120.0</ele><time>2026-04-04T06:40:05.964Z</time></trkpt><trkpt lat="45.45480346707071" lon="9.174568394473766"><ele>119.00000000000001</ele><time>2026-04-04T06:40:07.964Z</time></trkpt><trkpt lat="45.4547385785982" lon="9.174650636307707"><ele>118.0</ele><time>2026-04-04T06:40:09.964Z</time></trkpt><trkpt lat="45.45469221699838" lon="9.174765145062647"><ele>118.4</ele><time>2026-04-04T06:40:11.963Z</time></trkpt><trkpt lat="45.454628318847824" lon="9.17487755332975"><ele>118.80000000000001</ele><time>2026-04-04T06:40:13.963Z</time></trkpt><trkpt lat="45.454557232246955" lon="9.174970818970309"><ele>119.2</ele><time>2026-04-04T06:40:15.963Z</time></trkpt><trkpt lat="45.454486749518644" lon="9.175067505642472"><ele>119.6</ele><time>2026-04-04T06:40:17.963Z</time></trkpt><trkpt lat="45.454426942588" lon="9.175154809395652"><ele>120.0</ele><time>2026-04-04T06:40:19.963Z</time></trkpt><trkpt lat="45.454365395016936" lon="9.17524782926444"><ele>120.0</ele><time>2026-04-04T06:40:21.963Z</time></trkpt><trkpt lat="45.45429998936224" lon="9.175356249344926"><ele>120.0</ele><time>2026-04-04T06:40:23.963Z</time></trkpt><trkpt lat="45.45423766767665" lon="9.175422337047726"><ele>120.0</ele><time>2026-04-04T06:40:25.963Z</time></trkpt><trkpt lat="45.45417852498476" lon="9.175484666321218"><ele>120.0</ele><time>2026-04-04T06:40:27.963Z</time></trkpt><trkpt lat="45.454130953500375" lon="9.17556898609741"><ele>120.0</ele><time>2026-04-04T06:40:29.963Z</time></trkpt><trkpt lat="45.45407043949687" lon="9.175652997784548"><ele>120.0</ele><time>2026-04-04T06:40:31.963Z</time></trkpt><trkpt lat="45.454013876612365" lon="9.175708401325242"><ele>120.16666666666667</ele><time>2026-04-04T06:40:33.963Z</time></trkpt><trkpt lat="45.45396037220952" lon="9.175778019180914"><ele>120.33333333333334</ele><time>2026-04-04T06:40:35.963Z</time></trkpt><trkpt lat="45.45392416290858" lon="9.175870701473853"><ele>120.5</ele><time>2026-04-04T06:40:37.963Z</time></trkpt><trkpt lat="45.45385789651601" lon="9.175920547909742"><ele>120.66666666666667</ele><time>2026-04-04T06:40:39.963Z</time></trkpt><trkpt lat="45.45380273090785" lon="9.176004858816569"><ele>120.83333333333334</ele><time>2026-04-04T06:40:41.963Z</time></trkpt><trkpt lat="45.453727678083744" lon="9.176101587805542"><ele>121.0</ele><time>2026-04-04T06:40:43.963Z</time></trkpt><trkpt lat="45.4536667308356" lon="9.176178220158729"><ele>120.83333333333334</ele><time>2026-04-04T06:40:45.963Z</time></trkpt><trkpt lat="45.4536073348751" lon="9.176258248696195"><ele>120.66666666666667</ele><time>2026-04-04T06:40:47.963Z</time></trkpt><trkpt lat="45.45353828191277" lon="9.176343827017666"><ele>120.5</ele><time>2026-04-04T06:40:49.963Z</time></trkpt><trkpt lat="45.453468795104676" lon="9.176399509632345"><ele>120.33333333333334</ele><time>2026-04-04T06:40:51.963Z</time></trkpt><trkpt lat="45.4533932770297" lon="9.176477783988753"><ele>120.16666666666667</ele><time>2026-04-04T06:40:53.963Z</time></trkpt><trkpt lat="45.45330527790631" lon="9.176548940224674"><ele>120.0</ele><time>2026-04-04T06:40:55.963Z</time></trkpt><trkpt lat="45.453211094602466" lon="9.176602319961775"><ele>120.0</ele><time>2026-04-04T06:40:57.963Z</time></trkpt><trkpt lat="45.45315901200097" lon="9.176723491255984"><ele>120.0</ele><time>2026-04-04T06:40:59.963Z</time></trkpt><trkpt lat="45.453074015980654" lon="9.176824510874035"><ele>120.0</ele><time>2026-04-04T06:41:01.963Z</time></trkpt><trkpt lat="45.45299265100322" lon="9.176925896595863"><ele>120.0</ele><time>2026-04-04T06:41:03.963Z</time></trkpt><trkpt lat="45.452914173997755" lon="9.176992186138543"><ele>120.0</ele><time>2026-04-04T06:41:05.963Z</time></trkpt><trkpt lat="45.45285347356297" lon="9.177102175741975"><ele>120.0</ele><time>2026-04-04T06:41:07.963Z</time></trkpt><trkpt lat="45.45283091230123" lon="9.177216168487835"><ele>120.0</ele><time>2026-04-04T06:41:09.963Z</time></trkpt><trkpt lat="45.45281581937894" lon="9.177359893194122"><ele>120.0</ele><time>2026-04-04T06:41:11.963Z</time></trkpt><trkpt lat="45.45281601109559" lon="9.17748754181147"><ele>120.0</ele><time>2026-04-04T06:41:13.963Z</time></trkpt><trkpt lat="45.45279280389586" lon="9.17760710566516"><ele>120.0</ele><time>2026-04-04T06:41:15.963Z</time></trkpt><trkpt lat="45.45279335675518" lon="9.177726875686668"><ele>120.0</ele><time>2026-04-04T06:41:17.963Z</time></trkpt><trkpt lat="45.45278901172982" lon="9.17783659601563"><ele>120.0</ele><time>2026-04-04T06:41:19.963Z</time></trkpt><trkpt lat="45.45283522022901" lon="9.17793993964299"><ele>120.0</ele><time>2026-04-04T06:41:21.965Z</time></trkpt><trkpt lat="45.45286249059362" lon="9.178076360212696"><ele>120.0</ele><time>2026-04-04T06:41:23.965Z</time></trkpt><trkpt lat="45.4528714229691" lon="9.178215337196141"><ele>120.0</ele><time>2026-04-04T06:41:25.965Z</time></trkpt><trkpt lat="45.45286962844686" lon="9.178346784856853"><ele>120.0</ele><time>2026-04-04T06:41:27.965Z</time></trkpt><trkpt lat="45.45288094347679" lon="9.178472186873773"><ele>119.66666666666667</ele><time>2026-04-04T06:41:29.965Z</time></trkpt><trkpt lat="45.45289134923679" lon="9.178570971489329"><ele>119.33333333333334</ele><time>2026-04-04T06:41:31.964Z</time></trkpt><trkpt lat="45.452896194909165" lon="9.17868835107692"><ele>119.0</ele><time>2026-04-04T06:41:33.965Z</time></trkpt><trkpt lat="45.45289038889956" lon="9.178793465839576"><ele>118.66666666666667</ele><time>2026-04-04T06:41:35.965Z</time></trkpt><trkpt lat="45.45288263036765" lon="9.178917492385766"><ele>118.33333333333334</ele><time>2026-04-04T06:41:37.965Z</time></trkpt><trkpt lat="45.45289557404103" lon="9.17904389053522"><ele>118.0</ele><time>2026-04-04T06:41:39.965Z</time></trkpt><trkpt lat="45.45290323933162" lon="9.179165529477475"><ele>118.00000000000001</ele><time>2026-04-04T06:41:41.965Z</time></trkpt><trkpt lat="45.45291582810051" lon="9.1792646959505"><ele>118.0</ele><time>2026-04-04T06:41:43.965Z</time></trkpt><trkpt lat="45.452908001162484" lon="9.179379084619628"><ele>118.0</ele><time>2026-04-04T06:41:45.965Z</time></trkpt><trkpt lat="45.45298793974869" lon="9.179468008069144"><ele>118.0</ele><time>2026-04-04T06:41:47.965Z</time></trkpt><trkpt lat="45.45301322113741" lon="9.179566204601555"><ele>118.00000000000001</ele><time>2026-04-04T06:41:49.965Z</time></trkpt><trkpt lat="45.45294166756951" lon="9.179643710372707"><ele>118.0</ele><time>2026-04-04T06:41:51.965Z</time></trkpt><trkpt lat="45.45284096752577" lon="9.17965575432991"><ele>118.00000000000001</ele><time>2026-04-04T06:41:54.964Z</time></trkpt><trkpt lat="45.45274085313152" lon="9.17964790724986"><ele>118.0</ele><time>2026-04-04T06:41:56.964Z</time></trkpt><trkpt lat="45.452660904040826" lon="9.1796328547789"><ele>118.0</ele><time>2026-04-04T06:41:58.964Z</time></trkpt><trkpt lat="45.452578285278555" lon="9.179629778632785"><ele>118.0</ele><time>2026-04-04T06:42:00.964Z</time></trkpt><trkpt lat="45.45251177842981" lon="9.179589344750223"><ele>118.00000000000001</ele><time>2026-04-04T06:42:02.964Z</time></trkpt><trkpt lat="45.45247567617232" lon="9.179490670978948"><ele>118.0</ele><time>2026-04-04T06:42:04.964Z</time></trkpt><trkpt lat="45.45248335532969" lon="9.179379152361346"><ele>118.0</ele><time>2026-04-04T06:42:06.964Z</time></trkpt><trkpt lat="45.452464751219196" lon="9.179291655138845"><ele>118.0</ele><time>2026-04-04T06:42:08.964Z</time></trkpt><trkpt lat="45.4524721725934" lon="9.17919386175694"><ele>118.0</ele><time>2026-04-04T06:42:10.964Z</time></trkpt><trkpt lat="45.452455411199374" lon="9.179068960992224"><ele>118.0</ele><time>2026-04-04T06:42:13.964Z</time></trkpt><trkpt lat="45.45247786740804" lon="9.178969012079573"><ele>118.0</ele><time>2026-04-04T06:42:15.964Z</time></trkpt><trkpt lat="45.452465858179345" lon="9.178862781680374"><ele>118.0</ele><time>2026-04-04T06:42:17.964Z</time></trkpt><trkpt lat="45.452462897565944" lon="9.17876859355624"><ele>118.0</ele><time>2026-04-04T06:42:19.964Z</time></trkpt><trkpt lat="45.452458574705474" lon="9.178655301200687"><ele>118.00000000000001</ele><time>2026-04-04T06:42:21.964Z</time></trkpt><trkpt lat="45.45244742454633" lon="9.178565713547329"><ele>118.0</ele><time>2026-04-04T06:42:23.964Z</time></trkpt><trkpt lat="45.45246116933085" lon="9.178447749003775"><ele>118.0</ele><time>2026-04-04T06:42:25.964Z</time></trkpt><trkpt lat="45.45242435423478" lon="9.178341059326247"><ele>118.0</ele><time>2026-04-04T06:42:27.964Z</time></trkpt><trkpt lat="45.45240117960692" lon="9.178257301748793"><ele>118.00000000000001</ele><time>2026-04-04T06:42:29.964Z</time></trkpt><trkpt lat="45.452364322140475" lon="9.178153264896416"><ele>118.0</ele><time>2026-04-04T06:42:31.964Z</time></trkpt><trkpt lat="45.45234449393392" lon="9.178048989411758"><ele>118.33333333333334</ele><time>2026-04-04T06:42:33.964Z</time></trkpt><trkpt lat="45.45230742715664" lon="9.177968186139058"><ele>118.66666666666667</ele><time>2026-04-04T06:42:35.964Z</time></trkpt><trkpt lat="45.45225765154925" lon="9.177906774348575"><ele>119.0</ele><time>2026-04-04T06:42:37.964Z</time></trkpt><trkpt lat="45.45218144759285" lon="9.177881841480877"><ele>119.33333333333334</ele><time>2026-04-04T06:42:39.964Z</time></trkpt><trkpt lat="45.45209062985922" lon="9.177879008148679"><ele>119.66666666666667</ele><time>2026-04-04T06:42:41.964Z</time></trkpt><trkpt lat="45.451977483153875" lon="9.177891172996164"><ele>120.0</ele><time>2026-04-04T06:42:43.964Z</time></trkpt><trkpt lat="45.45185720217007" lon="9.177869677481494"><ele>120.8</ele><time>2026-04-04T06:42:45.964Z</time></trkpt><trkpt lat="45.45173541369996" lon="9.1778250496206"><ele>121.6</ele><time>2026-04-04T06:42:47.964Z</time></trkpt><trkpt lat="45.45163143445449" lon="9.177791643016661"><ele>122.4</ele><time>2026-04-04T06:42:49.964Z</time></trkpt><trkpt lat="45.45153113778035" lon="9.177770311430244"><ele>123.2</ele><time>2026-04-04T06:42:51.964Z</time></trkpt><trkpt lat="45.451434015773195" lon="9.177736888307107"><ele>124.0</ele><time>2026-04-04T06:42:53.964Z</time></trkpt><trkpt lat="45.451305262651495" lon="9.177742052370967"><ele>124.4</ele><time>2026-04-04T06:42:55.964Z</time></trkpt><trkpt lat="45.45121150926271" lon="9.177721641891091"><ele>124.80000000000001</ele><time>2026-04-04T06:42:57.964Z</time></trkpt><trkpt lat="45.45111554438005" lon="9.17769515861445"><ele>125.19999999999999</ele><time>2026-04-04T06:42:59.964Z</time></trkpt><trkpt lat="45.45105233764629" lon="9.177675546171983"><ele>125.6</ele><time>2026-04-04T06:43:00.964Z</time></trkpt><trkpt lat="45.45095489622759" lon="9.177722312371232"><ele>126.0</ele><time>2026-04-04T06:43:02.964Z</time></trkpt><trkpt lat="45.45086524842802" lon="9.177692916787064"><ele>126.0</ele><time>2026-04-04T06:43:04.964Z</time></trkpt><trkpt lat="45.45077022707098" lon="9.177661717057827"><ele>126.0</ele><time>2026-04-04T06:43:06.964Z</time></trkpt><trkpt lat="45.45066158581021" lon="9.177629968360678"><ele>126.0</ele><time>2026-04-04T06:43:08.964Z</time></trkpt><trkpt lat="45.45055929944817" lon="9.17760270492276"><ele>126.0</ele><time>2026-04-04T06:43:10.964Z</time></trkpt><trkpt lat="45.45045207941192" lon="9.177578024895391"><ele>126.0</ele><time>2026-04-04T06:43:12.964Z</time></trkpt><trkpt lat="45.45032765763704" lon="9.177550947706878"><ele>124.6</ele><time>2026-04-04T06:43:14.964Z</time></trkpt><trkpt lat="45.45022144874716" lon="9.177526125159345"><ele>123.19999999999999</ele><time>2026-04-04T06:43:16.964Z</time></trkpt><trkpt lat="45.45010816832664" lon="9.177471114744126"><ele>121.80000000000001</ele><time>2026-04-04T06:43:18.964Z</time></trkpt><trkpt lat="45.45004096964598" lon="9.17744733878125"><ele>120.4</ele><time>2026-04-04T06:43:19.964Z</time></trkpt><trkpt lat="45.449924705052474" lon="9.17740552101254"><ele>119.0</ele><time>2026-04-04T06:43:21.964Z</time></trkpt><trkpt lat="45.44981021254868" lon="9.177367231631205"><ele>119.0</ele><time>2026-04-04T06:43:23.964Z</time></trkpt><trkpt lat="45.44974293237232" lon="9.177354920896311"><ele>119.0</ele><time>2026-04-04T06:43:24.964Z</time></trkpt><trkpt lat="45.44962758244163" lon="9.177334931764964"><ele>119.0</ele><time>2026-04-04T06:43:26.966Z</time></trkpt><trkpt lat="45.449525096926806" lon="9.177308160247122"><ele>119.0</ele><time>2026-04-04T06:43:28.966Z</time></trkpt><trkpt lat="45.44942426059542" lon="9.17728703053482"><ele>119.0</ele><time>2026-04-04T06:43:30.966Z</time></trkpt><trkpt lat="45.44930919983531" lon="9.177262920226317"><ele>119.0</ele><time>2026-04-04T06:43:32.966Z</time></trkpt><trkpt lat="45.44919967298141" lon="9.177241962956035"><ele>119.0</ele><time>2026-04-04T06:43:34.966Z</time></trkpt><trkpt lat="45.449086961833906" lon="9.177219039346607"><ele>119.0</ele><time>2026-04-04T06:43:36.966Z</time></trkpt><trkpt lat="45.448976678081294" lon="9.177205745775572"><ele>119.0</ele><time>2026-04-04T06:43:38.966Z</time></trkpt><trkpt lat="45.44888643905326" lon="9.17720176710575"><ele>119.0</ele><time>2026-04-04T06:43:40.966Z</time></trkpt><trkpt lat="45.44876177096086" lon="9.177175973694364"><ele>119.0</ele><time>2026-04-04T06:43:42.966Z</time></trkpt><trkpt lat="45.44867840225974" lon="9.177165841098793"><ele>119.0</ele><time>2026-04-04T06:43:44.966Z</time></trkpt><trkpt lat="45.44858701380227" lon="9.17714401535888"><ele>119.0</ele><time>2026-04-04T06:43:47.966Z</time></trkpt><trkpt lat="45.448514418379865" lon="9.177126677885912"><ele>119.0</ele><time>2026-04-04T06:43:49.966Z</time></trkpt><trkpt lat="45.44841524796548" lon="9.17709158580142"><ele>119.0</ele><time>2026-04-04T06:43:51.966Z</time></trkpt><trkpt lat="45.44830524985705" lon="9.177076723453595"><ele>119.0</ele><time>2026-04-04T06:43:53.966Z</time></trkpt><trkpt lat="45.448233487439076" lon="9.17705958485247"><ele>119.0</ele><time>2026-04-04T06:43:55.966Z</time></trkpt><trkpt lat="45.44812745747835" lon="9.17703426233994"><ele>119.0</ele><time>2026-04-04T06:43:57.966Z</time></trkpt><trkpt lat="45.44806450581883" lon="9.177019227966388"><ele>119.0</ele><time>2026-04-04T06:43:58.966Z</time></trkpt><trkpt lat="45.447958213795715" lon="9.176993842933886"><ele>119.0</ele><time>2026-04-04T06:44:00.966Z</time></trkpt><trkpt lat="45.44783004706219" lon="9.176963233708907"><ele>119.33333333333333</ele><time>2026-04-04T06:44:02.966Z</time></trkpt><trkpt lat="45.44776604932713" lon="9.176947949554533"><ele>119.66666666666666</ele><time>2026-04-04T06:44:03.966Z</time></trkpt><trkpt lat="45.44767486558794" lon="9.176926172753701"><ele>120.0</ele><time>2026-04-04T06:44:05.966Z</time></trkpt><trkpt lat="45.44759998716236" lon="9.176908289967079"><ele>120.33333333333334</ele><time>2026-04-04T06:44:07.966Z</time></trkpt><trkpt lat="45.447527613130354" lon="9.17696845334263"><ele>120.66666666666667</ele><time>2026-04-04T06:44:09.966Z</time></trkpt><trkpt lat="45.44747764495682" lon="9.176909005479724"><ele>121.0</ele><time>2026-04-04T06:44:10.966Z</time></trkpt><trkpt lat="45.44743720441743" lon="9.17677454439124"><ele>121.00000000000001</ele><time>2026-04-04T06:44:11.966Z</time></trkpt><trkpt lat="45.447373505823776" lon="9.176737683682735"><ele>121.0</ele><time>2026-04-04T06:44:12.966Z</time></trkpt><trkpt lat="45.447291888686415" lon="9.176752272429013"><ele>121.0</ele><time>2026-04-04T06:44:14.966Z</time></trkpt><trkpt lat="45.447191346897235" lon="9.176749910244547"><ele>121.0</ele><time>2026-04-04T06:44:16.966Z</time></trkpt><trkpt lat="45.447094225526754" lon="9.176741959286037"><ele>121.00000000000001</ele><time>2026-04-04T06:44:18.966Z</time></trkpt><trkpt lat="45.44702262510777" lon="9.176718092420275"><ele>121.0</ele><time>2026-04-04T06:44:19.966Z</time></trkpt><trkpt lat="45.446940448335944" lon="9.176672416375126"><ele>120.4</ele><time>2026-04-04T06:44:20.966Z</time></trkpt><trkpt lat="45.44684609066139" lon="9.176644795339104"><ele>119.8</ele><time>2026-04-04T06:44:22.966Z</time></trkpt><trkpt lat="45.44675957660312" lon="9.176635063231503"><ele>119.20000000000002</ele><time>2026-04-04T06:44:24.966Z</time></trkpt><trkpt lat="45.4466330671001" lon="9.176610857926454"><ele>118.60000000000001</ele><time>2026-04-04T06:44:26.966Z</time></trkpt><trkpt lat="45.446525456583856" lon="9.176630725137418"><ele>118.0</ele><time>2026-04-04T06:44:28.966Z</time></trkpt><trkpt lat="45.44645296907412" lon="9.176626875954259"><ele>118.0</ele><time>2026-04-04T06:44:29.966Z</time></trkpt><trkpt lat="45.446339179514354" lon="9.176606209033707"><ele>118.00000000000001</ele><time>2026-04-04T06:44:31.966Z</time></trkpt><trkpt lat="45.44624244095996" lon="9.176584162078779"><ele>118.00000000000001</ele><time>2026-04-04T06:44:32.966Z</time></trkpt><trkpt lat="45.44613592557976" lon="9.176559649328274"><ele>118.0</ele><time>2026-04-04T06:44:34.966Z</time></trkpt><trkpt lat="45.446070972014375" lon="9.176544701326412"><ele>118.0</ele><time>2026-04-04T06:44:35.966Z</time></trkpt><trkpt lat="45.445960106385435" lon="9.176519187447024"><ele>118.33333333333334</ele><time>2026-04-04T06:44:37.966Z</time></trkpt><trkpt lat="45.44586818263718" lon="9.176498032751809"><ele>118.66666666666667</ele><time>2026-04-04T06:44:39.966Z</time></trkpt><trkpt lat="45.44579940850345" lon="9.17647571617596"><ele>119.0</ele><time>2026-04-04T06:44:42.966Z</time></trkpt><trkpt lat="45.44569838646411" lon="9.176442338977992"><ele>119.33333333333334</ele><time>2026-04-04T06:44:46.109Z</time></trkpt><trkpt lat="45.44560920034089" lon="9.176426515823064"><ele>119.66666666666667</ele><time>2026-04-04T06:44:48.108Z</time></trkpt><trkpt lat="45.445544592680214" lon="9.176415408459356"><ele>120.0</ele><time>2026-04-04T06:44:51.109Z</time></trkpt><trkpt lat="45.44551200620568" lon="9.176321005170191"><ele>119.6</ele><time>2026-04-04T06:44:55.966Z</time></trkpt><trkpt lat="45.44542945621391" lon="9.176318883447896"><ele>119.2</ele><time>2026-04-04T06:44:57.966Z</time></trkpt><trkpt lat="45.44536348296044" lon="9.176314450604313"><ele>118.80000000000001</ele><time>2026-04-04T06:44:58.966Z</time></trkpt><trkpt lat="45.44522418977338" lon="9.176320651104206"><ele>118.4</ele><time>2026-04-04T06:45:00.966Z</time></trkpt><trkpt lat="45.44512672088146" lon="9.176273594668144"><ele>118.0</ele><time>2026-04-04T06:45:02.966Z</time></trkpt><trkpt lat="45.445045314970834" lon="9.176242660573621"><ele>118.00000000000001</ele><time>2026-04-04T06:45:04.966Z</time></trkpt><trkpt lat="45.444959941213" lon="9.176216841358663"><ele>118.0</ele><time>2026-04-04T06:45:06.966Z</time></trkpt><trkpt lat="45.444867333687625" lon="9.176199104989253"><ele>118.0</ele><time>2026-04-04T06:45:08.966Z</time></trkpt><trkpt lat="45.4448072941689" lon="9.176155647606679"><ele>118.0</ele><time>2026-04-04T06:45:10.966Z</time></trkpt><trkpt lat="45.44471980264985" lon="9.176109058883853"><ele>118.00000000000001</ele><time>2026-04-04T06:45:13.966Z</time></trkpt><trkpt lat="45.4446415665405" lon="9.176109121024487"><ele>118.0</ele><time>2026-04-04T06:45:15.966Z</time></trkpt><trkpt lat="45.44457256026699" lon="9.17610276944099"><ele>118.16666666666667</ele><time>2026-04-04T06:45:17.966Z</time></trkpt><trkpt lat="45.44448545555225" lon="9.176105562322753"><ele>118.33333333333334</ele><time>2026-04-04T06:45:20.966Z</time></trkpt><trkpt lat="45.44438842646644" lon="9.176085375291533"><ele>118.5</ele><time>2026-04-04T06:45:22.966Z</time></trkpt><trkpt lat="45.44432143608735" lon="9.176060664578468"><ele>118.66666666666666</ele><time>2026-04-04T06:45:24.966Z</time></trkpt><trkpt lat="45.444247730556185" lon="9.17604038993831"><ele>118.83333333333333</ele><time>2026-04-04T06:45:26.966Z</time></trkpt><trkpt lat="45.44422013939224" lon="9.175938857113847"><ele>119.0</ele><time>2026-04-04T06:45:30.966Z</time></trkpt><trkpt lat="45.444136701097676" lon="9.17588098633507"><ele>119.0</ele><time>2026-04-04T06:45:33.967Z</time></trkpt><trkpt lat="45.444069356570175" lon="9.175859608221867"><ele>119.0</ele><time>2026-04-04T06:45:35.967Z</time></trkpt><trkpt lat="45.443927880934325" lon="9.175874134245932"><ele>119.0</ele><time>2026-04-04T06:45:38.967Z</time></trkpt><trkpt lat="45.443810186178936" lon="9.175908612028103"><ele>119.0</ele><time>2026-04-04T06:45:40.967Z</time></trkpt><trkpt lat="45.44370141153547" lon="9.175935328311656"><ele>119.0</ele><time>2026-04-04T06:45:42.967Z</time></trkpt><trkpt lat="45.443597296830596" lon="9.175917759331929"><ele>118.49999999999999</ele><time>2026-04-04T06:45:44.967Z</time></trkpt><trkpt lat="45.44351085712336" lon="9.175891509377642"><ele>118.0</ele><time>2026-04-04T06:45:46.967Z</time></trkpt><trkpt lat="45.44342856471379" lon="9.175863632827014"><ele>117.5</ele><time>2026-04-04T06:45:48.967Z</time></trkpt><trkpt lat="45.44334498107246" lon="9.175839925770434"><ele>117.0</ele><time>2026-04-04T06:45:50.967Z</time></trkpt><trkpt lat="45.44323296682292" lon="9.175820023819485"><ele>116.49999999999999</ele><time>2026-04-04T06:45:52.967Z</time></trkpt><trkpt lat="45.44316898866286" lon="9.175808872885714"><ele>116.0</ele><time>2026-04-04T06:45:53.967Z</time></trkpt><trkpt lat="45.44305718298223" lon="9.175801727963176"><ele>116.0</ele><time>2026-04-04T06:45:55.967Z</time></trkpt><trkpt lat="45.442940869522104" lon="9.175791183488684"><ele>116.0</ele><time>2026-04-04T06:45:57.967Z</time></trkpt><trkpt lat="45.44285729151903" lon="9.175750441608553"><ele>116.0</ele><time>2026-04-04T06:45:59.967Z</time></trkpt><trkpt lat="45.44275671429805" lon="9.175731775887552"><ele>116.0</ele><time>2026-04-04T06:46:01.967Z</time></trkpt><trkpt lat="45.44266512362007" lon="9.175727733262685"><ele>116.0</ele><time>2026-04-04T06:46:02.967Z</time></trkpt><trkpt lat="45.44257630296143" lon="9.17572644009052"><ele>115.99999999999999</ele><time>2026-04-04T06:46:04.967Z</time></trkpt><trkpt lat="45.442483089030944" lon="9.175699945747786"><ele>116.0</ele><time>2026-04-04T06:46:06.967Z</time></trkpt><trkpt lat="45.44238995045059" lon="9.175672429892646"><ele>116.0</ele><time>2026-04-04T06:46:08.967Z</time></trkpt><trkpt lat="45.442321771690814" lon="9.175670918663306"><ele>116.0</ele><time>2026-04-04T06:46:10.967Z</time></trkpt><trkpt lat="45.442229613173154" lon="9.175637882888976"><ele>115.99999999999999</ele><time>2026-04-04T06:46:13.967Z</time></trkpt><trkpt lat="45.44215615656602" lon="9.17563276815979"><ele>116.0</ele><time>2026-04-04T06:46:15.967Z</time></trkpt><trkpt lat="45.442067135342064" lon="9.17560836669774"><ele>115.8</ele><time>2026-04-04T06:46:17.967Z</time></trkpt><trkpt lat="45.441998333424905" lon="9.175596234462343"><ele>115.6</ele><time>2026-04-04T06:46:19.967Z</time></trkpt><trkpt lat="45.441920021517646" lon="9.175557744691822"><ele>115.4</ele><time>2026-04-04T06:46:21.967Z</time></trkpt><trkpt lat="45.44183359496486" lon="9.175533184116636"><ele>115.2</ele><time>2026-04-04T06:46:23.967Z</time></trkpt><trkpt lat="45.44172716062819" lon="9.175509828668062"><ele>115.0</ele><time>2026-04-04T06:46:25.967Z</time></trkpt><trkpt lat="45.441607688073766" lon="9.175481125341157"><ele>115.0</ele><time>2026-04-04T06:46:27.967Z</time></trkpt><trkpt lat="45.44150625646437" lon="9.175449094279928"><ele>115.0</ele><time>2026-04-04T06:46:29.967Z</time></trkpt><trkpt lat="45.44141510725874" lon="9.175421634396752"><ele>115.0</ele><time>2026-04-04T06:46:31.967Z</time></trkpt><trkpt lat="45.441307164714324" lon="9.175408757697744"><ele>115.0</ele><time>2026-04-04T06:46:33.967Z</time></trkpt><trkpt lat="45.441187675059595" lon="9.175396809565877"><ele>115.0</ele><time>2026-04-04T06:46:35.967Z</time></trkpt><trkpt lat="45.441093395562504" lon="9.175358518577452"><ele>115.2</ele><time>2026-04-04T06:46:37.965Z</time></trkpt><trkpt lat="45.44100275073817" lon="9.175344052387349"><ele>115.4</ele><time>2026-04-04T06:46:39.963Z</time></trkpt><trkpt lat="45.4409113027722" lon="9.175313594124994"><ele>115.6</ele><time>2026-04-04T06:46:41.961Z</time></trkpt><trkpt lat="45.44080025482939" lon="9.17528063098814"><ele>115.8</ele><time>2026-04-04T06:46:43.959Z</time></trkpt><trkpt lat="45.44070537466942" lon="9.175254822376443"><ele>116.0</ele><time>2026-04-04T06:46:45.957Z</time></trkpt><trkpt lat="45.44059221771249" lon="9.175237602305222"><ele>116.0</ele><time>2026-04-04T06:46:47.956Z</time></trkpt><trkpt lat="45.44047903816067" lon="9.17521838587827"><ele>116.0</ele><time>2026-04-04T06:46:49.955Z</time></trkpt><trkpt lat="45.440414184018735" lon="9.175192796529204"><ele>116.0</ele><time>2026-04-04T06:46:50.954Z</time></trkpt><trkpt lat="45.440310004991176" lon="9.175149824356252"><ele>116.0</ele><time>2026-04-04T06:46:52.953Z</time></trkpt><trkpt lat="45.44021706507261" lon="9.17511622106992"><ele>116.0</ele><time>2026-04-04T06:46:54.952Z</time></trkpt><trkpt lat="45.44015358681885" lon="9.175096276304195"><ele>115.8</ele><time>2026-04-04T06:46:55.952Z</time></trkpt><trkpt lat="45.44004289928601" lon="9.175082056496706"><ele>115.6</ele><time>2026-04-04T06:46:57.951Z</time></trkpt><trkpt lat="45.439971862509076" lon="9.175101405408316"><ele>115.4</ele><time>2026-04-04T06:46:58.951Z</time></trkpt><trkpt lat="45.43989230202909" lon="9.175020493444627"><ele>115.2</ele><time>2026-04-04T06:47:00.95Z</time></trkpt><trkpt lat="45.439781659569476" lon="9.174992369611306"><ele>115.0</ele><time>2026-04-04T06:47:02.95Z</time></trkpt><trkpt lat="45.4397090842299" lon="9.174983062916743"><ele>114.6</ele><time>2026-04-04T06:47:03.95Z</time></trkpt><trkpt lat="45.43960071135421" lon="9.174953413096686"><ele>114.2</ele><time>2026-04-04T06:47:05.949Z</time></trkpt><trkpt lat="45.43949824320213" lon="9.174940261721465"><ele>113.80000000000001</ele><time>2026-04-04T06:47:07.949Z</time></trkpt><trkpt lat="45.43938904517722" lon="9.17488835359826"><ele>113.4</ele><time>2026-04-04T06:47:09.949Z</time></trkpt><trkpt lat="45.43928595901212" lon="9.174826710777493"><ele>113.0</ele><time>2026-04-04T06:47:11.948Z</time></trkpt><trkpt lat="45.4392177022264" lon="9.174815727256549"><ele>112.99999999999999</ele><time>2026-04-04T06:47:12.948Z</time></trkpt><trkpt lat="45.43914593034327" lon="9.174808289474754"><ele>113.0</ele><time>2026-04-04T06:47:13.948Z</time></trkpt><trkpt lat="45.43908274435498" lon="9.174803444041629"><ele>113.0</ele><time>2026-04-04T06:47:14.948Z</time></trkpt><trkpt lat="45.43901964467826" lon="9.174776345802275"><ele>113.0</ele><time>2026-04-04T06:47:15.948Z</time></trkpt><trkpt lat="45.438952823214976" lon="9.174764831380248"><ele>112.99999999999999</ele><time>2026-04-04T06:47:16.948Z</time></trkpt><trkpt lat="45.438846556185695" lon="9.174746995599698"><ele>113.0</ele><time>2026-04-04T06:47:18.947Z</time></trkpt><trkpt lat="45.438734937926995" lon="9.17472352417044"><ele>113.80000000000001</ele><time>2026-04-04T06:47:20.947Z</time></trkpt><trkpt lat="45.438658296060254" lon="9.174713731419441"><ele>114.60000000000001</ele><time>2026-04-04T06:47:21.947Z</time></trkpt><trkpt lat="45.43855086144637" lon="9.174675362133085"><ele>115.39999999999999</ele><time>2026-04-04T06:47:23.947Z</time></trkpt><trkpt lat="45.438436988628155" lon="9.174635004916803"><ele>116.19999999999999</ele><time>2026-04-04T06:47:25.947Z</time></trkpt><trkpt lat="45.43837340535636" lon="9.174631376451341"><ele>117.0</ele><time>2026-04-04T06:47:26.947Z</time></trkpt><trkpt lat="45.43822824712928" lon="9.17464171379254"><ele>117.0</ele><time>2026-04-04T06:47:28.947Z</time></trkpt><trkpt lat="45.43816129439295" lon="9.17464652950865"><ele>116.99999999999999</ele><time>2026-04-04T06:47:29.947Z</time></trkpt><trkpt lat="45.43803890370557" lon="9.174625840242015"><ele>116.99999999999999</ele><time>2026-04-04T06:47:31.947Z</time></trkpt><trkpt lat="45.43796254213832" lon="9.174578473333375"><ele>117.0</ele><time>2026-04-04T06:47:33.946Z</time></trkpt><trkpt lat="45.437868054369254" lon="9.174585714533638"><ele>117.0</ele><time>2026-04-04T06:47:35.946Z</time></trkpt><trkpt lat="45.437763514265825" lon="9.174577107974427"><ele>117.0</ele><time>2026-04-04T06:47:37.946Z</time></trkpt><trkpt lat="45.43767277379211" lon="9.174562228604477"><ele>116.99999999999999</ele><time>2026-04-04T06:47:39.948Z</time></trkpt><trkpt lat="45.43759385352689" lon="9.174535030580477"><ele>116.99999999999999</ele><time>2026-04-04T06:47:41.948Z</time></trkpt><trkpt lat="45.43750326230661" lon="9.174518581811673"><ele>117.0</ele><time>2026-04-04T06:47:43.948Z</time></trkpt><trkpt lat="45.43740883333426" lon="9.174494849994492"><ele>117.0</ele><time>2026-04-04T06:47:46.088Z</time></trkpt><trkpt lat="45.437321160548855" lon="9.174463702254238"><ele>117.0</ele><time>2026-04-04T06:47:47.089Z</time></trkpt><trkpt lat="45.437248211926764" lon="9.174434960951107"><ele>116.99999999999999</ele><time>2026-04-04T06:47:48.088Z</time></trkpt><trkpt lat="45.43713635475492" lon="9.174381423831141"><ele>116.99999999999999</ele><time>2026-04-04T06:47:49.948Z</time></trkpt><trkpt lat="45.4370520405675" lon="9.174370970866063"><ele>117.0</ele><time>2026-04-04T06:47:50.947Z</time></trkpt><trkpt lat="45.43694481953619" lon="9.174337744855206"><ele>117.0</ele><time>2026-04-04T06:47:52.948Z</time></trkpt><trkpt lat="45.436833943660645" lon="9.174319091094771"><ele>116.39999999999999</ele><time>2026-04-04T06:47:54.948Z</time></trkpt><trkpt lat="45.43672075869144" lon="9.174334264102319"><ele>115.79999999999998</ele><time>2026-04-04T06:47:56.948Z</time></trkpt><trkpt lat="45.43665691790863" lon="9.174346652565625"><ele>115.2</ele><time>2026-04-04T06:47:57.948Z</time></trkpt><trkpt lat="45.436598582366265" lon="9.174300046924916"><ele>114.6</ele><time>2026-04-04T06:47:58.948Z</time></trkpt><trkpt lat="45.43650418698175" lon="9.174207056664896"><ele>114.0</ele><time>2026-04-04T06:48:00.948Z</time></trkpt><trkpt lat="45.436390653284256" lon="9.174168129155946"><ele>114.0</ele><time>2026-04-04T06:48:02.948Z</time></trkpt><trkpt lat="45.43631727828446" lon="9.174152737913142"><ele>114.0</ele><time>2026-04-04T06:48:03.948Z</time></trkpt><trkpt lat="45.43625360205927" lon="9.1741350132882"><ele>114.0</ele><time>2026-04-04T06:48:04.948Z</time></trkpt><trkpt lat="45.43613941116561" lon="9.17409072109518"><ele>114.0</ele><time>2026-04-04T06:48:06.948Z</time></trkpt><trkpt lat="45.436015576542886" lon="9.174076658447648"><ele>114.0</ele><time>2026-04-04T06:48:08.948Z</time></trkpt><trkpt lat="45.435897068912446" lon="9.174068351745806"><ele>114.25</ele><time>2026-04-04T06:48:10.948Z</time></trkpt><trkpt lat="45.43577117545037" lon="9.174035403462533"><ele>114.5</ele><time>2026-04-04T06:48:12.948Z</time></trkpt><trkpt lat="45.43566898738286" lon="9.174007336973437"><ele>114.75</ele><time>2026-04-04T06:48:14.948Z</time></trkpt><trkpt lat="45.43556272836245" lon="9.173993379545932"><ele>115.0</ele><time>2026-04-04T06:48:16.948Z</time></trkpt><trkpt lat="45.43543562909391" lon="9.17396832236098"><ele>116.0</ele><time>2026-04-04T06:48:18.948Z</time></trkpt><trkpt lat="45.435312926118115" lon="9.173943303686364"><ele>117.0</ele><time>2026-04-04T06:48:20.948Z</time></trkpt><trkpt lat="45.43519909444558" lon="9.173918526677966"><ele>118.0</ele><time>2026-04-04T06:48:22.948Z</time></trkpt><trkpt lat="45.43507754852581" lon="9.17393306547419"><ele>119.0</ele><time>2026-04-04T06:48:24.948Z</time></trkpt><trkpt lat="45.434971888141156" lon="9.173866667960636"><ele>118.99999999999999</ele><time>2026-04-04T06:48:26.948Z</time></trkpt><trkpt lat="45.43491849980414" lon="9.173815487637013"><ele>119.0</ele><time>2026-04-04T06:48:27.948Z</time></trkpt><trkpt lat="45.434806197520395" lon="9.173764463939762"><ele>119.0</ele><time>2026-04-04T06:48:29.948Z</time></trkpt><trkpt lat="45.43474325689718" lon="9.17376010570042"><ele>119.0</ele><time>2026-04-04T06:48:30.948Z</time></trkpt><trkpt lat="45.434637463361746" lon="9.173740075254535"><ele>118.99999999999999</ele><time>2026-04-04T06:48:32.948Z</time></trkpt><trkpt lat="45.434574327760565" lon="9.173722955494595"><ele>119.0</ele><time>2026-04-04T06:48:33.947Z</time></trkpt><trkpt lat="45.43445967721489" lon="9.173685316026086"><ele>118.99999999999999</ele><time>2026-04-04T06:48:35.947Z</time></trkpt><trkpt lat="45.43435428427841" lon="9.173691502115934"><ele>119.0</ele><time>2026-04-04T06:48:37.947Z</time></trkpt><trkpt lat="45.43426016491102" lon="9.173658461616492"><ele>119.0</ele><time>2026-04-04T06:48:39.947Z</time></trkpt><trkpt lat="45.43419782819688" lon="9.173644820172575"><ele>119.0</ele><time>2026-04-04T06:48:40.947Z</time></trkpt><trkpt lat="45.43410307838258" lon="9.17362616255699"><ele>118.99999999999999</ele><time>2026-04-04T06:48:42.947Z</time></trkpt><trkpt lat="45.43404013197249" lon="9.173610814363927"><ele>119.0</ele><time>2026-04-04T06:48:43.947Z</time></trkpt><trkpt lat="45.43398857087875" lon="9.173532767606405"><ele>118.99999999999999</ele><time>2026-04-04T06:48:44.947Z</time></trkpt><trkpt lat="45.43392631824488" lon="9.173512393146213"><ele>119.0</ele><time>2026-04-04T06:48:45.947Z</time></trkpt><trkpt lat="45.43382653685649" lon="9.173502708224804"><ele>119.0</ele><time>2026-04-04T06:48:47.947Z</time></trkpt><trkpt lat="45.43376370666816" lon="9.17349000485383"><ele>119.0</ele><time>2026-04-04T06:48:48.947Z</time></trkpt><trkpt lat="45.43365687073652" lon="9.173443387180745"><ele>118.99999999999999</ele><time>2026-04-04T06:48:50.947Z</time></trkpt><trkpt lat="45.43356130814506" lon="9.173417714482937"><ele>119.0</ele><time>2026-04-04T06:48:52.947Z</time></trkpt><trkpt lat="45.4334541035534" lon="9.17340249190235"><ele>118.2</ele><time>2026-04-04T06:48:54.947Z</time></trkpt><trkpt lat="45.43337724506581" lon="9.173393120624986"><ele>117.4</ele><time>2026-04-04T06:48:55.947Z</time></trkpt><trkpt lat="45.43326503232556" lon="9.173334665796315"><ele>116.6</ele><time>2026-04-04T06:48:57.947Z</time></trkpt><trkpt lat="45.433155112290834" lon="9.173289944403196"><ele>115.8</ele><time>2026-04-04T06:48:59.947Z</time></trkpt><trkpt lat="45.43308940161836" lon="9.173257495827542"><ele>115.0</ele><time>2026-04-04T06:49:00.947Z</time></trkpt><trkpt lat="45.433007684167166" lon="9.173245662989789"><ele>114.66666666666667</ele><time>2026-04-04T06:49:01.947Z</time></trkpt><trkpt lat="45.432932174143296" lon="9.173213978406721"><ele>114.33333333333334</ele><time>2026-04-04T06:49:02.947Z</time></trkpt><trkpt lat="45.4328222202474" lon="9.173146022326776"><ele>114.0</ele><time>2026-04-04T06:49:04.947Z</time></trkpt><trkpt lat="45.43273235737091" lon="9.17308318864918"><ele>113.66666666666666</ele><time>2026-04-04T06:49:06.947Z</time></trkpt><trkpt lat="45.43266118601698" lon="9.17308319960663"><ele>113.33333333333333</ele><time>2026-04-04T06:49:07.947Z</time></trkpt><trkpt lat="45.432590172138255" lon="9.173070756727732"><ele>113.0</ele><time>2026-04-04T06:49:08.947Z</time></trkpt><trkpt lat="45.432526076138984" lon="9.173043114311767"><ele>113.0</ele><time>2026-04-04T06:49:09.947Z</time></trkpt><trkpt lat="45.43246824209522" lon="9.173003233696788"><ele>113.00000000000001</ele><time>2026-04-04T06:49:10.947Z</time></trkpt><trkpt lat="45.432376497424634" lon="9.172945154662694"><ele>113.00000000000001</ele><time>2026-04-04T06:49:12.947Z</time></trkpt><trkpt lat="45.43226422853803" lon="9.172889290195107"><ele>113.0</ele><time>2026-04-04T06:49:14.947Z</time></trkpt><trkpt lat="45.432161568658096" lon="9.172801127142087"><ele>113.0</ele><time>2026-04-04T06:49:16.947Z</time></trkpt><trkpt lat="45.43206245367132" lon="9.172728309795755"><ele>112.60000000000001</ele><time>2026-04-04T06:49:18.947Z</time></trkpt><trkpt lat="45.431971302372986" lon="9.172654099591117"><ele>112.20000000000002</ele><time>2026-04-04T06:49:20.947Z</time></trkpt><trkpt lat="45.43189280269724" lon="9.172603161710375"><ele>111.8</ele><time>2026-04-04T06:49:22.947Z</time></trkpt><trkpt lat="45.431797419985024" lon="9.172565066840209"><ele>111.4</ele><time>2026-04-04T06:49:24.947Z</time></trkpt><trkpt lat="45.43169103953651" lon="9.17249456986263"><ele>111.0</ele><time>2026-04-04T06:49:26.947Z</time></trkpt><trkpt lat="45.43159480366288" lon="9.172406954413042"><ele>111.0</ele><time>2026-04-04T06:49:28.947Z</time></trkpt><trkpt lat="45.43148736469314" lon="9.172357333276443"><ele>111.0</ele><time>2026-04-04T06:49:30.947Z</time></trkpt><trkpt lat="45.431397462306364" lon="9.17230899568407"><ele>111.0</ele><time>2026-04-04T06:49:32.947Z</time></trkpt><trkpt lat="45.43133397693548" lon="9.172277367448265"><ele>111.0</ele><time>2026-04-04T06:49:33.947Z</time></trkpt><trkpt lat="45.431256670183075" lon="9.172244532092831"><ele>111.0</ele><time>2026-04-04T06:49:34.947Z</time></trkpt><trkpt lat="45.431151932024974" lon="9.172154090751842"><ele>110.5</ele><time>2026-04-04T06:49:36.947Z</time></trkpt><trkpt lat="45.43109224362545" lon="9.172109069602048"><ele>110.0</ele><time>2026-04-04T06:49:37.947Z</time></trkpt><trkpt lat="45.43100094629081" lon="9.172079933222864"><ele>109.5</ele><time>2026-04-04T06:49:39.947Z</time></trkpt><trkpt lat="45.43091726251972" lon="9.172024900395744"><ele>109.0</ele><time>2026-04-04T06:49:41.947Z</time></trkpt><trkpt lat="45.43085628529759" lon="9.171985327477264"><ele>108.5</ele><time>2026-04-04T06:49:42.947Z</time></trkpt><trkpt lat="45.43078316401246" lon="9.17195720577239"><ele>108.0</ele><time>2026-04-04T06:49:43.947Z</time></trkpt><trkpt lat="45.4306707679642" lon="9.171874559337185"><ele>108.0</ele><time>2026-04-04T06:49:45.948Z</time></trkpt><trkpt lat="45.43060445697954" lon="9.171852419661828"><ele>108.0</ele><time>2026-04-04T06:49:46.948Z</time></trkpt><trkpt lat="45.43052954364763" lon="9.171836295531527"><ele>108.0</ele><time>2026-04-04T06:49:47.948Z</time></trkpt><trkpt lat="45.43047023736267" lon="9.171805557875002"><ele>108.0</ele><time>2026-04-04T06:49:48.948Z</time></trkpt><trkpt lat="45.43036780668613" lon="9.171741372513065"><ele>108.0</ele><time>2026-04-04T06:49:50.948Z</time></trkpt><trkpt lat="45.43030607855921" lon="9.171700582295735"><ele>108.0</ele><time>2026-04-04T06:49:51.948Z</time></trkpt><trkpt lat="45.4302395780116" lon="9.171660192265994"><ele>108.16666666666667</ele><time>2026-04-04T06:49:52.948Z</time></trkpt><trkpt lat="45.430181479041586" lon="9.171612630844468"><ele>108.33333333333334</ele><time>2026-04-04T06:49:53.948Z</time></trkpt><trkpt lat="45.43011643547832" lon="9.171581994533332"><ele>108.5</ele><time>2026-04-04T06:49:54.948Z</time></trkpt><trkpt lat="45.430020633354246" lon="9.171537116332495"><ele>108.66666666666667</ele><time>2026-04-04T06:49:56.948Z</time></trkpt><trkpt lat="45.42991837900781" lon="9.171475863673193"><ele>108.83333333333334</ele><time>2026-04-04T06:49:58.948Z</time></trkpt><trkpt lat="45.42986067574952" lon="9.171436841903676"><ele>109.0</ele><time>2026-04-04T06:49:59.948Z</time></trkpt><trkpt lat="45.42974111042072" lon="9.171378593036016"><ele>109.0</ele><time>2026-04-04T06:50:01.948Z</time></trkpt><trkpt lat="45.42964319668694" lon="9.171317531826334"><ele>109.0</ele><time>2026-04-04T06:50:03.948Z</time></trkpt><trkpt lat="45.429530460293876" lon="9.171259783600924"><ele>109.0</ele><time>2026-04-04T06:50:05.948Z</time></trkpt><trkpt lat="45.42940556386231" lon="9.171228740516444"><ele>109.0</ele><time>2026-04-04T06:50:07.948Z</time></trkpt><trkpt lat="45.42930413008794" lon="9.171158255190313"><ele>109.4</ele><time>2026-04-04T06:50:09.948Z</time></trkpt><trkpt lat="45.42920918683119" lon="9.171107363333094"><ele>109.80000000000001</ele><time>2026-04-04T06:50:11.948Z</time></trkpt><trkpt lat="45.42913965566883" lon="9.171080371495592"><ele>110.19999999999999</ele><time>2026-04-04T06:50:12.948Z</time></trkpt><trkpt lat="45.42902932610534" lon="9.171023693161745"><ele>110.6</ele><time>2026-04-04T06:50:14.948Z</time></trkpt><trkpt lat="45.42892479581719" lon="9.17095169910759"><ele>111.0</ele><time>2026-04-04T06:50:16.948Z</time></trkpt><trkpt lat="45.428815661549685" lon="9.170900454010043"><ele>111.0</ele><time>2026-04-04T06:50:18.948Z</time></trkpt><trkpt lat="45.42872052624803" lon="9.170816223490927"><ele>111.0</ele><time>2026-04-04T06:50:20.948Z</time></trkpt><trkpt lat="45.42864937845312" lon="9.17078089694656"><ele>111.0</ele><time>2026-04-04T06:50:21.948Z</time></trkpt><trkpt lat="45.42856032076541" lon="9.170676784883707"><ele>111.0</ele><time>2026-04-04T06:50:23.948Z</time></trkpt><trkpt lat="45.42845757575376" lon="9.170602063772067"><ele>111.0</ele><time>2026-04-04T06:50:25.948Z</time></trkpt><trkpt lat="45.42834352037683" lon="9.170577334640377"><ele>111.0</ele><time>2026-04-04T06:50:27.948Z</time></trkpt><trkpt lat="45.42823763759052" lon="9.170518651933394"><ele>111.0</ele><time>2026-04-04T06:50:29.948Z</time></trkpt><trkpt lat="45.42812663936682" lon="9.170473833247126"><ele>111.0</ele><time>2026-04-04T06:50:31.948Z</time></trkpt><trkpt lat="45.42802173054035" lon="9.170407755320415"><ele>111.0</ele><time>2026-04-04T06:50:33.948Z</time></trkpt><trkpt lat="45.42791758480856" lon="9.170362727545944"><ele>111.19999999999999</ele><time>2026-04-04T06:50:35.948Z</time></trkpt><trkpt lat="45.427857844288816" lon="9.170332073268382"><ele>111.39999999999999</ele><time>2026-04-04T06:50:36.948Z</time></trkpt><trkpt lat="45.427751304940074" lon="9.170269917599155"><ele>111.6</ele><time>2026-04-04T06:50:38.948Z</time></trkpt><trkpt lat="45.42764200339014" lon="9.170204491505432"><ele>111.8</ele><time>2026-04-04T06:50:40.948Z</time></trkpt><trkpt lat="45.42753338593965" lon="9.170132268541996"><ele>112.0</ele><time>2026-04-04T06:50:42.947Z</time></trkpt><trkpt lat="45.42747038069776" lon="9.170101837954904"><ele>112.0</ele><time>2026-04-04T06:50:43.947Z</time></trkpt><trkpt lat="45.427405723515434" lon="9.170080872888109"><ele>111.99999999999999</ele><time>2026-04-04T06:50:44.947Z</time></trkpt><trkpt lat="45.42728562965359" lon="9.170028274256055"><ele>111.99999999999999</ele><time>2026-04-04T06:50:46.947Z</time></trkpt><trkpt lat="45.42721720672267" lon="9.169994844648237"><ele>112.0</ele><time>2026-04-04T06:50:47.947Z</time></trkpt><trkpt lat="45.427105437553024" lon="9.169925647405034"><ele>112.0</ele><time>2026-04-04T06:50:49.947Z</time></trkpt><trkpt lat="45.42701306113629" lon="9.169853992718497"><ele>112.19999999999999</ele><time>2026-04-04T06:50:51.947Z</time></trkpt><trkpt lat="45.42696029296114" lon="9.169784320585334"><ele>112.39999999999999</ele><time>2026-04-04T06:50:53.947Z</time></trkpt><trkpt lat="45.42684295860789" lon="9.169740057120642"><ele>112.60000000000001</ele><time>2026-04-04T06:50:55.947Z</time></trkpt><trkpt lat="45.42674174312559" lon="9.169686867484755"><ele>112.80000000000001</ele><time>2026-04-04T06:50:57.947Z</time></trkpt><trkpt lat="45.426628243784805" lon="9.169603662695991"><ele>113.0</ele><time>2026-04-04T06:50:59.947Z</time></trkpt><trkpt lat="45.426520867342376" lon="9.169529368598845"><ele>113.0</ele><time>2026-04-04T06:51:01.947Z</time></trkpt><trkpt lat="45.42640665121748" lon="9.169447490578586"><ele>113.00000000000001</ele><time>2026-04-04T06:51:03.947Z</time></trkpt><trkpt lat="45.426294298247846" lon="9.169395382701781"><ele>113.00000000000001</ele><time>2026-04-04T06:51:05.947Z</time></trkpt><trkpt lat="45.42617691900912" lon="9.16933260627515"><ele>113.0</ele><time>2026-04-04T06:51:07.947Z</time></trkpt><trkpt lat="45.42611491160045" lon="9.169293357638455"><ele>113.0</ele><time>2026-04-04T06:51:08.947Z</time></trkpt><trkpt lat="45.42605008839227" lon="9.169257549084675"><ele>112.66666666666666</ele><time>2026-04-04T06:51:09.947Z</time></trkpt><trkpt lat="45.425982935329976" lon="9.169214707513792"><ele>112.33333333333333</ele><time>2026-04-04T06:51:10.947Z</time></trkpt><trkpt lat="45.42587984748252" lon="9.16913650071629"><ele>112.0</ele><time>2026-04-04T06:51:12.947Z</time></trkpt><trkpt lat="45.425809261313795" lon="9.169097424543072"><ele>111.66666666666666</ele><time>2026-04-04T06:51:13.947Z</time></trkpt><trkpt lat="45.425741051816374" lon="9.169054909227993"><ele>111.33333333333333</ele><time>2026-04-04T06:51:14.947Z</time></trkpt><trkpt lat="45.425680300543426" lon="9.1690205967323"><ele>111.0</ele><time>2026-04-04T06:51:15.947Z</time></trkpt><trkpt lat="45.42561815438457" lon="9.168984690581793"><ele>110.71428571428571</ele><time>2026-04-04T06:51:16.947Z</time></trkpt><trkpt lat="45.42555261442997" lon="9.168946326203228"><ele>110.42857142857143</ele><time>2026-04-04T06:51:17.947Z</time></trkpt><trkpt lat="45.42548241914455" lon="9.168925066553303"><ele>110.14285714285714</ele><time>2026-04-04T06:51:18.947Z</time></trkpt><trkpt lat="45.42541707171486" lon="9.16890070935404"><ele>109.85714285714286</ele><time>2026-04-04T06:51:19.947Z</time></trkpt><trkpt lat="45.42535327668328" lon="9.168860839946607"><ele>109.57142857142858</ele><time>2026-04-04T06:51:20.947Z</time></trkpt><trkpt lat="45.42529975285475" lon="9.168811163449181"><ele>109.28571428571429</ele><time>2026-04-04T06:51:21.947Z</time></trkpt><trkpt lat="45.42522947094309" lon="9.1687810410241"><ele>109.0</ele><time>2026-04-04T06:51:22.947Z</time></trkpt><trkpt lat="45.42516893391207" lon="9.168741614930628"><ele>109.0</ele><time>2026-04-04T06:51:23.947Z</time></trkpt><trkpt lat="45.42510886032508" lon="9.168709921351892"><ele>109.0</ele><time>2026-04-04T06:51:24.947Z</time></trkpt><trkpt lat="45.42503797343594" lon="9.168679171953675"><ele>109.0</ele><time>2026-04-04T06:51:25.947Z</time></trkpt><trkpt lat="45.42497655923034" lon="9.168653261801591"><ele>109.0</ele><time>2026-04-04T06:51:26.947Z</time></trkpt><trkpt lat="45.424915932236836" lon="9.168613116711601"><ele>109.0</ele><time>2026-04-04T06:51:27.947Z</time></trkpt><trkpt lat="45.42481967770803" lon="9.168541070800746"><ele>109.0</ele><time>2026-04-04T06:51:29.947Z</time></trkpt><trkpt lat="45.4247557834162" lon="9.168522553314823"><ele>109.0</ele><time>2026-04-04T06:51:30.947Z</time></trkpt><trkpt lat="45.424646625141" lon="9.168471510528398"><ele>109.0</ele><time>2026-04-04T06:51:32.947Z</time></trkpt><trkpt lat="45.42458527279161" lon="9.168443171870985"><ele>109.0</ele><time>2026-04-04T06:51:33.947Z</time></trkpt><trkpt lat="45.42452340965849" lon="9.168411004469446"><ele>109.0</ele><time>2026-04-04T06:51:34.947Z</time></trkpt><trkpt lat="45.42440475430334" lon="9.168346403162332"><ele>109.0</ele><time>2026-04-04T06:51:36.947Z</time></trkpt><trkpt lat="45.42427844857822" lon="9.16827812198257"><ele>109.0</ele><time>2026-04-04T06:51:38.947Z</time></trkpt><trkpt lat="45.4241811350698" lon="9.168237736494973"><ele>108.80000000000001</ele><time>2026-04-04T06:51:40.947Z</time></trkpt><trkpt lat="45.42408206391528" lon="9.168170169218918"><ele>108.60000000000001</ele><time>2026-04-04T06:51:42.947Z</time></trkpt><trkpt lat="45.423981590553524" lon="9.16809829720902"><ele>108.4</ele><time>2026-04-04T06:51:44.947Z</time></trkpt><trkpt lat="45.423868368962665" lon="9.168051086808761"><ele>108.2</ele><time>2026-04-04T06:51:46.947Z</time></trkpt><trkpt lat="45.42376885570301" lon="9.167990237503032"><ele>108.0</ele><time>2026-04-04T06:51:48.947Z</time></trkpt><trkpt lat="45.42366900470302" lon="9.167900901788151"><ele>108.0</ele><time>2026-04-04T06:51:50.949Z</time></trkpt><trkpt lat="45.42356063035345" lon="9.167842207490196"><ele>108.0</ele><time>2026-04-04T06:51:52.948Z</time></trkpt><trkpt lat="45.42346226058612" lon="9.167789816247817"><ele>108.0</ele><time>2026-04-04T06:51:54.949Z</time></trkpt><trkpt lat="45.423353635209295" lon="9.167717967669944"><ele>108.0</ele><time>2026-04-04T06:51:56.949Z</time></trkpt><trkpt lat="45.42324221179809" lon="9.1676606866014"><ele>108.0</ele><time>2026-04-04T06:51:58.948Z</time></trkpt><trkpt lat="45.423140191828274" lon="9.167597915205988"><ele>108.00000000000001</ele><time>2026-04-04T06:52:00.949Z</time></trkpt><trkpt lat="45.42303532866412" lon="9.167548322065711"><ele>108.00000000000001</ele><time>2026-04-04T06:52:02.948Z</time></trkpt><trkpt lat="45.42294902152659" lon="9.167489687261842"><ele>108.0</ele><time>2026-04-04T06:52:04.948Z</time></trkpt><trkpt lat="45.42285068946657" lon="9.167433495157427"><ele>108.0</ele><time>2026-04-04T06:52:06.948Z</time></trkpt><trkpt lat="45.42273944329385" lon="9.167358913487002"><ele>107.4</ele><time>2026-04-04T06:52:08.948Z</time></trkpt><trkpt lat="45.42263151187614" lon="9.167277567528245"><ele>106.80000000000001</ele><time>2026-04-04T06:52:10.948Z</time></trkpt><trkpt lat="45.422516103847904" lon="9.167229826865485"><ele>106.2</ele><time>2026-04-04T06:52:12.948Z</time></trkpt><trkpt lat="45.4224534837095" lon="9.167194413242184"><ele>105.6</ele><time>2026-04-04T06:52:13.948Z</time></trkpt><trkpt lat="45.42234918997179" lon="9.167119177567415"><ele>105.0</ele><time>2026-04-04T06:52:15.948Z</time></trkpt><trkpt lat="45.42224899890447" lon="9.167049156856873"><ele>105.0</ele><time>2026-04-04T06:52:17.948Z</time></trkpt><trkpt lat="45.42218410627896" lon="9.167040316539206"><ele>105.0</ele><time>2026-04-04T06:52:18.948Z</time></trkpt><trkpt lat="45.42207477686317" lon="9.166994413820035"><ele>105.0</ele><time>2026-04-04T06:52:20.948Z</time></trkpt><trkpt lat="45.421982566613096" lon="9.166905196322597"><ele>105.0</ele><time>2026-04-04T06:52:22.948Z</time></trkpt><trkpt lat="45.42189862774998" lon="9.166840297218847"><ele>105.0</ele><time>2026-04-04T06:52:24.948Z</time></trkpt><trkpt lat="45.42181877127633" lon="9.166781752949325"><ele>105.75</ele><time>2026-04-04T06:52:26.948Z</time></trkpt><trkpt lat="45.42175747665687" lon="9.16673413313395"><ele>106.5</ele><time>2026-04-04T06:52:27.948Z</time></trkpt><trkpt lat="45.421624096421795" lon="9.166697274939994"><ele>107.25</ele><time>2026-04-04T06:52:29.948Z</time></trkpt><trkpt lat="45.42150255660644" lon="9.166655171788964"><ele>108.0</ele><time>2026-04-04T06:52:31.948Z</time></trkpt><trkpt lat="45.42136086050998" lon="9.166612209005185"><ele>108.4</ele><time>2026-04-04T06:52:33.948Z</time></trkpt><trkpt lat="45.42125798603407" lon="9.166560026532277"><ele>108.80000000000001</ele><time>2026-04-04T06:52:35.948Z</time></trkpt><trkpt lat="45.42116038124395" lon="9.166493655753847"><ele>109.2</ele><time>2026-04-04T06:52:37.948Z</time></trkpt><trkpt lat="45.42104630209728" lon="9.166417558642948"><ele>109.6</ele><time>2026-04-04T06:52:39.948Z</time></trkpt><trkpt lat="45.42095531996639" lon="9.166351336223453"><ele>110.0</ele><time>2026-04-04T06:52:41.948Z</time></trkpt><trkpt lat="45.42084814263394" lon="9.166275782174413"><ele>109.2</ele><time>2026-04-04T06:52:43.948Z</time></trkpt><trkpt lat="45.42073553326357" lon="9.166197845892498"><ele>108.4</ele><time>2026-04-04T06:52:45.947Z</time></trkpt><trkpt lat="45.42066706301097" lon="9.166164259201821"><ele>107.6</ele><time>2026-04-04T06:52:46.947Z</time></trkpt><trkpt lat="45.42055752372982" lon="9.166110193801982"><ele>106.8</ele><time>2026-04-04T06:52:48.947Z</time></trkpt><trkpt lat="45.420450339868474" lon="9.166065821771952"><ele>106.0</ele><time>2026-04-04T06:52:50.947Z</time></trkpt><trkpt lat="45.42039042370036" lon="9.16603801107974"><ele>106.0</ele><time>2026-04-04T06:52:51.947Z</time></trkpt><trkpt lat="45.42028179000519" lon="9.165968558357049"><ele>106.0</ele><time>2026-04-04T06:52:53.947Z</time></trkpt><trkpt lat="45.42021197535032" lon="9.165940808773628"><ele>106.0</ele><time>2026-04-04T06:52:54.947Z</time></trkpt><trkpt lat="45.42009973260086" lon="9.165878197660426"><ele>106.0</ele><time>2026-04-04T06:52:56.947Z</time></trkpt><trkpt lat="45.419983451444416" lon="9.165832093732604"><ele>106.0</ele><time>2026-04-04T06:52:58.947Z</time></trkpt><trkpt lat="45.41992124974603" lon="9.165813986988068"><ele>106.00000000000001</ele><time>2026-04-04T06:52:59.947Z</time></trkpt><trkpt lat="45.419866695851276" lon="9.165767827357708"><ele>106.0</ele><time>2026-04-04T06:53:00.947Z</time></trkpt><trkpt lat="45.41980770841539" lon="9.165718441959648"><ele>106.0</ele><time>2026-04-04T06:53:01.947Z</time></trkpt><trkpt lat="45.41970022405865" lon="9.16565261076978"><ele>106.0</ele><time>2026-04-04T06:53:03.947Z</time></trkpt><trkpt lat="45.41964156501581" lon="9.165618377798802"><ele>106.00000000000001</ele><time>2026-04-04T06:53:04.947Z</time></trkpt><trkpt lat="45.41954161978364" lon="9.165536134851992"><ele>106.0</ele><time>2026-04-04T06:53:06.947Z</time></trkpt><trkpt lat="45.4194183388774" lon="9.165465881316818"><ele>105.8</ele><time>2026-04-04T06:53:08.947Z</time></trkpt><trkpt lat="45.41930951487124" lon="9.165415041334615"><ele>105.6</ele><time>2026-04-04T06:53:10.947Z</time></trkpt><trkpt lat="45.41924337502888" lon="9.165388082911795"><ele>105.4</ele><time>2026-04-04T06:53:11.947Z</time></trkpt><trkpt lat="45.419147001988975" lon="9.165325873021827"><ele>105.2</ele><time>2026-04-04T06:53:13.947Z</time></trkpt><trkpt lat="45.419034986849056" lon="9.165264041281665"><ele>105.0</ele><time>2026-04-04T06:53:15.947Z</time></trkpt><trkpt lat="45.41896919355396" lon="9.165226180662426"><ele>105.0</ele><time>2026-04-04T06:53:16.947Z</time></trkpt><trkpt lat="45.41883419998402" lon="9.165159789839999"><ele>105.0</ele><time>2026-04-04T06:53:18.947Z</time></trkpt><trkpt lat="45.41869909490093" lon="9.165102800287759"><ele>105.0</ele><time>2026-04-04T06:53:20.947Z</time></trkpt><trkpt lat="45.41864121944208" lon="9.165051630469728"><ele>105.0</ele><time>2026-04-04T06:53:21.947Z</time></trkpt><trkpt lat="45.4185725939651" lon="9.165011650583"><ele>105.0</ele><time>2026-04-04T06:53:22.947Z</time></trkpt><trkpt lat="45.418519179959134" lon="9.164962023500198"><ele>105.6</ele><time>2026-04-04T06:53:23.947Z</time></trkpt><trkpt lat="45.418448735716765" lon="9.16494124160434"><ele>106.2</ele><time>2026-04-04T06:53:25.947Z</time></trkpt><trkpt lat="45.41835104177437" lon="9.164862530731883"><ele>106.80000000000001</ele><time>2026-04-04T06:53:27.947Z</time></trkpt><trkpt lat="45.418240224286706" lon="9.164794472175917"><ele>107.4</ele><time>2026-04-04T06:53:29.947Z</time></trkpt><trkpt lat="45.41812610791633" lon="9.164761839454473"><ele>108.0</ele><time>2026-04-04T06:53:31.947Z</time></trkpt><trkpt lat="45.41803360835963" lon="9.164680247631743"><ele>107.60000000000001</ele><time>2026-04-04T06:53:33.947Z</time></trkpt><trkpt lat="45.417926763530964" lon="9.164612790149368"><ele>107.20000000000002</ele><time>2026-04-04T06:53:35.947Z</time></trkpt><trkpt lat="45.417816453752835" lon="9.16454106647958"><ele>106.8</ele><time>2026-04-04T06:53:37.947Z</time></trkpt><trkpt lat="45.41775517994292" lon="9.1645110737581"><ele>106.4</ele><time>2026-04-04T06:53:38.947Z</time></trkpt><trkpt lat="45.41767606421285" lon="9.164412368047495"><ele>106.0</ele><time>2026-04-04T06:53:40.947Z</time></trkpt><trkpt lat="45.41761086074891" lon="9.164380597470785"><ele>106.0</ele><time>2026-04-04T06:53:41.947Z</time></trkpt><trkpt lat="45.41753927090225" lon="9.16436079309532"><ele>106.0</ele><time>2026-04-04T06:53:42.947Z</time></trkpt><trkpt lat="45.41742101563753" lon="9.164287155095717"><ele>106.0</ele><time>2026-04-04T06:53:44.947Z</time></trkpt><trkpt lat="45.41730933812229" lon="9.164219728467268"><ele>106.0</ele><time>2026-04-04T06:53:46.947Z</time></trkpt><trkpt lat="45.41720832922221" lon="9.164117466287694"><ele>106.0</ele><time>2026-04-04T06:53:48.947Z</time></trkpt><trkpt lat="45.41713220660543" lon="9.164077674965284"><ele>105.6</ele><time>2026-04-04T06:53:49.947Z</time></trkpt><trkpt lat="45.417004215008895" lon="9.164039392903149"><ele>105.19999999999999</ele><time>2026-04-04T06:53:51.947Z</time></trkpt><trkpt lat="45.41691587914137" lon="9.163967516352077"><ele>104.80000000000001</ele><time>2026-04-04T06:53:53.947Z</time></trkpt><trkpt lat="45.416848033629904" lon="9.163951978743151"><ele>104.4</ele><time>2026-04-04T06:53:54.947Z</time></trkpt><trkpt lat="45.41679479329823" lon="9.163885589220024"><ele>104.0</ele><time>2026-04-04T06:53:55.947Z</time></trkpt><trkpt lat="45.41669217270018" lon="9.163841532693203"><ele>104.0</ele><time>2026-04-04T06:53:57.949Z</time></trkpt><trkpt lat="45.416587416879985" lon="9.163756378248737"><ele>104.0</ele><time>2026-04-04T06:53:59.949Z</time></trkpt><trkpt lat="45.41647201697119" lon="9.163692545667136"><ele>104.0</ele><time>2026-04-04T06:54:01.949Z</time></trkpt><trkpt lat="45.41641105287228" lon="9.163660553504121"><ele>104.0</ele><time>2026-04-04T06:54:02.949Z</time></trkpt><trkpt lat="45.41628046223578" lon="9.163630897196585"><ele>104.0</ele><time>2026-04-04T06:54:04.948Z</time></trkpt><trkpt lat="45.41621899333495" lon="9.163594055399813"><ele>104.33333333333333</ele><time>2026-04-04T06:54:05.948Z</time></trkpt><trkpt lat="45.41617058437322" lon="9.163536187778359"><ele>104.66666666666666</ele><time>2026-04-04T06:54:06.949Z</time></trkpt><trkpt lat="45.41609033399526" lon="9.163521645365364"><ele>105.0</ele><time>2026-04-04T06:54:07.949Z</time></trkpt><trkpt lat="45.41597609356684" lon="9.16344461132152"><ele>105.33333333333334</ele><time>2026-04-04T06:54:09.949Z</time></trkpt><trkpt lat="45.41590888037894" lon="9.163409390744713"><ele>105.66666666666667</ele><time>2026-04-04T06:54:10.949Z</time></trkpt><trkpt lat="45.41584072453508" lon="9.163366033379113"><ele>106.0</ele><time>2026-04-04T06:54:11.949Z</time></trkpt><trkpt lat="45.41578130045208" lon="9.163325916503327"><ele>106.0</ele><time>2026-04-04T06:54:12.949Z</time></trkpt><trkpt lat="45.415682278840734" lon="9.163262077004527"><ele>106.0</ele><time>2026-04-04T06:54:14.949Z</time></trkpt><trkpt lat="45.415573077313304" lon="9.163202037096731"><ele>106.0</ele><time>2026-04-04T06:54:16.949Z</time></trkpt><trkpt lat="45.415505777923194" lon="9.163175441931534"><ele>106.0</ele><time>2026-04-04T06:54:17.949Z</time></trkpt><trkpt lat="45.41544528399872" lon="9.16314446088481"><ele>106.0</ele><time>2026-04-04T06:54:18.949Z</time></trkpt><trkpt lat="45.41532326905067" lon="9.163091872150257"><ele>106.19999999999999</ele><time>2026-04-04T06:54:20.949Z</time></trkpt><trkpt lat="45.4152523121559" lon="9.163071211152934"><ele>106.39999999999999</ele><time>2026-04-04T06:54:21.949Z</time></trkpt><trkpt lat="45.41513990962842" lon="9.163003480543901"><ele>106.6</ele><time>2026-04-04T06:54:23.949Z</time></trkpt><trkpt lat="45.41503179145498" lon="9.162941240063608"><ele>106.8</ele><time>2026-04-04T06:54:25.949Z</time></trkpt><trkpt lat="45.41497242091275" lon="9.162911006512989"><ele>107.0</ele><time>2026-04-04T06:54:26.949Z</time></trkpt><trkpt lat="45.41486032629985" lon="9.162849757841956"><ele>106.99999999999999</ele><time>2026-04-04T06:54:28.949Z</time></trkpt><trkpt lat="45.41479961586116" lon="9.162823060230659"><ele>107.0</ele><time>2026-04-04T06:54:29.949Z</time></trkpt><trkpt lat="45.41469847570158" lon="9.162739774891921"><ele>107.0</ele><time>2026-04-04T06:54:31.949Z</time></trkpt><trkpt lat="45.41458707781191" lon="9.16268532689891"><ele>107.0</ele><time>2026-04-04T06:54:33.949Z</time></trkpt><trkpt lat="45.41452636509644" lon="9.16265440695266"><ele>106.99999999999999</ele><time>2026-04-04T06:54:34.949Z</time></trkpt><trkpt lat="45.41445820847376" lon="9.162624448624767"><ele>107.0</ele><time>2026-04-04T06:54:35.949Z</time></trkpt><trkpt lat="45.41439572678221" lon="9.162596636047375"><ele>107.19999999999999</ele><time>2026-04-04T06:54:36.949Z</time></trkpt><trkpt lat="45.41427817419688" lon="9.162530178737446"><ele>107.39999999999999</ele><time>2026-04-04T06:54:38.949Z</time></trkpt><trkpt lat="45.41417609411002" lon="9.162467980327595"><ele>107.60000000000001</ele><time>2026-04-04T06:54:40.949Z</time></trkpt><trkpt lat="45.414084414770386" lon="9.162405644379318"><ele>107.80000000000001</ele><time>2026-04-04T06:54:42.949Z</time></trkpt><trkpt lat="45.41402322514266" lon="9.162378343543237"><ele>108.0</ele><time>2026-04-04T06:54:43.949Z</time></trkpt><trkpt lat="45.41395673535265" lon="9.1623475151424"><ele>107.60000000000001</ele><time>2026-04-04T06:54:44.949Z</time></trkpt><trkpt lat="45.41384929681482" lon="9.162281165464368"><ele>107.20000000000002</ele><time>2026-04-04T06:54:46.948Z</time></trkpt><trkpt lat="45.413740418945814" lon="9.162217297304533"><ele>106.8</ele><time>2026-04-04T06:54:48.948Z</time></trkpt><trkpt lat="45.413620019365716" lon="9.16212968621155"><ele>106.4</ele><time>2026-04-04T06:54:50.948Z</time></trkpt><trkpt lat="45.41356057558553" lon="9.16209126808979"><ele>106.0</ele><time>2026-04-04T06:54:51.948Z</time></trkpt><trkpt lat="45.413507388304346" lon="9.162038083881919"><ele>105.83333333333334</ele><time>2026-04-04T06:54:52.948Z</time></trkpt><trkpt lat="45.41344905630009" lon="9.161996180506192"><ele>105.66666666666667</ele><time>2026-04-04T06:54:53.948Z</time></trkpt><trkpt lat="45.413351718703446" lon="9.161936540287405"><ele>105.5</ele><time>2026-04-04T06:54:55.948Z</time></trkpt><trkpt lat="45.41328733998578" lon="9.161925990162569"><ele>105.33333333333334</ele><time>2026-04-04T06:54:56.948Z</time></trkpt><trkpt lat="45.41319750944312" lon="9.161891650148835"><ele>105.16666666666667</ele><time>2026-04-04T06:54:57.948Z</time></trkpt><trkpt lat="45.41311233944008" lon="9.161821787953345"><ele>105.0</ele><time>2026-04-04T06:54:59.948Z</time></trkpt><trkpt lat="45.41299000766963" lon="9.16175382864112"><ele>105.16666666666667</ele><time>2026-04-04T06:55:01.948Z</time></trkpt><trkpt lat="45.41287865622334" lon="9.161684762280585"><ele>105.33333333333334</ele><time>2026-04-04T06:55:03.948Z</time></trkpt><trkpt lat="45.41282266434953" lon="9.161639415463927"><ele>105.5</ele><time>2026-04-04T06:55:04.948Z</time></trkpt><trkpt lat="45.412760807079835" lon="9.161601371761787"><ele>105.66666666666667</ele><time>2026-04-04T06:55:05.948Z</time></trkpt><trkpt lat="45.41265723918698" lon="9.16153367918548"><ele>105.83333333333334</ele><time>2026-04-04T06:55:07.948Z</time></trkpt><trkpt lat="45.4125999814428" lon="9.16148636206056"><ele>106.0</ele><time>2026-04-04T06:55:08.948Z</time></trkpt><trkpt lat="45.412540343107466" lon="9.161449202725747"><ele>106.19999999999999</ele><time>2026-04-04T06:55:09.948Z</time></trkpt><trkpt lat="45.41247791338931" lon="9.161421313524551"><ele>106.39999999999999</ele><time>2026-04-04T06:55:10.948Z</time></trkpt><trkpt lat="45.41236380403428" lon="9.161356917889334"><ele>106.6</ele><time>2026-04-04T06:55:12.948Z</time></trkpt><trkpt lat="45.41230557639939" lon="9.161318424580417"><ele>106.8</ele><time>2026-04-04T06:55:13.948Z</time></trkpt><trkpt lat="45.412194932294476" lon="9.16125335022486"><ele>107.0</ele><time>2026-04-04T06:55:15.948Z</time></trkpt><trkpt lat="45.4120823680889" lon="9.161200121261386"><ele>106.5</ele><time>2026-04-04T06:55:17.948Z</time></trkpt><trkpt lat="45.411980079631974" lon="9.161139237489646"><ele>106.0</ele><time>2026-04-04T06:55:19.948Z</time></trkpt><trkpt lat="45.41186176797366" lon="9.161072759664224"><ele>105.5</ele><time>2026-04-04T06:55:21.948Z</time></trkpt><trkpt lat="45.41176817360706" lon="9.160988978462404"><ele>105.0</ele><time>2026-04-04T06:55:23.948Z</time></trkpt><trkpt lat="45.41167738876219" lon="9.160911632911512"><ele>105.0</ele><time>2026-04-04T06:55:25.948Z</time></trkpt><trkpt lat="45.41161230346389" lon="9.160884866962649"><ele>105.0</ele><time>2026-04-04T06:55:26.948Z</time></trkpt><trkpt lat="45.41154527749685" lon="9.16085865308479"><ele>105.0</ele><time>2026-04-04T06:55:27.948Z</time></trkpt><trkpt lat="45.41143116302918" lon="9.16079025338974"><ele>105.0</ele><time>2026-04-04T06:55:29.948Z</time></trkpt><trkpt lat="45.41132188680405" lon="9.160723763535962"><ele>105.0</ele><time>2026-04-04T06:55:31.948Z</time></trkpt><trkpt lat="45.411212599309756" lon="9.16065262069226"><ele>104.4</ele><time>2026-04-04T06:55:33.948Z</time></trkpt><trkpt lat="45.41109257509993" lon="9.16058901888739"><ele>103.8</ele><time>2026-04-04T06:55:35.948Z</time></trkpt><trkpt lat="45.41099275494983" lon="9.160503315634648"><ele>103.19999999999999</ele><time>2026-04-04T06:55:37.948Z</time></trkpt><trkpt lat="45.410879545991044" lon="9.160427040049223"><ele>102.6</ele><time>2026-04-04T06:55:39.948Z</time></trkpt><trkpt lat="45.41081855994165" lon="9.160398348413123"><ele>102.0</ele><time>2026-04-04T06:55:40.948Z</time></trkpt><trkpt lat="45.41074704931884" lon="9.16034951208247"><ele>102.0</ele><time>2026-04-04T06:55:41.948Z</time></trkpt><trkpt lat="45.41065923561277" lon="9.160286853506138"><ele>102.0</ele><time>2026-04-04T06:55:43.948Z</time></trkpt><trkpt lat="45.410584460511714" lon="9.160262755561718"><ele>102.0</ele><time>2026-04-04T06:55:44.948Z</time></trkpt><trkpt lat="45.410486529206835" lon="9.160200689050793"><ele>102.0</ele><time>2026-04-04T06:55:46.948Z</time></trkpt><trkpt lat="45.41042185666508" lon="9.160160221773467"><ele>102.0</ele><time>2026-04-04T06:55:47.948Z</time></trkpt><trkpt lat="45.41031697420462" lon="9.160066013919083"><ele>102.19999999999999</ele><time>2026-04-04T06:55:49.948Z</time></trkpt><trkpt lat="45.41020803792318" lon="9.160000617128519"><ele>102.4</ele><time>2026-04-04T06:55:51.948Z</time></trkpt><trkpt lat="45.41009177686135" lon="9.15994696758964"><ele>102.6</ele><time>2026-04-04T06:55:53.948Z</time></trkpt><trkpt lat="45.41002642583095" lon="9.159907994691215"><ele>102.80000000000001</ele><time>2026-04-04T06:55:54.948Z</time></trkpt><trkpt lat="45.40995893056408" lon="9.159890976947317"><ele>103.0</ele><time>2026-04-04T06:55:55.948Z</time></trkpt><trkpt lat="45.409852554218574" lon="9.159815091289392"><ele>103.0</ele><time>2026-04-04T06:55:57.948Z</time></trkpt><trkpt lat="45.409790845940634" lon="9.159796498595162"><ele>103.0</ele><time>2026-04-04T06:55:58.948Z</time></trkpt><trkpt lat="45.40969238856128" lon="9.15972305088692"><ele>103.0</ele><time>2026-04-04T06:56:00.948Z</time></trkpt><trkpt lat="45.40959591064294" lon="9.159650709970963"><ele>103.0</ele><time>2026-04-04T06:56:02.95Z</time></trkpt><trkpt lat="45.40945885025092" lon="9.159591340000961"><ele>103.0</ele><time>2026-04-04T06:56:04.949Z</time></trkpt><trkpt lat="45.40940567216138" lon="9.159542109212296"><ele>103.4</ele><time>2026-04-04T06:56:05.949Z</time></trkpt><trkpt lat="45.40934643675048" lon="9.159504334148371"><ele>103.80000000000001</ele><time>2026-04-04T06:56:06.949Z</time></trkpt><trkpt lat="45.409247779678445" lon="9.15943195252449"><ele>104.2</ele><time>2026-04-04T06:56:08.949Z</time></trkpt><trkpt lat="45.40912692691378" lon="9.159379343717603"><ele>104.6</ele><time>2026-04-04T06:56:10.949Z</time></trkpt><trkpt lat="45.40901291714745" lon="9.15930538171269"><ele>105.0</ele><time>2026-04-04T06:56:12.95Z</time></trkpt><trkpt lat="45.408956554703515" lon="9.159264815852444"><ele>105.0</ele><time>2026-04-04T06:56:13.95Z</time></trkpt><trkpt lat="45.40888938575181" lon="9.159224915350663"><ele>105.0</ele><time>2026-04-04T06:56:14.949Z</time></trkpt><trkpt lat="45.40882928426255" lon="9.159189619826092"><ele>105.0</ele><time>2026-04-04T06:56:15.949Z</time></trkpt><trkpt lat="45.40876830230338" lon="9.159156311942821"><ele>105.0</ele><time>2026-04-04T06:56:16.949Z</time></trkpt><trkpt lat="45.40866149286883" lon="9.159097457781712"><ele>105.0</ele><time>2026-04-04T06:56:18.949Z</time></trkpt><trkpt lat="45.40860403738107" lon="9.15905187321942"><ele>105.0</ele><time>2026-04-04T06:56:19.949Z</time></trkpt><trkpt lat="45.40850607048632" lon="9.158970730057396"><ele>104.8</ele><time>2026-04-04T06:56:21.949Z</time></trkpt><trkpt lat="45.40839823543749" lon="9.15891516022478"><ele>104.6</ele><time>2026-04-04T06:56:23.949Z</time></trkpt><trkpt lat="45.40827651682928" lon="9.15886795144381"><ele>104.4</ele><time>2026-04-04T06:56:25.949Z</time></trkpt><trkpt lat="45.408209054962356" lon="9.158851969337928"><ele>104.2</ele><time>2026-04-04T06:56:26.949Z</time></trkpt><trkpt lat="45.4081193617014" lon="9.158770633009954"><ele>104.0</ele><time>2026-04-04T06:56:28.949Z</time></trkpt><trkpt lat="45.40800676485985" lon="9.158683732348804"><ele>104.16666666666666</ele><time>2026-04-04T06:56:30.949Z</time></trkpt><trkpt lat="45.40793812632829" lon="9.158666337403535"><ele>104.33333333333333</ele><time>2026-04-04T06:56:31.949Z</time></trkpt><trkpt lat="45.40786139274234" lon="9.158646848984187"><ele>104.5</ele><time>2026-04-04T06:56:32.949Z</time></trkpt><trkpt lat="45.40777257371533" lon="9.158537552753042"><ele>104.66666666666666</ele><time>2026-04-04T06:56:34.949Z</time></trkpt><trkpt lat="45.40772712358365" lon="9.158464594270095"><ele>104.83333333333333</ele><time>2026-04-04T06:56:35.949Z</time></trkpt><trkpt lat="45.407629037788894" lon="9.15838187096959"><ele>105.0</ele><time>2026-04-04T06:56:37.949Z</time></trkpt><trkpt lat="45.40751768591554" lon="9.158327827842038"><ele>105.0</ele><time>2026-04-04T06:56:39.949Z</time></trkpt><trkpt lat="45.40745545742034" lon="9.158311459197558"><ele>105.0</ele><time>2026-04-04T06:56:40.949Z</time></trkpt><trkpt lat="45.40734632300989" lon="9.158253328805456"><ele>105.0</ele><time>2026-04-04T06:56:42.949Z</time></trkpt><trkpt lat="45.40728574638633" lon="9.158220449399014"><ele>105.0</ele><time>2026-04-04T06:56:43.949Z</time></trkpt><trkpt lat="45.40722436112264" lon="9.158199088884304"><ele>105.0</ele><time>2026-04-04T06:56:44.949Z</time></trkpt><trkpt lat="45.40711705157275" lon="9.158134918178975"><ele>105.0</ele><time>2026-04-04T06:56:46.949Z</time></trkpt><trkpt lat="45.407016617771646" lon="9.158072606959092"><ele>105.4</ele><time>2026-04-04T06:56:48.949Z</time></trkpt><trkpt lat="45.40691472803132" lon="9.158009605592895"><ele>105.8</ele><time>2026-04-04T06:56:50.948Z</time></trkpt><trkpt lat="45.40681753953132" lon="9.157977527470118"><ele>106.19999999999999</ele><time>2026-04-04T06:56:52.948Z</time></trkpt><trkpt lat="45.4067117120122" lon="9.157924591042658"><ele>106.6</ele><time>2026-04-04T06:56:54.948Z</time></trkpt><trkpt lat="45.40661311036597" lon="9.15785790068843"><ele>107.0</ele><time>2026-04-04T06:56:56.948Z</time></trkpt><trkpt lat="45.40654942125464" lon="9.157816482712992"><ele>107.0</ele><time>2026-04-04T06:56:57.948Z</time></trkpt><trkpt lat="45.40643818128384" lon="9.157745402901568"><ele>106.99999999999999</ele><time>2026-04-04T06:56:59.948Z</time></trkpt><trkpt lat="45.40637674753727" lon="9.157699253922923"><ele>106.99999999999999</ele><time>2026-04-04T06:57:00.948Z</time></trkpt><trkpt lat="45.40631814167108" lon="9.157657580634657"><ele>107.0</ele><time>2026-04-04T06:57:01.948Z</time></trkpt><trkpt lat="45.40620302935663" lon="9.157594545139911"><ele>107.0</ele><time>2026-04-04T06:57:03.948Z</time></trkpt><trkpt lat="45.40609369700915" lon="9.157522510804585"><ele>106.99999999999999</ele><time>2026-04-04T06:57:05.948Z</time></trkpt><trkpt lat="45.405974974052434" lon="9.157470744814788"><ele>107.0</ele><time>2026-04-04T06:57:07.948Z</time></trkpt><trkpt lat="45.40590659082215" lon="9.15745992716696"><ele>107.0</ele><time>2026-04-04T06:57:08.948Z</time></trkpt><trkpt lat="45.405844713757084" lon="9.157419743671957"><ele>107.0</ele><time>2026-04-04T06:57:09.948Z</time></trkpt><trkpt lat="45.40573000061938" lon="9.157363147959382"><ele>106.99999999999999</ele><time>2026-04-04T06:57:11.948Z</time></trkpt><trkpt lat="45.40567107499865" lon="9.157328645136527"><ele>107.0</ele><time>2026-04-04T06:57:12.948Z</time></trkpt><trkpt lat="45.40561232979034" lon="9.157289464029047"><ele>107.0</ele><time>2026-04-04T06:57:13.948Z</time></trkpt><trkpt lat="45.405554103248456" lon="9.157248569504091"><ele>106.99999999999999</ele><time>2026-04-04T06:57:14.948Z</time></trkpt><trkpt lat="45.40549359273085" lon="9.157212589864749"><ele>106.99999999999999</ele><time>2026-04-04T06:57:15.948Z</time></trkpt><trkpt lat="45.405362529314644" lon="9.157144371874375"><ele>107.0</ele><time>2026-04-04T06:57:17.948Z</time></trkpt><trkpt lat="45.40530111968166" lon="9.157101379378828"><ele>107.0</ele><time>2026-04-04T06:57:18.948Z</time></trkpt><trkpt lat="45.4051913713783" lon="9.157051823912562"><ele>107.0</ele><time>2026-04-04T06:57:20.948Z</time></trkpt><trkpt lat="45.40513305497196" lon="9.157017914623035"><ele>106.99999999999999</ele><time>2026-04-04T06:57:21.948Z</time></trkpt><trkpt lat="45.40503831513625" lon="9.156945536667271"><ele>106.99999999999999</ele><time>2026-04-04T06:57:23.948Z</time></trkpt><trkpt lat="45.4049353596391" lon="9.156884097143433"><ele>107.0</ele><time>2026-04-04T06:57:25.948Z</time></trkpt><trkpt lat="45.404828151050815" lon="9.156815233878907"><ele>107.0</ele><time>2026-04-04T06:57:27.948Z</time></trkpt><trkpt lat="45.40476708649746" lon="9.15678226160325"><ele>106.8</ele><time>2026-04-04T06:57:28.948Z</time></trkpt><trkpt lat="45.404660802966106" lon="9.156710960073127"><ele>106.6</ele><time>2026-04-04T06:57:30.948Z</time></trkpt><trkpt lat="45.404602738040595" lon="9.156668950475934"><ele>106.39999999999999</ele><time>2026-04-04T06:57:31.948Z</time></trkpt><trkpt lat="45.40453716201016" lon="9.156630833541959"><ele>106.19999999999999</ele><time>2026-04-04T06:57:32.948Z</time></trkpt><trkpt lat="45.40443746803745" lon="9.156580114965708"><ele>106.0</ele><time>2026-04-04T06:57:34.948Z</time></trkpt><trkpt lat="45.40433808627194" lon="9.156508360145033"><ele>105.8</ele><time>2026-04-04T06:57:36.948Z</time></trkpt><trkpt lat="45.404241511842834" lon="9.156433443357237"><ele>105.6</ele><time>2026-04-04T06:57:38.948Z</time></trkpt><trkpt lat="45.40414348467736" lon="9.156401216088069"><ele>105.4</ele><time>2026-04-04T06:57:40.948Z</time></trkpt><trkpt lat="45.40403487025318" lon="9.156343183062317"><ele>105.2</ele><time>2026-04-04T06:57:42.948Z</time></trkpt><trkpt lat="45.40395345123345" lon="9.156277903498015"><ele>105.0</ele><time>2026-04-04T06:57:44.948Z</time></trkpt><trkpt lat="45.403866397137016" lon="9.156211663429595"><ele>105.5</ele><time>2026-04-04T06:57:46.948Z</time></trkpt><trkpt lat="45.40374490583295" lon="9.15615882716697"><ele>106.0</ele><time>2026-04-04T06:57:48.948Z</time></trkpt><trkpt lat="45.403645763623565" lon="9.156078733880342"><ele>106.5</ele><time>2026-04-04T06:57:50.948Z</time></trkpt><trkpt lat="45.40354281757212" lon="9.156013813192674"><ele>107.0</ele><time>2026-04-04T06:57:52.948Z</time></trkpt><trkpt lat="45.403446628501925" lon="9.155936839481454"><ele>106.99999999999999</ele><time>2026-04-04T06:57:54.948Z</time></trkpt><trkpt lat="45.40333943822442" lon="9.155889693035412"><ele>107.0</ele><time>2026-04-04T06:57:56.948Z</time></trkpt><trkpt lat="45.40323890203449" lon="9.155821376172646"><ele>107.0</ele><time>2026-04-04T06:57:58.948Z</time></trkpt><trkpt lat="45.40318021865549" lon="9.155785986196891"><ele>107.0</ele><time>2026-04-04T06:57:59.948Z</time></trkpt><trkpt lat="45.403103199396924" lon="9.155755687890547"><ele>106.99999999999999</ele><time>2026-04-04T06:58:00.948Z</time></trkpt><trkpt lat="45.40303395915596" lon="9.155718574528715"><ele>107.0</ele><time>2026-04-04T06:58:01.948Z</time></trkpt><trkpt lat="45.402918955393034" lon="9.155645845634726"><ele>106.66666666666666</ele><time>2026-04-04T06:58:03.948Z</time></trkpt><trkpt lat="45.40281941628799" lon="9.155577850357554"><ele>106.33333333333333</ele><time>2026-04-04T06:58:05.948Z</time></trkpt><trkpt lat="45.402702019991686" lon="9.155499414543431"><ele>106.0</ele><time>2026-04-04T06:58:07.948Z</time></trkpt><trkpt lat="45.40263795599165" lon="9.15546773710035"><ele>105.66666666666666</ele><time>2026-04-04T06:58:08.95Z</time></trkpt><trkpt lat="45.4025780626182" lon="9.155433256417275"><ele>105.33333333333333</ele><time>2026-04-04T06:58:09.95Z</time></trkpt><trkpt lat="45.402517720859954" lon="9.155393536153632"><ele>105.0</ele><time>2026-04-04T06:58:10.949Z</time></trkpt><trkpt lat="45.40241812103578" lon="9.155333058221801"><ele>105.0</ele><time>2026-04-04T06:58:12.95Z</time></trkpt><trkpt lat="45.402297498698914" lon="9.155232956053267"><ele>105.0</ele><time>2026-04-04T06:58:14.949Z</time></trkpt><trkpt lat="45.402224749559615" lon="9.155186987368529"><ele>105.0</ele><time>2026-04-04T06:58:15.95Z</time></trkpt><trkpt lat="45.40212855358207" lon="9.155129999544373"><ele>105.0</ele><time>2026-04-04T06:58:17.949Z</time></trkpt><trkpt lat="45.402063669733636" lon="9.155104644320346"><ele>105.0</ele><time>2026-04-04T06:58:18.95Z</time></trkpt><trkpt lat="45.401946302774945" lon="9.155025114206719"><ele>105.4</ele><time>2026-04-04T06:58:20.949Z</time></trkpt><trkpt lat="45.401887486230144" lon="9.154988920153048"><ele>105.8</ele><time>2026-04-04T06:58:21.95Z</time></trkpt><trkpt lat="45.401781012819356" lon="9.154938656303086"><ele>106.19999999999999</ele><time>2026-04-04T06:58:23.95Z</time></trkpt><trkpt lat="45.401672659606525" lon="9.154864746278735"><ele>106.6</ele><time>2026-04-04T06:58:25.95Z</time></trkpt><trkpt lat="45.401605046757325" lon="9.154829548387765"><ele>107.0</ele><time>2026-04-04T06:58:26.95Z</time></trkpt><trkpt lat="45.401501785849824" lon="9.154759974755265"><ele>107.19999999999999</ele><time>2026-04-04T06:58:28.95Z</time></trkpt><trkpt lat="45.401396310195004" lon="9.154676086230909"><ele>107.39999999999999</ele><time>2026-04-04T06:58:30.95Z</time></trkpt><trkpt lat="45.40127484479852" lon="9.15460566128632"><ele>107.60000000000001</ele><time>2026-04-04T06:58:32.95Z</time></trkpt><trkpt lat="45.4012139400572" lon="9.154570954292717"><ele>107.80000000000001</ele><time>2026-04-04T06:58:33.95Z</time></trkpt><trkpt lat="45.40114744278149" lon="9.154534967982173"><ele>108.0</ele><time>2026-04-04T06:58:34.95Z</time></trkpt><trkpt lat="45.40108411210602" lon="9.15450023624755"><ele>107.33333333333333</ele><time>2026-04-04T06:58:35.95Z</time></trkpt><trkpt lat="45.40102396053971" lon="9.154460018419126"><ele>106.66666666666666</ele><time>2026-04-04T06:58:36.95Z</time></trkpt><trkpt lat="45.400965215996344" lon="9.154413984242423"><ele>106.0</ele><time>2026-04-04T06:58:37.95Z</time></trkpt><trkpt lat="45.40089983249798" lon="9.154383995023188"><ele>105.33333333333333</ele><time>2026-04-04T06:58:38.95Z</time></trkpt><trkpt lat="45.40083358408617" lon="9.154340590854051"><ele>104.66666666666666</ele><time>2026-04-04T06:58:39.95Z</time></trkpt><trkpt lat="45.40077458250374" lon="9.154305620215238"><ele>104.0</ele><time>2026-04-04T06:58:40.95Z</time></trkpt><trkpt lat="45.40065415019895" lon="9.154245538598166"><ele>103.99999999999999</ele><time>2026-04-04T06:58:42.95Z</time></trkpt><trkpt lat="45.40060032041474" lon="9.154192062136715"><ele>104.0</ele><time>2026-04-04T06:58:43.95Z</time></trkpt><trkpt lat="45.40051532358286" lon="9.154153161338403"><ele>104.0</ele><time>2026-04-04T06:58:44.95Z</time></trkpt><trkpt lat="45.400443652834916" lon="9.154120201234536"><ele>104.0</ele><time>2026-04-04T06:58:45.95Z</time></trkpt><trkpt lat="45.400363302197164" lon="9.154082883232189"><ele>103.99999999999999</ele><time>2026-04-04T06:58:46.95Z</time></trkpt><trkpt lat="45.40029596758133" lon="9.154042644834153"><ele>104.0</ele><time>2026-04-04T06:58:47.95Z</time></trkpt><trkpt lat="45.400218968219896" lon="9.154005456656591"><ele>104.28571428571428</ele><time>2026-04-04T06:58:48.95Z</time></trkpt><trkpt lat="45.40016148521765" lon="9.153962854504869"><ele>104.57142857142858</ele><time>2026-04-04T06:58:49.95Z</time></trkpt><trkpt lat="45.40009913961422" lon="9.153926281704209"><ele>104.85714285714286</ele><time>2026-04-04T06:58:50.95Z</time></trkpt><trkpt lat="45.40003403506414" lon="9.153884401012823"><ele>105.14285714285714</ele><time>2026-04-04T06:58:51.95Z</time></trkpt><trkpt lat="45.39995980162576" lon="9.153847421914971"><ele>105.42857142857142</ele><time>2026-04-04T06:58:52.95Z</time></trkpt><trkpt lat="45.39988985237436" lon="9.153810145173436"><ele>105.71428571428572</ele><time>2026-04-04T06:58:53.95Z</time></trkpt><trkpt lat="45.39982647906327" lon="9.15376996982025"><ele>106.0</ele><time>2026-04-04T06:58:54.95Z</time></trkpt><trkpt lat="45.39975950065505" lon="9.153730425578157"><ele>106.0</ele><time>2026-04-04T06:58:55.95Z</time></trkpt><trkpt lat="45.3996882480631" lon="9.153690166022294"><ele>106.0</ele><time>2026-04-04T06:58:56.95Z</time></trkpt><trkpt lat="45.39962750980777" lon="9.153648936973598"><ele>106.0</ele><time>2026-04-04T06:58:57.95Z</time></trkpt><trkpt lat="45.39956122016599" lon="9.153613525144715"><ele>106.0</ele><time>2026-04-04T06:58:58.949Z</time></trkpt><trkpt lat="45.39948078965705" lon="9.153569703504361"><ele>106.0</ele><time>2026-04-04T06:58:59.949Z</time></trkpt><trkpt lat="45.39941163687143" lon="9.153533673957718"><ele>106.0</ele><time>2026-04-04T06:59:00.949Z</time></trkpt><trkpt lat="45.399346637364964" lon="9.15349838471124"><ele>106.0</ele><time>2026-04-04T06:59:01.949Z</time></trkpt><trkpt lat="45.39928327996785" lon="9.153450370052832"><ele>106.0</ele><time>2026-04-04T06:59:02.949Z</time></trkpt><trkpt lat="45.3992167933456" lon="9.153409333836507"><ele>106.0</ele><time>2026-04-04T06:59:03.949Z</time></trkpt><trkpt lat="45.39915290625468" lon="9.153370172879484"><ele>106.0</ele><time>2026-04-04T06:59:04.949Z</time></trkpt><trkpt lat="45.39907942927433" lon="9.153325943062342"><ele>106.0</ele><time>2026-04-04T06:59:05.949Z</time></trkpt><trkpt lat="45.39901675812985" lon="9.153288217876245"><ele>106.0</ele><time>2026-04-04T06:59:06.949Z</time></trkpt><trkpt lat="45.39895357743042" lon="9.153250185958687"><ele>106.0</ele><time>2026-04-04T06:59:07.949Z</time></trkpt><trkpt lat="45.39889219823078" lon="9.153212118635876"><ele>106.0</ele><time>2026-04-04T06:59:08.949Z</time></trkpt><trkpt lat="45.39882570407556" lon="9.153170951498803"><ele>106.00000000000001</ele><time>2026-04-04T06:59:09.949Z</time></trkpt><trkpt lat="45.39875812642881" lon="9.153139790037068"><ele>106.0</ele><time>2026-04-04T06:59:10.949Z</time></trkpt><trkpt lat="45.398700612728064" lon="9.153099828000105"><ele>106.0</ele><time>2026-04-04T06:59:11.949Z</time></trkpt><trkpt lat="45.39863862698993" lon="9.153065294489737"><ele>106.0</ele><time>2026-04-04T06:59:12.949Z</time></trkpt><trkpt lat="45.398575657958105" lon="9.153024860013447"><ele>106.00000000000001</ele><time>2026-04-04T06:59:13.949Z</time></trkpt><trkpt lat="45.39850351173651" lon="9.152988703028361"><ele>106.0</ele><time>2026-04-04T06:59:14.949Z</time></trkpt><trkpt lat="45.39838075233125" lon="9.152908878528034"><ele>106.00000000000001</ele><time>2026-04-04T06:59:16.949Z</time></trkpt><trkpt lat="45.3983251121217" lon="9.15286692166433"><ele>106.0</ele><time>2026-04-04T06:59:17.949Z</time></trkpt><trkpt lat="45.398201752380224" lon="9.15279180356682"><ele>106.0</ele><time>2026-04-04T06:59:19.949Z</time></trkpt><trkpt lat="45.39813360892029" lon="9.152757603106158"><ele>106.0</ele><time>2026-04-04T06:59:20.949Z</time></trkpt><trkpt lat="45.398074057707674" lon="9.152714045773005"><ele>106.00000000000001</ele><time>2026-04-04T06:59:21.949Z</time></trkpt><trkpt lat="45.39801069866689" lon="9.152677063468165"><ele>106.0</ele><time>2026-04-04T06:59:22.949Z</time></trkpt><trkpt lat="45.39794113982705" lon="9.152633910473044"><ele>106.4</ele><time>2026-04-04T06:59:23.949Z</time></trkpt><trkpt lat="45.397881116358086" lon="9.15259655696715"><ele>106.8</ele><time>2026-04-04T06:59:24.949Z</time></trkpt><trkpt lat="45.39777011018316" lon="9.152542858722713"><ele>107.20000000000002</ele><time>2026-04-04T06:59:26.949Z</time></trkpt><trkpt lat="45.397712124786096" lon="9.152507839086534"><ele>107.60000000000001</ele><time>2026-04-04T06:59:27.949Z</time></trkpt><trkpt lat="45.39760472868079" lon="9.152429345679295"><ele>108.0</ele><time>2026-04-04T06:59:29.949Z</time></trkpt><trkpt lat="45.39749046145649" lon="9.152360589682052"><ele>108.0</ele><time>2026-04-04T06:59:31.949Z</time></trkpt><trkpt lat="45.397382727431804" lon="9.152295801891832"><ele>108.0</ele><time>2026-04-04T06:59:33.949Z</time></trkpt><trkpt lat="45.39732220020579" lon="9.15226378493234"><ele>108.0</ele><time>2026-04-04T06:59:34.949Z</time></trkpt><trkpt lat="45.397216037047954" lon="9.152195189395647"><ele>108.0</ele><time>2026-04-04T06:59:36.949Z</time></trkpt><trkpt lat="45.39715469346692" lon="9.152157333394658"><ele>108.0</ele><time>2026-04-04T06:59:37.949Z</time></trkpt><trkpt lat="45.397094721056156" lon="9.152120323562626"><ele>108.0</ele><time>2026-04-04T06:59:38.949Z</time></trkpt><trkpt lat="45.39698414587659" lon="9.152052086040733"><ele>107.83333333333333</ele><time>2026-04-04T06:59:40.949Z</time></trkpt><trkpt lat="45.39690961150733" lon="9.15200857605806"><ele>107.66666666666666</ele><time>2026-04-04T06:59:41.949Z</time></trkpt><trkpt lat="45.39685110812326" lon="9.151969986542612"><ele>107.5</ele><time>2026-04-04T06:59:42.949Z</time></trkpt><trkpt lat="45.396729948050265" lon="9.151909398853071"><ele>107.33333333333333</ele><time>2026-04-04T06:59:44.949Z</time></trkpt><trkpt lat="45.39666711150306" lon="9.151871221055412"><ele>107.16666666666666</ele><time>2026-04-04T06:59:45.949Z</time></trkpt><trkpt lat="45.39660178343902" lon="9.151831529478835"><ele>107.0</ele><time>2026-04-04T06:59:46.949Z</time></trkpt><trkpt lat="45.39649585547231" lon="9.151756374519358"><ele>107.0</ele><time>2026-04-04T06:59:48.949Z</time></trkpt><trkpt lat="45.396394458560025" lon="9.151694842646275"><ele>106.99999999999999</ele><time>2026-04-04T06:59:50.949Z</time></trkpt><trkpt lat="45.39630771950939" lon="9.151643578554157"><ele>106.99999999999999</ele><time>2026-04-04T06:59:52.949Z</time></trkpt><trkpt lat="45.396191767022785" lon="9.151574920703862"><ele>107.0</ele><time>2026-04-04T06:59:54.949Z</time></trkpt><trkpt lat="45.39609610623823" lon="9.151518145039164"><ele>107.0</ele><time>2026-04-04T06:59:56.949Z</time></trkpt><trkpt lat="45.396008087948765" lon="9.151465474499904"><ele>106.8</ele><time>2026-04-04T06:59:58.949Z</time></trkpt><trkpt lat="45.39591019525321" lon="9.151406730912374"><ele>106.6</ele><time>2026-04-04T07:00:00.949Z</time></trkpt><trkpt lat="45.39581566417405" lon="9.151350004578553"><ele>106.39999999999999</ele><time>2026-04-04T07:00:02.949Z</time></trkpt><trkpt lat="45.39571934471122" lon="9.15128997761393"><ele>106.19999999999999</ele><time>2026-04-04T07:00:04.949Z</time></trkpt><trkpt lat="45.39565698644812" lon="9.151250920926076"><ele>106.0</ele><time>2026-04-04T07:00:06.949Z</time></trkpt><trkpt lat="45.395582783542245" lon="9.151207869236549"><ele>106.00000000000001</ele><time>2026-04-04T07:00:09.949Z</time></trkpt><trkpt lat="45.39551825642785" lon="9.151168255600599"><ele>106.0</ele><time>2026-04-04T07:00:11.949Z</time></trkpt><trkpt lat="45.39544989605699" lon="9.151126676504328"><ele>106.0</ele><time>2026-04-04T07:00:13.949Z</time></trkpt><trkpt lat="45.395359525963435" lon="9.151071984672667"><ele>106.0</ele><time>2026-04-04T07:00:15.95Z</time></trkpt><trkpt lat="45.39527450435747" lon="9.151019922056305"><ele>106.00000000000001</ele><time>2026-04-04T07:00:17.95Z</time></trkpt><trkpt lat="45.39518688057745" lon="9.150966395102547"><ele>106.0</ele><time>2026-04-04T07:00:19.95Z</time></trkpt><trkpt lat="45.395086805430566" lon="9.15090541582887"><ele>106.25</ele><time>2026-04-04T07:00:21.95Z</time></trkpt><trkpt lat="45.39497905337183" lon="9.150839156119813"><ele>106.5</ele><time>2026-04-04T07:00:23.95Z</time></trkpt><trkpt lat="45.394876735909165" lon="9.150776156872467"><ele>106.75</ele><time>2026-04-04T07:00:25.95Z</time></trkpt><trkpt lat="45.394761570371166" lon="9.150705415641307"><ele>107.0</ele><time>2026-04-04T07:00:27.95Z</time></trkpt><trkpt lat="45.39465159321004" lon="9.150638167835734"><ele>107.19999999999999</ele><time>2026-04-04T07:00:29.95Z</time></trkpt><trkpt lat="45.394540300020466" lon="9.150570115320749"><ele>107.39999999999999</ele><time>2026-04-04T07:00:31.95Z</time></trkpt><trkpt lat="45.39448233155636" lon="9.15053466931165"><ele>107.60000000000001</ele><time>2026-04-04T07:00:32.95Z</time></trkpt><trkpt lat="45.39437838851087" lon="9.150471733332143"><ele>107.80000000000001</ele><time>2026-04-04T07:00:34.95Z</time></trkpt><trkpt lat="45.394272407665255" lon="9.15040772564532"><ele>108.0</ele><time>2026-04-04T07:00:36.95Z</time></trkpt><trkpt lat="45.39416285161569" lon="9.150341558691084"><ele>108.0</ele><time>2026-04-04T07:00:38.95Z</time></trkpt><trkpt lat="45.39405571254459" lon="9.150276918139017"><ele>108.00000000000001</ele><time>2026-04-04T07:00:40.95Z</time></trkpt><trkpt lat="45.39396447160522" lon="9.150222100329552"><ele>108.00000000000001</ele><time>2026-04-04T07:00:42.95Z</time></trkpt><trkpt lat="45.393880243423965" lon="9.15017149581455"><ele>108.0</ele><time>2026-04-04T07:00:44.95Z</time></trkpt><trkpt lat="45.39378128200722" lon="9.150112039524299"><ele>108.0</ele><time>2026-04-04T07:00:46.95Z</time></trkpt><trkpt lat="45.39368288234541" lon="9.150052920722624"><ele>107.80000000000001</ele><time>2026-04-04T07:00:48.95Z</time></trkpt><trkpt lat="45.39359717117785" lon="9.150001425213555"><ele>107.60000000000001</ele><time>2026-04-04T07:00:50.95Z</time></trkpt><trkpt lat="45.393503336332714" lon="9.149945048977925"><ele>107.39999999999999</ele><time>2026-04-04T07:00:52.95Z</time></trkpt><trkpt lat="45.39340983390764" lon="9.14988887246392"><ele>107.19999999999999</ele><time>2026-04-04T07:00:54.95Z</time></trkpt><trkpt lat="45.39330962250779" lon="9.149805937341696"><ele>107.0</ele><time>2026-04-04T07:00:56.95Z</time></trkpt><trkpt lat="45.393252262213565" lon="9.149756139689392"><ele>106.8</ele><time>2026-04-04T07:00:57.95Z</time></trkpt><trkpt lat="45.393190569812774" lon="9.14972877929677"><ele>106.6</ele><time>2026-04-04T07:00:58.95Z</time></trkpt><trkpt lat="45.39309231136304" lon="9.149666186088224"><ele>106.39999999999999</ele><time>2026-04-04T07:01:00.95Z</time></trkpt><trkpt lat="45.39297899955652" lon="9.149599923845006"><ele>106.19999999999999</ele><time>2026-04-04T07:01:02.95Z</time></trkpt><trkpt lat="45.39292124001831" lon="9.149561621786626"><ele>106.0</ele><time>2026-04-04T07:01:03.95Z</time></trkpt><trkpt lat="45.392816614942475" lon="9.149502752275705"><ele>106.0</ele><time>2026-04-04T07:01:05.95Z</time></trkpt><trkpt lat="45.39270081688594" lon="9.14943184157924"><ele>106.0</ele><time>2026-04-04T07:01:07.95Z</time></trkpt><trkpt lat="45.392587660860606" lon="9.149361587014791"><ele>106.0</ele><time>2026-04-04T07:01:09.95Z</time></trkpt><trkpt lat="45.39247466926877" lon="9.149294935454733"><ele>106.0</ele><time>2026-04-04T07:01:11.95Z</time></trkpt><trkpt lat="45.39235686828847" lon="9.149221867276708"><ele>106.0</ele><time>2026-04-04T07:01:13.95Z</time></trkpt><trkpt lat="45.39229782542059" lon="9.149186687235527"><ele>106.0</ele><time>2026-04-04T07:01:14.95Z</time></trkpt><trkpt lat="45.39220675888003" lon="9.149128992950347"><ele>106.0</ele><time>2026-04-04T07:01:16.95Z</time></trkpt><trkpt lat="45.39210108150446" lon="9.149079069463928"><ele>106.0</ele><time>2026-04-04T07:01:18.95Z</time></trkpt><trkpt lat="45.39200292300743" lon="9.149028216351239"><ele>106.0</ele><time>2026-04-04T07:01:20.95Z</time></trkpt><trkpt lat="45.3919064554904" lon="9.14896606027781"><ele>105.6</ele><time>2026-04-04T07:01:22.95Z</time></trkpt><trkpt lat="45.39184481146148" lon="9.14893794511944"><ele>105.19999999999999</ele><time>2026-04-04T07:01:23.95Z</time></trkpt><trkpt lat="45.39173895685806" lon="9.148880780810629"><ele>104.80000000000001</ele><time>2026-04-04T07:01:25.95Z</time></trkpt><trkpt lat="45.39164338470055" lon="9.148808019733657"><ele>104.4</ele><time>2026-04-04T07:01:27.95Z</time></trkpt><trkpt lat="45.39153662401392" lon="9.148740494101968"><ele>104.0</ele><time>2026-04-04T07:01:29.95Z</time></trkpt><trkpt lat="45.39145537230995" lon="9.148658824297687"><ele>103.99999999999999</ele><time>2026-04-04T07:01:31.95Z</time></trkpt><trkpt lat="45.391356215555575" lon="9.148599194641045"><ele>104.0</ele><time>2026-04-04T07:01:33.95Z</time></trkpt><trkpt lat="45.39123276046727" lon="9.148551707782094"><ele>104.0</ele><time>2026-04-04T07:01:35.95Z</time></trkpt><trkpt lat="45.39117300741759" lon="9.14851603219556"><ele>104.0</ele><time>2026-04-04T07:01:36.95Z</time></trkpt><trkpt lat="45.39111303296417" lon="9.148482025617591"><ele>103.99999999999999</ele><time>2026-04-04T07:01:37.949Z</time></trkpt><trkpt lat="45.39104844238686" lon="9.148440809362459"><ele>104.0</ele><time>2026-04-04T07:01:39.949Z</time></trkpt><trkpt lat="45.39097171364846" lon="9.148400695517552"><ele>103.99999999999999</ele><time>2026-04-04T07:01:41.949Z</time></trkpt><trkpt lat="45.390888105411015" lon="9.148361040371753"><ele>104.0</ele><time>2026-04-04T07:01:43.949Z</time></trkpt><trkpt lat="45.39083099579654" lon="9.148298413129533"><ele>104.0</ele><time>2026-04-04T07:01:45.949Z</time></trkpt><trkpt lat="45.39078709702187" lon="9.148223213268754"><ele>104.0</ele><time>2026-04-04T07:01:47.949Z</time></trkpt><trkpt lat="45.39071253897356" lon="9.148180990492296"><ele>103.99999999999999</ele><time>2026-04-04T07:01:49.949Z</time></trkpt><trkpt lat="45.39063979084044" lon="9.148171776844013"><ele>104.0</ele><time>2026-04-04T07:01:51.949Z</time></trkpt><trkpt lat="45.390541260819376" lon="9.14814597879"><ele>103.4</ele><time>2026-04-04T07:01:53.949Z</time></trkpt><trkpt lat="45.39043651528188" lon="9.148103616781565"><ele>102.80000000000001</ele><time>2026-04-04T07:01:55.949Z</time></trkpt><trkpt lat="45.390318887999" lon="9.148032127634623"><ele>102.19999999999999</ele><time>2026-04-04T07:01:57.949Z</time></trkpt><trkpt lat="45.390208359497976" lon="9.147984848016163"><ele>101.6</ele><time>2026-04-04T07:01:59.949Z</time></trkpt><trkpt lat="45.39015019705292" lon="9.14794872014808"><ele>101.0</ele><time>2026-04-04T07:02:00.949Z</time></trkpt><trkpt lat="45.39007592413024" lon="9.147913858223239"><ele>101.0</ele><time>2026-04-04T07:02:01.949Z</time></trkpt><trkpt lat="45.390007795448845" lon="9.147885722755278"><ele>101.0</ele><time>2026-04-04T07:02:02.949Z</time></trkpt><trkpt lat="45.38994403184685" lon="9.147861730885294"><ele>101.0</ele><time>2026-04-04T07:02:03.949Z</time></trkpt><trkpt lat="45.38986547522432" lon="9.14785844787362"><ele>101.0</ele><time>2026-04-04T07:02:04.949Z</time></trkpt><trkpt lat="45.38976766677431" lon="9.147758701326195"><ele>101.0</ele><time>2026-04-04T07:02:06.949Z</time></trkpt><trkpt lat="45.38966067023412" lon="9.147703629349321"><ele>101.19999999999999</ele><time>2026-04-04T07:02:08.949Z</time></trkpt><trkpt lat="45.38959957567576" lon="9.147680061654887"><ele>101.39999999999999</ele><time>2026-04-04T07:02:09.949Z</time></trkpt><trkpt lat="45.38948973993091" lon="9.147623281232502"><ele>101.6</ele><time>2026-04-04T07:02:11.949Z</time></trkpt><trkpt lat="45.389376700931045" lon="9.147558259265104"><ele>101.8</ele><time>2026-04-04T07:02:13.949Z</time></trkpt><trkpt lat="45.38927580223784" lon="9.147488627296003"><ele>102.0</ele><time>2026-04-04T07:02:15.949Z</time></trkpt><trkpt lat="45.38921455356116" lon="9.147462893088884"><ele>102.0</ele><time>2026-04-04T07:02:16.949Z</time></trkpt><trkpt lat="45.389101646096634" lon="9.147400097526374"><ele>102.0</ele><time>2026-04-04T07:02:18.949Z</time></trkpt><trkpt lat="45.388995472147535" lon="9.147340741248938"><ele>102.0</ele><time>2026-04-04T07:02:20.95Z</time></trkpt><trkpt lat="45.388917676613254" lon="9.147281531550677"><ele>102.0</ele><time>2026-04-04T07:02:22.951Z</time></trkpt><trkpt lat="45.388825868031994" lon="9.147213850096763"><ele>102.0</ele><time>2026-04-04T07:02:24.95Z</time></trkpt><trkpt lat="45.388760390689356" lon="9.1471912701012"><ele>102.0</ele><time>2026-04-04T07:02:25.95Z</time></trkpt><trkpt lat="45.38865773051477" lon="9.147128475773048"><ele>102.0</ele><time>2026-04-04T07:02:27.951Z</time></trkpt><trkpt lat="45.38856387392444" lon="9.14706431037517"><ele>102.0</ele><time>2026-04-04T07:02:29.951Z</time></trkpt><trkpt lat="45.3884651963801" lon="9.147004469569485"><ele>102.0</ele><time>2026-04-04T07:02:31.95Z</time></trkpt><trkpt lat="45.38837402516058" lon="9.14693576056505"><ele>102.0</ele><time>2026-04-04T07:02:33.95Z</time></trkpt><trkpt lat="45.38825892591335" lon="9.146881805515662"><ele>102.0</ele><time>2026-04-04T07:02:35.95Z</time></trkpt><trkpt lat="45.38819670070179" lon="9.14686578077013"><ele>102.0</ele><time>2026-04-04T07:02:36.95Z</time></trkpt><trkpt lat="45.38808882594005" lon="9.14680357772276"><ele>102.0</ele><time>2026-04-04T07:02:38.95Z</time></trkpt><trkpt lat="45.38798444296105" lon="9.146742901034738"><ele>102.0</ele><time>2026-04-04T07:02:40.95Z</time></trkpt><trkpt lat="45.387889821187024" lon="9.146690732238556"><ele>102.0</ele><time>2026-04-04T07:02:42.95Z</time></trkpt><trkpt lat="45.38778833907894" lon="9.146622894162977"><ele>102.19999999999999</ele><time>2026-04-04T07:02:44.95Z</time></trkpt><trkpt lat="45.387677533071205" lon="9.14656827028708"><ele>102.4</ele><time>2026-04-04T07:02:46.95Z</time></trkpt><trkpt lat="45.387578094329314" lon="9.14651474386903"><ele>102.6</ele><time>2026-04-04T07:02:48.95Z</time></trkpt><trkpt lat="45.38747171649902" lon="9.146452977838054"><ele>102.80000000000001</ele><time>2026-04-04T07:02:50.95Z</time></trkpt><trkpt lat="45.387372118009516" lon="9.146389583644362"><ele>103.0</ele><time>2026-04-04T07:02:52.95Z</time></trkpt><trkpt lat="45.38727499674416" lon="9.146313496644478"><ele>103.2</ele><time>2026-04-04T07:02:54.95Z</time></trkpt><trkpt lat="45.38718207461166" lon="9.146249829831174"><ele>103.4</ele><time>2026-04-04T07:02:56.95Z</time></trkpt><trkpt lat="45.38707683325083" lon="9.146185538416786"><ele>103.60000000000001</ele><time>2026-04-04T07:02:58.95Z</time></trkpt><trkpt lat="45.38698129166878" lon="9.14615332696511"><ele>103.80000000000001</ele><time>2026-04-04T07:03:00.95Z</time></trkpt><trkpt lat="45.386872659720254" lon="9.14612355492776"><ele>104.0</ele><time>2026-04-04T07:03:02.95Z</time></trkpt><trkpt lat="45.38676519417256" lon="9.146074474565046"><ele>104.0</ele><time>2026-04-04T07:03:04.95Z</time></trkpt><trkpt lat="45.386657045056964" lon="9.14600273070921"><ele>104.0</ele><time>2026-04-04T07:03:06.95Z</time></trkpt><trkpt lat="45.386542503044026" lon="9.14595279781829"><ele>104.0</ele><time>2026-04-04T07:03:08.95Z</time></trkpt><trkpt lat="45.386429240016405" lon="9.145911418019802"><ele>104.0</ele><time>2026-04-04T07:03:10.95Z</time></trkpt><trkpt lat="45.38632857241267" lon="9.14582278674968"><ele>104.0</ele><time>2026-04-04T07:03:12.95Z</time></trkpt><trkpt lat="45.386238330351645" lon="9.14576459536821"><ele>104.0</ele><time>2026-04-04T07:03:14.95Z</time></trkpt><trkpt lat="45.38612150891412" lon="9.145704961698963"><ele>104.0</ele><time>2026-04-04T07:03:16.95Z</time></trkpt><trkpt lat="45.386027297811005" lon="9.145649308842408"><ele>104.0</ele><time>2026-04-04T07:03:18.95Z</time></trkpt><trkpt lat="45.38591303531594" lon="9.145612579807581"><ele>104.0</ele><time>2026-04-04T07:03:20.95Z</time></trkpt><trkpt lat="45.38582470468561" lon="9.145561975890782"><ele>103.80000000000001</ele><time>2026-04-04T07:03:22.95Z</time></trkpt><trkpt lat="45.385717732445556" lon="9.145506993882242"><ele>103.60000000000001</ele><time>2026-04-04T07:03:24.95Z</time></trkpt><trkpt lat="45.38563343701504" lon="9.145435770080974"><ele>103.4</ele><time>2026-04-04T07:03:26.95Z</time></trkpt><trkpt lat="45.38553396011119" lon="9.145383140360725"><ele>103.2</ele><time>2026-04-04T07:03:28.95Z</time></trkpt><trkpt lat="45.38542380038314" lon="9.145341332594102"><ele>103.0</ele><time>2026-04-04T07:03:30.95Z</time></trkpt><trkpt lat="45.38533140367237" lon="9.145279169182933"><ele>103.00000000000001</ele><time>2026-04-04T07:03:32.95Z</time></trkpt><trkpt lat="45.38526435000238" lon="9.145248250879284"><ele>103.0</ele><time>2026-04-04T07:03:33.95Z</time></trkpt><trkpt lat="45.38520445417289" lon="9.145206053495478"><ele>103.0</ele><time>2026-04-04T07:03:34.95Z</time></trkpt><trkpt lat="45.385136213859916" lon="9.145180562450543"><ele>103.0</ele><time>2026-04-04T07:03:35.95Z</time></trkpt><trkpt lat="45.385057586773094" lon="9.14511912287814"><ele>103.00000000000001</ele><time>2026-04-04T07:03:37.95Z</time></trkpt><trkpt lat="45.38493785662464" lon="9.145065537138244"><ele>103.0</ele><time>2026-04-04T07:03:39.95Z</time></trkpt><trkpt lat="45.384863321534986" lon="9.145031016138716"><ele>103.0</ele><time>2026-04-04T07:03:40.95Z</time></trkpt><trkpt lat="45.38474210142384" lon="9.144977537260369"><ele>103.0</ele><time>2026-04-04T07:03:42.95Z</time></trkpt><trkpt lat="45.38465906102771" lon="9.14491900000377"><ele>103.0</ele><time>2026-04-04T07:03:44.95Z</time></trkpt><trkpt lat="45.3845665803758" lon="9.144859455138963"><ele>103.0</ele><time>2026-04-04T07:03:46.95Z</time></trkpt><trkpt lat="45.384495187977095" lon="9.144785766875481"><ele>103.0</ele><time>2026-04-04T07:03:48.95Z</time></trkpt><trkpt lat="45.38439488216303" lon="9.144728941974927"><ele>102.4</ele><time>2026-04-04T07:03:50.95Z</time></trkpt><trkpt lat="45.38429109800934" lon="9.144681637341579"><ele>101.80000000000001</ele><time>2026-04-04T07:03:52.95Z</time></trkpt><trkpt lat="45.38419257899108" lon="9.14462788180591"><ele>101.2</ele><time>2026-04-04T07:03:54.95Z</time></trkpt><trkpt lat="45.38409278954172" lon="9.144576991910807"><ele>100.6</ele><time>2026-04-04T07:03:56.95Z</time></trkpt><trkpt lat="45.38398759663778" lon="9.144525770769526"><ele>100.0</ele><time>2026-04-04T07:03:58.95Z</time></trkpt><trkpt lat="45.38388761022687" lon="9.144463940518895"><ele>100.2</ele><time>2026-04-04T07:04:00.95Z</time></trkpt><trkpt lat="45.38377633645566" lon="9.144408431375052"><ele>100.4</ele><time>2026-04-04T07:04:02.949Z</time></trkpt><trkpt lat="45.383703152529364" lon="9.144370813761672"><ele>100.6</ele><time>2026-04-04T07:04:03.949Z</time></trkpt><trkpt lat="45.38358795001918" lon="9.144310181605578"><ele>100.8</ele><time>2026-04-04T07:04:05.949Z</time></trkpt><trkpt lat="45.383485935983046" lon="9.144256757575924"><ele>101.0</ele><time>2026-04-04T07:04:07.949Z</time></trkpt><trkpt lat="45.38338988862241" lon="9.144205314627834"><ele>101.0</ele><time>2026-04-04T07:04:09.948Z</time></trkpt><trkpt lat="45.38328661696836" lon="9.144147983202117"><ele>101.0</ele><time>2026-04-04T07:04:11.946Z</time></trkpt><trkpt lat="45.38319078956805" lon="9.144087353581662"><ele>101.0</ele><time>2026-04-04T07:04:13.944Z</time></trkpt><trkpt lat="45.38309035043287" lon="9.14403399882137"><ele>101.0</ele><time>2026-04-04T07:04:15.943Z</time></trkpt><trkpt lat="45.38298142356085" lon="9.14395878099419"><ele>101.0</ele><time>2026-04-04T07:04:17.941Z</time></trkpt><trkpt lat="45.382920078923256" lon="9.14393469137634"><ele>101.19999999999999</ele><time>2026-04-04T07:04:18.941Z</time></trkpt><trkpt lat="45.38285552418536" lon="9.143917497504559"><ele>101.39999999999999</ele><time>2026-04-04T07:04:19.94Z</time></trkpt><trkpt lat="45.38274881059859" lon="9.14386207307679"><ele>101.6</ele><time>2026-04-04T07:04:21.939Z</time></trkpt><trkpt lat="45.38265143408543" lon="9.1437919975815"><ele>101.8</ele><time>2026-04-04T07:04:23.938Z</time></trkpt><trkpt lat="45.38255493967229" lon="9.143732927335089"><ele>102.0</ele><time>2026-04-04T07:04:25.937Z</time></trkpt><trkpt lat="45.38244259474162" lon="9.14370325129744"><ele>102.0</ele><time>2026-04-04T07:04:27.938Z</time></trkpt><trkpt lat="45.382354696360174" lon="9.143615408219633"><ele>102.0</ele><time>2026-04-04T07:04:29.938Z</time></trkpt><trkpt lat="45.38227364417105" lon="9.143561536567278"><ele>102.0</ele><time>2026-04-04T07:04:31.937Z</time></trkpt><trkpt lat="45.38218807034851" lon="9.143492611006625"><ele>102.0</ele><time>2026-04-04T07:04:33.936Z</time></trkpt><trkpt lat="45.382069695214604" lon="9.143450214191866"><ele>102.0</ele><time>2026-04-04T07:04:35.936Z</time></trkpt><trkpt lat="45.38197013818707" lon="9.143408997328534"><ele>102.6</ele><time>2026-04-04T07:04:37.936Z</time></trkpt><trkpt lat="45.381865449647776" lon="9.14334854149289"><ele>103.19999999999999</ele><time>2026-04-04T07:04:39.936Z</time></trkpt><trkpt lat="45.38176444300339" lon="9.14328713435325"><ele>103.8</ele><time>2026-04-04T07:04:41.935Z</time></trkpt><trkpt lat="45.38170389647458" lon="9.143254040035272"><ele>104.4</ele><time>2026-04-04T07:04:42.935Z</time></trkpt><trkpt lat="45.38164355948912" lon="9.14322354839338"><ele>105.0</ele><time>2026-04-04T07:04:43.935Z</time></trkpt><trkpt lat="45.381544829849396" lon="9.143163843787484"><ele>105.0</ele><time>2026-04-04T07:04:45.935Z</time></trkpt><trkpt lat="45.38143613428479" lon="9.143100207342078"><ele>105.0</ele><time>2026-04-04T07:04:47.935Z</time></trkpt><trkpt lat="45.38132610667619" lon="9.14302942857054"><ele>105.0</ele><time>2026-04-04T07:04:49.934Z</time></trkpt><trkpt lat="45.38122972137559" lon="9.142987848735677"><ele>105.0</ele><time>2026-04-04T07:04:51.934Z</time></trkpt><trkpt lat="45.38116422120767" lon="9.142919297961852"><ele>105.0</ele><time>2026-04-04T07:04:53.934Z</time></trkpt><trkpt lat="45.381077937962054" lon="9.142898519248547"><ele>105.0</ele><time>2026-04-04T07:04:55.934Z</time></trkpt><trkpt lat="45.38098295401215" lon="9.142895618532128"><ele>105.0</ele><time>2026-04-04T07:04:57.934Z</time></trkpt><trkpt lat="45.380933046769975" lon="9.14282137586199"><ele>105.0</ele><time>2026-04-04T07:04:59.934Z</time></trkpt><trkpt lat="45.38087012621944" lon="9.142768779565564"><ele>105.0</ele><time>2026-04-04T07:05:01.934Z</time></trkpt><trkpt lat="45.38076928598376" lon="9.142747116656823"><ele>105.0</ele><time>2026-04-04T07:05:03.933Z</time></trkpt><trkpt lat="45.38070267707586" lon="9.14269274533103"><ele>105.0</ele><time>2026-04-04T07:05:05.933Z</time></trkpt><trkpt lat="45.38064118804059" lon="9.142663843642033"><ele>105.0</ele><time>2026-04-04T07:05:07.933Z</time></trkpt><trkpt lat="45.3805751598215" lon="9.142629990790896"><ele>105.0</ele><time>2026-04-04T07:05:09.933Z</time></trkpt><trkpt lat="45.3804919499872" lon="9.142575496187792"><ele>105.0</ele><time>2026-04-04T07:05:11.933Z</time></trkpt><trkpt lat="45.38042111319666" lon="9.14255917253458"><ele>105.0</ele><time>2026-04-04T07:05:12.933Z</time></trkpt><trkpt lat="45.3802980579541" lon="9.142502619962851"><ele>105.0</ele><time>2026-04-04T07:05:14.933Z</time></trkpt><trkpt lat="45.380231753023345" lon="9.142475245482656"><ele>105.0</ele><time>2026-04-04T07:05:15.933Z</time></trkpt><trkpt lat="45.380187753176386" lon="9.142379141539198"><ele>104.5</ele><time>2026-04-04T07:05:16.933Z</time></trkpt><trkpt lat="45.38011917083462" lon="9.142343291401202"><ele>104.0</ele><time>2026-04-04T07:05:17.933Z</time></trkpt><trkpt lat="45.38000194170964" lon="9.142300287829915"><ele>103.5</ele><time>2026-04-04T07:05:19.933Z</time></trkpt><trkpt lat="45.3799337320687" lon="9.14227409322619"><ele>103.0</ele><time>2026-04-04T07:05:20.933Z</time></trkpt><trkpt lat="45.37987008608087" lon="9.14224034976049"><ele>102.5</ele><time>2026-04-04T07:05:21.933Z</time></trkpt><trkpt lat="45.37980171509207" lon="9.142213252421978"><ele>102.0</ele><time>2026-04-04T07:05:22.933Z</time></trkpt><trkpt lat="45.37973948983755" lon="9.142184652913606"><ele>101.66666666666667</ele><time>2026-04-04T07:05:23.933Z</time></trkpt><trkpt lat="45.37968034554381" lon="9.1421496483963"><ele>101.33333333333334</ele><time>2026-04-04T07:05:24.933Z</time></trkpt><trkpt lat="45.37961572822817" lon="9.142116428816461"><ele>101.0</ele><time>2026-04-04T07:05:25.933Z</time></trkpt><trkpt lat="45.37955083286303" lon="9.142079807347216"><ele>100.66666666666667</ele><time>2026-04-04T07:05:26.933Z</time></trkpt><trkpt lat="45.37948896075373" lon="9.142045292015727"><ele>100.33333333333334</ele><time>2026-04-04T07:05:27.933Z</time></trkpt><trkpt lat="45.37939314391918" lon="9.141970495828982"><ele>100.0</ele><time>2026-04-04T07:05:29.933Z</time></trkpt><trkpt lat="45.37929157355363" lon="9.14192596667533"><ele>100.0</ele><time>2026-04-04T07:05:31.933Z</time></trkpt><trkpt lat="45.37919084652238" lon="9.141863731493505"><ele>100.0</ele><time>2026-04-04T07:05:33.933Z</time></trkpt><trkpt lat="45.37908996057909" lon="9.141806837171277"><ele>100.0</ele><time>2026-04-04T07:05:35.933Z</time></trkpt><trkpt lat="45.378993926594525" lon="9.141752447332458"><ele>100.0</ele><time>2026-04-04T07:05:37.932Z</time></trkpt><trkpt lat="45.378881200801125" lon="9.141687123689076"><ele>100.0</ele><time>2026-04-04T07:05:39.932Z</time></trkpt><trkpt lat="45.37881601095768" lon="9.141654644219809"><ele>99.75</ele><time>2026-04-04T07:05:40.932Z</time></trkpt><trkpt lat="45.37870941440893" lon="9.14160101154595"><ele>99.5</ele><time>2026-04-04T07:05:42.932Z</time></trkpt><trkpt lat="45.37860060170348" lon="9.141518785288943"><ele>99.25</ele><time>2026-04-04T07:05:44.932Z</time></trkpt><trkpt lat="45.378481851872166" lon="9.141474464197058"><ele>99.0</ele><time>2026-04-04T07:05:46.932Z</time></trkpt><trkpt lat="45.37838364379221" lon="9.141422063031294"><ele>99.0</ele><time>2026-04-04T07:05:48.932Z</time></trkpt><trkpt lat="45.3782931799439" lon="9.141365503505172"><ele>99.0</ele><time>2026-04-04T07:05:50.932Z</time></trkpt><trkpt lat="45.37820382681367" lon="9.14128570039894"><ele>99.0</ele><time>2026-04-04T07:05:52.932Z</time></trkpt><trkpt lat="45.37811234558268" lon="9.141259712201558"><ele>99.0</ele><time>2026-04-04T07:05:54.932Z</time></trkpt><trkpt lat="45.378019211853534" lon="9.141225111514034"><ele>99.0</ele><time>2026-04-04T07:05:56.932Z</time></trkpt><trkpt lat="45.377962404150786" lon="9.141182878106273"><ele>99.0</ele><time>2026-04-04T07:05:58.932Z</time></trkpt><trkpt lat="45.37788501539811" lon="9.141154958563428"><ele>99.0</ele><time>2026-04-04T07:06:00.932Z</time></trkpt><trkpt lat="45.37779890961342" lon="9.141132961659746"><ele>99.0</ele><time>2026-04-04T07:06:02.932Z</time></trkpt><trkpt lat="45.37771735895289" lon="9.141103727186794"><ele>99.0</ele><time>2026-04-04T07:06:04.932Z</time></trkpt><trkpt lat="45.37765437143446" lon="9.141054010691223"><ele>99.0</ele><time>2026-04-04T07:06:07.932Z</time></trkpt><trkpt lat="45.377563443840906" lon="9.14094600212386"><ele>99.0</ele><time>2026-04-04T07:09:43.932Z</time></trkpt><trkpt lat="45.377501805114164" lon="9.140905117334745"><ele>99.0</ele><time>2026-04-04T07:09:45.932Z</time></trkpt><trkpt lat="45.3774216946155" lon="9.14086734751146"><ele>99.0</ele><time>2026-04-04T07:09:47.932Z</time></trkpt><trkpt lat="45.37734373776469" lon="9.140829424592413"><ele>99.0</ele><time>2026-04-04T07:09:49.932Z</time></trkpt><trkpt lat="45.377257215217284" lon="9.140783830066841"><ele>99.0</ele><time>2026-04-04T07:09:51.932Z</time></trkpt><trkpt lat="45.37717086079391" lon="9.140729224846481"><ele>99.0</ele><time>2026-04-04T07:09:53.932Z</time></trkpt><trkpt lat="45.37708276183303" lon="9.140672074451485"><ele>99.0</ele><time>2026-04-04T07:09:55.931Z</time></trkpt><trkpt lat="45.37697910882041" lon="9.140617760712082"><ele>99.0</ele><time>2026-04-04T07:09:57.931Z</time></trkpt><trkpt lat="45.376888029707956" lon="9.140570926973272"><ele>99.0</ele><time>2026-04-04T07:09:59.931Z</time></trkpt><trkpt lat="45.37679981154498" lon="9.140535740168358"><ele>99.0</ele><time>2026-04-04T07:10:01.931Z</time></trkpt><trkpt lat="45.37669097429006" lon="9.140483157958124"><ele>99.0</ele><time>2026-04-04T07:10:03.931Z</time></trkpt><trkpt lat="45.37658755202785" lon="9.14041390339313"><ele>99.0</ele><time>2026-04-04T07:10:05.931Z</time></trkpt><trkpt lat="45.37650067120953" lon="9.140368379395015"><ele>99.0</ele><time>2026-04-04T07:10:07.931Z</time></trkpt><trkpt lat="45.37643929965918" lon="9.140337144212843"><ele>99.0</ele><time>2026-04-04T07:10:08.931Z</time></trkpt><trkpt lat="45.3763438900265" lon="9.14027648604503"><ele>99.0</ele><time>2026-04-04T07:10:10.931Z</time></trkpt><trkpt lat="45.37623180377387" lon="9.140224421873343"><ele>99.0</ele><time>2026-04-04T07:10:12.931Z</time></trkpt><trkpt lat="45.37612245570101" lon="9.140166106795661"><ele>99.6</ele><time>2026-04-04T07:10:14.931Z</time></trkpt><trkpt lat="45.376016767782126" lon="9.140118044676685"><ele>100.2</ele><time>2026-04-04T07:10:16.931Z</time></trkpt><trkpt lat="45.37591598061731" lon="9.140056723744774"><ele>100.8</ele><time>2026-04-04T07:10:18.931Z</time></trkpt><trkpt lat="45.375809891945465" lon="9.140003184555981"><ele>101.39999999999999</ele><time>2026-04-04T07:10:20.931Z</time></trkpt><trkpt lat="45.375706409298544" lon="9.13995059092622"><ele>102.0</ele><time>2026-04-04T07:10:22.931Z</time></trkpt><trkpt lat="45.37560500259775" lon="9.139890372554168"><ele>101.6</ele><time>2026-04-04T07:10:24.931Z</time></trkpt><trkpt lat="45.37551535426951" lon="9.139828737670165"><ele>101.19999999999999</ele><time>2026-04-04T07:10:26.931Z</time></trkpt><trkpt lat="45.375409888930385" lon="9.139772837996915"><ele>100.8</ele><time>2026-04-04T07:10:28.931Z</time></trkpt><trkpt lat="45.37530564814503" lon="9.13971721209447"><ele>100.4</ele><time>2026-04-04T07:10:30.931Z</time></trkpt><trkpt lat="45.37522428762188" lon="9.139670854640563"><ele>100.0</ele><time>2026-04-04T07:10:32.931Z</time></trkpt><trkpt lat="45.375151742651134" lon="9.139628210486528"><ele>100.0</ele><time>2026-04-04T07:10:34.931Z</time></trkpt><trkpt lat="45.375065263719556" lon="9.139570299140345"><ele>100.0</ele><time>2026-04-04T07:10:36.931Z</time></trkpt><trkpt lat="45.374955493805146" lon="9.13951185458381"><ele>100.0</ele><time>2026-04-04T07:10:38.931Z</time></trkpt><trkpt lat="45.37488688445952" lon="9.139478870582737"><ele>100.0</ele><time>2026-04-04T07:10:39.931Z</time></trkpt><trkpt lat="45.3747819817781" lon="9.139419874399131"><ele>100.0</ele><time>2026-04-04T07:10:41.931Z</time></trkpt><trkpt lat="45.3746699356944" lon="9.139360284558268"><ele>100.0</ele><time>2026-04-04T07:10:43.931Z</time></trkpt><trkpt lat="45.37456744065706" lon="9.139297743721276"><ele>100.0</ele><time>2026-04-04T07:10:45.931Z</time></trkpt><trkpt lat="45.37446294745902" lon="9.139234177901065"><ele>100.0</ele><time>2026-04-04T07:10:47.932Z</time></trkpt><trkpt lat="45.37434454391696" lon="9.139180080250638"><ele>100.0</ele><time>2026-04-04T07:10:49.932Z</time></trkpt><trkpt lat="45.37424392736845" lon="9.139126016069142"><ele>99.75</ele><time>2026-04-04T07:10:51.932Z</time></trkpt><trkpt lat="45.374125357719294" lon="9.139043384104863"><ele>99.5</ele><time>2026-04-04T07:10:53.932Z</time></trkpt><trkpt lat="45.37402382555445" lon="9.138970743679403"><ele>99.25</ele><time>2026-04-04T07:10:55.931Z</time></trkpt><trkpt lat="45.37393205020503" lon="9.138881519817524"><ele>99.0</ele><time>2026-04-04T07:10:57.931Z</time></trkpt><trkpt lat="45.37383760418281" lon="9.138784746127728"><ele>98.80000000000001</ele><time>2026-04-04T07:10:59.931Z</time></trkpt><trkpt lat="45.37377917719891" lon="9.138741761426255"><ele>98.60000000000001</ele><time>2026-04-04T07:11:00.931Z</time></trkpt><trkpt lat="45.37367360403676" lon="9.138668746578498"><ele>98.4</ele><time>2026-04-04T07:11:02.931Z</time></trkpt><trkpt lat="45.37355582662365" lon="9.138659015255334"><ele>98.2</ele><time>2026-04-04T07:11:04.931Z</time></trkpt><trkpt lat="45.37343676322649" lon="9.138635938845502"><ele>98.0</ele><time>2026-04-04T07:11:06.931Z</time></trkpt><trkpt lat="45.37332120650291" lon="9.13859865381184"><ele>98.0</ele><time>2026-04-04T07:11:08.931Z</time></trkpt><trkpt lat="45.37321752354375" lon="9.138548547247689"><ele>98.0</ele><time>2026-04-04T07:11:10.931Z</time></trkpt><trkpt lat="45.37310954727338" lon="9.138485935004015"><ele>98.0</ele><time>2026-04-04T07:11:12.931Z</time></trkpt><trkpt lat="45.373000730371494" lon="9.138423294448248"><ele>98.0</ele><time>2026-04-04T07:11:14.931Z</time></trkpt><trkpt lat="45.37294518192912" lon="9.138379713417526"><ele>98.0</ele><time>2026-04-04T07:11:15.931Z</time></trkpt><trkpt lat="45.37284428027124" lon="9.13833624440245"><ele>98.0</ele><time>2026-04-04T07:11:17.931Z</time></trkpt><trkpt lat="45.37273163641624" lon="9.138276869268733"><ele>98.0</ele><time>2026-04-04T07:11:19.931Z</time></trkpt><trkpt lat="45.37263526594758" lon="9.13820885594204"><ele>98.0</ele><time>2026-04-04T07:11:21.931Z</time></trkpt><trkpt lat="45.372529088036224" lon="9.138155520218932"><ele>98.0</ele><time>2026-04-04T07:11:23.931Z</time></trkpt><trkpt lat="45.372422020093325" lon="9.138095158394156"><ele>97.99999999999999</ele><time>2026-04-04T07:11:25.931Z</time></trkpt><trkpt lat="45.37236306613595" lon="9.138063088367504"><ele>98.0</ele><time>2026-04-04T07:11:26.931Z</time></trkpt><trkpt lat="45.3722548133344" lon="9.138012959020275"><ele>98.0</ele><time>2026-04-04T07:11:28.931Z</time></trkpt><trkpt lat="45.37214390749573" lon="9.137937605757365"><ele>98.0</ele><time>2026-04-04T07:11:30.931Z</time></trkpt><trkpt lat="45.37208544535566" lon="9.137903202615897"><ele>97.99999999999999</ele><time>2026-04-04T07:11:31.931Z</time></trkpt><trkpt lat="45.37202376037145" lon="9.137874687187958"><ele>98.0</ele><time>2026-04-04T07:11:32.931Z</time></trkpt><trkpt lat="45.37191496999059" lon="9.137816727488405"><ele>97.80000000000001</ele><time>2026-04-04T07:11:34.931Z</time></trkpt><trkpt lat="45.37180427349733" lon="9.137746712439215"><ele>97.6</ele><time>2026-04-04T07:11:36.931Z</time></trkpt><trkpt lat="45.37174349299231" lon="9.137709454336749"><ele>97.4</ele><time>2026-04-04T07:11:37.931Z</time></trkpt><trkpt lat="45.37162390197287" lon="9.13765040729165"><ele>97.19999999999999</ele><time>2026-04-04T07:11:39.931Z</time></trkpt><trkpt lat="45.37150278478946" lon="9.13759545230391"><ele>97.0</ele><time>2026-04-04T07:11:41.931Z</time></trkpt><trkpt lat="45.37144309152747" lon="9.137562433742584"><ele>97.0</ele><time>2026-04-04T07:11:42.931Z</time></trkpt><trkpt lat="45.37138178888165" lon="9.13753040858145"><ele>97.0</ele><time>2026-04-04T07:11:43.931Z</time></trkpt><trkpt lat="45.371271615821904" lon="9.13747749784019"><ele>97.0</ele><time>2026-04-04T07:11:45.931Z</time></trkpt><trkpt lat="45.37120925430478" lon="9.137442008918791"><ele>97.0</ele><time>2026-04-04T07:11:46.931Z</time></trkpt><trkpt lat="45.37110089252063" lon="9.137385510254216"><ele>97.0</ele><time>2026-04-04T07:11:48.931Z</time></trkpt><trkpt lat="45.3709910814106" lon="9.137330795508081"><ele>97.75</ele><time>2026-04-04T07:11:50.931Z</time></trkpt><trkpt lat="45.37088215276016" lon="9.137251494119278"><ele>98.5</ele><time>2026-04-04T07:11:52.93Z</time></trkpt><trkpt lat="45.37077923503953" lon="9.137179877558772"><ele>99.25</ele><time>2026-04-04T07:11:54.93Z</time></trkpt><trkpt lat="45.370678155270724" lon="9.137130777737182"><ele>100.0</ele><time>2026-04-04T07:11:56.93Z</time></trkpt><trkpt lat="45.37057797785837" lon="9.137073731327277"><ele>100.2</ele><time>2026-04-04T07:11:58.93Z</time></trkpt><trkpt lat="45.37047908629274" lon="9.137013732603423"><ele>100.4</ele><time>2026-04-04T07:12:00.93Z</time></trkpt><trkpt lat="45.37041696901607" lon="9.136979380209228"><ele>100.6</ele><time>2026-04-04T07:12:01.93Z</time></trkpt><trkpt lat="45.370302630580674" lon="9.13692278778385"><ele>100.8</ele><time>2026-04-04T07:12:03.93Z</time></trkpt><trkpt lat="45.37024453249075" lon="9.136882412340793"><ele>101.0</ele><time>2026-04-04T07:12:04.93Z</time></trkpt><trkpt lat="45.37014641628862" lon="9.136821191795532"><ele>101.0</ele><time>2026-04-04T07:12:06.93Z</time></trkpt><trkpt lat="45.37003593269714" lon="9.136760271521453"><ele>101.0</ele><time>2026-04-04T07:12:08.93Z</time></trkpt><trkpt lat="45.369975370276094" lon="9.136733200200666"><ele>101.0</ele><time>2026-04-04T07:12:09.93Z</time></trkpt><trkpt lat="45.36991388774763" lon="9.136707046976994"><ele>101.0</ele><time>2026-04-04T07:12:10.93Z</time></trkpt><trkpt lat="45.369800475805164" lon="9.136653955343887"><ele>101.0</ele><time>2026-04-04T07:12:12.93Z</time></trkpt><trkpt lat="45.369686533878735" lon="9.13658233505667"><ele>100.6</ele><time>2026-04-04T07:12:14.93Z</time></trkpt><trkpt lat="45.369623858266735" lon="9.136547690460379"><ele>100.19999999999999</ele><time>2026-04-04T07:12:15.93Z</time></trkpt><trkpt lat="45.36951697532779" lon="9.13648636994847"><ele>99.80000000000001</ele><time>2026-04-04T07:12:17.93Z</time></trkpt><trkpt lat="45.36940911096394" lon="9.136417394890717"><ele>99.4</ele><time>2026-04-04T07:12:19.93Z</time></trkpt><trkpt lat="45.369343612311134" lon="9.136386230015779"><ele>99.0</ele><time>2026-04-04T07:12:20.93Z</time></trkpt><trkpt lat="45.36922900983458" lon="9.136306044562078"><ele>99.0</ele><time>2026-04-04T07:12:22.93Z</time></trkpt><trkpt lat="45.36913116279378" lon="9.136251449360042"><ele>99.0</ele><time>2026-04-04T07:12:24.93Z</time></trkpt><trkpt lat="45.3690279313279" lon="9.13619143459008"><ele>99.0</ele><time>2026-04-04T07:12:26.93Z</time></trkpt><trkpt lat="45.36893312368617" lon="9.136140502196893"><ele>99.0</ele><time>2026-04-04T07:12:28.93Z</time></trkpt><trkpt lat="45.3688526381305" lon="9.136091171682573"><ele>99.0</ele><time>2026-04-04T07:12:30.93Z</time></trkpt><trkpt lat="45.368790533483526" lon="9.136058191385201"><ele>99.0</ele><time>2026-04-04T07:12:32.93Z</time></trkpt><trkpt lat="45.36873296286956" lon="9.136015989066971"><ele>99.0</ele><time>2026-04-04T07:12:36.93Z</time></trkpt><trkpt lat="45.36865286244718" lon="9.135973927544248"><ele>99.0</ele><time>2026-04-04T07:12:41.93Z</time></trkpt><trkpt lat="45.368577877034014" lon="9.13591396965657"><ele>99.0</ele><time>2026-04-04T07:12:45.93Z</time></trkpt><trkpt lat="45.368510916362396" lon="9.135874633698448"><ele>99.0</ele><time>2026-04-04T07:12:47.93Z</time></trkpt><trkpt lat="45.368414826976924" lon="9.135826448850766"><ele>99.0</ele><time>2026-04-04T07:12:49.931Z</time></trkpt><trkpt lat="45.36830547721527" lon="9.135771241810021"><ele>99.0</ele><time>2026-04-04T07:12:51.932Z</time></trkpt><trkpt lat="45.3682428987893" lon="9.135742143702023"><ele>99.0</ele><time>2026-04-04T07:12:52.932Z</time></trkpt><trkpt lat="45.36817855155308" lon="9.135706877235993"><ele>99.0</ele><time>2026-04-04T07:12:53.932Z</time></trkpt><trkpt lat="45.36811344208807" lon="9.135668844170578"><ele>99.0</ele><time>2026-04-04T07:12:54.931Z</time></trkpt><trkpt lat="45.36805306861422" lon="9.135622719581606"><ele>99.0</ele><time>2026-04-04T07:12:55.931Z</time></trkpt><trkpt lat="45.36798678896462" lon="9.135585808297623"><ele>99.0</ele><time>2026-04-04T07:12:56.931Z</time></trkpt><trkpt lat="45.36786900593822" lon="9.135522512470624"><ele>98.71428571428572</ele><time>2026-04-04T07:12:58.932Z</time></trkpt><trkpt lat="45.36780789051204" lon="9.135483757895749"><ele>98.42857142857142</ele><time>2026-04-04T07:12:59.932Z</time></trkpt><trkpt lat="45.36774682834617" lon="9.135448397250533"><ele>98.14285714285714</ele><time>2026-04-04T07:13:00.931Z</time></trkpt><trkpt lat="45.36767594036121" lon="9.135433738353768"><ele>97.85714285714286</ele><time>2026-04-04T07:13:01.931Z</time></trkpt><trkpt lat="45.36761533328252" lon="9.135399930933673"><ele>97.57142857142858</ele><time>2026-04-04T07:13:02.931Z</time></trkpt><trkpt lat="45.36755195040804" lon="9.135361120006554"><ele>97.28571428571428</ele><time>2026-04-04T07:13:03.931Z</time></trkpt><trkpt lat="45.367489139838774" lon="9.135318563109758"><ele>97.0</ele><time>2026-04-04T07:13:04.931Z</time></trkpt><trkpt lat="45.367426044650344" lon="9.135278905460941"><ele>97.0</ele><time>2026-04-04T07:13:05.931Z</time></trkpt><trkpt lat="45.367308418388504" lon="9.135211170672077"><ele>97.0</ele><time>2026-04-04T07:13:07.931Z</time></trkpt><trkpt lat="45.36720124898501" lon="9.135133165859244"><ele>97.0</ele><time>2026-04-04T07:13:09.931Z</time></trkpt><trkpt lat="45.36708118904161" lon="9.13506937451043"><ele>97.0</ele><time>2026-04-04T07:13:11.931Z</time></trkpt><trkpt lat="45.36696428302408" lon="9.13499092731467"><ele>97.0</ele><time>2026-04-04T07:13:13.931Z</time></trkpt><trkpt lat="45.36685584131924" lon="9.134919254325043"><ele>97.0</ele><time>2026-04-04T07:13:15.931Z</time></trkpt><trkpt lat="45.36675426834605" lon="9.13486315258649"><ele>97.0</ele><time>2026-04-04T07:13:17.931Z</time></trkpt><trkpt lat="45.36663360091372" lon="9.134794961559274"><ele>97.0</ele><time>2026-04-04T07:13:19.931Z</time></trkpt><trkpt lat="45.36657286842416" lon="9.134763162362939"><ele>97.0</ele><time>2026-04-04T07:13:20.931Z</time></trkpt><trkpt lat="45.366452874085944" lon="9.134697708261006"><ele>97.00000000000001</ele><time>2026-04-04T07:13:22.931Z</time></trkpt><trkpt lat="45.36639404962705" lon="9.13466321300662"><ele>97.0</ele><time>2026-04-04T07:13:23.931Z</time></trkpt><trkpt lat="45.36628067944942" lon="9.134587821610008"><ele>97.0</ele><time>2026-04-04T07:13:25.931Z</time></trkpt><trkpt lat="45.36616692969709" lon="9.134518953529993"><ele>97.0</ele><time>2026-04-04T07:13:27.931Z</time></trkpt><trkpt lat="45.366108512905164" lon="9.134481092984384"><ele>97.00000000000001</ele><time>2026-04-04T07:13:28.931Z</time></trkpt><trkpt lat="45.36605004512764" lon="9.134442804811835"><ele>97.0</ele><time>2026-04-04T07:13:29.931Z</time></trkpt><trkpt lat="45.36599190290569" lon="9.134407989386805"><ele>97.0</ele><time>2026-04-04T07:13:30.931Z</time></trkpt><trkpt lat="45.36588450020284" lon="9.134349198645417"><ele>97.0</ele><time>2026-04-04T07:13:32.931Z</time></trkpt><trkpt lat="45.36582664725643" lon="9.134313136458726"><ele>97.0</ele><time>2026-04-04T07:13:33.931Z</time></trkpt><trkpt lat="45.36571406602706" lon="9.134243493120085"><ele>97.0</ele><time>2026-04-04T07:13:35.931Z</time></trkpt><trkpt lat="45.365595438431164" lon="9.134178660637152"><ele>97.0</ele><time>2026-04-04T07:13:37.931Z</time></trkpt><trkpt lat="45.365534503582495" lon="9.134146139691705"><ele>97.0</ele><time>2026-04-04T07:13:38.931Z</time></trkpt><trkpt lat="45.36542559583491" lon="9.134072325901418"><ele>97.0</ele><time>2026-04-04T07:13:40.931Z</time></trkpt><trkpt lat="45.36531439006179" lon="9.134002646815356"><ele>97.0</ele><time>2026-04-04T07:13:42.93Z</time></trkpt><trkpt lat="45.3652084618595" lon="9.13393225328233"><ele>97.0</ele><time>2026-04-04T07:13:44.93Z</time></trkpt><trkpt lat="45.36514913335162" lon="9.13389624614288"><ele>97.0</ele><time>2026-04-04T07:13:45.93Z</time></trkpt><trkpt lat="45.36503628964475" lon="9.133836937548343"><ele>97.0</ele><time>2026-04-04T07:13:47.93Z</time></trkpt><trkpt lat="45.36497592799971" lon="9.133797518913491"><ele>97.0</ele><time>2026-04-04T07:13:48.93Z</time></trkpt><trkpt lat="45.364876927228785" lon="9.133733994599607"><ele>97.0</ele><time>2026-04-04T07:13:50.93Z</time></trkpt><trkpt lat="45.36477443918282" lon="9.133668386164024"><ele>97.0</ele><time>2026-04-04T07:13:52.93Z</time></trkpt><trkpt lat="45.36466907122938" lon="9.13361044021066"><ele>97.0</ele><time>2026-04-04T07:13:54.93Z</time></trkpt><trkpt lat="45.36455771028391" lon="9.133545142018715"><ele>97.0</ele><time>2026-04-04T07:13:56.93Z</time></trkpt><trkpt lat="45.36444604678428" lon="9.133488533290068"><ele>97.0</ele><time>2026-04-04T07:13:58.93Z</time></trkpt><trkpt lat="45.36435171384225" lon="9.1334266458026"><ele>97.0</ele><time>2026-04-04T07:14:00.93Z</time></trkpt><trkpt lat="45.36425709310725" lon="9.13337077458755"><ele>97.0</ele><time>2026-04-04T07:14:02.93Z</time></trkpt><trkpt lat="45.36415946902889" lon="9.13331474213565"><ele>97.0</ele><time>2026-04-04T07:14:04.93Z</time></trkpt><trkpt lat="45.36406721767824" lon="9.133251046102597"><ele>97.0</ele><time>2026-04-04T07:14:06.93Z</time></trkpt><trkpt lat="45.36397592439624" lon="9.13320305975956"><ele>97.0</ele><time>2026-04-04T07:14:08.93Z</time></trkpt><trkpt lat="45.36391647449395" lon="9.133155847971107"><ele>97.0</ele><time>2026-04-04T07:14:09.93Z</time></trkpt><trkpt lat="45.36381117725157" lon="9.13309126971639"><ele>97.0</ele><time>2026-04-04T07:14:11.93Z</time></trkpt><trkpt lat="45.36370708551329" lon="9.133020443375987"><ele>97.0</ele><time>2026-04-04T07:14:13.93Z</time></trkpt><trkpt lat="45.363600017155804" lon="9.13296690627952"><ele>96.75</ele><time>2026-04-04T07:14:15.93Z</time></trkpt><trkpt lat="45.363489753105675" lon="9.132894810437147"><ele>96.5</ele><time>2026-04-04T07:14:17.93Z</time></trkpt><trkpt lat="45.36337445158737" lon="9.132830447175524"><ele>96.25</ele><time>2026-04-04T07:14:19.93Z</time></trkpt><trkpt lat="45.36326495808558" lon="9.132761328051954"><ele>96.0</ele><time>2026-04-04T07:14:21.93Z</time></trkpt><trkpt lat="45.36316289736782" lon="9.132697557244592"><ele>96.0</ele><time>2026-04-04T07:14:23.93Z</time></trkpt><trkpt lat="45.3630613410331" lon="9.132630698321325"><ele>96.0</ele><time>2026-04-04T07:14:25.93Z</time></trkpt><trkpt lat="45.36295644359203" lon="9.132574747741064"><ele>96.0</ele><time>2026-04-04T07:14:27.93Z</time></trkpt><trkpt lat="45.3628435205087" lon="9.132502821656182"><ele>96.0</ele><time>2026-04-04T07:14:29.93Z</time></trkpt><trkpt lat="45.362735602099576" lon="9.132442787923829"><ele>96.19999999999999</ele><time>2026-04-04T07:14:31.93Z</time></trkpt><trkpt lat="45.362633314725905" lon="9.132395260538011"><ele>96.39999999999999</ele><time>2026-04-04T07:14:33.93Z</time></trkpt><trkpt lat="45.36256869711623" lon="9.132362455007863"><ele>96.6</ele><time>2026-04-04T07:14:34.93Z</time></trkpt><trkpt lat="45.36248526212311" lon="9.13229382080792"><ele>96.8</ele><time>2026-04-04T07:14:36.93Z</time></trkpt><trkpt lat="45.362376452089265" lon="9.132224927566007"><ele>97.0</ele><time>2026-04-04T07:14:38.93Z</time></trkpt><trkpt lat="45.36228427960934" lon="9.132172453303022"><ele>97.25</ele><time>2026-04-04T07:14:40.93Z</time></trkpt><trkpt lat="45.362178548565446" lon="9.132111552255175"><ele>97.5</ele><time>2026-04-04T07:14:42.93Z</time></trkpt><trkpt lat="45.36207031607494" lon="9.132042529655402"><ele>97.75</ele><time>2026-04-04T07:14:44.93Z</time></trkpt><trkpt lat="45.36196747577742" lon="9.131982561326971"><ele>98.0</ele><time>2026-04-04T07:14:46.929Z</time></trkpt><trkpt lat="45.361860451287605" lon="9.131911158610588"><ele>98.0</ele><time>2026-04-04T07:14:48.929Z</time></trkpt><trkpt lat="45.361761324126725" lon="9.1318530434181"><ele>98.0</ele><time>2026-04-04T07:14:50.929Z</time></trkpt><trkpt lat="45.36164459400178" lon="9.131787941416949"><ele>98.0</ele><time>2026-04-04T07:14:52.929Z</time></trkpt><trkpt lat="45.3615590642181" lon="9.13173134588643"><ele>98.0</ele><time>2026-04-04T07:14:54.932Z</time></trkpt><trkpt lat="45.36145136850054" lon="9.131669882265763"><ele>98.0</ele><time>2026-04-04T07:14:56.931Z</time></trkpt><trkpt lat="45.36134957891592" lon="9.131604283353385"><ele>98.0</ele><time>2026-04-04T07:14:58.931Z</time></trkpt><trkpt lat="45.36128972213164" lon="9.131576406066538"><ele>98.0</ele><time>2026-04-04T07:14:59.931Z</time></trkpt><trkpt lat="45.36118143792596" lon="9.131521486285967"><ele>98.0</ele><time>2026-04-04T07:15:01.931Z</time></trkpt><trkpt lat="45.36108724871605" lon="9.131451632421294"><ele>98.0</ele><time>2026-04-04T07:15:03.932Z</time></trkpt><trkpt lat="45.36097963031981" lon="9.1313855219437"><ele>98.0</ele><time>2026-04-04T07:15:05.931Z</time></trkpt><trkpt lat="45.360886174783175" lon="9.131321868218734"><ele>97.83333333333333</ele><time>2026-04-04T07:15:07.931Z</time></trkpt><trkpt lat="45.360824948692816" lon="9.131285828697909"><ele>97.66666666666666</ele><time>2026-04-04T07:15:08.931Z</time></trkpt><trkpt lat="45.3607664516114" lon="9.131251112922088"><ele>97.5</ele><time>2026-04-04T07:15:09.931Z</time></trkpt><trkpt lat="45.36066123699544" lon="9.131189847854584"><ele>97.33333333333334</ele><time>2026-04-04T07:15:11.931Z</time></trkpt><trkpt lat="45.36059622559586" lon="9.13115650488333"><ele>97.16666666666667</ele><time>2026-04-04T07:15:12.931Z</time></trkpt><trkpt lat="45.36050427308539" lon="9.131091167983346"><ele>97.0</ele><time>2026-04-04T07:15:14.931Z</time></trkpt><trkpt lat="45.36039844668473" lon="9.13103348284435"><ele>97.0</ele><time>2026-04-04T07:15:16.931Z</time></trkpt><trkpt lat="45.36029102397901" lon="9.130968612173952"><ele>97.0</ele><time>2026-04-04T07:15:18.931Z</time></trkpt><trkpt lat="45.360189031536244" lon="9.130903075837939"><ele>97.0</ele><time>2026-04-04T07:15:20.931Z</time></trkpt><trkpt lat="45.360077999750196" lon="9.130836945765417"><ele>97.0</ele><time>2026-04-04T07:15:22.931Z</time></trkpt><trkpt lat="45.36001846819525" lon="9.130801779710552"><ele>97.0</ele><time>2026-04-04T07:15:23.931Z</time></trkpt><trkpt lat="45.3599101981777" lon="9.13074347240441"><ele>97.0</ele><time>2026-04-04T07:15:25.931Z</time></trkpt><trkpt lat="45.359805602626736" lon="9.130679026314432"><ele>97.0</ele><time>2026-04-04T07:15:27.931Z</time></trkpt><trkpt lat="45.3597016740895" lon="9.130618182499001"><ele>97.0</ele><time>2026-04-04T07:15:29.931Z</time></trkpt><trkpt lat="45.35958084944237" lon="9.130559427160641"><ele>97.0</ele><time>2026-04-04T07:15:31.931Z</time></trkpt><trkpt lat="45.35948850886699" lon="9.13048147725901"><ele>97.0</ele><time>2026-04-04T07:15:33.931Z</time></trkpt><trkpt lat="45.35938181954353" lon="9.130422665403467"><ele>97.0</ele><time>2026-04-04T07:15:35.931Z</time></trkpt><trkpt lat="45.35927221833638" lon="9.130358018649323"><ele>97.0</ele><time>2026-04-04T07:15:37.931Z</time></trkpt><trkpt lat="45.35915575834973" lon="9.130292744557073"><ele>97.0</ele><time>2026-04-04T07:15:39.931Z</time></trkpt><trkpt lat="45.35904648618221" lon="9.130235109774121"><ele>97.00000000000001</ele><time>2026-04-04T07:15:41.931Z</time></trkpt><trkpt lat="45.358982274731424" lon="9.130205639653854"><ele>97.0</ele><time>2026-04-04T07:15:42.931Z</time></trkpt><trkpt lat="45.35892493112837" lon="9.130166888000531"><ele>97.0</ele><time>2026-04-04T07:15:43.931Z</time></trkpt><trkpt lat="45.35882141322721" lon="9.130090589532118"><ele>97.0</ele><time>2026-04-04T07:15:45.931Z</time></trkpt><trkpt lat="45.3587616822706" lon="9.130058886921843"><ele>97.00000000000001</ele><time>2026-04-04T07:15:46.931Z</time></trkpt><trkpt lat="45.35865564601528" lon="9.129992994105535"><ele>97.0</ele><time>2026-04-04T07:15:48.931Z</time></trkpt><trkpt lat="45.358543590340645" lon="9.129935965151551"><ele>97.19999999999999</ele><time>2026-04-04T07:15:50.931Z</time></trkpt><trkpt lat="45.35843828079252" lon="9.129849172686793"><ele>97.4</ele><time>2026-04-04T07:15:52.931Z</time></trkpt><trkpt lat="45.358341664115855" lon="9.1297895616776"><ele>97.6</ele><time>2026-04-04T07:15:54.931Z</time></trkpt><trkpt lat="45.358232277168405" lon="9.129742360757682"><ele>97.80000000000001</ele><time>2026-04-04T07:15:56.931Z</time></trkpt><trkpt lat="45.35817379081812" lon="9.129707212269611"><ele>98.0</ele><time>2026-04-04T07:15:57.931Z</time></trkpt><trkpt lat="45.35810950180383" lon="9.129663209209104"><ele>98.25</ele><time>2026-04-04T07:15:58.931Z</time></trkpt><trkpt lat="45.358011363960394" lon="9.129588964254454"><ele>98.5</ele><time>2026-04-04T07:16:00.931Z</time></trkpt><trkpt lat="45.35789769654171" lon="9.129524005871911"><ele>98.75</ele><time>2026-04-04T07:16:02.93Z</time></trkpt><trkpt lat="45.357786297545786" lon="9.129466681962308"><ele>99.0</ele><time>2026-04-04T07:16:04.93Z</time></trkpt><trkpt lat="45.35769190047015" lon="9.129399009693415"><ele>99.0</ele><time>2026-04-04T07:16:06.93Z</time></trkpt><trkpt lat="45.35758065620756" lon="9.12934223769341"><ele>99.0</ele><time>2026-04-04T07:16:08.93Z</time></trkpt><trkpt lat="45.357486944154914" lon="9.129283862203081"><ele>99.0</ele><time>2026-04-04T07:16:10.93Z</time></trkpt><trkpt lat="45.357375421818034" lon="9.129220596607377"><ele>99.0</ele><time>2026-04-04T07:16:12.93Z</time></trkpt><trkpt lat="45.35727616646263" lon="9.129155002432851"><ele>99.2</ele><time>2026-04-04T07:16:14.93Z</time></trkpt><trkpt lat="45.35717762289508" lon="9.129096982812868"><ele>99.4</ele><time>2026-04-04T07:16:16.93Z</time></trkpt><trkpt lat="45.35707744682874" lon="9.129044677854559"><ele>99.6</ele><time>2026-04-04T07:16:18.93Z</time></trkpt><trkpt lat="45.35702055238021" lon="9.129002098186238"><ele>99.8</ele><time>2026-04-04T07:16:19.93Z</time></trkpt><trkpt lat="45.35696397987848" lon="9.128959259106427"><ele>100.0</ele><time>2026-04-04T07:16:20.93Z</time></trkpt><trkpt lat="45.35685400919558" lon="9.128895818364107"><ele>100.0</ele><time>2026-04-04T07:16:22.93Z</time></trkpt><trkpt lat="45.35674854702524" lon="9.128827346741362"><ele>100.0</ele><time>2026-04-04T07:16:24.93Z</time></trkpt><trkpt lat="45.356642478342934" lon="9.128764738041966"><ele>100.0</ele><time>2026-04-04T07:16:26.93Z</time></trkpt><trkpt lat="45.356532951570145" lon="9.128705703656795"><ele>100.0</ele><time>2026-04-04T07:16:28.93Z</time></trkpt><trkpt lat="45.35643378200341" lon="9.128639156034827"><ele>99.5</ele><time>2026-04-04T07:16:30.93Z</time></trkpt><trkpt lat="45.35632545846989" lon="9.12857479726085"><ele>99.0</ele><time>2026-04-04T07:16:32.93Z</time></trkpt><trkpt lat="45.35621359668965" lon="9.128518217951004"><ele>98.5</ele><time>2026-04-04T07:16:34.93Z</time></trkpt><trkpt lat="45.35611966073322" lon="9.128458112147078"><ele>98.0</ele><time>2026-04-04T07:16:36.93Z</time></trkpt><trkpt lat="45.35600145061424" lon="9.128389296229566"><ele>97.99999999999999</ele><time>2026-04-04T07:16:38.93Z</time></trkpt><trkpt lat="45.35592730042684" lon="9.128354758390694"><ele>98.0</ele><time>2026-04-04T07:16:39.93Z</time></trkpt><trkpt lat="45.35582538919275" lon="9.128285528897953"><ele>98.0</ele><time>2026-04-04T07:16:41.93Z</time></trkpt><trkpt lat="45.355765596671745" lon="9.128251383612762"><ele>98.0</ele><time>2026-04-04T07:16:42.93Z</time></trkpt><trkpt lat="45.35565576300894" lon="9.128182771512769"><ele>97.99999999999999</ele><time>2026-04-04T07:16:44.93Z</time></trkpt><trkpt lat="45.355593191726435" lon="9.128148595999418"><ele>98.0</ele><time>2026-04-04T07:16:45.93Z</time></trkpt><trkpt lat="45.35549566755319" lon="9.128091012285232"><ele>97.60000000000001</ele><time>2026-04-04T07:16:47.93Z</time></trkpt><trkpt lat="45.35539976516019" lon="9.128018828856163"><ele>97.2</ele><time>2026-04-04T07:16:49.93Z</time></trkpt><trkpt lat="45.355301198222996" lon="9.127955061319406"><ele>96.8</ele><time>2026-04-04T07:16:51.93Z</time></trkpt><trkpt lat="45.355244625708046" lon="9.127914663255584"><ele>96.4</ele><time>2026-04-04T07:16:52.93Z</time></trkpt><trkpt lat="45.355154652582705" lon="9.127833107022411"><ele>96.0</ele><time>2026-04-04T07:16:54.93Z</time></trkpt><trkpt lat="45.355064395081286" lon="9.127732096753903"><ele>96.0</ele><time>2026-04-04T07:16:56.93Z</time></trkpt><trkpt lat="45.35495514093759" lon="9.127658829184767"><ele>96.0</ele><time>2026-04-04T07:16:58.93Z</time></trkpt><trkpt lat="45.354891219742775" lon="9.127635291759292"><ele>96.0</ele><time>2026-04-04T07:16:59.931Z</time></trkpt><trkpt lat="45.35478560852704" lon="9.12759181653015"><ele>96.0</ele><time>2026-04-04T07:17:01.931Z</time></trkpt><trkpt lat="45.35467308452778" lon="9.127556257405708"><ele>96.0</ele><time>2026-04-04T07:17:03.931Z</time></trkpt><trkpt lat="45.3546121860044" lon="9.127532609908906"><ele>96.19999999999999</ele><time>2026-04-04T07:17:04.931Z</time></trkpt><trkpt lat="45.35450813034111" lon="9.12744962039157"><ele>96.39999999999999</ele><time>2026-04-04T07:17:06.931Z</time></trkpt><trkpt lat="45.35442157704462" lon="9.127342577570731"><ele>96.6</ele><time>2026-04-04T07:17:08.931Z</time></trkpt><trkpt lat="45.35437298849841" lon="9.127275995411622"><ele>96.8</ele><time>2026-04-04T07:17:09.931Z</time></trkpt><trkpt lat="45.35428946289278" lon="9.127171782008103"><ele>97.0</ele><time>2026-04-04T07:17:11.931Z</time></trkpt><trkpt lat="45.35418862840046" lon="9.127067981515061"><ele>97.19999999999999</ele><time>2026-04-04T07:17:13.931Z</time></trkpt><trkpt lat="45.35409677874456" lon="9.126979024298148"><ele>97.4</ele><time>2026-04-04T07:17:15.93Z</time></trkpt><trkpt lat="45.354021559545316" lon="9.126869958746045"><ele>97.6</ele><time>2026-04-04T07:17:17.93Z</time></trkpt><trkpt lat="45.3539537443011" lon="9.126745100227735"><ele>97.80000000000001</ele><time>2026-04-04T07:17:19.93Z</time></trkpt><trkpt lat="45.353871957371545" lon="9.126667459932381"><ele>98.0</ele><time>2026-04-04T07:17:21.93Z</time></trkpt><trkpt lat="45.35380442891647" lon="9.126607912865918"><ele>98.33333333333333</ele><time>2026-04-04T07:17:23.93Z</time></trkpt><trkpt lat="45.35372894395319" lon="9.126528416943238"><ele>98.66666666666666</ele><time>2026-04-04T07:17:25.93Z</time></trkpt><trkpt lat="45.35365892721426" lon="9.126442580936386"><ele>99.0</ele><time>2026-04-04T07:17:27.93Z</time></trkpt><trkpt lat="45.353588176254846" lon="9.126392827565667"><ele>99.33333333333334</ele><time>2026-04-04T07:17:29.93Z</time></trkpt><trkpt lat="45.3535234988932" lon="9.126453515367205"><ele>99.66666666666667</ele><time>2026-04-04T07:17:32.93Z</time></trkpt><trkpt lat="45.353461274702916" lon="9.126543062900712"><ele>100.0</ele><time>2026-04-04T07:17:35.93Z</time></trkpt><trkpt lat="45.35339785022272" lon="9.126492106571066"><ele>100.0</ele><time>2026-04-04T07:17:38.93Z</time></trkpt><trkpt lat="45.353336883698354" lon="9.12642026007432"><ele>100.0</ele><time>2026-04-04T07:17:40.93Z</time></trkpt><trkpt lat="45.35327536866771" lon="9.12634987214779"><ele>100.0</ele><time>2026-04-04T07:17:42.93Z</time></trkpt><trkpt lat="45.3531976765369" lon="9.126266279551164"><ele>100.0</ele><time>2026-04-04T07:17:44.93Z</time></trkpt><trkpt lat="45.35312911751727" lon="9.126178055353153"><ele>100.0</ele><time>2026-04-04T07:17:46.93Z</time></trkpt><trkpt lat="45.35304014126673" lon="9.126086208820276"><ele>100.0</ele><time>2026-04-04T07:17:48.93Z</time></trkpt><trkpt lat="45.352970460519806" lon="9.125984251130928"><ele>100.0</ele><time>2026-04-04T07:17:50.93Z</time></trkpt><trkpt lat="45.35291910052929" lon="9.125928102946895"><ele>100.0</ele><time>2026-04-04T07:17:51.93Z</time></trkpt><trkpt lat="45.35284782591425" lon="9.12584308871032"><ele>100.0</ele><time>2026-04-04T07:17:53.93Z</time></trkpt><trkpt lat="45.35277080086088" lon="9.125748678671489"><ele>100.0</ele><time>2026-04-04T07:17:55.93Z</time></trkpt><trkpt lat="45.352663952371636" lon="9.12566225566215"><ele>99.8</ele><time>2026-04-04T07:17:57.93Z</time></trkpt><trkpt lat="45.35258157553658" lon="9.125564100868795"><ele>99.6</ele><time>2026-04-04T07:17:59.93Z</time></trkpt><trkpt lat="45.352515259633705" lon="9.12544355561425"><ele>99.4</ele><time>2026-04-04T07:18:01.93Z</time></trkpt><trkpt lat="45.352424527626575" lon="9.12535452801001"><ele>99.2</ele><time>2026-04-04T07:18:03.93Z</time></trkpt><trkpt lat="45.352371655517246" lon="9.12529979269226"><ele>99.0</ele><time>2026-04-04T07:18:04.93Z</time></trkpt><trkpt lat="45.352288201235304" lon="9.125196720550726"><ele>99.0</ele><time>2026-04-04T07:18:06.93Z</time></trkpt><trkpt lat="45.35219797053996" lon="9.125091719945646"><ele>99.0</ele><time>2026-04-04T07:18:08.93Z</time></trkpt><trkpt lat="45.35211725030967" lon="9.125004887506071"><ele>99.0</ele><time>2026-04-04T07:18:10.93Z</time></trkpt><trkpt lat="45.352025502658336" lon="9.12489778926646"><ele>99.0</ele><time>2026-04-04T07:18:12.93Z</time></trkpt><trkpt lat="45.35193706031419" lon="9.12480463705544"><ele>99.0</ele><time>2026-04-04T07:18:14.93Z</time></trkpt><trkpt lat="45.35183951785521" lon="9.12470607011396"><ele>99.0</ele><time>2026-04-04T07:18:16.93Z</time></trkpt><trkpt lat="45.35174337650293" lon="9.124630130881778"><ele>99.0</ele><time>2026-04-04T07:18:18.93Z</time></trkpt><trkpt lat="45.35167419969241" lon="9.124528462892778"><ele>99.0</ele><time>2026-04-04T07:18:20.929Z</time></trkpt><trkpt lat="45.3515929282946" lon="9.124403697311052"><ele>99.0</ele><time>2026-04-04T07:18:22.929Z</time></trkpt><trkpt lat="45.35149236806473" lon="9.124322863226997"><ele>99.0</ele><time>2026-04-04T07:18:24.929Z</time></trkpt><trkpt lat="45.35139952968493" lon="9.124232800006538"><ele>99.0</ele><time>2026-04-04T07:18:26.929Z</time></trkpt><trkpt lat="45.35131979484833" lon="9.124145459190848"><ele>99.0</ele><time>2026-04-04T07:18:28.929Z</time></trkpt><trkpt lat="45.35127688695245" lon="9.1240763984116"><ele>99.0</ele><time>2026-04-04T07:18:29.929Z</time></trkpt><trkpt lat="45.35123680484829" lon="9.124001312844173"><ele>99.0</ele><time>2026-04-04T07:18:30.929Z</time></trkpt><trkpt lat="45.351140271378874" lon="9.123915635622609"><ele>99.0</ele><time>2026-04-04T07:18:32.929Z</time></trkpt><trkpt lat="45.3510518052639" lon="9.123804179357588"><ele>98.5</ele><time>2026-04-04T07:18:34.929Z</time></trkpt><trkpt lat="45.35095769852157" lon="9.123692785172306"><ele>98.0</ele><time>2026-04-04T07:18:36.929Z</time></trkpt><trkpt lat="45.350870611041344" lon="9.123600188683097"><ele>97.5</ele><time>2026-04-04T07:18:38.929Z</time></trkpt><trkpt lat="45.35077907661652" lon="9.123498969795687"><ele>97.0</ele><time>2026-04-04T07:18:40.929Z</time></trkpt><trkpt lat="45.350678268383504" lon="9.123409564759003"><ele>97.0</ele><time>2026-04-04T07:18:42.929Z</time></trkpt><trkpt lat="45.35059329579794" lon="9.123303248774786"><ele>97.0</ele><time>2026-04-04T07:18:44.929Z</time></trkpt><trkpt lat="45.35050921887387" lon="9.123203570695209"><ele>97.0</ele><time>2026-04-04T07:18:46.929Z</time></trkpt><trkpt lat="45.35046632020037" lon="9.123130270614649"><ele>97.0</ele><time>2026-04-04T07:18:47.929Z</time></trkpt><trkpt lat="45.35037451057153" lon="9.123009625035573"><ele>97.0</ele><time>2026-04-04T07:18:49.929Z</time></trkpt><trkpt lat="45.350277562510186" lon="9.12290376429129"><ele>97.00000000000001</ele><time>2026-04-04T07:18:51.929Z</time></trkpt><trkpt lat="45.350179316488315" lon="9.122798431088635"><ele>97.0</ele><time>2026-04-04T07:18:53.929Z</time></trkpt><trkpt lat="45.3500869253274" lon="9.122695080822474"><ele>97.0</ele><time>2026-04-04T07:18:55.929Z</time></trkpt><trkpt lat="45.35003901006873" lon="9.122633860004706"><ele>97.0</ele><time>2026-04-04T07:18:56.929Z</time></trkpt><trkpt lat="45.34998523406512" lon="9.122586572134615"><ele>97.00000000000001</ele><time>2026-04-04T07:18:57.929Z</time></trkpt><trkpt lat="45.349935505815544" lon="9.12252450120247"><ele>97.0</ele><time>2026-04-04T07:18:58.929Z</time></trkpt><trkpt lat="45.349884401234505" lon="9.122469754136127"><ele>96.8</ele><time>2026-04-04T07:18:59.929Z</time></trkpt><trkpt lat="45.34978504235294" lon="9.122363791405132"><ele>96.6</ele><time>2026-04-04T07:19:01.929Z</time></trkpt><trkpt lat="45.34968637056378" lon="9.12226863903658"><ele>96.39999999999999</ele><time>2026-04-04T07:19:03.929Z</time></trkpt><trkpt lat="45.34963326938972" lon="9.122211309284134"><ele>96.19999999999999</ele><time>2026-04-04T07:19:04.929Z</time></trkpt><trkpt lat="45.349548908419266" lon="9.122097340234069"><ele>96.0</ele><time>2026-04-04T07:19:06.931Z</time></trkpt><trkpt lat="45.349454840318636" lon="9.121988480624783"><ele>96.25</ele><time>2026-04-04T07:19:08.931Z</time></trkpt><trkpt lat="45.34936673715363" lon="9.12188674739663"><ele>96.5</ele><time>2026-04-04T07:19:10.931Z</time></trkpt><trkpt lat="45.34927265638377" lon="9.121782714119865"><ele>96.75</ele><time>2026-04-04T07:19:12.93Z</time></trkpt><trkpt lat="45.3491922851153" lon="9.121653937943154"><ele>97.0</ele><time>2026-04-04T07:19:14.931Z</time></trkpt><trkpt lat="45.34908260760215" lon="9.121554767426371"><ele>97.00000000000001</ele><time>2026-04-04T07:19:16.931Z</time></trkpt><trkpt lat="45.34898921637783" lon="9.121451616406667"><ele>97.0</ele><time>2026-04-04T07:19:18.931Z</time></trkpt><trkpt lat="45.348943175433135" lon="9.12138768808287"><ele>97.0</ele><time>2026-04-04T07:19:19.931Z</time></trkpt><trkpt lat="45.34888740863054" lon="9.12133285537447"><ele>97.0</ele><time>2026-04-04T07:19:20.931Z</time></trkpt><trkpt lat="45.34883660410794" lon="9.121276804648966"><ele>97.00000000000001</ele><time>2026-04-04T07:19:21.931Z</time></trkpt><trkpt lat="45.3487378773794" lon="9.121166392285973"><ele>97.0</ele><time>2026-04-04T07:19:23.931Z</time></trkpt><trkpt lat="45.348650006282384" lon="9.12104234642817"><ele>97.0</ele><time>2026-04-04T07:19:25.931Z</time></trkpt><trkpt lat="45.34859813662336" lon="9.120984557226885"><ele>97.0</ele><time>2026-04-04T07:19:26.931Z</time></trkpt><trkpt lat="45.348501755922825" lon="9.120854630096229"><ele>97.0</ele><time>2026-04-04T07:19:28.931Z</time></trkpt><trkpt lat="45.34845123172839" lon="9.120800760321767"><ele>97.0</ele><time>2026-04-04T07:19:29.931Z</time></trkpt><trkpt lat="45.348348274659045" lon="9.120700941840102"><ele>97.0</ele><time>2026-04-04T07:19:31.931Z</time></trkpt><trkpt lat="45.34829340066857" lon="9.120643110790905"><ele>97.16666666666667</ele><time>2026-04-04T07:19:32.931Z</time></trkpt><trkpt lat="45.34823141721071" lon="9.120601668720797"><ele>97.33333333333334</ele><time>2026-04-04T07:19:33.931Z</time></trkpt><trkpt lat="45.34817608622993" lon="9.120550701984195"><ele>97.5</ele><time>2026-04-04T07:19:34.931Z</time></trkpt><trkpt lat="45.34808780063477" lon="9.120438380016424"><ele>97.66666666666666</ele><time>2026-04-04T07:19:36.931Z</time></trkpt><trkpt lat="45.34804042615888" lon="9.120375829255982"><ele>97.83333333333333</ele><time>2026-04-04T07:19:37.931Z</time></trkpt><trkpt lat="45.3479424568038" lon="9.120261157241856"><ele>98.0</ele><time>2026-04-04T07:19:39.931Z</time></trkpt><trkpt lat="45.34789430507013" lon="9.120199051079661"><ele>98.0</ele><time>2026-04-04T07:19:40.931Z</time></trkpt><trkpt lat="45.347798278789575" lon="9.120092210921054"><ele>98.0</ele><time>2026-04-04T07:19:42.931Z</time></trkpt><trkpt lat="45.34774616172358" lon="9.12004052299277"><ele>98.0</ele><time>2026-04-04T07:19:43.931Z</time></trkpt><trkpt lat="45.3476422717655" lon="9.119932135211938"><ele>98.0</ele><time>2026-04-04T07:19:45.931Z</time></trkpt><trkpt lat="45.34759224103024" lon="9.119870985450463"><ele>98.0</ele><time>2026-04-04T07:19:46.931Z</time></trkpt><trkpt lat="45.34751013899959" lon="9.119779027026668"><ele>97.85714285714286</ele><time>2026-04-04T07:19:48.931Z</time></trkpt><trkpt lat="45.3474526235767" lon="9.119730500476782"><ele>97.71428571428572</ele><time>2026-04-04T07:19:49.93Z</time></trkpt><trkpt lat="45.34740371476107" lon="9.119661541479877"><ele>97.57142857142857</ele><time>2026-04-04T07:19:50.93Z</time></trkpt><trkpt lat="45.34735363194803" lon="9.119605332407456"><ele>97.42857142857143</ele><time>2026-04-04T07:19:51.93Z</time></trkpt><trkpt lat="45.347303977822136" lon="9.11954518523492"><ele>97.28571428571429</ele><time>2026-04-04T07:19:52.93Z</time></trkpt><trkpt lat="45.347251476258904" lon="9.119493041587823"><ele>97.14285714285714</ele><time>2026-04-04T07:19:53.93Z</time></trkpt><trkpt lat="45.347204512590565" lon="9.119431049386012"><ele>97.0</ele><time>2026-04-04T07:19:54.93Z</time></trkpt><trkpt lat="45.347120820883326" lon="9.119317227279286"><ele>97.0</ele><time>2026-04-04T07:19:56.93Z</time></trkpt><trkpt lat="45.347033194862036" lon="9.119198777355495"><ele>97.0</ele><time>2026-04-04T07:19:58.93Z</time></trkpt><trkpt lat="45.34693164099487" lon="9.119101760531771"><ele>97.0</ele><time>2026-04-04T07:20:00.93Z</time></trkpt><trkpt lat="45.34684302399793" lon="9.118975717395168"><ele>97.0</ele><time>2026-04-04T07:20:02.93Z</time></trkpt><trkpt lat="45.34679348264397" lon="9.118918123244054"><ele>97.0</ele><time>2026-04-04T07:20:03.93Z</time></trkpt><trkpt lat="45.34674089230404" lon="9.11886385643753"><ele>96.75</ele><time>2026-04-04T07:20:04.93Z</time></trkpt><trkpt lat="45.346639800117195" lon="9.118760299770326"><ele>96.5</ele><time>2026-04-04T07:20:06.93Z</time></trkpt><trkpt lat="45.34652543350661" lon="9.118663818570433"><ele>96.25</ele><time>2026-04-04T07:20:08.93Z</time></trkpt><trkpt lat="45.34643149860084" lon="9.118558401603043"><ele>96.0</ele><time>2026-04-04T07:20:10.93Z</time></trkpt><trkpt lat="45.346349730300105" lon="9.118430912515322"><ele>95.75</ele><time>2026-04-04T07:20:12.93Z</time></trkpt><trkpt lat="45.34626296309312" lon="9.118320226654713"><ele>95.5</ele><time>2026-04-04T07:20:14.93Z</time></trkpt><trkpt lat="45.34617069643694" lon="9.118215242673458"><ele>95.25</ele><time>2026-04-04T07:20:16.93Z</time></trkpt><trkpt lat="45.34607521156958" lon="9.118104230720348"><ele>95.0</ele><time>2026-04-04T07:20:18.93Z</time></trkpt><trkpt lat="45.34597865864815" lon="9.118007226549532"><ele>95.4</ele><time>2026-04-04T07:20:20.93Z</time></trkpt><trkpt lat="45.345865112240375" lon="9.117907868161668"><ele>95.8</ele><time>2026-04-04T07:20:22.93Z</time></trkpt><trkpt lat="45.34578523601188" lon="9.117798787356046"><ele>96.19999999999999</ele><time>2026-04-04T07:20:24.93Z</time></trkpt><trkpt lat="45.345739728846645" lon="9.117735338540346"><ele>96.6</ele><time>2026-04-04T07:20:25.93Z</time></trkpt><trkpt lat="45.34563561141732" lon="9.117637997277008"><ele>97.0</ele><time>2026-04-04T07:20:27.93Z</time></trkpt><trkpt lat="45.34554279039828" lon="9.117545078891833"><ele>97.0</ele><time>2026-04-04T07:20:29.93Z</time></trkpt><trkpt lat="45.345449468532244" lon="9.11743650366127"><ele>97.0</ele><time>2026-04-04T07:20:31.93Z</time></trkpt><trkpt lat="45.345374879134326" lon="9.117311447065738"><ele>97.0</ele><time>2026-04-04T07:20:33.93Z</time></trkpt><trkpt lat="45.345279847432124" lon="9.117204480194454"><ele>97.0</ele><time>2026-04-04T07:20:35.93Z</time></trkpt><trkpt lat="45.345181096237845" lon="9.1171106387068"><ele>97.0</ele><time>2026-04-04T07:20:37.93Z</time></trkpt><trkpt lat="45.34509074935441" lon="9.117019908286755"><ele>97.0</ele><time>2026-04-04T07:20:39.93Z</time></trkpt><trkpt lat="45.34499780414486" lon="9.116924067653414"><ele>97.0</ele><time>2026-04-04T07:20:41.93Z</time></trkpt><trkpt lat="45.34490767910286" lon="9.116840418547124"><ele>97.0</ele><time>2026-04-04T07:20:43.93Z</time></trkpt><trkpt lat="45.34483495837369" lon="9.11672440599427"><ele>97.0</ele><time>2026-04-04T07:20:45.93Z</time></trkpt><trkpt lat="45.3447521391457" lon="9.116614416023893"><ele>97.0</ele><time>2026-04-04T07:20:47.93Z</time></trkpt><trkpt lat="45.34470317223345" lon="9.116557889288927"><ele>97.0</ele><time>2026-04-04T07:20:48.93Z</time></trkpt><trkpt lat="45.34460936029783" lon="9.116430739847468"><ele>97.0</ele><time>2026-04-04T07:20:50.93Z</time></trkpt><trkpt lat="45.34451698091217" lon="9.116335325336461"><ele>97.0</ele><time>2026-04-04T07:20:52.93Z</time></trkpt><trkpt lat="45.34444548255189" lon="9.116292121100436"><ele>97.0</ele><time>2026-04-04T07:20:53.929Z</time></trkpt><trkpt lat="45.3443722201016" lon="9.116204398085591"><ele>97.0</ele><time>2026-04-04T07:20:55.929Z</time></trkpt><trkpt lat="45.3442946320383" lon="9.116085639976825"><ele>97.0</ele><time>2026-04-04T07:20:57.929Z</time></trkpt><trkpt lat="45.34422093032199" lon="9.115962382713555"><ele>97.0</ele><time>2026-04-04T07:20:59.929Z</time></trkpt><trkpt lat="45.34413879036886" lon="9.115865661241362"><ele>97.0</ele><time>2026-04-04T07:21:01.929Z</time></trkpt><trkpt lat="45.34406691779086" lon="9.115763265137279"><ele>97.0</ele><time>2026-04-04T07:21:03.929Z</time></trkpt><trkpt lat="45.34394243193838" lon="9.115680893093808"><ele>97.0</ele><time>2026-04-04T07:21:05.929Z</time></trkpt><trkpt lat="45.34388417393538" lon="9.115646940326547"><ele>97.0</ele><time>2026-04-04T07:21:06.929Z</time></trkpt><trkpt lat="45.343779095709706" lon="9.115552783650799"><ele>97.0</ele><time>2026-04-04T07:21:08.929Z</time></trkpt><trkpt lat="45.3437018309739" lon="9.11543425675108"><ele>97.0</ele><time>2026-04-04T07:21:10.929Z</time></trkpt><trkpt lat="45.3436477722118" lon="9.11538633303517"><ele>97.0</ele><time>2026-04-04T07:21:11.931Z</time></trkpt><trkpt lat="45.343561357204564" lon="9.115282255319231"><ele>97.0</ele><time>2026-04-04T07:21:13.931Z</time></trkpt><trkpt lat="45.343470888009776" lon="9.115168654800836"><ele>97.0</ele><time>2026-04-04T07:21:15.931Z</time></trkpt><trkpt lat="45.343381036161134" lon="9.115059968390758"><ele>97.0</ele><time>2026-04-04T07:21:17.931Z</time></trkpt><trkpt lat="45.34328726450235" lon="9.114960024605772"><ele>97.0</ele><time>2026-04-04T07:21:19.93Z</time></trkpt><trkpt lat="45.34322236705048" lon="9.114854013757583"><ele>97.0</ele><time>2026-04-04T07:21:21.931Z</time></trkpt><trkpt lat="45.343136244039734" lon="9.11473148724795"><ele>97.0</ele><time>2026-04-04T07:21:23.931Z</time></trkpt><trkpt lat="45.3430764025038" lon="9.11469772007404"><ele>97.0</ele><time>2026-04-04T07:21:24.931Z</time></trkpt><trkpt lat="45.34297562023661" lon="9.114603228739208"><ele>97.0</ele><time>2026-04-04T07:21:26.931Z</time></trkpt><trkpt lat="45.34289810825002" lon="9.114497077302941"><ele>97.0</ele><time>2026-04-04T07:21:28.931Z</time></trkpt><trkpt lat="45.34285117044771" lon="9.114436887218972"><ele>97.0</ele><time>2026-04-04T07:21:29.931Z</time></trkpt><trkpt lat="45.34279613980497" lon="9.114385266447202"><ele>97.0</ele><time>2026-04-04T07:21:30.931Z</time></trkpt><trkpt lat="45.34269883868288" lon="9.114268360843896"><ele>97.0</ele><time>2026-04-04T07:21:32.931Z</time></trkpt><trkpt lat="45.34263448081365" lon="9.114239801491106"><ele>97.0</ele><time>2026-04-04T07:21:33.931Z</time></trkpt><trkpt lat="45.342547155972724" lon="9.114122147173653"><ele>97.0</ele><time>2026-04-04T07:21:35.931Z</time></trkpt><trkpt lat="45.342456997438475" lon="9.114033380001437"><ele>96.83333333333334</ele><time>2026-04-04T07:21:37.931Z</time></trkpt><trkpt lat="45.34239517544573" lon="9.113967531978915"><ele>96.66666666666667</ele><time>2026-04-04T07:21:38.931Z</time></trkpt><trkpt lat="45.3423485331994" lon="9.113902813247241"><ele>96.5</ele><time>2026-04-04T07:21:39.931Z</time></trkpt><trkpt lat="45.342279651213374" lon="9.113879261889727"><ele>96.33333333333334</ele><time>2026-04-04T07:21:40.931Z</time></trkpt><trkpt lat="45.34222780752682" lon="9.113819076220494"><ele>96.16666666666667</ele><time>2026-04-04T07:21:41.931Z</time></trkpt><trkpt lat="45.342182207607806" lon="9.113748349634461"><ele>96.0</ele><time>2026-04-04T07:21:42.932Z</time></trkpt><trkpt lat="45.34209935969668" lon="9.11362183771588"><ele>95.8</ele><time>2026-04-04T07:21:44.934Z</time></trkpt><trkpt lat="45.34202169123826" lon="9.11349529745138"><ele>95.6</ele><time>2026-04-04T07:21:46.936Z</time></trkpt><trkpt lat="45.34191693743533" lon="9.113386679057808"><ele>95.4</ele><time>2026-04-04T07:21:48.938Z</time></trkpt><trkpt lat="45.34186701253635" lon="9.113328877728275"><ele>95.2</ele><time>2026-04-04T07:21:49.938Z</time></trkpt><trkpt lat="45.34179773831663" lon="9.113273217229208"><ele>95.0</ele><time>2026-04-04T07:21:50.939Z</time></trkpt><trkpt lat="45.34174766033812" lon="9.11321114250746"><ele>95.0</ele><time>2026-04-04T07:21:51.939Z</time></trkpt><trkpt lat="45.341650272812686" lon="9.113100493288146"><ele>95.0</ele><time>2026-04-04T07:21:53.941Z</time></trkpt><trkpt lat="45.34155728731643" lon="9.11299009782887"><ele>95.0</ele><time>2026-04-04T07:21:55.942Z</time></trkpt><trkpt lat="45.34146889086027" lon="9.112886606974245"><ele>95.0</ele><time>2026-04-04T07:21:57.942Z</time></trkpt><trkpt lat="45.34140916225723" lon="9.112836912346754"><ele>95.0</ele><time>2026-04-04T07:21:58.943Z</time></trkpt><trkpt lat="45.341353403601225" lon="9.112777194814665"><ele>95.4</ele><time>2026-04-04T07:21:59.943Z</time></trkpt><trkpt lat="45.34127795988614" lon="9.112735869765547"><ele>95.8</ele><time>2026-04-04T07:22:00.943Z</time></trkpt><trkpt lat="45.341205909738804" lon="9.11266832030574"><ele>96.19999999999999</ele><time>2026-04-04T07:22:01.944Z</time></trkpt><trkpt lat="45.341129092027074" lon="9.11257471824576"><ele>96.6</ele><time>2026-04-04T07:22:03.944Z</time></trkpt><trkpt lat="45.34104686874787" lon="9.112443522953512"><ele>97.0</ele><time>2026-04-04T07:22:05.945Z</time></trkpt><trkpt lat="45.34100432866014" lon="9.112375839687054"><ele>97.0</ele><time>2026-04-04T07:22:06.945Z</time></trkpt><trkpt lat="45.34092520237184" lon="9.112243285898613"><ele>97.0</ele><time>2026-04-04T07:22:08.945Z</time></trkpt><trkpt lat="45.34082818298618" lon="9.112144769321326"><ele>97.0</ele><time>2026-04-04T07:22:10.946Z</time></trkpt><trkpt lat="45.34077919183576" lon="9.112084872561713"><ele>97.0</ele><time>2026-04-04T07:22:11.946Z</time></trkpt><trkpt lat="45.34067160652508" lon="9.111985015361807"><ele>97.0</ele><time>2026-04-04T07:22:13.946Z</time></trkpt><trkpt lat="45.340598814747906" lon="9.111867510950637"><ele>96.83333333333334</ele><time>2026-04-04T07:22:15.946Z</time></trkpt><trkpt lat="45.34049846460356" lon="9.11177446967602"><ele>96.66666666666667</ele><time>2026-04-04T07:22:17.947Z</time></trkpt><trkpt lat="45.34045115391439" lon="9.111704436833922"><ele>96.5</ele><time>2026-04-04T07:22:18.947Z</time></trkpt><trkpt lat="45.34037074585699" lon="9.111584369129963"><ele>96.33333333333334</ele><time>2026-04-04T07:22:20.947Z</time></trkpt><trkpt lat="45.34031904013199" lon="9.111523475906381"><ele>96.16666666666667</ele><time>2026-04-04T07:22:21.947Z</time></trkpt><trkpt lat="45.34026339286262" lon="9.111478197566194"><ele>96.0</ele><time>2026-04-04T07:22:22.947Z</time></trkpt><trkpt lat="45.34015799718269" lon="9.111374084758584"><ele>96.0</ele><time>2026-04-04T07:22:24.947Z</time></trkpt><trkpt lat="45.340068192524896" lon="9.111260748020696"><ele>96.0</ele><time>2026-04-04T07:22:26.947Z</time></trkpt><trkpt lat="45.3399866457894" lon="9.111171783472228"><ele>96.0</ele><time>2026-04-04T07:22:28.947Z</time></trkpt><trkpt lat="45.33993349051492" lon="9.111121543988018"><ele>96.0</ele><time>2026-04-04T07:22:29.947Z</time></trkpt><trkpt lat="45.339835638522885" lon="9.111022613487261"><ele>96.0</ele><time>2026-04-04T07:22:31.947Z</time></trkpt><trkpt lat="45.33975109784696" lon="9.110910391430894"><ele>96.0</ele><time>2026-04-04T07:22:33.947Z</time></trkpt><trkpt lat="45.3396629032172" lon="9.110820864618821"><ele>96.0</ele><time>2026-04-04T07:22:35.948Z</time></trkpt><trkpt lat="45.33956815222572" lon="9.110713201774116"><ele>96.0</ele><time>2026-04-04T07:22:37.948Z</time></trkpt><trkpt lat="45.33946584926088" lon="9.110608900602937"><ele>96.0</ele><time>2026-04-04T07:22:39.948Z</time></trkpt><trkpt lat="45.33936843396734" lon="9.110497859680569"><ele>96.0</ele><time>2026-04-04T07:22:41.948Z</time></trkpt><trkpt lat="45.33927227049109" lon="9.110391199667962"><ele>96.0</ele><time>2026-04-04T07:22:43.948Z</time></trkpt><trkpt lat="45.339183969899906" lon="9.110270609473638"><ele>96.0</ele><time>2026-04-04T07:22:45.948Z</time></trkpt><trkpt lat="45.33908725571164" lon="9.110155675528073"><ele>96.0</ele><time>2026-04-04T07:22:47.948Z</time></trkpt><trkpt lat="45.339039817392205" lon="9.110096783691956"><ele>96.0</ele><time>2026-04-04T07:22:48.948Z</time></trkpt><trkpt lat="45.33895124940732" lon="9.109984161640735"><ele>96.0</ele><time>2026-04-04T07:22:50.948Z</time></trkpt><trkpt lat="45.338868029671275" lon="9.109872577811265"><ele>96.0</ele><time>2026-04-04T07:22:52.948Z</time></trkpt><trkpt lat="45.33877044860529" lon="9.109772365903204"><ele>96.0</ele><time>2026-04-04T07:22:54.948Z</time></trkpt><trkpt lat="45.33867446198712" lon="9.109670470861268"><ele>96.0</ele><time>2026-04-04T07:22:56.948Z</time></trkpt><trkpt lat="45.33853075470112" lon="9.109519863272341"><ele>96.0</ele><time>2026-04-04T07:22:59.948Z</time></trkpt><trkpt lat="45.33843712135479" lon="9.109418183949918"><ele>96.0</ele><time>2026-04-04T07:23:01.948Z</time></trkpt><trkpt lat="45.3383678758841" lon="9.109376435789047"><ele>96.0</ele><time>2026-04-04T07:23:02.948Z</time></trkpt><trkpt lat="45.33827858914494" lon="9.109280423666078"><ele>96.0</ele><time>2026-04-04T07:23:04.948Z</time></trkpt><trkpt lat="45.33820092876625" lon="9.109197849243136"><ele>96.0</ele><time>2026-04-04T07:23:06.948Z</time></trkpt><trkpt lat="45.33811175604988" lon="9.109109987098904"><ele>96.6</ele><time>2026-04-04T07:23:08.948Z</time></trkpt><trkpt lat="45.338030722954684" lon="9.109067570137888"><ele>97.19999999999999</ele><time>2026-04-04T07:23:10.948Z</time></trkpt><trkpt lat="45.33797432408789" lon="9.109010817656081"><ele>97.80000000000001</ele><time>2026-04-04T07:23:12.948Z</time></trkpt><trkpt lat="45.33790833762369" lon="9.108897858203683"><ele>98.4</ele><time>2026-04-04T07:23:14.948Z</time></trkpt><trkpt lat="45.337817695863095" lon="9.108800270540666"><ele>99.0</ele><time>2026-04-04T07:23:16.948Z</time></trkpt><trkpt lat="45.33774654577434" lon="9.108694114366827"><ele>99.0</ele><time>2026-04-04T07:23:18.949Z</time></trkpt><trkpt lat="45.33768316447888" lon="9.108587866080391"><ele>99.0</ele><time>2026-04-04T07:23:20.949Z</time></trkpt><trkpt lat="45.337598071556336" lon="9.108486105083392"><ele>99.0</ele><time>2026-04-04T07:23:22.949Z</time></trkpt><trkpt lat="45.33751070616394" lon="9.108392467747604"><ele>99.0</ele><time>2026-04-04T07:23:24.949Z</time></trkpt><trkpt lat="45.337425431136666" lon="9.10829624761287"><ele>99.0</ele><time>2026-04-04T07:23:26.949Z</time></trkpt><trkpt lat="45.337351897164034" lon="9.108188778600075"><ele>98.80000000000001</ele><time>2026-04-04T07:23:28.949Z</time></trkpt><trkpt lat="45.337278370787494" lon="9.108077103269075"><ele>98.60000000000001</ele><time>2026-04-04T07:23:30.949Z</time></trkpt><trkpt lat="45.33722498743733" lon="9.107951240628953"><ele>98.4</ele><time>2026-04-04T07:23:32.949Z</time></trkpt><trkpt lat="45.33715305866437" lon="9.10781144339782"><ele>98.2</ele><time>2026-04-04T07:23:34.949Z</time></trkpt><trkpt lat="45.337112773169515" lon="9.107664058571327"><ele>98.0</ele><time>2026-04-04T07:23:36.949Z</time></trkpt><trkpt lat="45.33703654562111" lon="9.107542684882013"><ele>98.4</ele><time>2026-04-04T07:23:38.949Z</time></trkpt><trkpt lat="45.33697569992775" lon="9.107408662323488"><ele>98.80000000000001</ele><time>2026-04-04T07:23:40.949Z</time></trkpt><trkpt lat="45.336904733871386" lon="9.107287994268102"><ele>99.2</ele><time>2026-04-04T07:23:42.949Z</time></trkpt><trkpt lat="45.33683589813589" lon="9.107167357865915"><ele>99.6</ele><time>2026-04-04T07:23:44.949Z</time></trkpt><trkpt lat="45.336820211215404" lon="9.107077050388039"><ele>100.0</ele><time>2026-04-04T07:23:45.949Z</time></trkpt><trkpt lat="45.33678353871808" lon="9.10691870909707"><ele>100.0</ele><time>2026-04-04T07:23:47.949Z</time></trkpt><trkpt lat="45.33672620003781" lon="9.10678255581118"><ele>100.0</ele><time>2026-04-04T07:23:49.949Z</time></trkpt><trkpt lat="45.33666641016586" lon="9.106650496192382"><ele>100.0</ele><time>2026-04-04T07:23:51.949Z</time></trkpt><trkpt lat="45.33663526416237" lon="9.106511063987707"><ele>100.0</ele><time>2026-04-04T07:23:53.949Z</time></trkpt><trkpt lat="45.33660587887349" lon="9.106364099919343"><ele>100.0</ele><time>2026-04-04T07:23:55.949Z</time></trkpt><trkpt lat="45.33655565089761" lon="9.106233255061225"><ele>100.0</ele><time>2026-04-04T07:23:57.949Z</time></trkpt><trkpt lat="45.336476530047854" lon="9.106119737054993"><ele>100.0</ele><time>2026-04-04T07:23:59.949Z</time></trkpt><trkpt lat="45.336397238382474" lon="9.106029627714276"><ele>100.0</ele><time>2026-04-04T07:24:01.949Z</time></trkpt><trkpt lat="45.336296531915984" lon="9.10597915179494"><ele>100.0</ele><time>2026-04-04T07:24:03.949Z</time></trkpt><trkpt lat="45.33619156768435" lon="9.105936538134653"><ele>100.0</ele><time>2026-04-04T07:24:05.949Z</time></trkpt><trkpt lat="45.33607945241741" lon="9.105882308112731"><ele>100.00000000000001</ele><time>2026-04-04T07:24:07.949Z</time></trkpt><trkpt lat="45.33601712993475" lon="9.105857069510629"><ele>100.0</ele><time>2026-04-04T07:24:08.949Z</time></trkpt><trkpt lat="45.33595539906662" lon="9.105828975996555"><ele>100.0</ele><time>2026-04-04T07:24:09.949Z</time></trkpt><trkpt lat="45.335888922015634" lon="9.10578804709461"><ele>100.0</ele><time>2026-04-04T07:24:10.948Z</time></trkpt><trkpt lat="45.335823180972106" lon="9.105753880969761"><ele>100.0</ele><time>2026-04-04T07:24:11.948Z</time></trkpt><trkpt lat="45.33575898792997" lon="9.105724411425271"><ele>100.00000000000001</ele><time>2026-04-04T07:24:12.948Z</time></trkpt><trkpt lat="45.335695101598695" lon="9.105692389778937"><ele>100.0</ele><time>2026-04-04T07:24:13.948Z</time></trkpt><trkpt lat="45.33562995895441" lon="9.105662089051169"><ele>99.83333333333334</ele><time>2026-04-04T07:24:14.948Z</time></trkpt><trkpt lat="45.3355587388529" lon="9.105655017685129"><ele>99.66666666666667</ele><time>2026-04-04T07:24:16.948Z</time></trkpt><trkpt lat="45.33547658385902" lon="9.105603938788077"><ele>99.5</ele><time>2026-04-04T07:24:18.948Z</time></trkpt><trkpt lat="45.33540062042449" lon="9.105545683492792"><ele>99.33333333333334</ele><time>2026-04-04T07:24:20.948Z</time></trkpt><trkpt lat="45.335321853759226" lon="9.105486049760168"><ele>99.16666666666667</ele><time>2026-04-04T07:24:22.948Z</time></trkpt><trkpt lat="45.33523331402219" lon="9.105426519213315"><ele>99.0</ele><time>2026-04-04T07:24:24.948Z</time></trkpt><trkpt lat="45.33514271615577" lon="9.105359433477552"><ele>98.80000000000001</ele><time>2026-04-04T07:24:26.948Z</time></trkpt><trkpt lat="45.335057334805164" lon="9.105297980337374"><ele>98.60000000000001</ele><time>2026-04-04T07:24:28.948Z</time></trkpt><trkpt lat="45.33496479639121" lon="9.105226157995874"><ele>98.4</ele><time>2026-04-04T07:24:30.948Z</time></trkpt><trkpt lat="45.33488263606865" lon="9.105158238714006"><ele>98.2</ele><time>2026-04-04T07:24:32.948Z</time></trkpt><trkpt lat="45.33481713683118" lon="9.10508080879132"><ele>98.0</ele><time>2026-04-04T07:24:34.948Z</time></trkpt><trkpt lat="45.334721713404726" lon="9.1050467429618"><ele>98.16666666666666</ele><time>2026-04-04T07:24:36.948Z</time></trkpt><trkpt lat="45.334623056796225" lon="9.10502976506544"><ele>98.33333333333333</ele><time>2026-04-04T07:24:38.948Z</time></trkpt><trkpt lat="45.33453499749426" lon="9.10503225546483"><ele>98.5</ele><time>2026-04-04T07:24:40.948Z</time></trkpt><trkpt lat="45.334459463899115" lon="9.105011171817662"><ele>98.66666666666666</ele><time>2026-04-04T07:24:42.948Z</time></trkpt><trkpt lat="45.33437538343229" lon="9.104978580028567"><ele>98.83333333333333</ele><time>2026-04-04T07:24:45.948Z</time></trkpt><trkpt lat="45.334312490020075" lon="9.104932406933136"><ele>99.0</ele><time>2026-04-04T07:24:48.948Z</time></trkpt><trkpt lat="45.33423827684658" lon="9.104870756787069"><ele>99.0</ele><time>2026-04-04T07:24:51.948Z</time></trkpt><trkpt lat="45.33417847425801" lon="9.104820254132052"><ele>99.0</ele><time>2026-04-04T07:24:54.948Z</time></trkpt><trkpt lat="45.33414889467049" lon="9.104716265258935"><ele>99.0</ele><time>2026-04-04T07:24:58.948Z</time></trkpt><trkpt lat="45.33411454989178" lon="9.104611978558621"><ele>99.0</ele><time>2026-04-04T07:25:02.948Z</time></trkpt><trkpt lat="45.33404685580853" lon="9.10461102324531"><ele>99.0</ele><time>2026-04-04T07:25:35.95Z</time></trkpt><trkpt lat="45.333975739717545" lon="9.104707701305022"><ele>99.0</ele><time>2026-04-04T07:25:48.949Z</time></trkpt><trkpt lat="45.333942401072186" lon="9.104799172851038"><ele>99.0</ele><time>2026-04-04T07:25:50.949Z</time></trkpt><trkpt lat="45.33389573878143" lon="9.10487270837956"><ele>99.0</ele><time>2026-04-04T07:25:52.949Z</time></trkpt><trkpt lat="45.333818989041994" lon="9.104903272509995"><ele>99.0</ele><time>2026-04-04T07:25:54.949Z</time></trkpt><trkpt lat="45.333733179846135" lon="9.104869299969057"><ele>99.0</ele><time>2026-04-04T07:25:56.949Z</time></trkpt><trkpt lat="45.33366078076121" lon="9.104862295721054"><ele>99.0</ele><time>2026-04-04T07:25:57.949Z</time></trkpt><trkpt lat="45.33355765949558" lon="9.104831220813558"><ele>99.0</ele><time>2026-04-04T07:25:59.949Z</time></trkpt><trkpt lat="45.33345069085171" lon="9.104810063207303"><ele>99.2</ele><time>2026-04-04T07:26:01.949Z</time></trkpt><trkpt lat="45.33334455422317" lon="9.104798112190686"><ele>99.4</ele><time>2026-04-04T07:26:03.949Z</time></trkpt><trkpt lat="45.33325459501008" lon="9.104784386545562"><ele>99.6</ele><time>2026-04-04T07:26:05.949Z</time></trkpt><trkpt lat="45.333191030778735" lon="9.104772707758627"><ele>99.8</ele><time>2026-04-04T07:26:06.949Z</time></trkpt><trkpt lat="45.333072426246936" lon="9.104758481484941"><ele>100.0</ele><time>2026-04-04T07:26:08.949Z</time></trkpt><trkpt lat="45.33296077105028" lon="9.104747618873766"><ele>100.0</ele><time>2026-04-04T07:26:10.949Z</time></trkpt><trkpt lat="45.332855663903125" lon="9.104763347060505"><ele>100.0</ele><time>2026-04-04T07:26:12.949Z</time></trkpt><trkpt lat="45.33277253179813" lon="9.10475716150129"><ele>100.0</ele><time>2026-04-04T07:26:14.949Z</time></trkpt><trkpt lat="45.33268159062968" lon="9.10473181509584"><ele>100.0</ele><time>2026-04-04T07:26:16.949Z</time></trkpt><trkpt lat="45.332600186993645" lon="9.104721703050064"><ele>100.0</ele><time>2026-04-04T07:26:18.949Z</time></trkpt><trkpt lat="45.33250930518038" lon="9.104722414947602"><ele>100.0</ele><time>2026-04-04T07:26:20.949Z</time></trkpt><trkpt lat="45.33242016204172" lon="9.104711313191286"><ele>100.0</ele><time>2026-04-04T07:26:22.949Z</time></trkpt><trkpt lat="45.3323302581752" lon="9.104696730846529"><ele>100.0</ele><time>2026-04-04T07:26:24.949Z</time></trkpt><trkpt lat="45.33223962319673" lon="9.10467650838656"><ele>100.0</ele><time>2026-04-04T07:26:26.949Z</time></trkpt><trkpt lat="45.33213655992284" lon="9.104664114162158"><ele>100.0</ele><time>2026-04-04T07:26:28.949Z</time></trkpt><trkpt lat="45.33203815271635" lon="9.10465048736418"><ele>99.4</ele><time>2026-04-04T07:26:30.949Z</time></trkpt><trkpt lat="45.3319297366556" lon="9.104639374651619"><ele>98.8</ele><time>2026-04-04T07:26:32.949Z</time></trkpt><trkpt lat="45.331830480190355" lon="9.104620683927857"><ele>98.19999999999999</ele><time>2026-04-04T07:26:34.949Z</time></trkpt><trkpt lat="45.331731762163734" lon="9.104614400861253"><ele>97.6</ele><time>2026-04-04T07:26:36.949Z</time></trkpt><trkpt lat="45.33163168628768" lon="9.104604484457584"><ele>97.0</ele><time>2026-04-04T07:26:38.949Z</time></trkpt><trkpt lat="45.33152313288539" lon="9.104602912316462"><ele>97.0</ele><time>2026-04-04T07:26:40.949Z</time></trkpt><trkpt lat="45.331409296705296" lon="9.104586259905647"><ele>97.0</ele><time>2026-04-04T07:26:42.949Z</time></trkpt><trkpt lat="45.331303601657844" lon="9.104573647916226"><ele>97.0</ele><time>2026-04-04T07:26:44.949Z</time></trkpt><trkpt lat="45.33121096682619" lon="9.10454836117795"><ele>97.0</ele><time>2026-04-04T07:26:46.949Z</time></trkpt><trkpt lat="45.3311059512988" lon="9.104548685944366"><ele>97.0</ele><time>2026-04-04T07:26:48.949Z</time></trkpt><trkpt lat="45.331001697291754" lon="9.104556618711673"><ele>97.0</ele><time>2026-04-04T07:26:50.949Z</time></trkpt><trkpt lat="45.33091305659783" lon="9.104531551937766"><ele>97.0</ele><time>2026-04-04T07:26:52.949Z</time></trkpt><trkpt lat="45.330836726508615" lon="9.104540179439661"><ele>97.0</ele><time>2026-04-04T07:26:54.949Z</time></trkpt><trkpt lat="45.33074373841181" lon="9.104522718026303"><ele>97.0</ele><time>2026-04-04T07:26:56.949Z</time></trkpt><trkpt lat="45.330647674314804" lon="9.10451996469048"><ele>97.0</ele><time>2026-04-04T07:26:58.949Z</time></trkpt><trkpt lat="45.330534805380665" lon="9.10451034987658"><ele>97.39999999999999</ele><time>2026-04-04T07:27:00.949Z</time></trkpt><trkpt lat="45.330428498278586" lon="9.104486086906562"><ele>97.8</ele><time>2026-04-04T07:27:02.949Z</time></trkpt><trkpt lat="45.33031600982058" lon="9.104484885325018"><ele>98.2</ele><time>2026-04-04T07:27:04.949Z</time></trkpt><trkpt lat="45.33021779702355" lon="9.104466208067253"><ele>98.6</ele><time>2026-04-04T07:27:06.949Z</time></trkpt><trkpt lat="45.33011468405525" lon="9.10445344389878"><ele>99.0</ele><time>2026-04-04T07:27:08.949Z</time></trkpt><trkpt lat="45.3300159807514" lon="9.104462450663492"><ele>99.0</ele><time>2026-04-04T07:27:10.948Z</time></trkpt><trkpt lat="45.32990690511647" lon="9.104453760779748"><ele>99.0</ele><time>2026-04-04T07:27:12.948Z</time></trkpt><trkpt lat="45.32978995608182" lon="9.10444263370855"><ele>99.0</ele><time>2026-04-04T07:27:14.948Z</time></trkpt><trkpt lat="45.32967986605086" lon="9.10443265323052"><ele>99.0</ele><time>2026-04-04T07:27:16.948Z</time></trkpt><trkpt lat="45.32957404709156" lon="9.104421005024523"><ele>99.0</ele><time>2026-04-04T07:27:18.948Z</time></trkpt><trkpt lat="45.329468075514995" lon="9.104409132500807"><ele>99.0</ele><time>2026-04-04T07:27:20.948Z</time></trkpt><trkpt lat="45.32935733948227" lon="9.104395834578733"><ele>99.0</ele><time>2026-04-04T07:27:22.948Z</time></trkpt><trkpt lat="45.32924567069094" lon="9.104385687645403"><ele>99.0</ele><time>2026-04-04T07:27:24.948Z</time></trkpt><trkpt lat="45.329131891311036" lon="9.104367457824905"><ele>99.0</ele><time>2026-04-04T07:27:26.948Z</time></trkpt><trkpt lat="45.32902627945727" lon="9.104350321805827"><ele>99.0</ele><time>2026-04-04T07:27:28.948Z</time></trkpt><trkpt lat="45.32890654435167" lon="9.104337444450506"><ele>99.0</ele><time>2026-04-04T07:27:30.95Z</time></trkpt><trkpt lat="45.32879785971023" lon="9.10432684485221"><ele>99.0</ele><time>2026-04-04T07:27:32.95Z</time></trkpt><trkpt lat="45.32868785400929" lon="9.104324090092156"><ele>99.0</ele><time>2026-04-04T07:27:34.95Z</time></trkpt><trkpt lat="45.328574390529276" lon="9.104309717942973"><ele>99.0</ele><time>2026-04-04T07:27:36.95Z</time></trkpt><trkpt lat="45.328479477696234" lon="9.104299958935623"><ele>99.0</ele><time>2026-04-04T07:27:38.95Z</time></trkpt><trkpt lat="45.328381125691685" lon="9.104280544174783"><ele>99.0</ele><time>2026-04-04T07:27:40.95Z</time></trkpt><trkpt lat="45.32826828829745" lon="9.104275600082191"><ele>99.0</ele><time>2026-04-04T07:27:42.95Z</time></trkpt><trkpt lat="45.3281642026395" lon="9.104256020447792"><ele>99.0</ele><time>2026-04-04T07:27:44.95Z</time></trkpt><trkpt lat="45.32805982697196" lon="9.104245891853243"><ele>99.0</ele><time>2026-04-04T07:27:46.95Z</time></trkpt><trkpt lat="45.32795552236705" lon="9.104231317075659"><ele>99.0</ele><time>2026-04-04T07:27:48.95Z</time></trkpt><trkpt lat="45.3278404247433" lon="9.104213399094556"><ele>99.0</ele><time>2026-04-04T07:27:50.95Z</time></trkpt><trkpt lat="45.327724433320014" lon="9.10419711517987"><ele>99.0</ele><time>2026-04-04T07:27:52.95Z</time></trkpt><trkpt lat="45.32761590520509" lon="9.104189665526768"><ele>99.0</ele><time>2026-04-04T07:27:54.95Z</time></trkpt><trkpt lat="45.327515503426" lon="9.104179143237753"><ele>99.0</ele><time>2026-04-04T07:27:56.95Z</time></trkpt><trkpt lat="45.32740828909181" lon="9.10416280114141"><ele>99.0</ele><time>2026-04-04T07:27:58.95Z</time></trkpt><trkpt lat="45.327304835397314" lon="9.104154931771227"><ele>99.0</ele><time>2026-04-04T07:28:00.95Z</time></trkpt><trkpt lat="45.32720214734995" lon="9.104142703298473"><ele>99.0</ele><time>2026-04-04T07:28:02.95Z</time></trkpt><trkpt lat="45.32708154064708" lon="9.104125790393669"><ele>99.0</ele><time>2026-04-04T07:28:04.95Z</time></trkpt><trkpt lat="45.3269781254867" lon="9.104115962917575"><ele>99.0</ele><time>2026-04-04T07:28:06.95Z</time></trkpt><trkpt lat="45.32686836189099" lon="9.104106426459316"><ele>99.0</ele><time>2026-04-04T07:28:08.95Z</time></trkpt><trkpt lat="45.32680548284389" lon="9.104100003772826"><ele>99.0</ele><time>2026-04-04T07:28:09.95Z</time></trkpt><trkpt lat="45.32670320867201" lon="9.104091514997345"><ele>99.0</ele><time>2026-04-04T07:28:11.95Z</time></trkpt><trkpt lat="45.326591956371786" lon="9.10407721437889"><ele>99.0</ele><time>2026-04-04T07:28:13.95Z</time></trkpt><trkpt lat="45.32649252735788" lon="9.10406837447679"><ele>99.0</ele><time>2026-04-04T07:28:15.95Z</time></trkpt><trkpt lat="45.326388320199904" lon="9.104058738733551"><ele>99.0</ele><time>2026-04-04T07:28:17.95Z</time></trkpt><trkpt lat="45.32627785513259" lon="9.104049604873525"><ele>98.80000000000001</ele><time>2026-04-04T07:28:19.95Z</time></trkpt><trkpt lat="45.32616365933586" lon="9.104041807071559"><ele>98.60000000000001</ele><time>2026-04-04T07:28:21.95Z</time></trkpt><trkpt lat="45.32606147392401" lon="9.104031599810572"><ele>98.4</ele><time>2026-04-04T07:28:23.95Z</time></trkpt><trkpt lat="45.32599464264124" lon="9.104011926946276"><ele>98.2</ele><time>2026-04-04T07:28:24.95Z</time></trkpt><trkpt lat="45.325868341812466" lon="9.103987098541573"><ele>98.0</ele><time>2026-04-04T07:28:26.95Z</time></trkpt><trkpt lat="45.32580331948718" lon="9.10398293265718"><ele>98.0</ele><time>2026-04-04T07:28:27.95Z</time></trkpt><trkpt lat="45.32569200569037" lon="9.103983424836688"><ele>98.0</ele><time>2026-04-04T07:28:29.95Z</time></trkpt><trkpt lat="45.325590933858756" lon="9.103974582676896"><ele>98.0</ele><time>2026-04-04T07:28:31.95Z</time></trkpt><trkpt lat="45.325463067747854" lon="9.103965119577575"><ele>98.0</ele><time>2026-04-04T07:28:33.95Z</time></trkpt><trkpt lat="45.32534588620157" lon="9.103955118423618"><ele>98.0</ele><time>2026-04-04T07:28:35.95Z</time></trkpt><trkpt lat="45.3252352868518" lon="9.10394030725398"><ele>98.0</ele><time>2026-04-04T07:28:37.95Z</time></trkpt><trkpt lat="45.32517070129732" lon="9.103931555153718"><ele>98.0</ele><time>2026-04-04T07:28:38.95Z</time></trkpt><trkpt lat="45.32506060759081" lon="9.103928758469653"><ele>98.0</ele><time>2026-04-04T07:28:40.95Z</time></trkpt><trkpt lat="45.32494369519025" lon="9.10391837827338"><ele>98.0</ele><time>2026-04-04T07:28:42.95Z</time></trkpt><trkpt lat="45.32483143145729" lon="9.10389877054499"><ele>97.80000000000001</ele><time>2026-04-04T07:28:44.95Z</time></trkpt><trkpt lat="45.32472471899015" lon="9.103876570635707"><ele>97.6</ele><time>2026-04-04T07:28:46.95Z</time></trkpt><trkpt lat="45.32461928992953" lon="9.103880675525486"><ele>97.4</ele><time>2026-04-04T07:28:48.95Z</time></trkpt><trkpt lat="45.324502031461876" lon="9.103888983407577"><ele>97.19999999999999</ele><time>2026-04-04T07:28:50.95Z</time></trkpt><trkpt lat="45.32439104311922" lon="9.103894577067026"><ele>97.0</ele><time>2026-04-04T07:28:52.95Z</time></trkpt><trkpt lat="45.3242805659132" lon="9.103912255996956"><ele>97.0</ele><time>2026-04-04T07:28:54.95Z</time></trkpt><trkpt lat="45.32418539414073" lon="9.103935495177854"><ele>97.0</ele><time>2026-04-04T07:28:56.95Z</time></trkpt><trkpt lat="45.32406626085961" lon="9.103956884214195"><ele>97.0</ele><time>2026-04-04T07:28:58.95Z</time></trkpt><trkpt lat="45.32395917893181" lon="9.103983729014733"><ele>97.0</ele><time>2026-04-04T07:29:00.95Z</time></trkpt><trkpt lat="45.32389815463692" lon="9.10401400890951"><ele>97.0</ele><time>2026-04-04T07:29:01.95Z</time></trkpt><trkpt lat="45.32380211176542" lon="9.104060847882337"><ele>97.25</ele><time>2026-04-04T07:29:03.95Z</time></trkpt><trkpt lat="45.323688663769566" lon="9.104098998866348"><ele>97.5</ele><time>2026-04-04T07:29:05.95Z</time></trkpt><trkpt lat="45.323575487549924" lon="9.104144494371452"><ele>97.75</ele><time>2026-04-04T07:29:07.95Z</time></trkpt><trkpt lat="45.323475334478296" lon="9.104180654680393"><ele>98.0</ele><time>2026-04-04T07:29:09.949Z</time></trkpt><trkpt lat="45.323365607884156" lon="9.10421565659766"><ele>98.0</ele><time>2026-04-04T07:29:11.949Z</time></trkpt><trkpt lat="45.32326930798423" lon="9.104259033551157"><ele>98.0</ele><time>2026-04-04T07:29:13.949Z</time></trkpt><trkpt lat="45.32316970228578" lon="9.104293797766822"><ele>98.0</ele><time>2026-04-04T07:29:15.949Z</time></trkpt><trkpt lat="45.3230609268823" lon="9.104326680229113"><ele>98.0</ele><time>2026-04-04T07:29:17.949Z</time></trkpt><trkpt lat="45.32295786922308" lon="9.104361947029846"><ele>98.0</ele><time>2026-04-04T07:29:19.949Z</time></trkpt><trkpt lat="45.32285269959814" lon="9.104398172617206"><ele>97.60000000000001</ele><time>2026-04-04T07:29:21.949Z</time></trkpt><trkpt lat="45.322758640571536" lon="9.104434437700771"><ele>97.2</ele><time>2026-04-04T07:29:23.949Z</time></trkpt><trkpt lat="45.32266150321146" lon="9.104467364012415"><ele>96.8</ele><time>2026-04-04T07:29:25.949Z</time></trkpt><trkpt lat="45.322570270545775" lon="9.104504594637461"><ele>96.4</ele><time>2026-04-04T07:29:27.949Z</time></trkpt><trkpt lat="45.32246091791286" lon="9.104546947163136"><ele>96.0</ele><time>2026-04-04T07:29:29.949Z</time></trkpt><trkpt lat="45.322356297185294" lon="9.104586557498763"><ele>96.0</ele><time>2026-04-04T07:29:31.949Z</time></trkpt><trkpt lat="45.322249738599346" lon="9.104624662961678"><ele>96.0</ele><time>2026-04-04T07:29:33.949Z</time></trkpt><trkpt lat="45.322134418375946" lon="9.104667846827056"><ele>96.0</ele><time>2026-04-04T07:29:35.951Z</time></trkpt><trkpt lat="45.32202495390058" lon="9.104706769575442"><ele>96.0</ele><time>2026-04-04T07:29:37.95Z</time></trkpt><trkpt lat="45.32192547320712" lon="9.104740758485272"><ele>96.0</ele><time>2026-04-04T07:29:39.95Z</time></trkpt><trkpt lat="45.321832174463296" lon="9.104772370851117"><ele>96.19999999999999</ele><time>2026-04-04T07:29:41.951Z</time></trkpt><trkpt lat="45.321733367387715" lon="9.10481623377962"><ele>96.39999999999999</ele><time>2026-04-04T07:29:43.951Z</time></trkpt><trkpt lat="45.321627798459424" lon="9.104852722586402"><ele>96.6</ele><time>2026-04-04T07:29:45.951Z</time></trkpt><trkpt lat="45.32152758311541" lon="9.104888678252836"><ele>96.8</ele><time>2026-04-04T07:29:47.951Z</time></trkpt><trkpt lat="45.32142998976264" lon="9.104930168992118"><ele>97.0</ele><time>2026-04-04T07:29:49.951Z</time></trkpt><trkpt lat="45.32133703572355" lon="9.104966243633498"><ele>96.39999999999999</ele><time>2026-04-04T07:29:51.951Z</time></trkpt><trkpt lat="45.321269083365934" lon="9.104985677787372"><ele>95.8</ele><time>2026-04-04T07:29:52.951Z</time></trkpt><trkpt lat="45.321184749508745" lon="9.105018338015924"><ele>95.2</ele><time>2026-04-04T07:29:54.951Z</time></trkpt><trkpt lat="45.321066033258205" lon="9.105053228575546"><ele>94.6</ele><time>2026-04-04T07:29:56.951Z</time></trkpt><trkpt lat="45.32095297924935" lon="9.105102705217679"><ele>94.0</ele><time>2026-04-04T07:29:58.951Z</time></trkpt><trkpt lat="45.32084618022413" lon="9.105149863362884"><ele>94.0</ele><time>2026-04-04T07:30:00.951Z</time></trkpt><trkpt lat="45.32075150667163" lon="9.105174885245125"><ele>94.0</ele><time>2026-04-04T07:30:02.951Z</time></trkpt><trkpt lat="45.320656872725905" lon="9.105215523177048"><ele>94.0</ele><time>2026-04-04T07:30:04.951Z</time></trkpt><trkpt lat="45.32055693210977" lon="9.105257001357861"><ele>94.0</ele><time>2026-04-04T07:30:06.951Z</time></trkpt><trkpt lat="45.32045015627978" lon="9.105294662848609"><ele>94.0</ele><time>2026-04-04T07:30:08.951Z</time></trkpt><trkpt lat="45.32036309720867" lon="9.105343469145154"><ele>94.4</ele><time>2026-04-04T07:30:10.951Z</time></trkpt><trkpt lat="45.320260275253055" lon="9.105403736785698"><ele>94.80000000000001</ele><time>2026-04-04T07:30:12.951Z</time></trkpt><trkpt lat="45.320155061537385" lon="9.10547380783962"><ele>95.19999999999999</ele><time>2026-04-04T07:30:14.951Z</time></trkpt><trkpt lat="45.3200752415318" lon="9.105523682703197"><ele>95.6</ele><time>2026-04-04T07:30:16.951Z</time></trkpt><trkpt lat="45.319982198307095" lon="9.105600212773075"><ele>96.0</ele><time>2026-04-04T07:30:18.951Z</time></trkpt><trkpt lat="45.31988433587004" lon="9.10567930371626"><ele>96.0</ele><time>2026-04-04T07:30:20.951Z</time></trkpt><trkpt lat="45.3198014656368" lon="9.105747213496365"><ele>96.0</ele><time>2026-04-04T07:30:22.951Z</time></trkpt><trkpt lat="45.3197041017033" lon="9.10581735173316"><ele>96.0</ele><time>2026-04-04T07:30:24.951Z</time></trkpt><trkpt lat="45.31961586495236" lon="9.105892982717513"><ele>96.0</ele><time>2026-04-04T07:30:26.951Z</time></trkpt><trkpt lat="45.31951662439895" lon="9.105973792755474"><ele>96.0</ele><time>2026-04-04T07:30:28.951Z</time></trkpt><trkpt lat="45.319418406807564" lon="9.106038325045272"><ele>96.19999999999999</ele><time>2026-04-04T07:30:30.951Z</time></trkpt><trkpt lat="45.31932791942907" lon="9.106099200559006"><ele>96.39999999999999</ele><time>2026-04-04T07:30:32.951Z</time></trkpt><trkpt lat="45.319233221043866" lon="9.106183116940297"><ele>96.6</ele><time>2026-04-04T07:30:34.951Z</time></trkpt><trkpt lat="45.319137877479314" lon="9.106258241472663"><ele>96.8</ele><time>2026-04-04T07:30:36.951Z</time></trkpt><trkpt lat="45.319047685157194" lon="9.10632003681807"><ele>97.0</ele><time>2026-04-04T07:30:38.951Z</time></trkpt><trkpt lat="45.318970541767214" lon="9.106391427528"><ele>97.0</ele><time>2026-04-04T07:30:40.951Z</time></trkpt><trkpt lat="45.31888667040602" lon="9.106451797701645"><ele>97.0</ele><time>2026-04-04T07:30:42.951Z</time></trkpt><trkpt lat="45.31879670505535" lon="9.106522156583889"><ele>97.0</ele><time>2026-04-04T07:30:44.951Z</time></trkpt><trkpt lat="45.31869450915883" lon="9.106600095779726"><ele>97.0</ele><time>2026-04-04T07:30:46.951Z</time></trkpt><trkpt lat="45.318612736222796" lon="9.106668370436736"><ele>97.0</ele><time>2026-04-04T07:30:48.951Z</time></trkpt><trkpt lat="45.318540459759305" lon="9.106703513988226"><ele>97.0</ele><time>2026-04-04T07:30:50.951Z</time></trkpt><trkpt lat="45.3184539552022" lon="9.106779051150012"><ele>97.0</ele><time>2026-04-04T07:30:52.951Z</time></trkpt><trkpt lat="45.3183424032103" lon="9.106834695678486"><ele>97.0</ele><time>2026-04-04T07:30:54.951Z</time></trkpt><trkpt lat="45.318231106626655" lon="9.106881492135772"><ele>97.0</ele><time>2026-04-04T07:30:56.951Z</time></trkpt><trkpt lat="45.31814132908142" lon="9.106926705920001"><ele>97.0</ele><time>2026-04-04T07:30:58.951Z</time></trkpt><trkpt lat="45.31804672312239" lon="9.106953428624324"><ele>97.00000000000001</ele><time>2026-04-04T07:31:00.951Z</time></trkpt><trkpt lat="45.31796741840046" lon="9.106995317948277"><ele>97.0</ele><time>2026-04-04T07:31:02.95Z</time></trkpt><trkpt lat="45.31789869683223" lon="9.107018357259665"><ele>97.0</ele><time>2026-04-04T07:31:04.95Z</time></trkpt><trkpt lat="45.3178291522308" lon="9.107021459611664"><ele>97.0</ele><time>2026-04-04T07:31:06.95Z</time></trkpt><trkpt lat="45.31774895331568" lon="9.107029010883943"><ele>97.00000000000001</ele><time>2026-04-04T07:31:08.95Z</time></trkpt><trkpt lat="45.31768314483275" lon="9.107063579253264"><ele>97.0</ele><time>2026-04-04T07:31:10.95Z</time></trkpt><trkpt lat="45.31761100459966" lon="9.107092884554786"><ele>97.00000000000001</ele><time>2026-04-04T07:31:12.95Z</time></trkpt><trkpt lat="45.317546989107456" lon="9.107116092556305"><ele>97.0</ele><time>2026-04-04T07:31:14.95Z</time></trkpt><trkpt lat="45.31745677359765" lon="9.107144794060725"><ele>97.0</ele><time>2026-04-04T07:31:17.95Z</time></trkpt><trkpt lat="45.317394348008854" lon="9.107176124408667"><ele>97.0</ele><time>2026-04-04T07:31:19.95Z</time></trkpt><trkpt lat="45.31733239048886" lon="9.107199774105124"><ele>97.00000000000001</ele><time>2026-04-04T07:31:22.95Z</time></trkpt><trkpt lat="45.31725346522851" lon="9.107240911831896"><ele>97.0</ele><time>2026-04-04T07:31:25.95Z</time></trkpt><trkpt lat="45.31716746898273" lon="9.107260559780036"><ele>97.0</ele><time>2026-04-04T07:31:27.95Z</time></trkpt><trkpt lat="45.317072476730615" lon="9.107296342267775"><ele>97.0</ele><time>2026-04-04T07:31:29.95Z</time></trkpt><trkpt lat="45.31701699600334" lon="9.107339475599073"><ele>97.0</ele><time>2026-04-04T07:31:30.95Z</time></trkpt><trkpt lat="45.31691341323742" lon="9.107350335387263"><ele>97.0</ele><time>2026-04-04T07:31:32.95Z</time></trkpt><trkpt lat="45.31679960440656" lon="9.107391463083209"><ele>97.0</ele><time>2026-04-04T07:31:34.95Z</time></trkpt><trkpt lat="45.31670152157259" lon="9.107432238666073"><ele>97.0</ele><time>2026-04-04T07:31:36.95Z</time></trkpt><trkpt lat="45.31662902111491" lon="9.107445437431663"><ele>97.0</ele><time>2026-04-04T07:31:37.95Z</time></trkpt><trkpt lat="45.31656021986032" lon="9.107471421745364"><ele>97.0</ele><time>2026-04-04T07:31:38.95Z</time></trkpt><trkpt lat="45.31649196119986" lon="9.107483643558577"><ele>97.0</ele><time>2026-04-04T07:31:39.95Z</time></trkpt><trkpt lat="45.31636883059942" lon="9.107497645505111"><ele>97.0</ele><time>2026-04-04T07:31:41.952Z</time></trkpt><trkpt lat="45.31625282015867" lon="9.107510343350022"><ele>96.75</ele><time>2026-04-04T07:31:43.951Z</time></trkpt><trkpt lat="45.31612377519408" lon="9.10748458833922"><ele>96.5</ele><time>2026-04-04T07:31:45.951Z</time></trkpt><trkpt lat="45.31601243634191" lon="9.107484833668336"><ele>96.25</ele><time>2026-04-04T07:31:47.951Z</time></trkpt><trkpt lat="45.31588838191189" lon="9.10748369902247"><ele>96.0</ele><time>2026-04-04T07:31:49.951Z</time></trkpt><trkpt lat="45.31576653449533" lon="9.107497344174035"><ele>96.0</ele><time>2026-04-04T07:31:51.951Z</time></trkpt><trkpt lat="45.31567079782723" lon="9.107494339417487"><ele>96.0</ele><time>2026-04-04T07:31:53.952Z</time></trkpt><trkpt lat="45.31560735669731" lon="9.107478263057933"><ele>96.0</ele><time>2026-04-04T07:31:54.951Z</time></trkpt><trkpt lat="45.31550906400829" lon="9.107497003351007"><ele>96.0</ele><time>2026-04-04T07:31:56.951Z</time></trkpt><trkpt lat="45.315412805604026" lon="9.107476106996861"><ele>96.0</ele><time>2026-04-04T07:31:58.951Z</time></trkpt><trkpt lat="45.3153182836319" lon="9.107476106988413"><ele>95.8</ele><time>2026-04-04T07:32:00.951Z</time></trkpt><trkpt lat="45.315224869619826" lon="9.107476106987912"><ele>95.6</ele><time>2026-04-04T07:32:02.951Z</time></trkpt><trkpt lat="45.31511955057854" lon="9.107475199486215"><ele>95.4</ele><time>2026-04-04T07:32:04.951Z</time></trkpt><trkpt lat="45.31502143157529" lon="9.107471688271259"><ele>95.2</ele><time>2026-04-04T07:32:06.951Z</time></trkpt><trkpt lat="45.31491941160472" lon="9.107466522469865"><ele>95.0</ele><time>2026-04-04T07:32:08.951Z</time></trkpt><trkpt lat="45.3148193337543" lon="9.107460917634238"><ele>94.6</ele><time>2026-04-04T07:32:10.951Z</time></trkpt><trkpt lat="45.31471051161378" lon="9.10745482307667"><ele>94.2</ele><time>2026-04-04T07:32:12.951Z</time></trkpt><trkpt lat="45.31459959847674" lon="9.107462196526685"><ele>93.80000000000001</ele><time>2026-04-04T07:32:14.951Z</time></trkpt><trkpt lat="45.31448326467409" lon="9.107443756788387"><ele>93.4</ele><time>2026-04-04T07:32:16.951Z</time></trkpt><trkpt lat="45.31437415256307" lon="9.107447020608657"><ele>93.0</ele><time>2026-04-04T07:32:18.951Z</time></trkpt><trkpt lat="45.314271314765364" lon="9.107466239237626"><ele>93.0</ele><time>2026-04-04T07:32:20.951Z</time></trkpt><trkpt lat="45.31413971582022" lon="9.107480105112346"><ele>93.0</ele><time>2026-04-04T07:32:22.951Z</time></trkpt><trkpt lat="45.3140257146068" lon="9.107522848781306"><ele>93.0</ele><time>2026-04-04T07:32:24.951Z</time></trkpt><trkpt lat="45.313964341742384" lon="9.107545418352943"><ele>93.0</ele><time>2026-04-04T07:32:25.951Z</time></trkpt><trkpt lat="45.31384557251138" lon="9.107565805957835"><ele>93.0</ele><time>2026-04-04T07:32:27.951Z</time></trkpt><trkpt lat="45.31372469694712" lon="9.107613215420145"><ele>93.25</ele><time>2026-04-04T07:32:29.951Z</time></trkpt><trkpt lat="45.3136096505039" lon="9.107654890120646"><ele>93.5</ele><time>2026-04-04T07:32:31.951Z</time></trkpt><trkpt lat="45.3134927555335" lon="9.107689603372922"><ele>93.75</ele><time>2026-04-04T07:32:33.951Z</time></trkpt><trkpt lat="45.313381069993255" lon="9.107737853240659"><ele>94.0</ele><time>2026-04-04T07:32:35.951Z</time></trkpt><trkpt lat="45.31326143300017" lon="9.107786547808056"><ele>94.0</ele><time>2026-04-04T07:32:37.951Z</time></trkpt><trkpt lat="45.31315539747302" lon="9.107816085719184"><ele>94.0</ele><time>2026-04-04T07:32:39.951Z</time></trkpt><trkpt lat="45.31303488237685" lon="9.107866777005228"><ele>94.0</ele><time>2026-04-04T07:32:41.951Z</time></trkpt><trkpt lat="45.31291883145635" lon="9.107912703335236"><ele>94.0</ele><time>2026-04-04T07:32:43.951Z</time></trkpt><trkpt lat="45.31281025149741" lon="9.107952278975551"><ele>93.80000000000001</ele><time>2026-04-04T07:32:45.951Z</time></trkpt><trkpt lat="45.312700365261186" lon="9.107989294126947"><ele>93.60000000000001</ele><time>2026-04-04T07:32:47.951Z</time></trkpt><trkpt lat="45.31258984739098" lon="9.108027993348434"><ele>93.4</ele><time>2026-04-04T07:32:49.951Z</time></trkpt><trkpt lat="45.31249204961612" lon="9.108080663129899"><ele>93.2</ele><time>2026-04-04T07:32:51.951Z</time></trkpt><trkpt lat="45.31243023284872" lon="9.108099146078459"><ele>93.0</ele><time>2026-04-04T07:32:52.951Z</time></trkpt><trkpt lat="45.312333011555495" lon="9.108129823112938"><ele>93.0</ele><time>2026-04-04T07:32:54.951Z</time></trkpt><trkpt lat="45.312201236059636" lon="9.108171037545867"><ele>93.0</ele><time>2026-04-04T07:32:56.951Z</time></trkpt><trkpt lat="45.31209372522387" lon="9.108213674158913"><ele>93.0</ele><time>2026-04-04T07:32:58.951Z</time></trkpt><trkpt lat="45.31199704069771" lon="9.108266938857636"><ele>93.0</ele><time>2026-04-04T07:33:00.951Z</time></trkpt><trkpt lat="45.311878160994276" lon="9.108307438586944"><ele>93.0</ele><time>2026-04-04T07:33:02.95Z</time></trkpt><trkpt lat="45.31176801161892" lon="9.108363622543362"><ele>93.0</ele><time>2026-04-04T07:33:04.95Z</time></trkpt><trkpt lat="45.311706038574776" lon="9.108380364096547"><ele>93.0</ele><time>2026-04-04T07:33:05.95Z</time></trkpt><trkpt lat="45.311597099756966" lon="9.108410758109377"><ele>93.0</ele><time>2026-04-04T07:33:07.95Z</time></trkpt><trkpt lat="45.3114801728843" lon="9.108454722128368"><ele>93.0</ele><time>2026-04-04T07:33:09.95Z</time></trkpt><trkpt lat="45.31136745345456" lon="9.108494344846937"><ele>93.2</ele><time>2026-04-04T07:33:11.95Z</time></trkpt><trkpt lat="45.31126587881134" lon="9.108528374619913"><ele>93.4</ele><time>2026-04-04T07:33:13.95Z</time></trkpt><trkpt lat="45.311156495519135" lon="9.108571721368836"><ele>93.60000000000001</ele><time>2026-04-04T07:33:15.95Z</time></trkpt><trkpt lat="45.3110469839534" lon="9.108611552500106"><ele>93.80000000000001</ele><time>2026-04-04T07:33:17.95Z</time></trkpt><trkpt lat="45.31095665554847" lon="9.10865297374428"><ele>94.0</ele><time>2026-04-04T07:33:19.95Z</time></trkpt><trkpt lat="45.31089266553053" lon="9.108685836523224"><ele>94.0</ele><time>2026-04-04T07:33:20.95Z</time></trkpt><trkpt lat="45.31078242191465" lon="9.108739628894607"><ele>94.0</ele><time>2026-04-04T07:33:22.95Z</time></trkpt><trkpt lat="45.310681539878125" lon="9.10877422861907"><ele>94.0</ele><time>2026-04-04T07:33:24.95Z</time></trkpt><trkpt lat="45.310615831658865" lon="9.108789660975788"><ele>94.0</ele><time>2026-04-04T07:33:25.95Z</time></trkpt><trkpt lat="45.31050442713948" lon="9.1088311621274"><ele>94.0</ele><time>2026-04-04T07:33:27.95Z</time></trkpt><trkpt lat="45.310443462153124" lon="9.10885607438803"><ele>94.0</ele><time>2026-04-04T07:33:28.95Z</time></trkpt><trkpt lat="45.310344420349246" lon="9.10889447525708"><ele>94.0</ele><time>2026-04-04T07:33:30.95Z</time></trkpt><trkpt lat="45.31024614113632" lon="9.108920408703332"><ele>94.0</ele><time>2026-04-04T07:33:32.95Z</time></trkpt><trkpt lat="45.31014116823968" lon="9.1089760394811"><ele>94.0</ele><time>2026-04-04T07:33:34.95Z</time></trkpt><trkpt lat="45.31004164807668" lon="9.109027105031299"><ele>94.0</ele><time>2026-04-04T07:33:36.95Z</time></trkpt><trkpt lat="45.30993757491331" lon="9.109079024129164"><ele>94.0</ele><time>2026-04-04T07:33:38.95Z</time></trkpt><trkpt lat="45.30983646879093" lon="9.109097256064793"><ele>94.0</ele><time>2026-04-04T07:33:40.95Z</time></trkpt><trkpt lat="45.3097132235975" lon="9.109121373023347"><ele>94.0</ele><time>2026-04-04T07:33:42.95Z</time></trkpt><trkpt lat="45.30959566102174" lon="9.109167267143356"><ele>94.0</ele><time>2026-04-04T07:33:44.95Z</time></trkpt><trkpt lat="45.30953347843068" lon="9.109198230610017"><ele>94.0</ele><time>2026-04-04T07:33:45.95Z</time></trkpt><trkpt lat="45.30942207514034" lon="9.109251244371617"><ele>93.80000000000001</ele><time>2026-04-04T07:33:47.952Z</time></trkpt><trkpt lat="45.30929328764953" lon="9.109286217843334"><ele>93.60000000000001</ele><time>2026-04-04T07:33:49.952Z</time></trkpt><trkpt lat="45.30922770357268" lon="9.109295097263617"><ele>93.4</ele><time>2026-04-04T07:33:50.952Z</time></trkpt><trkpt lat="45.30911416456623" lon="9.109340103550192"><ele>93.2</ele><time>2026-04-04T07:33:52.952Z</time></trkpt><trkpt lat="45.309049900995085" lon="9.1093651715756"><ele>93.0</ele><time>2026-04-04T07:33:53.952Z</time></trkpt><trkpt lat="45.308939484654545" lon="9.10941440530702"><ele>93.2</ele><time>2026-04-04T07:33:55.952Z</time></trkpt><trkpt lat="45.308872126708" lon="9.109437242895934"><ele>93.4</ele><time>2026-04-04T07:33:56.952Z</time></trkpt><trkpt lat="45.3087745854865" lon="9.10946452239421"><ele>93.60000000000001</ele><time>2026-04-04T07:33:58.952Z</time></trkpt><trkpt lat="45.308666539845454" lon="9.109506815745483"><ele>93.80000000000001</ele><time>2026-04-04T07:34:00.952Z</time></trkpt><trkpt lat="45.308563095471904" lon="9.10954422185966"><ele>94.0</ele><time>2026-04-04T07:34:02.952Z</time></trkpt><trkpt lat="45.30845119225817" lon="9.109584185594306"><ele>94.0</ele><time>2026-04-04T07:34:04.952Z</time></trkpt><trkpt lat="45.30835130311814" lon="9.10962562881065"><ele>94.0</ele><time>2026-04-04T07:34:06.952Z</time></trkpt><trkpt lat="45.308233975169884" lon="9.109659997600204"><ele>94.0</ele><time>2026-04-04T07:34:08.952Z</time></trkpt><trkpt lat="45.30812333935396" lon="9.10969619411187"><ele>94.0</ele><time>2026-04-04T07:34:10.952Z</time></trkpt><trkpt lat="45.308015857605824" lon="9.109749208287221"><ele>93.75</ele><time>2026-04-04T07:34:12.952Z</time></trkpt><trkpt lat="45.30790293884544" lon="9.109791850496382"><ele>93.5</ele><time>2026-04-04T07:34:14.952Z</time></trkpt><trkpt lat="45.30779280099997" lon="9.109815066547624"><ele>93.25</ele><time>2026-04-04T07:34:16.952Z</time></trkpt><trkpt lat="45.30768565529881" lon="9.109869201154805"><ele>93.0</ele><time>2026-04-04T07:34:18.952Z</time></trkpt><trkpt lat="45.307570187489056" lon="9.109928710371733"><ele>93.0</ele><time>2026-04-04T07:34:20.952Z</time></trkpt><trkpt lat="45.307469164344056" lon="9.109962046959811"><ele>93.0</ele><time>2026-04-04T07:34:22.952Z</time></trkpt><trkpt lat="45.30735288616599" lon="9.109996626999262"><ele>93.0</ele><time>2026-04-04T07:34:24.952Z</time></trkpt><trkpt lat="45.307235661634934" lon="9.110036601739264"><ele>93.0</ele><time>2026-04-04T07:34:26.952Z</time></trkpt><trkpt lat="45.3071316971051" lon="9.110080847663411"><ele>93.2</ele><time>2026-04-04T07:34:28.952Z</time></trkpt><trkpt lat="45.30703507919486" lon="9.110113605465223"><ele>93.4</ele><time>2026-04-04T07:34:30.952Z</time></trkpt><trkpt lat="45.306923606977804" lon="9.110166698410797"><ele>93.60000000000001</ele><time>2026-04-04T07:34:32.952Z</time></trkpt><trkpt lat="45.30681493416483" lon="9.11020295107323"><ele>93.80000000000001</ele><time>2026-04-04T07:34:34.952Z</time></trkpt><trkpt lat="45.30670644869988" lon="9.110238972493098"><ele>94.0</ele><time>2026-04-04T07:34:36.952Z</time></trkpt><trkpt lat="45.3066017032481" lon="9.110266384123506"><ele>94.0</ele><time>2026-04-04T07:34:38.952Z</time></trkpt><trkpt lat="45.30648978410681" lon="9.110319869382847"><ele>94.0</ele><time>2026-04-04T07:34:40.952Z</time></trkpt><trkpt lat="45.30637086227316" lon="9.110356522852209"><ele>94.0</ele><time>2026-04-04T07:34:42.952Z</time></trkpt><trkpt lat="45.306309953412935" lon="9.110384865838565"><ele>94.0</ele><time>2026-04-04T07:34:43.952Z</time></trkpt><trkpt lat="45.306207109817954" lon="9.110422929953481"><ele>94.0</ele><time>2026-04-04T07:34:45.952Z</time></trkpt><trkpt lat="45.30614580269734" lon="9.110446220934794"><ele>94.4</ele><time>2026-04-04T07:34:46.952Z</time></trkpt><trkpt lat="45.30602265997194" lon="9.110496035102594"><ele>94.80000000000001</ele><time>2026-04-04T07:34:48.952Z</time></trkpt><trkpt lat="45.30596463037765" lon="9.110533954347057"><ele>95.19999999999999</ele><time>2026-04-04T07:34:49.952Z</time></trkpt><trkpt lat="45.30583741750285" lon="9.11057777344452"><ele>95.6</ele><time>2026-04-04T07:34:51.952Z</time></trkpt><trkpt lat="45.30574051326889" lon="9.11061078018085"><ele>96.0</ele><time>2026-04-04T07:34:53.952Z</time></trkpt><trkpt lat="45.30568211258586" lon="9.110644322971124"><ele>96.0</ele><time>2026-04-04T07:34:54.952Z</time></trkpt><trkpt lat="45.305575019838265" lon="9.11069727141214"><ele>96.0</ele><time>2026-04-04T07:34:56.951Z</time></trkpt><trkpt lat="45.3054628845418" lon="9.11072203375056"><ele>96.0</ele><time>2026-04-04T07:34:58.951Z</time></trkpt><trkpt lat="45.3053485606075" lon="9.1107744803484"><ele>96.0</ele><time>2026-04-04T07:35:00.951Z</time></trkpt><trkpt lat="45.305280840859204" lon="9.110792314399186"><ele>96.0</ele><time>2026-04-04T07:35:01.951Z</time></trkpt><trkpt lat="45.305171939067186" lon="9.110833204554726"><ele>95.5</ele><time>2026-04-04T07:35:03.951Z</time></trkpt><trkpt lat="45.305069474562536" lon="9.110870500400042"><ele>95.0</ele><time>2026-04-04T07:35:05.951Z</time></trkpt><trkpt lat="45.30500415091832" lon="9.110887954644383"><ele>94.5</ele><time>2026-04-04T07:35:06.951Z</time></trkpt><trkpt lat="45.30494046717238" lon="9.110908795984857"><ele>94.0</ele><time>2026-04-04T07:35:07.951Z</time></trkpt><trkpt lat="45.30483046723611" lon="9.110946303817471"><ele>93.5</ele><time>2026-04-04T07:35:09.951Z</time></trkpt><trkpt lat="45.30476608757685" lon="9.110980332556787"><ele>93.0</ele><time>2026-04-04T07:35:10.951Z</time></trkpt><trkpt lat="45.30466093983757" lon="9.111011335268936"><ele>93.0</ele><time>2026-04-04T07:35:12.951Z</time></trkpt><trkpt lat="45.30454151904892" lon="9.111070611447353"><ele>93.0</ele><time>2026-04-04T07:35:14.951Z</time></trkpt><trkpt lat="45.30447601159953" lon="9.111096599683993"><ele>93.0</ele><time>2026-04-04T07:35:15.951Z</time></trkpt><trkpt lat="45.30436077831782" lon="9.111139324346258"><ele>93.0</ele><time>2026-04-04T07:35:17.951Z</time></trkpt><trkpt lat="45.3042542496736" lon="9.111183428220508"><ele>93.0</ele><time>2026-04-04T07:35:19.951Z</time></trkpt><trkpt lat="45.304160756924695" lon="9.111235057366263"><ele>93.0</ele><time>2026-04-04T07:35:21.951Z</time></trkpt><trkpt lat="45.30404782013988" lon="9.111250070377348"><ele>93.0</ele><time>2026-04-04T07:35:23.951Z</time></trkpt><trkpt lat="45.30394074618083" lon="9.111281643747677"><ele>93.0</ele><time>2026-04-04T07:35:25.951Z</time></trkpt><trkpt lat="45.30383621290496" lon="9.111333496866802"><ele>93.0</ele><time>2026-04-04T07:35:27.951Z</time></trkpt><trkpt lat="45.30371993387949" lon="9.111368087603882"><ele>92.80000000000001</ele><time>2026-04-04T07:35:29.951Z</time></trkpt><trkpt lat="45.303610046169574" lon="9.111408480096534"><ele>92.6</ele><time>2026-04-04T07:35:31.951Z</time></trkpt><trkpt lat="45.30349953213795" lon="9.111443128459278"><ele>92.4</ele><time>2026-04-04T07:35:33.951Z</time></trkpt><trkpt lat="45.303438215674284" lon="9.111468174322406"><ele>92.19999999999999</ele><time>2026-04-04T07:35:34.951Z</time></trkpt><trkpt lat="45.30332716092538" lon="9.111540298595491"><ele>92.0</ele><time>2026-04-04T07:35:36.951Z</time></trkpt><trkpt lat="45.3032667177653" lon="9.11158025377587"><ele>92.0</ele><time>2026-04-04T07:35:37.951Z</time></trkpt><trkpt lat="45.30317834307296" lon="9.111621475219971"><ele>92.0</ele><time>2026-04-04T07:35:39.951Z</time></trkpt><trkpt lat="45.303115658816814" lon="9.111638905476195"><ele>92.0</ele><time>2026-04-04T07:35:40.951Z</time></trkpt><trkpt lat="45.30300684210525" lon="9.111675757254329"><ele>92.0</ele><time>2026-04-04T07:35:42.951Z</time></trkpt><trkpt lat="45.30289583588566" lon="9.111714561145407"><ele>92.0</ele><time>2026-04-04T07:35:44.951Z</time></trkpt><trkpt lat="45.302778955295096" lon="9.111756827707714"><ele>91.75</ele><time>2026-04-04T07:35:46.951Z</time></trkpt><trkpt lat="45.30265517780504" lon="9.111765340249125"><ele>91.5</ele><time>2026-04-04T07:35:48.951Z</time></trkpt><trkpt lat="45.3025495235145" lon="9.111809597687502"><ele>91.25</ele><time>2026-04-04T07:35:50.951Z</time></trkpt><trkpt lat="45.30244847200509" lon="9.111846997411085"><ele>91.0</ele><time>2026-04-04T07:35:52.951Z</time></trkpt><trkpt lat="45.30234635754544" lon="9.111915003774119"><ele>91.19999999999999</ele><time>2026-04-04T07:35:54.953Z</time></trkpt><trkpt lat="45.30224127968816" lon="9.111927149282884"><ele>91.39999999999999</ele><time>2026-04-04T07:35:56.953Z</time></trkpt><trkpt lat="45.302148950315065" lon="9.111977881093182"><ele>91.6</ele><time>2026-04-04T07:35:58.953Z</time></trkpt><trkpt lat="45.302047946765775" lon="9.112019865493712"><ele>91.8</ele><time>2026-04-04T07:36:00.952Z</time></trkpt><trkpt lat="45.30194768432634" lon="9.11207227908863"><ele>92.0</ele><time>2026-04-04T07:36:02.953Z</time></trkpt><trkpt lat="45.30185821004589" lon="9.112122851620075"><ele>92.0</ele><time>2026-04-04T07:36:04.952Z</time></trkpt><trkpt lat="45.30179275582472" lon="9.112140211103265"><ele>92.0</ele><time>2026-04-04T07:36:05.952Z</time></trkpt><trkpt lat="45.30172938573218" lon="9.112158337128236"><ele>92.0</ele><time>2026-04-04T07:36:06.953Z</time></trkpt><trkpt lat="45.301616731708464" lon="9.112183496432642"><ele>92.0</ele><time>2026-04-04T07:36:08.953Z</time></trkpt><trkpt lat="45.30150008233433" lon="9.11223088063222"><ele>92.0</ele><time>2026-04-04T07:36:10.953Z</time></trkpt><trkpt lat="45.30140178091069" lon="9.112274314422155"><ele>92.0</ele><time>2026-04-04T07:36:12.953Z</time></trkpt><trkpt lat="45.30128106918657" lon="9.112315048046922"><ele>92.0</ele><time>2026-04-04T07:36:14.953Z</time></trkpt><trkpt lat="45.30118612479567" lon="9.11235984485931"><ele>92.0</ele><time>2026-04-04T07:36:16.953Z</time></trkpt><trkpt lat="45.30108547512321" lon="9.11239770593085"><ele>92.0</ele><time>2026-04-04T07:36:18.953Z</time></trkpt><trkpt lat="45.30098049606862" lon="9.112428875847403"><ele>92.0</ele><time>2026-04-04T07:36:20.953Z</time></trkpt><trkpt lat="45.300872938549965" lon="9.112454206043198"><ele>92.0</ele><time>2026-04-04T07:36:22.953Z</time></trkpt><trkpt lat="45.300773754958186" lon="9.112493961143283"><ele>92.0</ele><time>2026-04-04T07:36:24.953Z</time></trkpt><trkpt lat="45.300662460467876" lon="9.112526346667694"><ele>92.0</ele><time>2026-04-04T07:36:26.953Z</time></trkpt><trkpt lat="45.3006043988484" lon="9.112565496768292"><ele>92.0</ele><time>2026-04-04T07:36:27.953Z</time></trkpt><trkpt lat="45.30048656543859" lon="9.112628100578732"><ele>92.0</ele><time>2026-04-04T07:36:29.953Z</time></trkpt><trkpt lat="45.30042226702859" lon="9.112663132179181"><ele>92.0</ele><time>2026-04-04T07:36:30.953Z</time></trkpt><trkpt lat="45.300313923152835" lon="9.11268964733774"><ele>92.0</ele><time>2026-04-04T07:36:32.953Z</time></trkpt><trkpt lat="45.30020225998486" lon="9.11272636060872"><ele>92.0</ele><time>2026-04-04T07:36:34.953Z</time></trkpt><trkpt lat="45.30013832464583" lon="9.112756237197825"><ele>92.0</ele><time>2026-04-04T07:36:35.953Z</time></trkpt><trkpt lat="45.30007588627822" lon="9.112775676056863"><ele>92.0</ele><time>2026-04-04T07:36:36.953Z</time></trkpt><trkpt lat="45.29995839546806" lon="9.11282681712252"><ele>92.0</ele><time>2026-04-04T07:36:38.953Z</time></trkpt><trkpt lat="45.29984702920902" lon="9.112866635531521"><ele>92.0</ele><time>2026-04-04T07:36:40.953Z</time></trkpt><trkpt lat="45.29978283146209" lon="9.112876258056726"><ele>92.0</ele><time>2026-04-04T07:36:41.952Z</time></trkpt><trkpt lat="45.29971771856393" lon="9.11289144046121"><ele>92.0</ele><time>2026-04-04T07:36:42.952Z</time></trkpt><trkpt lat="45.299618096326185" lon="9.112949229727032"><ele>92.0</ele><time>2026-04-04T07:36:44.952Z</time></trkpt><trkpt lat="45.29955140243569" lon="9.112958606357102"><ele>92.0</ele><time>2026-04-04T07:36:45.952Z</time></trkpt><trkpt lat="45.29943709088563" lon="9.112993478091555"><ele>91.75</ele><time>2026-04-04T07:36:47.952Z</time></trkpt><trkpt lat="45.299323495909334" lon="9.113047794624897"><ele>91.5</ele><time>2026-04-04T07:36:49.952Z</time></trkpt><trkpt lat="45.299215160148414" lon="9.113083209549103"><ele>91.25</ele><time>2026-04-04T07:36:51.952Z</time></trkpt><trkpt lat="45.2991035799537" lon="9.113114031092397"><ele>91.0</ele><time>2026-04-04T07:36:53.952Z</time></trkpt><trkpt lat="45.298988657177226" lon="9.113138246753067"><ele>91.0</ele><time>2026-04-04T07:36:55.952Z</time></trkpt><trkpt lat="45.2988858353153" lon="9.113188511891035"><ele>91.0</ele><time>2026-04-04T07:36:57.952Z</time></trkpt><trkpt lat="45.29877986046703" lon="9.113237590083296"><ele>91.0</ele><time>2026-04-04T07:36:59.952Z</time></trkpt><trkpt lat="45.29865920821773" lon="9.113279021228161"><ele>91.0</ele><time>2026-04-04T07:37:01.952Z</time></trkpt><trkpt lat="45.298556567432065" lon="9.113343567985236"><ele>91.4</ele><time>2026-04-04T07:37:03.952Z</time></trkpt><trkpt lat="45.29843259480271" lon="9.113391027130087"><ele>91.8</ele><time>2026-04-04T07:37:05.952Z</time></trkpt><trkpt lat="45.29832867464271" lon="9.113441844388808"><ele>92.2</ele><time>2026-04-04T07:37:07.952Z</time></trkpt><trkpt lat="45.298210912596694" lon="9.113444452185712"><ele>92.60000000000001</ele><time>2026-04-04T07:37:09.952Z</time></trkpt><trkpt lat="45.298139166822565" lon="9.113472994740922"><ele>93.0</ele><time>2026-04-04T07:37:10.952Z</time></trkpt><trkpt lat="45.298026047853334" lon="9.113519501145927"><ele>93.25</ele><time>2026-04-04T07:37:12.952Z</time></trkpt><trkpt lat="45.2979182644101" lon="9.113566067516814"><ele>93.5</ele><time>2026-04-04T07:37:14.952Z</time></trkpt><trkpt lat="45.297808239550065" lon="9.11362419282679"><ele>93.75</ele><time>2026-04-04T07:37:16.952Z</time></trkpt><trkpt lat="45.29769087089626" lon="9.11365440849066"><ele>94.0</ele><time>2026-04-04T07:37:18.952Z</time></trkpt><trkpt lat="45.29757211701238" lon="9.11369905529224"><ele>94.0</ele><time>2026-04-04T07:37:20.952Z</time></trkpt><trkpt lat="45.29745713636918" lon="9.113730140084984"><ele>94.0</ele><time>2026-04-04T07:37:22.952Z</time></trkpt><trkpt lat="45.29739630160018" lon="9.113760928092773"><ele>94.0</ele><time>2026-04-04T07:37:23.952Z</time></trkpt><trkpt lat="45.29728044771735" lon="9.113808524610171"><ele>94.0</ele><time>2026-04-04T07:37:25.952Z</time></trkpt><trkpt lat="45.29717360366641" lon="9.113867435936596"><ele>94.0</ele><time>2026-04-04T07:37:27.952Z</time></trkpt><trkpt lat="45.29706810522872" lon="9.113905303829421"><ele>93.80000000000001</ele><time>2026-04-04T07:37:29.952Z</time></trkpt><trkpt lat="45.29700414737669" lon="9.113913184449125"><ele>93.60000000000001</ele><time>2026-04-04T07:37:30.952Z</time></trkpt><trkpt lat="45.29689993238859" lon="9.11395345753235"><ele>93.4</ele><time>2026-04-04T07:37:32.952Z</time></trkpt><trkpt lat="45.296796228862895" lon="9.113995934367429"><ele>93.2</ele><time>2026-04-04T07:37:34.952Z</time></trkpt><trkpt lat="45.296690648553614" lon="9.114058188141312"><ele>93.0</ele><time>2026-04-04T07:37:36.952Z</time></trkpt><trkpt lat="45.296568964632726" lon="9.114111621091043"><ele>93.0</ele><time>2026-04-04T07:37:38.952Z</time></trkpt><trkpt lat="45.2964645952263" lon="9.114147660641901"><ele>93.0</ele><time>2026-04-04T07:37:40.952Z</time></trkpt><trkpt lat="45.29640087633743" lon="9.114170027686056"><ele>93.0</ele><time>2026-04-04T07:37:41.952Z</time></trkpt><trkpt lat="45.29632200864048" lon="9.114172873685005"><ele>93.0</ele><time>2026-04-04T07:37:42.952Z</time></trkpt><trkpt lat="45.29625767330321" lon="9.114186932357612"><ele>93.0</ele><time>2026-04-04T07:37:43.952Z</time></trkpt><trkpt lat="45.29615548953449" lon="9.114227788356258"><ele>93.0</ele><time>2026-04-04T07:37:45.952Z</time></trkpt><trkpt lat="45.2960332261301" lon="9.114251317434741"><ele>92.60000000000001</ele><time>2026-04-04T07:37:47.952Z</time></trkpt><trkpt lat="45.295941430612785" lon="9.114251433959828"><ele>92.2</ele><time>2026-04-04T07:37:48.952Z</time></trkpt><trkpt lat="45.29584282111299" lon="9.114334012510401"><ele>91.8</ele><time>2026-04-04T07:37:50.952Z</time></trkpt><trkpt lat="45.29572784727942" lon="9.114367118421368"><ele>91.4</ele><time>2026-04-04T07:37:52.952Z</time></trkpt><trkpt lat="45.29562000577875" lon="9.114427541134594"><ele>91.0</ele><time>2026-04-04T07:37:54.952Z</time></trkpt><trkpt lat="45.295552665236485" lon="9.114425032350963"><ele>91.0</ele><time>2026-04-04T07:37:55.952Z</time></trkpt><trkpt lat="45.29549188820083" lon="9.114451437407682"><ele>91.0</ele><time>2026-04-04T07:37:56.952Z</time></trkpt><trkpt lat="45.29540130682075" lon="9.114501101968235"><ele>91.0</ele><time>2026-04-04T07:37:58.952Z</time></trkpt><trkpt lat="45.295298881988415" lon="9.11455772917511"><ele>91.0</ele><time>2026-04-04T07:38:00.953Z</time></trkpt><trkpt lat="45.29519254973607" lon="9.114613590107867"><ele>91.0</ele><time>2026-04-04T07:38:02.953Z</time></trkpt><trkpt lat="45.29508180470512" lon="9.114645410989233"><ele>91.0</ele><time>2026-04-04T07:38:04.953Z</time></trkpt><trkpt lat="45.29501467782324" lon="9.114649800009058"><ele>91.0</ele><time>2026-04-04T07:38:05.954Z</time></trkpt><trkpt lat="45.294918905186954" lon="9.114698504848475"><ele>91.0</ele><time>2026-04-04T07:38:07.953Z</time></trkpt><trkpt lat="45.294840055386906" lon="9.114758242314638"><ele>91.0</ele><time>2026-04-04T07:38:09.954Z</time></trkpt><trkpt lat="45.294738278718974" lon="9.114794001515476"><ele>91.0</ele><time>2026-04-04T07:38:11.953Z</time></trkpt><trkpt lat="45.29463019002394" lon="9.114812853098915"><ele>91.0</ele><time>2026-04-04T07:38:13.953Z</time></trkpt><trkpt lat="45.29444349953298" lon="9.114450270978123"><ele>91.0</ele><time>2026-04-04T07:38:15.953Z</time></trkpt><trkpt lat="45.29446951198064" lon="9.11483779069575"><ele>91.0</ele><time>2026-04-04T07:38:16.953Z</time></trkpt><trkpt lat="45.29437483858275" lon="9.114895720649898"><ele>91.0</ele><time>2026-04-04T07:38:18.953Z</time></trkpt><trkpt lat="45.294265818208224" lon="9.114929085652546"><ele>91.0</ele><time>2026-04-04T07:38:20.953Z</time></trkpt><trkpt lat="45.29417505029359" lon="9.114968687268746"><ele>91.0</ele><time>2026-04-04T07:38:22.953Z</time></trkpt><trkpt lat="45.294065715192914" lon="9.115003646343437"><ele>91.0</ele><time>2026-04-04T07:38:24.953Z</time></trkpt><trkpt lat="45.29397135590525" lon="9.115036654752792"><ele>91.0</ele><time>2026-04-04T07:38:26.953Z</time></trkpt><trkpt lat="45.29385290714973" lon="9.11508612753008"><ele>91.0</ele><time>2026-04-04T07:38:28.953Z</time></trkpt><trkpt lat="45.29376773790257" lon="9.115109087924395"><ele>91.0</ele><time>2026-04-04T07:38:30.953Z</time></trkpt><trkpt lat="45.29368490380438" lon="9.115160462500171"><ele>91.0</ele><time>2026-04-04T07:38:32.953Z</time></trkpt><trkpt lat="45.29357727205519" lon="9.115183869999047"><ele>91.0</ele><time>2026-04-04T07:38:34.953Z</time></trkpt><trkpt lat="45.29347498227181" lon="9.115216954022854"><ele>91.0</ele><time>2026-04-04T07:38:36.953Z</time></trkpt><trkpt lat="45.29336052365949" lon="9.11525412584707"><ele>91.0</ele><time>2026-04-04T07:38:38.953Z</time></trkpt><trkpt lat="45.293246061506196" lon="9.115297775253955"><ele>91.0</ele><time>2026-04-04T07:38:40.953Z</time></trkpt><trkpt lat="45.29314335367658" lon="9.115341072228654"><ele>91.0</ele><time>2026-04-04T07:38:42.953Z</time></trkpt><trkpt lat="45.29303210418838" lon="9.11538394196434"><ele>90.75</ele><time>2026-04-04T07:38:44.953Z</time></trkpt><trkpt lat="45.292907360256194" lon="9.115413099671388"><ele>90.5</ele><time>2026-04-04T07:38:46.953Z</time></trkpt><trkpt lat="45.292786047562196" lon="9.115442201986042"><ele>90.25</ele><time>2026-04-04T07:38:48.953Z</time></trkpt><trkpt lat="45.29267317099624" lon="9.115476463566841"><ele>90.0</ele><time>2026-04-04T07:38:50.953Z</time></trkpt><trkpt lat="45.29256994314672" lon="9.115529974084525"><ele>90.0</ele><time>2026-04-04T07:38:52.953Z</time></trkpt><trkpt lat="45.29246989258782" lon="9.115580747491245"><ele>90.0</ele><time>2026-04-04T07:38:54.953Z</time></trkpt><trkpt lat="45.29240667175188" lon="9.115599238110411"><ele>90.0</ele><time>2026-04-04T07:38:55.953Z</time></trkpt><trkpt lat="45.29229976297958" lon="9.115659079588353"><ele>90.0</ele><time>2026-04-04T07:38:57.953Z</time></trkpt><trkpt lat="45.29220192020633" lon="9.115716405679203"><ele>90.0</ele><time>2026-04-04T07:38:59.953Z</time></trkpt><trkpt lat="45.292105066067684" lon="9.115759196390336"><ele>90.4</ele><time>2026-04-04T07:39:01.953Z</time></trkpt><trkpt lat="45.29199763029326" lon="9.115790558587396"><ele>90.8</ele><time>2026-04-04T07:39:03.953Z</time></trkpt><trkpt lat="45.29189709780016" lon="9.115836933429106"><ele>91.19999999999999</ele><time>2026-04-04T07:39:05.953Z</time></trkpt><trkpt lat="45.29183478372067" lon="9.115858462634709"><ele>91.6</ele><time>2026-04-04T07:39:06.953Z</time></trkpt><trkpt lat="45.291720054783646" lon="9.11590867412474"><ele>92.0</ele><time>2026-04-04T07:39:08.953Z</time></trkpt><trkpt lat="45.29163676656365" lon="9.11595477990639"><ele>92.0</ele><time>2026-04-04T07:39:10.953Z</time></trkpt><trkpt lat="45.2915255384394" lon="9.115976655680992"><ele>92.0</ele><time>2026-04-04T07:39:12.953Z</time></trkpt><trkpt lat="45.29142111502586" lon="9.116000167762094"><ele>92.0</ele><time>2026-04-04T07:39:14.952Z</time></trkpt><trkpt lat="45.291314674600414" lon="9.116046680560713"><ele>92.0</ele><time>2026-04-04T07:39:16.947Z</time></trkpt><trkpt lat="45.29120327990211" lon="9.116075905550792"><ele>92.0</ele><time>2026-04-04T07:39:18.943Z</time></trkpt><trkpt lat="45.29109873735243" lon="9.116116611050671"><ele>91.75</ele><time>2026-04-04T07:39:20.939Z</time></trkpt><trkpt lat="45.29099136147231" lon="9.116172854436412"><ele>91.5</ele><time>2026-04-04T07:39:22.936Z</time></trkpt><trkpt lat="45.29088332539356" lon="9.116229432037532"><ele>91.25</ele><time>2026-04-04T07:39:24.933Z</time></trkpt><trkpt lat="45.290760339509966" lon="9.116256058933729"><ele>91.0</ele><time>2026-04-04T07:39:26.93Z</time></trkpt><trkpt lat="45.29064259094896" lon="9.116293063334755"><ele>91.0</ele><time>2026-04-04T07:39:28.928Z</time></trkpt><trkpt lat="45.290534913763764" lon="9.116350559442434"><ele>91.0</ele><time>2026-04-04T07:39:30.926Z</time></trkpt><trkpt lat="45.29041972856439" lon="9.116387635841122"><ele>91.0</ele><time>2026-04-04T07:39:32.924Z</time></trkpt><trkpt lat="45.29031011341668" lon="9.116453921760312"><ele>91.0</ele><time>2026-04-04T07:39:34.922Z</time></trkpt><trkpt lat="45.29019989197802" lon="9.116501293214144"><ele>91.0</ele><time>2026-04-04T07:39:36.921Z</time></trkpt><trkpt lat="45.29008373599611" lon="9.11653308294957"><ele>91.0</ele><time>2026-04-04T07:39:38.92Z</time></trkpt><trkpt lat="45.289963373242614" lon="9.116524492723526"><ele>91.0</ele><time>2026-04-04T07:39:40.919Z</time></trkpt><trkpt lat="45.28984537534201" lon="9.116584090277101"><ele>91.0</ele><time>2026-04-04T07:39:42.918Z</time></trkpt><trkpt lat="45.28978270243048" lon="9.116604110225035"><ele>91.0</ele><time>2026-04-04T07:39:43.917Z</time></trkpt><trkpt lat="45.28969883124722" lon="9.116646184304166"><ele>90.8</ele><time>2026-04-04T07:39:45.917Z</time></trkpt><trkpt lat="45.28959640608975" lon="9.11668759591782"><ele>90.6</ele><time>2026-04-04T07:39:47.916Z</time></trkpt><trkpt lat="45.28953638708734" lon="9.116721377529844"><ele>90.4</ele><time>2026-04-04T07:39:48.916Z</time></trkpt><trkpt lat="45.28947226769652" lon="9.1167339751024"><ele>90.2</ele><time>2026-04-04T07:39:49.915Z</time></trkpt><trkpt lat="45.289353774049665" lon="9.116764944873545"><ele>90.0</ele><time>2026-04-04T07:39:51.915Z</time></trkpt><trkpt lat="45.289235862283014" lon="9.116816043406182"><ele>90.0</ele><time>2026-04-04T07:39:53.914Z</time></trkpt><trkpt lat="45.28913160577011" lon="9.116859550264952"><ele>90.0</ele><time>2026-04-04T07:39:55.914Z</time></trkpt><trkpt lat="45.289017072545924" lon="9.116898490991554"><ele>90.0</ele><time>2026-04-04T07:39:57.913Z</time></trkpt><trkpt lat="45.288921928750526" lon="9.116957127453636"><ele>90.0</ele><time>2026-04-04T07:39:59.913Z</time></trkpt><trkpt lat="45.28885807173044" lon="9.116970102125434"><ele>90.0</ele><time>2026-04-04T07:40:00.913Z</time></trkpt><trkpt lat="45.288740251261466" lon="9.117006943303247"><ele>90.4</ele><time>2026-04-04T07:40:02.913Z</time></trkpt><trkpt lat="45.288624325873535" lon="9.117045041416139"><ele>90.8</ele><time>2026-04-04T07:40:04.912Z</time></trkpt><trkpt lat="45.28851732291917" lon="9.117089107065597"><ele>91.19999999999999</ele><time>2026-04-04T07:40:06.914Z</time></trkpt><trkpt lat="45.28845266534542" lon="9.117101659990592"><ele>91.6</ele><time>2026-04-04T07:40:07.914Z</time></trkpt><trkpt lat="45.28838876097158" lon="9.117109129271771"><ele>92.0</ele><time>2026-04-04T07:40:08.914Z</time></trkpt><trkpt lat="45.28828135479092" lon="9.117161458701416"><ele>92.0</ele><time>2026-04-04T07:40:10.914Z</time></trkpt><trkpt lat="45.28816989396701" lon="9.11722564223474"><ele>92.0</ele><time>2026-04-04T07:40:12.913Z</time></trkpt><trkpt lat="45.28806229730387" lon="9.117262906615384"><ele>92.0</ele><time>2026-04-04T07:40:14.913Z</time></trkpt><trkpt lat="45.28795584685908" lon="9.117299104598496"><ele>92.0</ele><time>2026-04-04T07:40:16.914Z</time></trkpt><trkpt lat="45.28788649153946" lon="9.117315951844054"><ele>92.0</ele><time>2026-04-04T07:40:17.913Z</time></trkpt><trkpt lat="45.28782399060138" lon="9.117334723361298"><ele>92.0</ele><time>2026-04-04T07:40:18.913Z</time></trkpt><trkpt lat="45.28771040056229" lon="9.117369280244436"><ele>92.0</ele><time>2026-04-04T07:40:20.913Z</time></trkpt><trkpt lat="45.287610332689496" lon="9.11741800551001"><ele>92.0</ele><time>2026-04-04T07:40:22.913Z</time></trkpt><trkpt lat="45.28750567649096" lon="9.117470104874927"><ele>92.0</ele><time>2026-04-04T07:40:24.913Z</time></trkpt><trkpt lat="45.28740337436346" lon="9.117521606613572"><ele>92.0</ele><time>2026-04-04T07:40:26.912Z</time></trkpt><trkpt lat="45.287299478274086" lon="9.117563069246842"><ele>92.0</ele><time>2026-04-04T07:40:28.912Z</time></trkpt><trkpt lat="45.28719718461005" lon="9.117583810567274"><ele>92.0</ele><time>2026-04-04T07:40:30.912Z</time></trkpt><trkpt lat="45.28708664869607" lon="9.117615962144422"><ele>92.0</ele><time>2026-04-04T07:40:32.912Z</time></trkpt><trkpt lat="45.2869777234164" lon="9.117677236327403"><ele>92.0</ele><time>2026-04-04T07:40:34.912Z</time></trkpt><trkpt lat="45.28688610999923" lon="9.117711220997538"><ele>92.0</ele><time>2026-04-04T07:40:36.912Z</time></trkpt><trkpt lat="45.286795176517124" lon="9.11776172187791"><ele>92.0</ele><time>2026-04-04T07:40:38.912Z</time></trkpt><trkpt lat="45.28673221177802" lon="9.117772361485603"><ele>92.0</ele><time>2026-04-04T07:40:39.912Z</time></trkpt><trkpt lat="45.28660912407794" lon="9.11780120617588"><ele>92.0</ele><time>2026-04-04T07:40:41.912Z</time></trkpt><trkpt lat="45.28649478686396" lon="9.117828332528042"><ele>92.0</ele><time>2026-04-04T07:40:43.912Z</time></trkpt><trkpt lat="45.28640306529229" lon="9.117872567285598"><ele>92.0</ele><time>2026-04-04T07:40:45.912Z</time></trkpt><trkpt lat="45.28628730805819" lon="9.117920803813927"><ele>91.6</ele><time>2026-04-04T07:40:47.912Z</time></trkpt><trkpt lat="45.286204151235935" lon="9.117969513931417"><ele>91.19999999999999</ele><time>2026-04-04T07:40:49.912Z</time></trkpt><trkpt lat="45.286107947600144" lon="9.118010481303871"><ele>90.8</ele><time>2026-04-04T07:40:51.912Z</time></trkpt><trkpt lat="45.286025785484256" lon="9.118053824199002"><ele>90.4</ele><time>2026-04-04T07:40:53.912Z</time></trkpt><trkpt lat="45.28591786996734" lon="9.11807195477883"><ele>90.0</ele><time>2026-04-04T07:40:55.912Z</time></trkpt><trkpt lat="45.28583152058346" lon="9.118089672378847"><ele>90.0</ele><time>2026-04-04T07:40:57.912Z</time></trkpt><trkpt lat="45.285733051600076" lon="9.118120373320178"><ele>90.0</ele><time>2026-04-04T07:40:59.911Z</time></trkpt><trkpt lat="45.28566406598458" lon="9.118154614142702"><ele>90.0</ele><time>2026-04-04T07:41:01.911Z</time></trkpt><trkpt lat="45.285585937100585" lon="9.118185838177302"><ele>90.0</ele><time>2026-04-04T07:41:03.911Z</time></trkpt><trkpt lat="45.285487923395294" lon="9.118225565564382"><ele>90.0</ele><time>2026-04-04T07:41:05.911Z</time></trkpt><trkpt lat="45.28541823038642" lon="9.118261094477461"><ele>90.0</ele><time>2026-04-04T07:41:07.911Z</time></trkpt><trkpt lat="45.285349537621094" lon="9.118294461118056"><ele>90.0</ele><time>2026-04-04T07:41:09.911Z</time></trkpt><trkpt lat="45.285274429134496" lon="9.118370019696064"><ele>90.0</ele><time>2026-04-04T07:41:12.911Z</time></trkpt><trkpt lat="45.28518274322512" lon="9.118369156617442"><ele>90.0</ele><time>2026-04-04T07:41:14.911Z</time></trkpt><trkpt lat="45.28509711483197" lon="9.11841669338524"><ele>90.0</ele><time>2026-04-04T07:41:16.911Z</time></trkpt><trkpt lat="45.28500644721547" lon="9.118452682520983"><ele>90.0</ele><time>2026-04-04T07:41:18.911Z</time></trkpt><trkpt lat="45.2849011782998" lon="9.118485225572162"><ele>90.0</ele><time>2026-04-04T07:41:20.911Z</time></trkpt><trkpt lat="45.28480541453143" lon="9.118519320169794"><ele>90.0</ele><time>2026-04-04T07:41:22.911Z</time></trkpt><trkpt lat="45.284693811393105" lon="9.118520871202184"><ele>90.0</ele><time>2026-04-04T07:41:24.911Z</time></trkpt><trkpt lat="45.28458164096336" lon="9.11858791455677"><ele>90.0</ele><time>2026-04-04T07:41:26.911Z</time></trkpt><trkpt lat="45.284477770563484" lon="9.118628836801856"><ele>90.0</ele><time>2026-04-04T07:41:28.911Z</time></trkpt><trkpt lat="45.284399339974804" lon="9.118646677699754"><ele>90.0</ele><time>2026-04-04T07:41:30.911Z</time></trkpt><trkpt lat="45.284324091752545" lon="9.118694410677744"><ele>90.0</ele><time>2026-04-04T07:41:33.911Z</time></trkpt><trkpt lat="45.2842541533868" lon="9.11873238401203"><ele>90.0</ele><time>2026-04-04T07:41:35.911Z</time></trkpt><trkpt lat="45.284181452963956" lon="9.118755739129304"><ele>90.0</ele><time>2026-04-04T07:41:37.911Z</time></trkpt><trkpt lat="45.28410622365215" lon="9.11878096056476"><ele>90.0</ele><time>2026-04-04T07:41:39.911Z</time></trkpt><trkpt lat="45.28404014917529" lon="9.11880734730598"><ele>90.0</ele><time>2026-04-04T07:41:40.911Z</time></trkpt><trkpt lat="45.28397329732836" lon="9.118831807817351"><ele>90.0</ele><time>2026-04-04T07:41:41.911Z</time></trkpt><trkpt lat="45.283906279365794" lon="9.118862669229944"><ele>90.0</ele><time>2026-04-04T07:41:42.911Z</time></trkpt><trkpt lat="45.283843153457305" lon="9.118888055568549"><ele>90.0</ele><time>2026-04-04T07:41:43.91Z</time></trkpt><trkpt lat="45.28372923138305" lon="9.118925207941144"><ele>90.0</ele><time>2026-04-04T07:41:45.91Z</time></trkpt><trkpt lat="45.28361994166748" lon="9.118972484696526"><ele>90.0</ele><time>2026-04-04T07:41:47.91Z</time></trkpt><trkpt lat="45.28352909624555" lon="9.119025738893667"><ele>90.0</ele><time>2026-04-04T07:41:49.91Z</time></trkpt><trkpt lat="45.28346907754098" lon="9.119054728840881"><ele>90.0</ele><time>2026-04-04T07:41:50.91Z</time></trkpt><trkpt lat="45.283347488861935" lon="9.119083872764467"><ele>90.0</ele><time>2026-04-04T07:41:52.91Z</time></trkpt><trkpt lat="45.283230397144685" lon="9.119111142696486"><ele>90.0</ele><time>2026-04-04T07:41:54.91Z</time></trkpt><trkpt lat="45.283168396331526" lon="9.11913036419793"><ele>90.0</ele><time>2026-04-04T07:41:55.91Z</time></trkpt><trkpt lat="45.2831050764331" lon="9.119132028808757"><ele>90.0</ele><time>2026-04-04T07:41:56.91Z</time></trkpt><trkpt lat="45.28299811442883" lon="9.119191522360829"><ele>89.75</ele><time>2026-04-04T07:41:58.91Z</time></trkpt><trkpt lat="45.2828854676054" lon="9.119231174266824"><ele>89.5</ele><time>2026-04-04T07:42:00.91Z</time></trkpt><trkpt lat="45.28277118859319" lon="9.119277495915066"><ele>89.25</ele><time>2026-04-04T07:42:02.91Z</time></trkpt><trkpt lat="45.28265974637842" lon="9.119335591223903"><ele>89.0</ele><time>2026-04-04T07:42:04.91Z</time></trkpt><trkpt lat="45.282541101817415" lon="9.119370567949115"><ele>89.0</ele><time>2026-04-04T07:42:06.91Z</time></trkpt><trkpt lat="45.282428421619464" lon="9.119407300193942"><ele>89.0</ele><time>2026-04-04T07:42:08.91Z</time></trkpt><trkpt lat="45.28236541437156" lon="9.119415920331171"><ele>89.0</ele><time>2026-04-04T07:42:09.91Z</time></trkpt><trkpt lat="45.28224670658111" lon="9.119457596094872"><ele>89.0</ele><time>2026-04-04T07:42:11.912Z</time></trkpt><trkpt lat="45.28218330290028" lon="9.11945598092855"><ele>89.0</ele><time>2026-04-04T07:42:12.912Z</time></trkpt><trkpt lat="45.28208441228821" lon="9.119524234118778"><ele>89.25</ele><time>2026-04-04T07:42:14.912Z</time></trkpt><trkpt lat="45.28196319050111" lon="9.119565727495207"><ele>89.5</ele><time>2026-04-04T07:42:16.912Z</time></trkpt><trkpt lat="45.28187568612837" lon="9.119636604127491"><ele>89.75</ele><time>2026-04-04T07:42:18.912Z</time></trkpt><trkpt lat="45.28177300095163" lon="9.119692016908635"><ele>90.0</ele><time>2026-04-04T07:42:20.912Z</time></trkpt><trkpt lat="45.28165485012586" lon="9.119723602829017"><ele>90.0</ele><time>2026-04-04T07:42:22.912Z</time></trkpt><trkpt lat="45.281547556355875" lon="9.11975886394693"><ele>90.0</ele><time>2026-04-04T07:42:24.912Z</time></trkpt><trkpt lat="45.28148572049882" lon="9.119783012400852"><ele>90.0</ele><time>2026-04-04T07:42:25.912Z</time></trkpt><trkpt lat="45.281420214253174" lon="9.11980857804788"><ele>90.0</ele><time>2026-04-04T07:42:26.912Z</time></trkpt><trkpt lat="45.28135787288821" lon="9.11983206228634"><ele>90.0</ele><time>2026-04-04T07:42:27.912Z</time></trkpt><trkpt lat="45.28124708908328" lon="9.119866873158305"><ele>90.0</ele><time>2026-04-04T07:42:29.912Z</time></trkpt><trkpt lat="45.281149566950866" lon="9.119895479188013"><ele>89.8</ele><time>2026-04-04T07:42:31.912Z</time></trkpt><trkpt lat="45.28104212209654" lon="9.119943829160302"><ele>89.6</ele><time>2026-04-04T07:42:33.911Z</time></trkpt><trkpt lat="45.280972055192066" lon="9.119947628365964"><ele>89.4</ele><time>2026-04-04T07:42:34.911Z</time></trkpt><trkpt lat="45.280903973008634" lon="9.119962226858686"><ele>89.2</ele><time>2026-04-04T07:42:35.911Z</time></trkpt><trkpt lat="45.28079162781274" lon="9.120000855916478"><ele>89.0</ele><time>2026-04-04T07:42:37.911Z</time></trkpt><trkpt lat="45.280686956296265" lon="9.120047538077387"><ele>88.75</ele><time>2026-04-04T07:42:39.911Z</time></trkpt><trkpt lat="45.28057674467348" lon="9.120092957617215"><ele>88.5</ele><time>2026-04-04T07:42:41.911Z</time></trkpt><trkpt lat="45.28046782234877" lon="9.120145707195125"><ele>88.25</ele><time>2026-04-04T07:42:43.911Z</time></trkpt><trkpt lat="45.28035725249928" lon="9.120188109088463"><ele>88.0</ele><time>2026-04-04T07:42:45.911Z</time></trkpt><trkpt lat="45.28023710967765" lon="9.12021206176892"><ele>88.0</ele><time>2026-04-04T07:42:47.911Z</time></trkpt><trkpt lat="45.28012564291692" lon="9.120257454167435"><ele>88.0</ele><time>2026-04-04T07:42:49.911Z</time></trkpt><trkpt lat="45.2800178625352" lon="9.120302040995414"><ele>88.0</ele><time>2026-04-04T07:42:51.911Z</time></trkpt><trkpt lat="45.27990356165173" lon="9.120352240241349"><ele>88.0</ele><time>2026-04-04T07:42:53.911Z</time></trkpt><trkpt lat="45.27979493279242" lon="9.120390569544316"><ele>88.4</ele><time>2026-04-04T07:42:55.911Z</time></trkpt><trkpt lat="45.27972923120153" lon="9.120420067342899"><ele>88.80000000000001</ele><time>2026-04-04T07:42:56.911Z</time></trkpt><trkpt lat="45.27966559582925" lon="9.120444103710504"><ele>89.2</ele><time>2026-04-04T07:42:57.911Z</time></trkpt><trkpt lat="45.27956223589728" lon="9.120497563152622"><ele>89.6</ele><time>2026-04-04T07:42:59.911Z</time></trkpt><trkpt lat="45.27944935577072" lon="9.120517028615549"><ele>90.0</ele><time>2026-04-04T07:43:01.911Z</time></trkpt><trkpt lat="45.279337770990765" lon="9.12054470265933"><ele>90.0</ele><time>2026-04-04T07:43:03.911Z</time></trkpt><trkpt lat="45.27921829610782" lon="9.120605706762744"><ele>90.0</ele><time>2026-04-04T07:43:05.911Z</time></trkpt><trkpt lat="45.27915484367028" lon="9.120622057312067"><ele>90.0</ele><time>2026-04-04T07:43:06.911Z</time></trkpt><trkpt lat="45.27904888966721" lon="9.120676019496374"><ele>90.0</ele><time>2026-04-04T07:43:08.911Z</time></trkpt><trkpt lat="45.278941584358336" lon="9.120717512198594"><ele>90.0</ele><time>2026-04-04T07:43:10.911Z</time></trkpt><trkpt lat="45.278876790331594" lon="9.120729036775945"><ele>90.2</ele><time>2026-04-04T07:43:11.911Z</time></trkpt><trkpt lat="45.278793745536085" lon="9.120781637543011"><ele>90.4</ele><time>2026-04-04T07:43:13.911Z</time></trkpt><trkpt lat="45.278675378049755" lon="9.120829683540956"><ele>90.6</ele><time>2026-04-04T07:43:15.911Z</time></trkpt><trkpt lat="45.278612196490855" lon="9.120860380763474"><ele>90.8</ele><time>2026-04-04T07:43:16.911Z</time></trkpt><trkpt lat="45.278524632399154" lon="9.120924577258833"><ele>91.0</ele><time>2026-04-04T07:43:18.911Z</time></trkpt><trkpt lat="45.278425749389626" lon="9.120968939074423"><ele>91.0</ele><time>2026-04-04T07:43:20.91Z</time></trkpt><trkpt lat="45.27835504201664" lon="9.120986848237756"><ele>91.0</ele><time>2026-04-04T07:43:21.91Z</time></trkpt><trkpt lat="45.27823596442856" lon="9.121043442422208"><ele>91.0</ele><time>2026-04-04T07:43:23.91Z</time></trkpt><trkpt lat="45.27817114241887" lon="9.121066053634106"><ele>91.0</ele><time>2026-04-04T07:43:24.91Z</time></trkpt><trkpt lat="45.27806163394615" lon="9.121101428329021"><ele>91.0</ele><time>2026-04-04T07:43:26.91Z</time></trkpt><trkpt lat="45.277945614075996" lon="9.12112955496332"><ele>90.4</ele><time>2026-04-04T07:43:28.91Z</time></trkpt><trkpt lat="45.27782454010253" lon="9.12116258216787"><ele>89.8</ele><time>2026-04-04T07:43:30.91Z</time></trkpt><trkpt lat="45.277762394101515" lon="9.121180394662025"><ele>89.2</ele><time>2026-04-04T07:43:31.91Z</time></trkpt><trkpt lat="45.277706188161986" lon="9.121221187789827"><ele>88.60000000000001</ele><time>2026-04-04T07:43:32.91Z</time></trkpt><trkpt lat="45.27758773094425" lon="9.121273445152616"><ele>88.0</ele><time>2026-04-04T07:43:34.91Z</time></trkpt><trkpt lat="45.27749329637981" lon="9.121298560488906"><ele>88.0</ele><time>2026-04-04T07:43:36.91Z</time></trkpt><trkpt lat="45.277371673754395" lon="9.121336513170094"><ele>88.0</ele><time>2026-04-04T07:43:38.91Z</time></trkpt><trkpt lat="45.27726243126237" lon="9.121374162361262"><ele>88.0</ele><time>2026-04-04T07:43:40.91Z</time></trkpt><trkpt lat="45.2772007771705" lon="9.121394928513872"><ele>88.0</ele><time>2026-04-04T07:43:41.91Z</time></trkpt><trkpt lat="45.27708590989862" lon="9.12142193636761"><ele>88.0</ele><time>2026-04-04T07:43:43.91Z</time></trkpt><trkpt lat="45.276978719952524" lon="9.121460625238353"><ele>88.2</ele><time>2026-04-04T07:43:45.91Z</time></trkpt><trkpt lat="45.27691783897811" lon="9.121503194111332"><ele>88.4</ele><time>2026-04-04T07:43:46.91Z</time></trkpt><trkpt lat="45.276809064125494" lon="9.1215582792858"><ele>88.60000000000001</ele><time>2026-04-04T07:43:48.91Z</time></trkpt><trkpt lat="45.276715011874046" lon="9.121619199899664"><ele>88.80000000000001</ele><time>2026-04-04T07:43:50.91Z</time></trkpt><trkpt lat="45.276607454645664" lon="9.121658229729526"><ele>89.0</ele><time>2026-04-04T07:43:52.91Z</time></trkpt><trkpt lat="45.27650505825305" lon="9.121681173307943"><ele>88.83333333333334</ele><time>2026-04-04T07:43:54.91Z</time></trkpt><trkpt lat="45.27642763254399" lon="9.121680951881144"><ele>88.66666666666667</ele><time>2026-04-04T07:43:55.91Z</time></trkpt><trkpt lat="45.27636968057474" lon="9.1217186705639"><ele>88.5</ele><time>2026-04-04T07:43:56.91Z</time></trkpt><trkpt lat="45.27630828944475" lon="9.121746873516246"><ele>88.33333333333333</ele><time>2026-04-04T07:43:57.91Z</time></trkpt><trkpt lat="45.27624554864171" lon="9.121774647077753"><ele>88.16666666666666</ele><time>2026-04-04T07:43:58.91Z</time></trkpt><trkpt lat="45.276134278715496" lon="9.12182720582048"><ele>88.0</ele><time>2026-04-04T07:44:00.91Z</time></trkpt><trkpt lat="45.276064815170116" lon="9.121842686430579"><ele>88.0</ele><time>2026-04-04T07:44:01.91Z</time></trkpt><trkpt lat="45.276002426055406" lon="9.12186699805828"><ele>88.0</ele><time>2026-04-04T07:44:02.91Z</time></trkpt><trkpt lat="45.27589569058143" lon="9.121902119672507"><ele>88.0</ele><time>2026-04-04T07:44:04.91Z</time></trkpt><trkpt lat="45.2757830303307" lon="9.121937860008426"><ele>88.0</ele><time>2026-04-04T07:44:06.91Z</time></trkpt><trkpt lat="45.27566668036722" lon="9.121971856730992"><ele>88.0</ele><time>2026-04-04T07:44:08.909Z</time></trkpt><trkpt lat="45.275549442917786" lon="9.12203813305581"><ele>88.4</ele><time>2026-04-04T07:44:10.909Z</time></trkpt><trkpt lat="45.27543486589607" lon="9.122077936259979"><ele>88.80000000000001</ele><time>2026-04-04T07:44:12.909Z</time></trkpt><trkpt lat="45.275321151545135" lon="9.122127461801504"><ele>89.2</ele><time>2026-04-04T07:44:14.909Z</time></trkpt><trkpt lat="45.27521416230224" lon="9.122158025003849"><ele>89.6</ele><time>2026-04-04T07:44:16.909Z</time></trkpt><trkpt lat="45.275153332769854" lon="9.122182818751433"><ele>90.0</ele><time>2026-04-04T07:44:17.911Z</time></trkpt><trkpt lat="45.27504229066907" lon="9.122216726204641"><ele>90.0</ele><time>2026-04-04T07:44:19.911Z</time></trkpt><trkpt lat="45.274926442727434" lon="9.122259054836103"><ele>90.0</ele><time>2026-04-04T07:44:21.911Z</time></trkpt><trkpt lat="45.27481089805176" lon="9.122308737429883"><ele>90.0</ele><time>2026-04-04T07:44:23.911Z</time></trkpt><trkpt lat="45.27470833586553" lon="9.122350311116694"><ele>90.0</ele><time>2026-04-04T07:44:25.911Z</time></trkpt><trkpt lat="45.27459673171242" lon="9.122382208371459"><ele>90.0</ele><time>2026-04-04T07:44:27.911Z</time></trkpt><trkpt lat="45.27446209772541" lon="9.12243580869777"><ele>90.0</ele><time>2026-04-04T07:44:29.911Z</time></trkpt><trkpt lat="45.27438465482352" lon="9.122466947091464"><ele>90.0</ele><time>2026-04-04T07:44:31.911Z</time></trkpt><trkpt lat="45.27428443360063" lon="9.122526651313533"><ele>90.0</ele><time>2026-04-04T07:44:33.911Z</time></trkpt><trkpt lat="45.274221722308425" lon="9.122544331026168"><ele>90.0</ele><time>2026-04-04T07:44:34.911Z</time></trkpt><trkpt lat="45.27410487502209" lon="9.122583202164117"><ele>90.0</ele><time>2026-04-04T07:44:36.911Z</time></trkpt><trkpt lat="45.273991718646435" lon="9.122608171570196"><ele>90.0</ele><time>2026-04-04T07:44:38.911Z</time></trkpt><trkpt lat="45.273876612975066" lon="9.122631182770936"><ele>90.0</ele><time>2026-04-04T07:44:40.911Z</time></trkpt><trkpt lat="45.2737924363921" lon="9.12269708626664"><ele>90.0</ele><time>2026-04-04T07:44:42.911Z</time></trkpt><trkpt lat="45.27367700862491" lon="9.122737832299007"><ele>90.0</ele><time>2026-04-04T07:44:44.911Z</time></trkpt><trkpt lat="45.2736140007573" lon="9.122760390684245"><ele>89.8</ele><time>2026-04-04T07:44:45.911Z</time></trkpt><trkpt lat="45.273496099178836" lon="9.122777399384931"><ele>89.6</ele><time>2026-04-04T07:44:47.911Z</time></trkpt><trkpt lat="45.27338011177936" lon="9.122793220630564"><ele>89.4</ele><time>2026-04-04T07:44:49.911Z</time></trkpt><trkpt lat="45.27331663720909" lon="9.12281804161294"><ele>89.2</ele><time>2026-04-04T07:44:50.911Z</time></trkpt><trkpt lat="45.2732110440734" lon="9.122898199688388"><ele>89.0</ele><time>2026-04-04T07:44:52.911Z</time></trkpt><trkpt lat="45.273101331195186" lon="9.122936306926428"><ele>89.0</ele><time>2026-04-04T07:44:54.911Z</time></trkpt><trkpt lat="45.27298517600664" lon="9.122981608587503"><ele>89.0</ele><time>2026-04-04T07:44:56.911Z</time></trkpt><trkpt lat="45.27286364375438" lon="9.123020563800212"><ele>89.0</ele><time>2026-04-04T07:44:58.911Z</time></trkpt><trkpt lat="45.27276827621187" lon="9.123068874798207"><ele>89.0</ele><time>2026-04-04T07:45:00.911Z</time></trkpt><trkpt lat="45.272686972704875" lon="9.123129578041569"><ele>89.0</ele><time>2026-04-04T07:45:02.91Z</time></trkpt><trkpt lat="45.27257297601514" lon="9.123133477362602"><ele>89.0</ele><time>2026-04-04T07:45:04.91Z</time></trkpt><trkpt lat="45.27250605215433" lon="9.123147021131485"><ele>89.0</ele><time>2026-04-04T07:45:05.91Z</time></trkpt><trkpt lat="45.27244209110669" lon="9.123195085321484"><ele>89.0</ele><time>2026-04-04T07:45:06.91Z</time></trkpt><trkpt lat="45.272320917619766" lon="9.123245125337897"><ele>89.0</ele><time>2026-04-04T07:45:08.91Z</time></trkpt><trkpt lat="45.272258201950294" lon="9.123271474114453"><ele>89.0</ele><time>2026-04-04T07:45:09.91Z</time></trkpt><trkpt lat="45.2721372858288" lon="9.123317185909555"><ele>89.0</ele><time>2026-04-04T07:45:11.91Z</time></trkpt><trkpt lat="45.27207345023822" lon="9.123337549575504"><ele>89.0</ele><time>2026-04-04T07:45:12.91Z</time></trkpt><trkpt lat="45.27195968032582" lon="9.12336982417545"><ele>89.0</ele><time>2026-04-04T07:45:14.91Z</time></trkpt><trkpt lat="45.27185609707036" lon="9.123408092383508"><ele>89.0</ele><time>2026-04-04T07:45:16.91Z</time></trkpt><trkpt lat="45.271745700170875" lon="9.123454609062891"><ele>89.0</ele><time>2026-04-04T07:45:18.91Z</time></trkpt><trkpt lat="45.271631465783265" lon="9.123483700442764"><ele>89.0</ele><time>2026-04-04T07:45:20.91Z</time></trkpt><trkpt lat="45.27151909629932" lon="9.123529845431703"><ele>89.0</ele><time>2026-04-04T07:45:22.91Z</time></trkpt><trkpt lat="45.27144842362176" lon="9.123541944229093"><ele>89.0</ele><time>2026-04-04T07:45:23.91Z</time></trkpt><trkpt lat="45.27133735835544" lon="9.123582320772536"><ele>89.0</ele><time>2026-04-04T07:45:25.91Z</time></trkpt><trkpt lat="45.2712318705569" lon="9.123640351126063"><ele>89.0</ele><time>2026-04-04T07:45:27.91Z</time></trkpt><trkpt lat="45.27112505590256" lon="9.123698536921456"><ele>89.2</ele><time>2026-04-04T07:45:29.91Z</time></trkpt><trkpt lat="45.271010104579794" lon="9.123739147024331"><ele>89.4</ele><time>2026-04-04T07:45:31.91Z</time></trkpt><trkpt lat="45.27089584632604" lon="9.123821266882482"><ele>89.6</ele><time>2026-04-04T07:45:33.91Z</time></trkpt><trkpt lat="45.27078167040226" lon="9.12385299671787"><ele>89.8</ele><time>2026-04-04T07:45:35.91Z</time></trkpt><trkpt lat="45.27071046729553" lon="9.12389415152719"><ele>90.0</ele><time>2026-04-04T07:45:36.91Z</time></trkpt><trkpt lat="45.27060556271017" lon="9.12395085894375"><ele>90.0</ele><time>2026-04-04T07:45:38.91Z</time></trkpt><trkpt lat="45.27053811965247" lon="9.123964369835193"><ele>90.0</ele><time>2026-04-04T07:45:39.91Z</time></trkpt><trkpt lat="45.2704094793889" lon="9.123983602106751"><ele>90.0</ele><time>2026-04-04T07:45:41.91Z</time></trkpt><trkpt lat="45.27029010036546" lon="9.124005086236435"><ele>90.0</ele><time>2026-04-04T07:45:43.91Z</time></trkpt><trkpt lat="45.270223539546436" lon="9.12403749632239"><ele>90.0</ele><time>2026-04-04T07:45:44.91Z</time></trkpt><trkpt lat="45.27010675334425" lon="9.124051322662517"><ele>90.0</ele><time>2026-04-04T07:45:46.91Z</time></trkpt><trkpt lat="45.27003427429425" lon="9.124064982712696"><ele>90.0</ele><time>2026-04-04T07:45:47.91Z</time></trkpt><trkpt lat="45.26993101506206" lon="9.124121865289984"><ele>90.0</ele><time>2026-04-04T07:45:49.91Z</time></trkpt><trkpt lat="45.269828455676205" lon="9.124176214907596"><ele>90.0</ele><time>2026-04-04T07:45:51.909Z</time></trkpt><trkpt lat="45.26972414240646" lon="9.12421614486833"><ele>90.0</ele><time>2026-04-04T07:45:53.909Z</time></trkpt><trkpt lat="45.269613630875654" lon="9.124264008896521"><ele>89.66666666666667</ele><time>2026-04-04T07:45:55.909Z</time></trkpt><trkpt lat="45.269536045349504" lon="9.124332061609506"><ele>89.33333333333333</ele><time>2026-04-04T07:45:57.909Z</time></trkpt><trkpt lat="45.26945902457185" lon="9.124330781378417"><ele>89.0</ele><time>2026-04-04T07:45:58.909Z</time></trkpt><trkpt lat="45.26934770497543" lon="9.124389199689487"><ele>88.66666666666666</ele><time>2026-04-04T07:46:00.909Z</time></trkpt><trkpt lat="45.26928538998457" lon="9.12440753370333"><ele>88.33333333333333</ele><time>2026-04-04T07:46:01.909Z</time></trkpt><trkpt lat="45.269219805226115" lon="9.124423169668388"><ele>88.0</ele><time>2026-04-04T07:46:02.909Z</time></trkpt><trkpt lat="45.26912800505043" lon="9.124472240636182"><ele>88.0</ele><time>2026-04-04T07:46:04.909Z</time></trkpt><trkpt lat="45.26906458531738" lon="9.124487330377203"><ele>88.0</ele><time>2026-04-04T07:46:05.909Z</time></trkpt><trkpt lat="45.268961643259985" lon="9.124543256155151"><ele>88.0</ele><time>2026-04-04T07:46:07.909Z</time></trkpt><trkpt lat="45.26888946649553" lon="9.124571623551189"><ele>88.0</ele><time>2026-04-04T07:46:08.909Z</time></trkpt><trkpt lat="45.26877458215245" lon="9.124624314921915"><ele>88.0</ele><time>2026-04-04T07:46:10.909Z</time></trkpt><trkpt lat="45.268656916369" lon="9.124652868406704"><ele>87.80000000000001</ele><time>2026-04-04T07:46:12.909Z</time></trkpt><trkpt lat="45.268544331848105" lon="9.124684660644677"><ele>87.6</ele><time>2026-04-04T07:46:14.909Z</time></trkpt><trkpt lat="45.26848076553959" lon="9.124706802594014"><ele>87.4</ele><time>2026-04-04T07:46:15.909Z</time></trkpt><trkpt lat="45.268363121930264" lon="9.124743198773013"><ele>87.19999999999999</ele><time>2026-04-04T07:46:17.909Z</time></trkpt><trkpt lat="45.268269278225574" lon="9.124798482936344"><ele>87.0</ele><time>2026-04-04T07:46:19.909Z</time></trkpt><trkpt lat="45.26816032668124" lon="9.124847214691519"><ele>87.0</ele><time>2026-04-04T07:46:21.909Z</time></trkpt><trkpt lat="45.2680362563067" lon="9.124861798747117"><ele>87.0</ele><time>2026-04-04T07:46:23.911Z</time></trkpt><trkpt lat="45.267932438867255" lon="9.124900518421454"><ele>87.0</ele><time>2026-04-04T07:46:25.911Z</time></trkpt><trkpt lat="45.26781425822929" lon="9.124923872401219"><ele>87.0</ele><time>2026-04-04T07:46:27.911Z</time></trkpt><trkpt lat="45.267735675390966" lon="9.1249539079597"><ele>87.0</ele><time>2026-04-04T07:46:28.911Z</time></trkpt><trkpt lat="45.267678777083766" lon="9.124997790894845"><ele>87.19999999999999</ele><time>2026-04-04T07:46:29.911Z</time></trkpt><trkpt lat="45.26756253998909" lon="9.125047010778744"><ele>87.4</ele><time>2026-04-04T07:46:31.911Z</time></trkpt><trkpt lat="45.26749450471635" lon="9.125071603565123"><ele>87.6</ele><time>2026-04-04T07:46:32.911Z</time></trkpt><trkpt lat="45.26738353244673" lon="9.125110646489174"><ele>87.80000000000001</ele><time>2026-04-04T07:46:34.911Z</time></trkpt><trkpt lat="45.26727495948802" lon="9.125164222161832"><ele>88.0</ele><time>2026-04-04T07:46:36.911Z</time></trkpt><trkpt lat="45.2671705382623" lon="9.1252202874356"><ele>88.0</ele><time>2026-04-04T07:46:38.911Z</time></trkpt><trkpt lat="45.26705721605249" lon="9.125260553893213"><ele>88.0</ele><time>2026-04-04T07:46:40.911Z</time></trkpt><trkpt lat="45.2669686230528" lon="9.125272969886455"><ele>88.0</ele><time>2026-04-04T07:46:42.911Z</time></trkpt><trkpt lat="45.266904363941" lon="9.12528794061418"><ele>88.0</ele><time>2026-04-04T07:46:43.911Z</time></trkpt><trkpt lat="45.266795084470644" lon="9.125338063624465"><ele>88.0</ele><time>2026-04-04T07:46:45.911Z</time></trkpt><trkpt lat="45.266722947967885" lon="9.125352345364414"><ele>88.0</ele><time>2026-04-04T07:46:46.911Z</time></trkpt><trkpt lat="45.2666579577403" lon="9.1253713513136"><ele>88.0</ele><time>2026-04-04T07:46:47.91Z</time></trkpt><trkpt lat="45.26659504601196" lon="9.12537856505669"><ele>88.0</ele><time>2026-04-04T07:46:48.91Z</time></trkpt><trkpt lat="45.2664900483191" lon="9.125424459075411"><ele>88.0</ele><time>2026-04-04T07:46:50.91Z</time></trkpt><trkpt lat="45.26638136760686" lon="9.125489039069741"><ele>88.0</ele><time>2026-04-04T07:46:52.91Z</time></trkpt><trkpt lat="45.26626470404864" lon="9.125540198076012"><ele>88.0</ele><time>2026-04-04T07:46:54.91Z</time></trkpt><trkpt lat="45.266194945141635" lon="9.12555019090059"><ele>88.0</ele><time>2026-04-04T07:46:55.91Z</time></trkpt><trkpt lat="45.26608345447096" lon="9.125590649599255"><ele>88.0</ele><time>2026-04-04T07:46:57.91Z</time></trkpt><trkpt lat="45.26598158517374" lon="9.12563911312797"><ele>88.0</ele><time>2026-04-04T07:46:59.91Z</time></trkpt><trkpt lat="45.26586435454998" lon="9.125688241906204"><ele>88.0</ele><time>2026-04-04T07:47:01.91Z</time></trkpt><trkpt lat="45.26579685812969" lon="9.125714581160125"><ele>87.80000000000001</ele><time>2026-04-04T07:47:02.91Z</time></trkpt><trkpt lat="45.26567706144085" lon="9.125753859654395"><ele>87.6</ele><time>2026-04-04T07:47:04.91Z</time></trkpt><trkpt lat="45.26557441566306" lon="9.125786247839184"><ele>87.4</ele><time>2026-04-04T07:47:06.91Z</time></trkpt><trkpt lat="45.26546942731724" lon="9.12582894190016"><ele>87.19999999999999</ele><time>2026-04-04T07:47:08.91Z</time></trkpt><trkpt lat="45.26538019663353" lon="9.12588577034848"><ele>87.0</ele><time>2026-04-04T07:47:10.91Z</time></trkpt><trkpt lat="45.26525828542323" lon="9.125920344614507"><ele>87.39999999999999</ele><time>2026-04-04T07:47:12.91Z</time></trkpt><trkpt lat="45.26519826506338" lon="9.12594783180926"><ele>87.8</ele><time>2026-04-04T07:47:13.91Z</time></trkpt><trkpt lat="45.26508725656607" lon="9.125983545938507"><ele>88.2</ele><time>2026-04-04T07:47:15.91Z</time></trkpt><trkpt lat="45.26502049155991" lon="9.12600102972972"><ele>88.6</ele><time>2026-04-04T07:47:16.91Z</time></trkpt><trkpt lat="45.26491980939183" lon="9.126030205767597"><ele>89.0</ele><time>2026-04-04T07:47:18.91Z</time></trkpt><trkpt lat="45.2648197096444" lon="9.126070232383983"><ele>88.80000000000001</ele><time>2026-04-04T07:47:20.91Z</time></trkpt><trkpt lat="45.26472351594725" lon="9.126116418433561"><ele>88.60000000000001</ele><time>2026-04-04T07:47:22.91Z</time></trkpt><trkpt lat="45.26464157920098" lon="9.126174578198546"><ele>88.4</ele><time>2026-04-04T07:47:24.91Z</time></trkpt><trkpt lat="45.26450401379369" lon="9.126185994885516"><ele>88.2</ele><time>2026-04-04T07:47:26.91Z</time></trkpt><trkpt lat="45.264430429730226" lon="9.126208047331811"><ele>88.0</ele><time>2026-04-04T07:47:27.91Z</time></trkpt><trkpt lat="45.2643123506099" lon="9.126241162971043"><ele>88.0</ele><time>2026-04-04T07:47:29.91Z</time></trkpt><trkpt lat="45.264214212868296" lon="9.126298346958531"><ele>88.0</ele><time>2026-04-04T07:47:31.91Z</time></trkpt><trkpt lat="45.26411357641788" lon="9.126323049148452"><ele>88.0</ele><time>2026-04-04T07:47:33.91Z</time></trkpt><trkpt lat="45.26400243673999" lon="9.126383962445761"><ele>88.0</ele><time>2026-04-04T07:47:35.909Z</time></trkpt><trkpt lat="45.26390387231011" lon="9.126429925953573"><ele>88.0</ele><time>2026-04-04T07:47:37.909Z</time></trkpt><trkpt lat="45.26378722028819" lon="9.126471165380696"><ele>88.0</ele><time>2026-04-04T07:47:39.909Z</time></trkpt><trkpt lat="45.26368024315133" lon="9.126515474246842"><ele>88.0</ele><time>2026-04-04T07:47:41.909Z</time></trkpt><trkpt lat="45.26356491938311" lon="9.126547868303383"><ele>88.0</ele><time>2026-04-04T07:47:43.909Z</time></trkpt><trkpt lat="45.26345632466418" lon="9.126593130761426"><ele>88.0</ele><time>2026-04-04T07:47:45.909Z</time></trkpt><trkpt lat="45.26334226519958" lon="9.126637914992473"><ele>88.0</ele><time>2026-04-04T07:47:47.909Z</time></trkpt><trkpt lat="45.263222224698396" lon="9.126671961058504"><ele>88.0</ele><time>2026-04-04T07:47:49.909Z</time></trkpt><trkpt lat="45.2631129703641" lon="9.126733715274852"><ele>88.0</ele><time>2026-04-04T07:47:51.909Z</time></trkpt><trkpt lat="45.26301083545423" lon="9.126763318012454"><ele>88.0</ele><time>2026-04-04T07:47:53.909Z</time></trkpt><trkpt lat="45.26290741392384" lon="9.126781356365896"><ele>88.0</ele><time>2026-04-04T07:47:55.909Z</time></trkpt><trkpt lat="45.26282785676951" lon="9.126809632489689"><ele>87.80000000000001</ele><time>2026-04-04T07:47:57.909Z</time></trkpt><trkpt lat="45.26273234377758" lon="9.126843717606368"><ele>87.6</ele><time>2026-04-04T07:47:59.909Z</time></trkpt><trkpt lat="45.262662609281676" lon="9.126856720738557"><ele>87.4</ele><time>2026-04-04T07:48:00.909Z</time></trkpt><trkpt lat="45.262572280945356" lon="9.126898171047149"><ele>87.19999999999999</ele><time>2026-04-04T07:48:02.909Z</time></trkpt><trkpt lat="45.26244261468808" lon="9.12693446153049"><ele>87.0</ele><time>2026-04-04T07:48:04.909Z</time></trkpt><trkpt lat="45.26233848325269" lon="9.126974820373764"><ele>87.0</ele><time>2026-04-04T07:48:06.909Z</time></trkpt><trkpt lat="45.262247899973936" lon="9.127024791556657"><ele>87.0</ele><time>2026-04-04T07:48:08.909Z</time></trkpt><trkpt lat="45.26215589642353" lon="9.127079798010593"><ele>87.0</ele><time>2026-04-04T07:48:10.909Z</time></trkpt><trkpt lat="45.262090313377314" lon="9.127110616195914"><ele>87.0</ele><time>2026-04-04T07:48:11.909Z</time></trkpt><trkpt lat="45.26202981833592" lon="9.12713894428986"><ele>87.0</ele><time>2026-04-04T07:48:12.909Z</time></trkpt><trkpt lat="45.26191571289281" lon="9.127164424585395"><ele>87.0</ele><time>2026-04-04T07:48:14.909Z</time></trkpt><trkpt lat="45.26185374381887" lon="9.127183009370134"><ele>87.0</ele><time>2026-04-04T07:48:15.909Z</time></trkpt><trkpt lat="45.26172904151207" lon="9.127218682830849"><ele>87.0</ele><time>2026-04-04T07:48:17.909Z</time></trkpt><trkpt lat="45.26162389659959" lon="9.127282547806733"><ele>87.0</ele><time>2026-04-04T07:48:19.909Z</time></trkpt><trkpt lat="45.261517193343636" lon="9.127321740102733"><ele>87.0</ele><time>2026-04-04T07:48:21.909Z</time></trkpt><trkpt lat="45.26140727283474" lon="9.127361280668794"><ele>87.0</ele><time>2026-04-04T07:48:23.908Z</time></trkpt><trkpt lat="45.261294145570126" lon="9.127397192522613"><ele>87.0</ele><time>2026-04-04T07:48:25.908Z</time></trkpt><trkpt lat="45.261177590242575" lon="9.127425136497992"><ele>87.0</ele><time>2026-04-04T07:48:27.908Z</time></trkpt><trkpt lat="45.261115439835635" lon="9.12744924498641"><ele>87.0</ele><time>2026-04-04T07:48:28.908Z</time></trkpt><trkpt lat="45.26102063731257" lon="9.12751160045801"><ele>87.0</ele><time>2026-04-04T07:48:30.91Z</time></trkpt><trkpt lat="45.260908527320346" lon="9.12754868760251"><ele>87.0</ele><time>2026-04-04T07:48:32.911Z</time></trkpt><trkpt lat="45.26081831874675" lon="9.127603040534487"><ele>87.0</ele><time>2026-04-04T07:48:34.91Z</time></trkpt><trkpt lat="45.26074376073691" lon="9.127611328845216"><ele>87.0</ele><time>2026-04-04T07:48:35.91Z</time></trkpt><trkpt lat="45.26063433590297" lon="9.127660526971084"><ele>87.0</ele><time>2026-04-04T07:48:37.911Z</time></trkpt><trkpt lat="45.26057245643431" lon="9.127677462860833"><ele>87.0</ele><time>2026-04-04T07:48:38.911Z</time></trkpt><trkpt lat="45.26046428334224" lon="9.127713694659143"><ele>86.8</ele><time>2026-04-04T07:48:40.911Z</time></trkpt><trkpt lat="45.260400114863295" lon="9.127741538017505"><ele>86.6</ele><time>2026-04-04T07:48:41.911Z</time></trkpt><trkpt lat="45.26033964968916" lon="9.127770853785119"><ele>86.39999999999999</ele><time>2026-04-04T07:48:42.91Z</time></trkpt><trkpt lat="45.26023268244367" lon="9.127820869925706"><ele>86.19999999999999</ele><time>2026-04-04T07:48:44.91Z</time></trkpt><trkpt lat="45.26011148655696" lon="9.127861724645852"><ele>86.0</ele><time>2026-04-04T07:48:46.91Z</time></trkpt><trkpt lat="45.25999823416017" lon="9.127913099166975"><ele>86.0</ele><time>2026-04-04T07:48:48.91Z</time></trkpt><trkpt lat="45.25988269172301" lon="9.127936380558536"><ele>86.0</ele><time>2026-04-04T07:48:50.91Z</time></trkpt><trkpt lat="45.25982074511293" lon="9.127963125889474"><ele>86.0</ele><time>2026-04-04T07:48:51.91Z</time></trkpt><trkpt lat="45.25970748380091" lon="9.12800864369167"><ele>86.0</ele><time>2026-04-04T07:48:53.91Z</time></trkpt><trkpt lat="45.25958397575614" lon="9.128062630489968"><ele>86.0</ele><time>2026-04-04T07:48:55.91Z</time></trkpt><trkpt lat="45.25947358213965" lon="9.128086619880376"><ele>86.0</ele><time>2026-04-04T07:48:57.91Z</time></trkpt><trkpt lat="45.259365879598825" lon="9.128132781252535"><ele>86.0</ele><time>2026-04-04T07:48:59.91Z</time></trkpt><trkpt lat="45.2592993565965" lon="9.128151565050283"><ele>86.0</ele><time>2026-04-04T07:49:00.91Z</time></trkpt><trkpt lat="45.25923605712019" lon="9.128176124074251"><ele>86.0</ele><time>2026-04-04T07:49:01.91Z</time></trkpt><trkpt lat="45.25911806527235" lon="9.128218082688393"><ele>86.0</ele><time>2026-04-04T07:49:03.91Z</time></trkpt><trkpt lat="45.258999943415205" lon="9.1282689971437"><ele>86.5</ele><time>2026-04-04T07:49:05.91Z</time></trkpt><trkpt lat="45.25888245299114" lon="9.12831506280594"><ele>87.0</ele><time>2026-04-04T07:49:07.91Z</time></trkpt><trkpt lat="45.25877034967161" lon="9.128349605246749"><ele>87.5</ele><time>2026-04-04T07:49:09.91Z</time></trkpt><trkpt lat="45.25865837413607" lon="9.128402676990495"><ele>88.0</ele><time>2026-04-04T07:49:11.91Z</time></trkpt><trkpt lat="45.258555817393756" lon="9.12846520698396"><ele>88.0</ele><time>2026-04-04T07:49:13.91Z</time></trkpt><trkpt lat="45.25845302474314" lon="9.12851400526059"><ele>88.0</ele><time>2026-04-04T07:49:15.91Z</time></trkpt><trkpt lat="45.25839052247058" lon="9.1285581851527"><ele>88.0</ele><time>2026-04-04T07:49:16.91Z</time></trkpt><trkpt lat="45.2583180531699" lon="9.128558989440497"><ele>88.0</ele><time>2026-04-04T07:49:17.91Z</time></trkpt><trkpt lat="45.25820298363775" lon="9.128587841179971"><ele>88.0</ele><time>2026-04-04T07:49:19.91Z</time></trkpt><trkpt lat="45.25809161108931" lon="9.128639650026383"><ele>87.60000000000001</ele><time>2026-04-04T07:49:21.91Z</time></trkpt><trkpt lat="45.257991195880734" lon="9.128668299399742"><ele>87.2</ele><time>2026-04-04T07:49:23.91Z</time></trkpt><trkpt lat="45.25788763109031" lon="9.128720969348201"><ele>86.8</ele><time>2026-04-04T07:49:25.91Z</time></trkpt><trkpt lat="45.257769514143675" lon="9.128775314747797"><ele>86.4</ele><time>2026-04-04T07:49:27.91Z</time></trkpt><trkpt lat="45.257670726759" lon="9.128813797335903"><ele>86.0</ele><time>2026-04-04T07:49:29.909Z</time></trkpt><trkpt lat="45.257564011604146" lon="9.128856496441031"><ele>86.0</ele><time>2026-04-04T07:49:31.909Z</time></trkpt><trkpt lat="45.257448996735334" lon="9.128902919215951"><ele>86.0</ele><time>2026-04-04T07:49:33.909Z</time></trkpt><trkpt lat="45.257386341527564" lon="9.128916864373844"><ele>86.0</ele><time>2026-04-04T07:49:34.909Z</time></trkpt><trkpt lat="45.25727232635091" lon="9.128959377728023"><ele>86.0</ele><time>2026-04-04T07:49:36.909Z</time></trkpt><trkpt lat="45.25715824492909" lon="9.128987042384521"><ele>86.0</ele><time>2026-04-04T07:49:38.909Z</time></trkpt><trkpt lat="45.25704437409127" lon="9.129044157461228"><ele>86.19999999999999</ele><time>2026-04-04T07:49:40.909Z</time></trkpt><trkpt lat="45.256934027201254" lon="9.129055767374116"><ele>86.39999999999999</ele><time>2026-04-04T07:49:42.909Z</time></trkpt><trkpt lat="45.25686542230706" lon="9.129074136896246"><ele>86.6</ele><time>2026-04-04T07:49:43.909Z</time></trkpt><trkpt lat="45.25676661627305" lon="9.129081017014895"><ele>86.8</ele><time>2026-04-04T07:49:45.909Z</time></trkpt><trkpt lat="45.25670605097729" lon="9.12910809158067"><ele>87.0</ele><time>2026-04-04T07:49:46.909Z</time></trkpt><trkpt lat="45.256600124544995" lon="9.129180658588165"><ele>87.0</ele><time>2026-04-04T07:49:48.909Z</time></trkpt><trkpt lat="45.25648112184327" lon="9.129242558912194"><ele>87.0</ele><time>2026-04-04T07:49:50.909Z</time></trkpt><trkpt lat="45.256363912675596" lon="9.129281445135593"><ele>87.0</ele><time>2026-04-04T07:49:52.909Z</time></trkpt><trkpt lat="45.25630453540287" lon="9.129317642221688"><ele>87.0</ele><time>2026-04-04T07:49:53.909Z</time></trkpt><trkpt lat="45.25619145107335" lon="9.129371620735911"><ele>87.0</ele><time>2026-04-04T07:49:55.909Z</time></trkpt><trkpt lat="45.256083064782494" lon="9.129417798404791"><ele>87.0</ele><time>2026-04-04T07:49:57.909Z</time></trkpt><trkpt lat="45.2560019056972" lon="9.129504388112064"><ele>87.0</ele><time>2026-04-04T07:49:59.909Z</time></trkpt><trkpt lat="45.25590053027111" lon="9.129570346777125"><ele>87.0</ele><time>2026-04-04T07:50:01.909Z</time></trkpt><trkpt lat="45.255792789763184" lon="9.12965679273023"><ele>87.0</ele><time>2026-04-04T07:50:03.909Z</time></trkpt><trkpt lat="45.255696603009696" lon="9.129737028767478"><ele>87.0</ele><time>2026-04-04T07:50:05.909Z</time></trkpt><trkpt lat="45.25560328140956" lon="9.129823060901339"><ele>87.19999999999999</ele><time>2026-04-04T07:50:07.909Z</time></trkpt><trkpt lat="45.25553934579933" lon="9.12987946211779"><ele>87.4</ele><time>2026-04-04T07:50:08.909Z</time></trkpt><trkpt lat="45.255454212494584" lon="9.129943935663487"><ele>87.6</ele><time>2026-04-04T07:50:10.909Z</time></trkpt><trkpt lat="45.25534827048123" lon="9.13002753103585"><ele>87.80000000000001</ele><time>2026-04-04T07:50:12.909Z</time></trkpt><trkpt lat="45.255246804363715" lon="9.130103652333002"><ele>88.0</ele><time>2026-04-04T07:50:14.909Z</time></trkpt><trkpt lat="45.25514713030469" lon="9.130184952679427"><ele>88.2</ele><time>2026-04-04T07:50:16.909Z</time></trkpt><trkpt lat="45.25507435255938" lon="9.130262700915205"><ele>88.4</ele><time>2026-04-04T07:50:18.908Z</time></trkpt><trkpt lat="45.25499523938553" lon="9.130329342120822"><ele>88.60000000000001</ele><time>2026-04-04T07:50:20.908Z</time></trkpt><trkpt lat="45.254904448691846" lon="9.130409889323564"><ele>88.80000000000001</ele><time>2026-04-04T07:50:22.908Z</time></trkpt><trkpt lat="45.25480558594861" lon="9.13047158899049"><ele>89.0</ele><time>2026-04-04T07:50:24.908Z</time></trkpt><trkpt lat="45.254707057306106" lon="9.130546200651152"><ele>89.0</ele><time>2026-04-04T07:50:26.908Z</time></trkpt><trkpt lat="45.25462391745282" lon="9.130631572755329"><ele>89.0</ele><time>2026-04-04T07:50:28.908Z</time></trkpt><trkpt lat="45.25454597332654" lon="9.130686394349146"><ele>89.0</ele><time>2026-04-04T07:50:30.908Z</time></trkpt><trkpt lat="45.254481157565294" lon="9.130720259723882"><ele>89.0</ele><time>2026-04-04T07:50:31.908Z</time></trkpt><trkpt lat="45.25436145761261" lon="9.13077182694442"><ele>89.0</ele><time>2026-04-04T07:50:33.908Z</time></trkpt><trkpt lat="45.25429302121172" lon="9.130801573709533"><ele>89.33333333333334</ele><time>2026-04-04T07:50:34.908Z</time></trkpt><trkpt lat="45.254217513536396" lon="9.130876071056823"><ele>89.66666666666667</ele><time>2026-04-04T07:50:36.91Z</time></trkpt><trkpt lat="45.25412530691505" lon="9.130947587664519"><ele>90.0</ele><time>2026-04-04T07:50:38.91Z</time></trkpt><trkpt lat="45.25404450590999" lon="9.130994791789732"><ele>90.33333333333333</ele><time>2026-04-04T07:50:40.91Z</time></trkpt><trkpt lat="45.25397041899132" lon="9.13102902953952"><ele>90.66666666666666</ele><time>2026-04-04T07:50:42.91Z</time></trkpt><trkpt lat="45.2538982679592" lon="9.131086267730868"><ele>91.0</ele><time>2026-04-04T07:50:44.91Z</time></trkpt><trkpt lat="45.253804101736065" lon="9.13114319650201"><ele>91.0</ele><time>2026-04-04T07:50:46.91Z</time></trkpt><trkpt lat="45.25371842147455" lon="9.131157729683531"><ele>91.0</ele><time>2026-04-04T07:50:48.91Z</time></trkpt><trkpt lat="45.253619514789534" lon="9.131178762566798"><ele>91.0</ele><time>2026-04-04T07:50:50.91Z</time></trkpt><trkpt lat="45.2535552113079" lon="9.131239458298499"><ele>91.0</ele><time>2026-04-04T07:50:52.91Z</time></trkpt><trkpt lat="45.25349730657877" lon="9.131299616582863"><ele>91.0</ele><time>2026-04-04T07:50:55.91Z</time></trkpt><trkpt lat="45.25342473408658" lon="9.131316178510898"><ele>91.0</ele><time>2026-04-04T07:50:57.91Z</time></trkpt><trkpt lat="45.25335397775685" lon="9.131333700402228"><ele>91.0</ele><time>2026-04-04T07:50:59.91Z</time></trkpt><trkpt lat="45.253326782228584" lon="9.131420400437882"><ele>91.0</ele><time>2026-04-04T07:51:04.91Z</time></trkpt><trkpt lat="45.25331088503252" lon="9.131554719755904"><ele>91.0</ele><time>2026-04-04T07:51:07.91Z</time></trkpt><trkpt lat="45.2533303984751" lon="9.131662674873652"><ele>91.0</ele><time>2026-04-04T07:51:09.91Z</time></trkpt><trkpt lat="45.253347795855085" lon="9.131765096809561"><ele>91.0</ele><time>2026-04-04T07:51:11.91Z</time></trkpt><trkpt lat="45.25335564907262" lon="9.131873530383974"><ele>91.0</ele><time>2026-04-04T07:51:13.91Z</time></trkpt><trkpt lat="45.2533833660961" lon="9.132003074752783"><ele>90.8</ele><time>2026-04-04T07:51:15.91Z</time></trkpt><trkpt lat="45.25343335469932" lon="9.13216191244716"><ele>90.6</ele><time>2026-04-04T07:51:17.91Z</time></trkpt><trkpt lat="45.25345233015849" lon="9.1322942455297"><ele>90.4</ele><time>2026-04-04T07:51:19.91Z</time></trkpt><trkpt lat="45.25347175593963" lon="9.132431692901463"><ele>90.2</ele><time>2026-04-04T07:51:21.91Z</time></trkpt><trkpt lat="45.253506600802815" lon="9.132574230854129"><ele>90.0</ele><time>2026-04-04T07:51:23.91Z</time></trkpt><trkpt lat="45.25353404081204" lon="9.132723887944225"><ele>90.0</ele><time>2026-04-04T07:51:25.909Z</time></trkpt><trkpt lat="45.253561874853666" lon="9.13282237333648"><ele>90.0</ele><time>2026-04-04T07:51:27.909Z</time></trkpt><trkpt lat="45.25359992053555" lon="9.13289550598361"><ele>90.0</ele><time>2026-04-04T07:51:28.909Z</time></trkpt><trkpt lat="45.25363446032311" lon="9.133048825188782"><ele>90.0</ele><time>2026-04-04T07:51:30.909Z</time></trkpt><trkpt lat="45.25365557099432" lon="9.133174640979428"><ele>90.0</ele><time>2026-04-04T07:51:32.909Z</time></trkpt><trkpt lat="45.25368594179323" lon="9.133311691108535"><ele>90.0</ele><time>2026-04-04T07:51:34.909Z</time></trkpt><trkpt lat="45.25369694387044" lon="9.13343090829312"><ele>90.0</ele><time>2026-04-04T07:51:36.909Z</time></trkpt><trkpt lat="45.25374680904814" lon="9.13356487302025"><ele>90.0</ele><time>2026-04-04T07:51:38.909Z</time></trkpt><trkpt lat="45.25377389860069" lon="9.133705410998514"><ele>90.0</ele><time>2026-04-04T07:51:40.909Z</time></trkpt><trkpt lat="45.25380889849" lon="9.133822142794362"><ele>90.0</ele><time>2026-04-04T07:51:42.909Z</time></trkpt><trkpt lat="45.25384814343619" lon="9.133938145957988"><ele>90.0</ele><time>2026-04-04T07:51:44.909Z</time></trkpt><trkpt lat="45.253874936059965" lon="9.134095597391708"><ele>90.0</ele><time>2026-04-04T07:51:46.909Z</time></trkpt><trkpt lat="45.25390533642386" lon="9.134236020784284"><ele>90.0</ele><time>2026-04-04T07:51:48.909Z</time></trkpt><trkpt lat="45.253956233187665" lon="9.134382691595627"><ele>90.0</ele><time>2026-04-04T07:51:50.909Z</time></trkpt><trkpt lat="45.25395311876983" lon="9.134477607821122"><ele>90.0</ele><time>2026-04-04T07:51:51.909Z</time></trkpt><trkpt lat="45.25396787388958" lon="9.134637701196489"><ele>90.0</ele><time>2026-04-04T07:51:53.909Z</time></trkpt><trkpt lat="45.25398923130716" lon="9.134804619230005"><ele>89.8</ele><time>2026-04-04T07:51:55.909Z</time></trkpt><trkpt lat="45.254026401534205" lon="9.134937383358395"><ele>89.6</ele><time>2026-04-04T07:51:57.909Z</time></trkpt><trkpt lat="45.254048994305364" lon="9.135096431960196"><ele>89.4</ele><time>2026-04-04T07:51:59.909Z</time></trkpt><trkpt lat="45.254071774060236" lon="9.135182281286157"><ele>89.2</ele><time>2026-04-04T07:52:00.909Z</time></trkpt><trkpt lat="45.25409806434912" lon="9.135310683562007"><ele>89.0</ele><time>2026-04-04T07:52:02.909Z</time></trkpt><trkpt lat="45.25414238425156" lon="9.135457731468703"><ele>89.0</ele><time>2026-04-04T07:52:04.909Z</time></trkpt><trkpt lat="45.254175796653854" lon="9.135587955737874"><ele>89.0</ele><time>2026-04-04T07:52:06.909Z</time></trkpt><trkpt lat="45.254186352464764" lon="9.135678856014598"><ele>89.0</ele><time>2026-04-04T07:52:07.909Z</time></trkpt><trkpt lat="45.25420763639111" lon="9.135770757332283"><ele>89.0</ele><time>2026-04-04T07:52:08.909Z</time></trkpt><trkpt lat="45.25423189571969" lon="9.13585395136408"><ele>89.0</ele><time>2026-04-04T07:52:09.909Z</time></trkpt><trkpt lat="45.254268394200835" lon="9.13601034676623"><ele>89.0</ele><time>2026-04-04T07:52:11.909Z</time></trkpt><trkpt lat="45.25430356802205" lon="9.136100332712124"><ele>89.0</ele><time>2026-04-04T07:52:13.908Z</time></trkpt><trkpt lat="45.25432444333806" lon="9.136262673192022"><ele>89.0</ele><time>2026-04-04T07:52:15.908Z</time></trkpt><trkpt lat="45.25435942499879" lon="9.136407144812706"><ele>89.0</ele><time>2026-04-04T07:52:17.908Z</time></trkpt><trkpt lat="45.25437755772618" lon="9.13650500941742"><ele>89.0</ele><time>2026-04-04T07:52:18.908Z</time></trkpt><trkpt lat="45.254396168503526" lon="9.136597306549923"><ele>89.0</ele><time>2026-04-04T07:52:19.908Z</time></trkpt><trkpt lat="45.25441656917846" lon="9.136684895795554"><ele>89.0</ele><time>2026-04-04T07:52:20.908Z</time></trkpt><trkpt lat="45.254443026668035" lon="9.13684893388838"><ele>89.0</ele><time>2026-04-04T07:52:22.908Z</time></trkpt><trkpt lat="45.254462925578004" lon="9.13701330886385"><ele>89.0</ele><time>2026-04-04T07:52:24.908Z</time></trkpt><trkpt lat="45.25450788358842" lon="9.137143149776866"><ele>89.0</ele><time>2026-04-04T07:52:26.908Z</time></trkpt><trkpt lat="45.25455630864659" lon="9.137299169793042"><ele>89.0</ele><time>2026-04-04T07:52:28.908Z</time></trkpt><trkpt lat="45.25457632696154" lon="9.137400967403645"><ele>89.0</ele><time>2026-04-04T07:52:29.908Z</time></trkpt><trkpt lat="45.25460537255583" lon="9.137571619180264"><ele>89.0</ele><time>2026-04-04T07:52:31.908Z</time></trkpt><trkpt lat="45.2546145543885" lon="9.137709496521152"><ele>89.0</ele><time>2026-04-04T07:52:33.908Z</time></trkpt><trkpt lat="45.254643783945106" lon="9.137789098793027"><ele>89.0</ele><time>2026-04-04T07:52:34.908Z</time></trkpt><trkpt lat="45.25467227824797" lon="9.137947756057253"><ele>89.0</ele><time>2026-04-04T07:52:36.908Z</time></trkpt><trkpt lat="45.254705895953926" lon="9.138106184157849"><ele>89.0</ele><time>2026-04-04T07:52:38.908Z</time></trkpt><trkpt lat="45.25474661168477" lon="9.138254622773367"><ele>89.0</ele><time>2026-04-04T07:52:40.908Z</time></trkpt><trkpt lat="45.25477320038748" lon="9.13837024850643"><ele>89.0</ele><time>2026-04-04T07:52:42.909Z</time></trkpt><trkpt lat="45.25481467936038" lon="9.138460623438435"><ele>89.0</ele><time>2026-04-04T07:52:44.909Z</time></trkpt><trkpt lat="45.254837002329" lon="9.138630913606729"><ele>89.0</ele><time>2026-04-04T07:52:46.909Z</time></trkpt><trkpt lat="45.254877015264306" lon="9.138785063835758"><ele>89.0</ele><time>2026-04-04T07:52:48.91Z</time></trkpt><trkpt lat="45.25489701754231" lon="9.138926072568843"><ele>88.80000000000001</ele><time>2026-04-04T07:52:50.909Z</time></trkpt><trkpt lat="45.254936564645305" lon="9.13907590286539"><ele>88.60000000000001</ele><time>2026-04-04T07:52:52.909Z</time></trkpt><trkpt lat="45.25498037491218" lon="9.139234045658972"><ele>88.4</ele><time>2026-04-04T07:52:54.91Z</time></trkpt><trkpt lat="45.255002400606024" lon="9.139325528122876"><ele>88.2</ele><time>2026-04-04T07:52:55.91Z</time></trkpt><trkpt lat="45.2550366097908" lon="9.139486858167809"><ele>88.0</ele><time>2026-04-04T07:52:57.91Z</time></trkpt><trkpt lat="45.25508256788226" lon="9.139646838782427"><ele>88.0</ele><time>2026-04-04T07:52:59.909Z</time></trkpt><trkpt lat="45.2551113415303" lon="9.13978174334388"><ele>88.0</ele><time>2026-04-04T07:53:01.909Z</time></trkpt><trkpt lat="45.25514101831928" lon="9.139948969547852"><ele>88.0</ele><time>2026-04-04T07:53:03.909Z</time></trkpt><trkpt lat="45.25517327311558" lon="9.140101360849487"><ele>88.0</ele><time>2026-04-04T07:53:05.909Z</time></trkpt><trkpt lat="45.255197025023676" lon="9.140225369666444"><ele>88.0</ele><time>2026-04-04T07:53:07.909Z</time></trkpt><trkpt lat="45.255235587208" lon="9.140308299815215"><ele>88.0</ele><time>2026-04-04T07:53:08.909Z</time></trkpt><trkpt lat="45.25526188304386" lon="9.140446661491167"><ele>88.0</ele><time>2026-04-04T07:53:10.909Z</time></trkpt><trkpt lat="45.25530211200625" lon="9.14057394327925"><ele>88.0</ele><time>2026-04-04T07:53:12.909Z</time></trkpt><trkpt lat="45.25532556006705" lon="9.140714719456037"><ele>88.0</ele><time>2026-04-04T07:53:14.909Z</time></trkpt><trkpt lat="45.25535366930696" lon="9.140821209776181"><ele>88.0</ele><time>2026-04-04T07:53:16.909Z</time></trkpt><trkpt lat="45.255374055432696" lon="9.140966175227506"><ele>88.2</ele><time>2026-04-04T07:53:18.909Z</time></trkpt><trkpt lat="45.2553898521663" lon="9.141055210473978"><ele>88.4</ele><time>2026-04-04T07:53:19.909Z</time></trkpt><trkpt lat="45.25541795176932" lon="9.141198092454742"><ele>88.60000000000001</ele><time>2026-04-04T07:53:21.909Z</time></trkpt><trkpt lat="45.255447069751135" lon="9.141346372502344"><ele>88.80000000000001</ele><time>2026-04-04T07:53:23.909Z</time></trkpt><trkpt lat="45.25548704035604" lon="9.141495060423573"><ele>89.0</ele><time>2026-04-04T07:53:25.909Z</time></trkpt><trkpt lat="45.255521907832566" lon="9.141635742776549"><ele>88.6</ele><time>2026-04-04T07:53:27.909Z</time></trkpt><trkpt lat="45.25553285862053" lon="9.141725803624977"><ele>88.2</ele><time>2026-04-04T07:53:28.909Z</time></trkpt><trkpt lat="45.25556033479062" lon="9.141871778449167"><ele>87.8</ele><time>2026-04-04T07:53:30.909Z</time></trkpt><trkpt lat="45.25560011439175" lon="9.142017613729468"><ele>87.39999999999999</ele><time>2026-04-04T07:53:32.909Z</time></trkpt><trkpt lat="45.255632680596854" lon="9.142094961302247"><ele>87.0</ele><time>2026-04-04T07:53:33.909Z</time></trkpt><trkpt lat="45.25568184721791" lon="9.142250308765776"><ele>87.0</ele><time>2026-04-04T07:53:35.909Z</time></trkpt><trkpt lat="45.255719886221414" lon="9.142405897415134"><ele>87.0</ele><time>2026-04-04T07:53:37.909Z</time></trkpt><trkpt lat="45.25572914369652" lon="9.14256285397234"><ele>87.0</ele><time>2026-04-04T07:53:39.909Z</time></trkpt><trkpt lat="45.2557605468995" lon="9.142688456730097"><ele>87.0</ele><time>2026-04-04T07:53:41.909Z</time></trkpt><trkpt lat="45.25580546867753" lon="9.142826881009649"><ele>87.0</ele><time>2026-04-04T07:53:43.909Z</time></trkpt><trkpt lat="45.25583904733566" lon="9.142956576360236"><ele>87.0</ele><time>2026-04-04T07:53:45.909Z</time></trkpt><trkpt lat="45.255851823077194" lon="9.14310242237557"><ele>87.0</ele><time>2026-04-04T07:53:47.908Z</time></trkpt><trkpt lat="45.255837214914095" lon="9.14319094629244"><ele>87.0</ele><time>2026-04-04T07:53:48.908Z</time></trkpt><trkpt lat="45.25588411884221" lon="9.143336635969673"><ele>87.0</ele><time>2026-04-04T07:53:50.908Z</time></trkpt><trkpt lat="45.255915749069615" lon="9.143459220195165"><ele>87.0</ele><time>2026-04-04T07:53:52.908Z</time></trkpt><trkpt lat="45.25594407196384" lon="9.14358586257521"><ele>87.19999999999999</ele><time>2026-04-04T07:53:54.908Z</time></trkpt><trkpt lat="45.25598185376858" lon="9.143703454052547"><ele>87.4</ele><time>2026-04-04T07:53:56.908Z</time></trkpt><trkpt lat="45.256023002411496" lon="9.143809693511914"><ele>87.6</ele><time>2026-04-04T07:53:58.908Z</time></trkpt><trkpt lat="45.25607127270475" lon="9.143927324322778"><ele>87.80000000000001</ele><time>2026-04-04T07:54:00.908Z</time></trkpt><trkpt lat="45.25608883865931" lon="9.144077207277238"><ele>88.0</ele><time>2026-04-04T07:54:02.908Z</time></trkpt><trkpt lat="45.256114112542896" lon="9.144215186016368"><ele>88.0</ele><time>2026-04-04T07:54:04.908Z</time></trkpt><trkpt lat="45.25613136720346" lon="9.144316024273644"><ele>88.0</ele><time>2026-04-04T07:54:06.908Z</time></trkpt><trkpt lat="45.256158091575415" lon="9.144462812037798"><ele>88.0</ele><time>2026-04-04T07:54:09.908Z</time></trkpt><trkpt lat="45.256166088085926" lon="9.144578717152568"><ele>88.0</ele><time>2026-04-04T07:54:11.908Z</time></trkpt><trkpt lat="45.25619304241842" lon="9.144697803169946"><ele>88.0</ele><time>2026-04-04T07:54:14.908Z</time></trkpt><trkpt lat="45.256248967223634" lon="9.14480247535755"><ele>88.0</ele><time>2026-04-04T07:54:17.908Z</time></trkpt><trkpt lat="45.25626872850619" lon="9.144913168552048"><ele>88.0</ele><time>2026-04-04T07:54:20.908Z</time></trkpt><trkpt lat="45.25627845373126" lon="9.145009348001583"><ele>88.0</ele><time>2026-04-04T07:54:23.908Z</time></trkpt><trkpt lat="45.25629589480574" lon="9.145103107368437"><ele>88.0</ele><time>2026-04-04T07:54:27.908Z</time></trkpt><trkpt lat="45.25622883726628" lon="9.145128387467762"><ele>88.0</ele><time>2026-04-04T07:54:31.908Z</time></trkpt><trkpt lat="45.25629284539997" lon="9.145152826606676"><ele>88.0</ele><time>2026-04-04T07:58:26.877Z</time></trkpt><trkpt lat="45.256314607242324" lon="9.14505087705477"><ele>88.0</ele><time>2026-04-04T07:58:40.876Z</time></trkpt><trkpt lat="45.256316096983554" lon="9.144950315248394"><ele>88.0</ele><time>2026-04-04T07:58:48.876Z</time></trkpt><trkpt lat="45.25632022750184" lon="9.144851251561088"><ele>88.0</ele><time>2026-04-04T07:59:06.878Z</time></trkpt><trkpt lat="45.25631149694014" lon="9.144737994147656"><ele>88.0</ele><time>2026-04-04T07:59:10.878Z</time></trkpt><trkpt lat="45.256322562706195" lon="9.144647887726432"><ele>88.0</ele><time>2026-04-04T07:59:13.878Z</time></trkpt><trkpt lat="45.25630162262325" lon="9.14453582141692"><ele>88.0</ele><time>2026-04-04T07:59:16.878Z</time></trkpt><trkpt lat="45.256273549884284" lon="9.144416566265347"><ele>88.0</ele><time>2026-04-04T07:59:19.878Z</time></trkpt><trkpt lat="45.25624611255287" lon="9.144317313701182"><ele>88.0</ele><time>2026-04-04T07:59:21.878Z</time></trkpt><trkpt lat="45.25622657281005" lon="9.14420382441681"><ele>88.0</ele><time>2026-04-04T07:59:23.877Z</time></trkpt><trkpt lat="45.256200881589635" lon="9.144104867087544"><ele>88.0</ele><time>2026-04-04T07:59:25.877Z</time></trkpt><trkpt lat="45.25617577209096" lon="9.143984888042006"><ele>88.0</ele><time>2026-04-04T07:59:27.877Z</time></trkpt><trkpt lat="45.25615124158486" lon="9.143875223629559"><ele>88.0</ele><time>2026-04-04T07:59:29.877Z</time></trkpt><trkpt lat="45.25612470623333" lon="9.143765784496578"><ele>88.0</ele><time>2026-04-04T07:59:31.877Z</time></trkpt><trkpt lat="45.25610363610136" lon="9.143646831558323"><ele>88.0</ele><time>2026-04-04T07:59:33.877Z</time></trkpt><trkpt lat="45.256079377187795" lon="9.143533998270813"><ele>88.0</ele><time>2026-04-04T07:59:35.877Z</time></trkpt><trkpt lat="45.25605801113689" lon="9.143431559665004"><ele>88.0</ele><time>2026-04-04T07:59:37.877Z</time></trkpt><trkpt lat="45.256038340907125" lon="9.143341997603994"><ele>88.0</ele><time>2026-04-04T07:59:39.877Z</time></trkpt><trkpt lat="45.25601927016002" lon="9.143221755239841"><ele>88.0</ele><time>2026-04-04T07:59:42.877Z</time></trkpt><trkpt lat="45.25598572733761" lon="9.143119586614686"><ele>88.0</ele><time>2026-04-04T07:59:44.877Z</time></trkpt><trkpt lat="45.25596734061224" lon="9.143024369333405"><ele>88.0</ele><time>2026-04-04T07:59:46.877Z</time></trkpt><trkpt lat="45.255937593973265" lon="9.14291819641481"><ele>87.83333333333333</ele><time>2026-04-04T07:59:48.877Z</time></trkpt><trkpt lat="45.25590808560319" lon="9.14280792107201"><ele>87.66666666666666</ele><time>2026-04-04T07:59:50.877Z</time></trkpt><trkpt lat="45.25587981953017" lon="9.14270025749515"><ele>87.5</ele><time>2026-04-04T07:59:52.877Z</time></trkpt><trkpt lat="45.255858189270946" lon="9.142600287926053"><ele>87.33333333333333</ele><time>2026-04-04T07:59:54.877Z</time></trkpt><trkpt lat="45.25583942259849" lon="9.142465062306904"><ele>87.16666666666667</ele><time>2026-04-04T07:59:57.877Z</time></trkpt><trkpt lat="45.25582506060214" lon="9.142345139249228"><ele>87.0</ele><time>2026-04-04T08:00:00.876Z</time></trkpt><trkpt lat="45.25586044104645" lon="9.142237415141915"><ele>87.0</ele><time>2026-04-04T08:00:03.876Z</time></trkpt><trkpt lat="45.25591559625624" lon="9.14215606737243"><ele>87.0</ele><time>2026-04-04T08:00:06.876Z</time></trkpt><trkpt lat="45.255860825408504" lon="9.142086080817075"><ele>87.0</ele><time>2026-04-04T08:00:09.876Z</time></trkpt><trkpt lat="45.25578707005681" lon="9.142103955121888"><ele>87.0</ele><time>2026-04-04T08:00:11.876Z</time></trkpt><trkpt lat="45.25569805622208" lon="9.142064880966863"><ele>87.0</ele><time>2026-04-04T08:00:14.876Z</time></trkpt><trkpt lat="45.255677217016" lon="9.141980369812167"><ele>87.0</ele><time>2026-04-04T08:00:16.876Z</time></trkpt><trkpt lat="45.255661716226335" lon="9.141893586915824"><ele>87.0</ele><time>2026-04-04T08:00:18.876Z</time></trkpt><trkpt lat="45.25563427654311" lon="9.141786555593182"><ele>87.0</ele><time>2026-04-04T08:00:20.876Z</time></trkpt><trkpt lat="45.25561698765129" lon="9.141678734419088"><ele>87.0</ele><time>2026-04-04T08:00:22.876Z</time></trkpt><trkpt lat="45.25559073196547" lon="9.141579891972434"><ele>87.0</ele><time>2026-04-04T08:00:24.876Z</time></trkpt><trkpt lat="45.255579428194544" lon="9.141450699634495"><ele>87.0</ele><time>2026-04-04T08:00:26.876Z</time></trkpt><trkpt lat="45.25555378166686" lon="9.14131990508001"><ele>87.0</ele><time>2026-04-04T08:00:28.876Z</time></trkpt><trkpt lat="45.25551777508686" lon="9.141190710906427"><ele>87.0</ele><time>2026-04-04T08:00:30.876Z</time></trkpt><trkpt lat="45.25549640188373" lon="9.141058624202353"><ele>87.19999999999999</ele><time>2026-04-04T08:00:32.876Z</time></trkpt><trkpt lat="45.25546593382678" lon="9.140922043548079"><ele>87.4</ele><time>2026-04-04T08:00:34.876Z</time></trkpt><trkpt lat="45.25543345003648" lon="9.14078629803194"><ele>87.6</ele><time>2026-04-04T08:00:36.875Z</time></trkpt><trkpt lat="45.255416635653596" lon="9.140666976148713"><ele>87.80000000000001</ele><time>2026-04-04T08:00:38.875Z</time></trkpt><trkpt lat="45.255369588032025" lon="9.140522023369467"><ele>88.0</ele><time>2026-04-04T08:00:40.875Z</time></trkpt><trkpt lat="45.255340303023" lon="9.140393400814945"><ele>88.0</ele><time>2026-04-04T08:00:42.875Z</time></trkpt><trkpt lat="45.25530875519257" lon="9.140253922103302"><ele>88.0</ele><time>2026-04-04T08:00:44.875Z</time></trkpt><trkpt lat="45.255297709229" lon="9.14011641679443"><ele>88.0</ele><time>2026-04-04T08:00:46.875Z</time></trkpt><trkpt lat="45.25527036942212" lon="9.139955380375364"><ele>88.0</ele><time>2026-04-04T08:00:48.875Z</time></trkpt><trkpt lat="45.255239204387195" lon="9.139838534774913"><ele>88.0</ele><time>2026-04-04T08:00:50.875Z</time></trkpt><trkpt lat="45.25520903617921" lon="9.139691777922751"><ele>88.0</ele><time>2026-04-04T08:00:52.875Z</time></trkpt><trkpt lat="45.25516662351092" lon="9.139543941575479"><ele>88.0</ele><time>2026-04-04T08:00:54.875Z</time></trkpt><trkpt lat="45.255129870080275" lon="9.139400437520447"><ele>88.0</ele><time>2026-04-04T08:00:56.875Z</time></trkpt><trkpt lat="45.255102938317826" lon="9.139244753573486"><ele>88.0</ele><time>2026-04-04T08:00:58.875Z</time></trkpt><trkpt lat="45.255057308992754" lon="9.139081256129428"><ele>88.4</ele><time>2026-04-04T08:01:00.875Z</time></trkpt><trkpt lat="45.25503073770571" lon="9.138996155173446"><ele>88.80000000000001</ele><time>2026-04-04T08:01:01.875Z</time></trkpt><trkpt lat="45.25500593593223" lon="9.138847484567444"><ele>89.2</ele><time>2026-04-04T08:01:03.875Z</time></trkpt><trkpt lat="45.25496870813101" lon="9.138703949815307"><ele>89.6</ele><time>2026-04-04T08:01:05.876Z</time></trkpt><trkpt lat="45.25493886647126" lon="9.138554307028635"><ele>90.0</ele><time>2026-04-04T08:01:07.876Z</time></trkpt><trkpt lat="45.25489877828419" lon="9.13839254267049"><ele>90.0</ele><time>2026-04-04T08:01:09.876Z</time></trkpt><trkpt lat="45.25486547019317" lon="9.138244581046715"><ele>90.0</ele><time>2026-04-04T08:01:11.876Z</time></trkpt><trkpt lat="45.254829143525605" lon="9.138094471414588"><ele>90.0</ele><time>2026-04-04T08:01:13.876Z</time></trkpt><trkpt lat="45.25480852361136" lon="9.138001372342629"><ele>90.0</ele><time>2026-04-04T08:01:14.876Z</time></trkpt><trkpt lat="45.25478407453089" lon="9.1379123286291"><ele>90.0</ele><time>2026-04-04T08:01:15.876Z</time></trkpt><trkpt lat="45.25474975907817" lon="9.137761123374089"><ele>90.0</ele><time>2026-04-04T08:01:17.876Z</time></trkpt><trkpt lat="45.25471465400787" lon="9.137603292895262"><ele>90.0</ele><time>2026-04-04T08:01:19.876Z</time></trkpt><trkpt lat="45.25466952270339" lon="9.137440880384476"><ele>90.0</ele><time>2026-04-04T08:01:21.876Z</time></trkpt><trkpt lat="45.254643464228586" lon="9.137344555088319"><ele>90.0</ele><time>2026-04-04T08:01:22.876Z</time></trkpt><trkpt lat="45.25461891117521" lon="9.137193390153724"><ele>90.0</ele><time>2026-04-04T08:01:24.876Z</time></trkpt><trkpt lat="45.25458409633688" lon="9.137034873297859"><ele>89.8</ele><time>2026-04-04T08:01:26.875Z</time></trkpt><trkpt lat="45.254545594219486" lon="9.136879375210764"><ele>89.6</ele><time>2026-04-04T08:01:28.875Z</time></trkpt><trkpt lat="45.25450450682668" lon="9.136727650712954"><ele>89.4</ele><time>2026-04-04T08:01:30.875Z</time></trkpt><trkpt lat="45.254470330773174" lon="9.136576401282667"><ele>89.2</ele><time>2026-04-04T08:01:32.875Z</time></trkpt><trkpt lat="45.25443399543543" lon="9.136436430824418"><ele>89.0</ele><time>2026-04-04T08:01:34.875Z</time></trkpt><trkpt lat="45.25439959825015" lon="9.136272416660804"><ele>89.0</ele><time>2026-04-04T08:01:36.875Z</time></trkpt><trkpt lat="45.25437240117581" lon="9.136134952875866"><ele>89.0</ele><time>2026-04-04T08:01:38.875Z</time></trkpt><trkpt lat="45.25433774133804" lon="9.135977456716708"><ele>89.0</ele><time>2026-04-04T08:01:40.875Z</time></trkpt><trkpt lat="45.25430727367949" lon="9.135826353355696"><ele>89.0</ele><time>2026-04-04T08:01:42.875Z</time></trkpt><trkpt lat="45.25428660692323" lon="9.135740439680292"><ele>89.0</ele><time>2026-04-04T08:01:43.875Z</time></trkpt><trkpt lat="45.25424641483738" lon="9.135570586976119"><ele>89.0</ele><time>2026-04-04T08:01:45.875Z</time></trkpt><trkpt lat="45.254223080996695" lon="9.135482747308316"><ele>89.0</ele><time>2026-04-04T08:01:46.875Z</time></trkpt><trkpt lat="45.2541952069579" lon="9.135322845659596"><ele>89.0</ele><time>2026-04-04T08:01:48.875Z</time></trkpt><trkpt lat="45.25418819331304" lon="9.135187715383495"><ele>89.0</ele><time>2026-04-04T08:01:50.875Z</time></trkpt><trkpt lat="45.25414007788781" lon="9.135033690793833"><ele>89.0</ele><time>2026-04-04T08:01:52.875Z</time></trkpt><trkpt lat="45.254125609259894" lon="9.134940068244541"><ele>89.2</ele><time>2026-04-04T08:01:53.875Z</time></trkpt><trkpt lat="45.25409687818231" lon="9.134790428246587"><ele>89.4</ele><time>2026-04-04T08:01:55.875Z</time></trkpt><trkpt lat="45.25407143583259" lon="9.134698499760686"><ele>89.6</ele><time>2026-04-04T08:01:56.875Z</time></trkpt><trkpt lat="45.25403156839194" lon="9.134555950064986"><ele>89.8</ele><time>2026-04-04T08:01:58.875Z</time></trkpt><trkpt lat="45.25401741986805" lon="9.134417686815324"><ele>90.0</ele><time>2026-04-04T08:02:00.875Z</time></trkpt><trkpt lat="45.25397347266324" lon="9.134289669287273"><ele>90.0</ele><time>2026-04-04T08:02:02.874Z</time></trkpt><trkpt lat="45.253961343192806" lon="9.134200258260455"><ele>90.0</ele><time>2026-04-04T08:02:03.874Z</time></trkpt><trkpt lat="45.25392845854696" lon="9.134075022891716"><ele>90.0</ele><time>2026-04-04T08:02:05.874Z</time></trkpt><trkpt lat="45.25390936949716" lon="9.133931866038818"><ele>90.0</ele><time>2026-04-04T08:02:07.874Z</time></trkpt><trkpt lat="45.25388478631307" lon="9.133784897330981"><ele>90.0</ele><time>2026-04-04T08:02:09.874Z</time></trkpt><trkpt lat="45.25385562452224" lon="9.133649590924618"><ele>90.0</ele><time>2026-04-04T08:02:11.874Z</time></trkpt><trkpt lat="45.253850675292874" lon="9.133525818060567"><ele>90.0</ele><time>2026-04-04T08:02:13.874Z</time></trkpt><trkpt lat="45.253836442638764" lon="9.133420252365468"><ele>90.0</ele><time>2026-04-04T08:02:14.874Z</time></trkpt><trkpt lat="45.25380902134169" lon="9.133333847170272"><ele>90.0</ele><time>2026-04-04T08:02:15.874Z</time></trkpt><trkpt lat="45.253786193022144" lon="9.13324571664738"><ele>90.0</ele><time>2026-04-04T08:02:16.874Z</time></trkpt><trkpt lat="45.25375860154501" lon="9.133159913642238"><ele>90.0</ele><time>2026-04-04T08:02:17.874Z</time></trkpt><trkpt lat="45.25373304723651" lon="9.133065066784907"><ele>90.0</ele><time>2026-04-04T08:02:18.874Z</time></trkpt><trkpt lat="45.2536795150752" lon="9.132898436514177"><ele>90.0</ele><time>2026-04-04T08:02:20.874Z</time></trkpt><trkpt lat="45.253641591520264" lon="9.132737239756255"><ele>90.0</ele><time>2026-04-04T08:02:22.874Z</time></trkpt><trkpt lat="45.253605227676566" lon="9.13258098705228"><ele>90.0</ele><time>2026-04-04T08:02:24.874Z</time></trkpt><trkpt lat="45.25357660458341" lon="9.132444602266803"><ele>90.0</ele><time>2026-04-04T08:02:26.874Z</time></trkpt><trkpt lat="45.253553847385824" lon="9.13232216132282"><ele>90.0</ele><time>2026-04-04T08:02:28.874Z</time></trkpt><trkpt lat="45.253517827290025" lon="9.132186904157837"><ele>90.0</ele><time>2026-04-04T08:02:30.874Z</time></trkpt><trkpt lat="45.25347214593969" lon="9.132043925057681"><ele>90.0</ele><time>2026-04-04T08:02:32.874Z</time></trkpt><trkpt lat="45.253432789346924" lon="9.131924850179617"><ele>90.0</ele><time>2026-04-04T08:02:34.874Z</time></trkpt><trkpt lat="45.25343337230964" lon="9.131830948148385"><ele>90.0</ele><time>2026-04-04T08:02:35.874Z</time></trkpt><trkpt lat="45.25340743228546" lon="9.13171766926793"><ele>90.0</ele><time>2026-04-04T08:02:37.874Z</time></trkpt><trkpt lat="45.25337885738252" lon="9.131593789018623"><ele>90.0</ele><time>2026-04-04T08:02:39.873Z</time></trkpt><trkpt lat="45.253384679849184" lon="9.131499527653437"><ele>90.16666666666667</ele><time>2026-04-04T08:02:41.873Z</time></trkpt><trkpt lat="45.25345181437193" lon="9.131445292566308"><ele>90.33333333333333</ele><time>2026-04-04T08:02:44.873Z</time></trkpt><trkpt lat="45.253527517273135" lon="9.13141785656037"><ele>90.5</ele><time>2026-04-04T08:02:47.873Z</time></trkpt><trkpt lat="45.25361789262507" lon="9.131353642294608"><ele>90.66666666666666</ele><time>2026-04-04T08:02:49.873Z</time></trkpt><trkpt lat="45.25368880125727" lon="9.131303780812257"><ele>90.83333333333333</ele><time>2026-04-04T08:02:51.873Z</time></trkpt><trkpt lat="45.25376747093662" lon="9.131247977766549"><ele>91.0</ele><time>2026-04-04T08:02:53.873Z</time></trkpt><trkpt lat="45.25384216939963" lon="9.131212925932278"><ele>91.0</ele><time>2026-04-04T08:02:55.873Z</time></trkpt><trkpt lat="45.25392691552285" lon="9.131150009633833"><ele>91.0</ele><time>2026-04-04T08:02:57.873Z</time></trkpt><trkpt lat="45.25399136080625" lon="9.131102264457677"><ele>91.0</ele><time>2026-04-04T08:02:59.873Z</time></trkpt><trkpt lat="45.254069966402554" lon="9.131041910435938"><ele>91.0</ele><time>2026-04-04T08:03:01.873Z</time></trkpt><trkpt lat="45.25413420633436" lon="9.13099340381923"><ele>91.0</ele><time>2026-04-04T08:03:04.873Z</time></trkpt><trkpt lat="45.25420507956446" lon="9.13095761768005"><ele>91.0</ele><time>2026-04-04T08:03:10.873Z</time></trkpt><trkpt lat="45.25426559246752" lon="9.130921674237687"><ele>91.16666666666666</ele><time>2026-04-04T08:03:12.874Z</time></trkpt><trkpt lat="45.254313584658384" lon="9.130857024987396"><ele>91.33333333333333</ele><time>2026-04-04T08:03:14.875Z</time></trkpt><trkpt lat="45.254376371508805" lon="9.13080116716003"><ele>91.5</ele><time>2026-04-04T08:03:16.875Z</time></trkpt><trkpt lat="45.254460713851216" lon="9.130731838386447"><ele>91.66666666666667</ele><time>2026-04-04T08:03:18.875Z</time></trkpt><trkpt lat="45.25454003229992" lon="9.130665216884955"><ele>91.83333333333334</ele><time>2026-04-04T08:03:20.875Z</time></trkpt><trkpt lat="45.254639146173375" lon="9.130597370611499"><ele>92.0</ele><time>2026-04-04T08:03:22.874Z</time></trkpt><trkpt lat="45.25473327786667" lon="9.130515748927568"><ele>91.39999999999999</ele><time>2026-04-04T08:03:24.875Z</time></trkpt><trkpt lat="45.254823797113254" lon="9.13043176032678"><ele>90.8</ele><time>2026-04-04T08:03:26.874Z</time></trkpt><trkpt lat="45.25491293502608" lon="9.130359345145294"><ele>90.2</ele><time>2026-04-04T08:03:28.874Z</time></trkpt><trkpt lat="45.25501446458872" lon="9.130280446086454"><ele>89.6</ele><time>2026-04-04T08:03:30.874Z</time></trkpt><trkpt lat="45.25511914156314" lon="9.130209935539117"><ele>89.0</ele><time>2026-04-04T08:03:32.874Z</time></trkpt><trkpt lat="45.255213719618375" lon="9.130135603370572"><ele>89.0</ele><time>2026-04-04T08:03:34.874Z</time></trkpt><trkpt lat="45.25531642291596" lon="9.130060339047805"><ele>89.0</ele><time>2026-04-04T08:03:36.874Z</time></trkpt><trkpt lat="45.25542361057915" lon="9.129985955683443"><ele>89.0</ele><time>2026-04-04T08:03:38.874Z</time></trkpt><trkpt lat="45.25552441598444" lon="9.12990449567856"><ele>89.0</ele><time>2026-04-04T08:03:40.874Z</time></trkpt><trkpt lat="45.255629288868604" lon="9.129818166268787"><ele>88.6</ele><time>2026-04-04T08:03:42.874Z</time></trkpt><trkpt lat="45.25572985520681" lon="9.129756410996723"><ele>88.2</ele><time>2026-04-04T08:03:44.874Z</time></trkpt><trkpt lat="45.25582803702236" lon="9.129673790198135"><ele>87.8</ele><time>2026-04-04T08:03:46.874Z</time></trkpt><trkpt lat="45.25588104871041" lon="9.129624348102428"><ele>87.39999999999999</ele><time>2026-04-04T08:03:47.874Z</time></trkpt><trkpt lat="45.255978886586654" lon="9.129549285355514"><ele>87.0</ele><time>2026-04-04T08:03:49.874Z</time></trkpt><trkpt lat="45.256072431924366" lon="9.12947372416289"><ele>87.0</ele><time>2026-04-04T08:03:51.874Z</time></trkpt><trkpt lat="45.256177748221646" lon="9.129409305168291"><ele>87.0</ele><time>2026-04-04T08:03:53.874Z</time></trkpt><trkpt lat="45.25623699300817" lon="9.12937537625161"><ele>87.0</ele><time>2026-04-04T08:03:54.874Z</time></trkpt><trkpt lat="45.25633101439082" lon="9.129323692834129"><ele>87.0</ele><time>2026-04-04T08:03:56.874Z</time></trkpt><trkpt lat="45.25643898062897" lon="9.12927755074358"><ele>87.0</ele><time>2026-04-04T08:03:58.874Z</time></trkpt><trkpt lat="45.25652669569504" lon="9.129227221720836"><ele>87.0</ele><time>2026-04-04T08:04:00.874Z</time></trkpt><trkpt lat="45.256626705452454" lon="9.129191791756945"><ele>87.0</ele><time>2026-04-04T08:04:02.874Z</time></trkpt><trkpt lat="45.256722232038506" lon="9.129155444808497"><ele>87.0</ele><time>2026-04-04T08:04:04.873Z</time></trkpt><trkpt lat="45.25681978284114" lon="9.129126923524606"><ele>87.0</ele><time>2026-04-04T08:04:06.873Z</time></trkpt><trkpt lat="45.25691361731887" lon="9.129084776602596"><ele>87.0</ele><time>2026-04-04T08:04:08.873Z</time></trkpt><trkpt lat="45.257009716867636" lon="9.129041957997844"><ele>87.0</ele><time>2026-04-04T08:04:10.873Z</time></trkpt><trkpt lat="45.257120240128685" lon="9.129003881495663"><ele>87.0</ele><time>2026-04-04T08:04:12.873Z</time></trkpt><trkpt lat="45.25721616867009" lon="9.128969456080142"><ele>87.0</ele><time>2026-04-04T08:04:14.873Z</time></trkpt><trkpt lat="45.257317212571756" lon="9.12893506459711"><ele>87.0</ele><time>2026-04-04T08:04:16.873Z</time></trkpt><trkpt lat="45.25742683022484" lon="9.128892911714143"><ele>87.0</ele><time>2026-04-04T08:04:18.873Z</time></trkpt><trkpt lat="45.257533037891726" lon="9.128853047865704"><ele>86.8</ele><time>2026-04-04T08:04:20.873Z</time></trkpt><trkpt lat="45.2576260237271" lon="9.128810274109256"><ele>86.6</ele><time>2026-04-04T08:04:22.873Z</time></trkpt><trkpt lat="45.25773534262389" lon="9.128772211352862"><ele>86.39999999999999</ele><time>2026-04-04T08:04:24.873Z</time></trkpt><trkpt lat="45.25785154843398" lon="9.12872871074232"><ele>86.19999999999999</ele><time>2026-04-04T08:04:26.873Z</time></trkpt><trkpt lat="45.257951603856164" lon="9.128684258827393"><ele>86.0</ele><time>2026-04-04T08:04:28.873Z</time></trkpt><trkpt lat="45.25801512889121" lon="9.12866342645118"><ele>86.0</ele><time>2026-04-04T08:04:29.873Z</time></trkpt><trkpt lat="45.25807855435153" lon="9.128645118943947"><ele>86.0</ele><time>2026-04-04T08:04:30.873Z</time></trkpt><trkpt lat="45.25819590433531" lon="9.128602962366143"><ele>86.0</ele><time>2026-04-04T08:04:32.873Z</time></trkpt><trkpt lat="45.25831537687583" lon="9.128559071379515"><ele>86.0</ele><time>2026-04-04T08:04:34.873Z</time></trkpt><trkpt lat="45.258418769122976" lon="9.12852831484851"><ele>86.0</ele><time>2026-04-04T08:04:36.873Z</time></trkpt><trkpt lat="45.258482141186484" lon="9.12849924483623"><ele>86.19999999999999</ele><time>2026-04-04T08:04:37.873Z</time></trkpt><trkpt lat="45.258580910975944" lon="9.12845943691315"><ele>86.39999999999999</ele><time>2026-04-04T08:04:39.872Z</time></trkpt><trkpt lat="45.25869144069893" lon="9.1284190299154"><ele>86.6</ele><time>2026-04-04T08:04:41.872Z</time></trkpt><trkpt lat="45.25875458046558" lon="9.128396688021368"><ele>86.8</ele><time>2026-04-04T08:04:42.872Z</time></trkpt><trkpt lat="45.25887283524318" lon="9.128351816643692"><ele>87.0</ele><time>2026-04-04T08:04:44.872Z</time></trkpt><trkpt lat="45.25898503535691" lon="9.12831034701042"><ele>87.0</ele><time>2026-04-04T08:04:46.872Z</time></trkpt><trkpt lat="45.259088634620106" lon="9.12826420058305"><ele>87.0</ele><time>2026-04-04T08:04:48.872Z</time></trkpt><trkpt lat="45.2591654878686" lon="9.12823140558344"><ele>87.0</ele><time>2026-04-04T08:04:50.872Z</time></trkpt><trkpt lat="45.259228759765726" lon="9.128218653158852"><ele>87.0</ele><time>2026-04-04T08:04:51.872Z</time></trkpt><trkpt lat="45.259333811178244" lon="9.128178446575514"><ele>87.0</ele><time>2026-04-04T08:04:53.872Z</time></trkpt><trkpt lat="45.25940079294599" lon="9.128154889004389"><ele>87.0</ele><time>2026-04-04T08:04:54.872Z</time></trkpt><trkpt lat="45.25946241168914" lon="9.128136513317736"><ele>86.85714285714286</ele><time>2026-04-04T08:04:55.872Z</time></trkpt><trkpt lat="45.25953517375988" lon="9.1281086820422"><ele>86.71428571428572</ele><time>2026-04-04T08:04:56.872Z</time></trkpt><trkpt lat="45.25960744535546" lon="9.128078439884474"><ele>86.57142857142858</ele><time>2026-04-04T08:04:57.872Z</time></trkpt><trkpt lat="45.25967589349276" lon="9.12804953331878"><ele>86.42857142857143</ele><time>2026-04-04T08:04:58.872Z</time></trkpt><trkpt lat="45.25973840807589" lon="9.12801877750134"><ele>86.28571428571429</ele><time>2026-04-04T08:04:59.872Z</time></trkpt><trkpt lat="45.25980477254111" lon="9.12799599434302"><ele>86.14285714285715</ele><time>2026-04-04T08:05:00.872Z</time></trkpt><trkpt lat="45.259874589569584" lon="9.12797446359958"><ele>86.0</ele><time>2026-04-04T08:05:01.872Z</time></trkpt><trkpt lat="45.25994179993269" lon="9.127958954009962"><ele>86.0</ele><time>2026-04-04T08:05:02.872Z</time></trkpt><trkpt lat="45.26000616821435" lon="9.12793187595071"><ele>86.0</ele><time>2026-04-04T08:05:03.872Z</time></trkpt><trkpt lat="45.26007004962383" lon="9.127904952075145"><ele>86.0</ele><time>2026-04-04T08:05:04.872Z</time></trkpt><trkpt lat="45.260187702833214" lon="9.127855584015451"><ele>86.0</ele><time>2026-04-04T08:05:06.872Z</time></trkpt><trkpt lat="45.260303432257736" lon="9.12781292404958"><ele>86.0</ele><time>2026-04-04T08:05:08.872Z</time></trkpt><trkpt lat="45.26041106103564" lon="9.127774770284246"><ele>86.0</ele><time>2026-04-04T08:05:10.872Z</time></trkpt><trkpt lat="45.2605173417459" lon="9.127735044342307"><ele>86.0</ele><time>2026-04-04T08:05:12.872Z</time></trkpt><trkpt lat="45.26062844501437" lon="9.127691487742121"><ele>86.0</ele><time>2026-04-04T08:05:14.872Z</time></trkpt><trkpt lat="45.260735591782804" lon="9.127653639412488"><ele>86.0</ele><time>2026-04-04T08:05:16.871Z</time></trkpt><trkpt lat="45.260843124010336" lon="9.127613972397583"><ele>86.0</ele><time>2026-04-04T08:05:18.873Z</time></trkpt><trkpt lat="45.260947427091814" lon="9.127574443224821"><ele>86.19999999999999</ele><time>2026-04-04T08:05:20.874Z</time></trkpt><trkpt lat="45.26106229545941" lon="9.127531254675654"><ele>86.39999999999999</ele><time>2026-04-04T08:05:22.873Z</time></trkpt><trkpt lat="45.26117643048859" lon="9.127489513262944"><ele>86.6</ele><time>2026-04-04T08:05:24.874Z</time></trkpt><trkpt lat="45.26123842695055" lon="9.127462284061938"><ele>86.8</ele><time>2026-04-04T08:05:25.874Z</time></trkpt><trkpt lat="45.261349388181294" lon="9.127424150897394"><ele>87.0</ele><time>2026-04-04T08:05:27.873Z</time></trkpt><trkpt lat="45.26146492614474" lon="9.127380897328711"><ele>87.0</ele><time>2026-04-04T08:05:29.873Z</time></trkpt><trkpt lat="45.261577227722505" lon="9.12733607462561"><ele>87.0</ele><time>2026-04-04T08:05:31.874Z</time></trkpt><trkpt lat="45.26168234286887" lon="9.127296192548012"><ele>87.0</ele><time>2026-04-04T08:05:33.874Z</time></trkpt><trkpt lat="45.26179900441828" lon="9.127261663493138"><ele>87.0</ele><time>2026-04-04T08:05:35.874Z</time></trkpt><trkpt lat="45.2618645016831" lon="9.127237979424795"><ele>87.0</ele><time>2026-04-04T08:05:36.873Z</time></trkpt><trkpt lat="45.261986493483334" lon="9.127180128217914"><ele>87.0</ele><time>2026-04-04T08:05:38.873Z</time></trkpt><trkpt lat="45.26209403727064" lon="9.1271459772935"><ele>87.0</ele><time>2026-04-04T08:05:40.873Z</time></trkpt><trkpt lat="45.26215776933873" lon="9.12712122030257"><ele>87.0</ele><time>2026-04-04T08:05:41.873Z</time></trkpt><trkpt lat="45.26222209441987" lon="9.127096924905993"><ele>87.0</ele><time>2026-04-04T08:05:42.873Z</time></trkpt><trkpt lat="45.2623312147659" lon="9.127057234562663"><ele>87.0</ele><time>2026-04-04T08:05:44.873Z</time></trkpt><trkpt lat="45.26239698507509" lon="9.127029631209023"><ele>87.0</ele><time>2026-04-04T08:05:45.873Z</time></trkpt><trkpt lat="45.262496679038755" lon="9.126992809640889"><ele>87.0</ele><time>2026-04-04T08:05:47.873Z</time></trkpt><trkpt lat="45.26255785309856" lon="9.126970756226294"><ele>87.0</ele><time>2026-04-04T08:05:48.873Z</time></trkpt><trkpt lat="45.26267517382658" lon="9.126922271354214"><ele>87.0</ele><time>2026-04-04T08:05:50.873Z</time></trkpt><trkpt lat="45.262789905468914" lon="9.12688211340442"><ele>87.0</ele><time>2026-04-04T08:05:52.873Z</time></trkpt><trkpt lat="45.26290320282666" lon="9.126837554089253"><ele>87.0</ele><time>2026-04-04T08:05:54.873Z</time></trkpt><trkpt lat="45.263003001259314" lon="9.126796954647027"><ele>87.0</ele><time>2026-04-04T08:05:56.873Z</time></trkpt><trkpt lat="45.26311102377603" lon="9.126754267630115"><ele>87.0</ele><time>2026-04-04T08:05:58.873Z</time></trkpt><trkpt lat="45.2632156659229" lon="9.126719617689734"><ele>87.0</ele><time>2026-04-04T08:06:00.873Z</time></trkpt><trkpt lat="45.26332408529378" lon="9.12668060514148"><ele>87.0</ele><time>2026-04-04T08:06:02.873Z</time></trkpt><trkpt lat="45.263430709796296" lon="9.126638264902398"><ele>87.0</ele><time>2026-04-04T08:06:04.873Z</time></trkpt><trkpt lat="45.26351382841108" lon="9.126608208969143"><ele>87.19999999999999</ele><time>2026-04-04T08:06:06.873Z</time></trkpt><trkpt lat="45.263577348099524" lon="9.126591540661916"><ele>87.4</ele><time>2026-04-04T08:06:07.873Z</time></trkpt><trkpt lat="45.26369776570261" lon="9.126544112724284"><ele>87.6</ele><time>2026-04-04T08:06:09.873Z</time></trkpt><trkpt lat="45.26380882590262" lon="9.126494822263984"><ele>87.80000000000001</ele><time>2026-04-04T08:06:11.873Z</time></trkpt><trkpt lat="45.263920569999854" lon="9.126450146355557"><ele>88.0</ele><time>2026-04-04T08:06:13.872Z</time></trkpt><trkpt lat="45.26403475050776" lon="9.126410499279388"><ele>88.0</ele><time>2026-04-04T08:06:15.872Z</time></trkpt><trkpt lat="45.264141042647346" lon="9.126375042519703"><ele>88.0</ele><time>2026-04-04T08:06:17.872Z</time></trkpt><trkpt lat="45.26424896230604" lon="9.126328264117397"><ele>88.0</ele><time>2026-04-04T08:06:19.872Z</time></trkpt><trkpt lat="45.26436447715183" lon="9.126284833483522"><ele>88.0</ele><time>2026-04-04T08:06:21.872Z</time></trkpt><trkpt lat="45.26447582935386" lon="9.126244809674635"><ele>88.0</ele><time>2026-04-04T08:06:23.872Z</time></trkpt><trkpt lat="45.26457020193965" lon="9.126198079084773"><ele>88.0</ele><time>2026-04-04T08:06:25.872Z</time></trkpt><trkpt lat="45.26468336335925" lon="9.126156790893848"><ele>88.0</ele><time>2026-04-04T08:06:27.872Z</time></trkpt><trkpt lat="45.26474555227927" lon="9.126132913844893"><ele>88.0</ele><time>2026-04-04T08:06:28.872Z</time></trkpt><trkpt lat="45.2648564481027" lon="9.12609058538201"><ele>88.0</ele><time>2026-04-04T08:06:30.872Z</time></trkpt><trkpt lat="45.264971161173456" lon="9.126048144477892"><ele>88.2</ele><time>2026-04-04T08:06:32.872Z</time></trkpt><trkpt lat="45.26507851826176" lon="9.126018738552963"><ele>88.4</ele><time>2026-04-04T08:06:34.872Z</time></trkpt><trkpt lat="45.265188173205416" lon="9.125975026466879"><ele>88.60000000000001</ele><time>2026-04-04T08:06:36.872Z</time></trkpt><trkpt lat="45.26527045213899" lon="9.125941339591517"><ele>88.80000000000001</ele><time>2026-04-04T08:06:38.872Z</time></trkpt><trkpt lat="45.265372209069675" lon="9.125907871543035"><ele>89.0</ele><time>2026-04-04T08:06:40.872Z</time></trkpt><trkpt lat="45.26547274243549" lon="9.125872791303042"><ele>89.0</ele><time>2026-04-04T08:06:42.872Z</time></trkpt><trkpt lat="45.265567392752764" lon="9.12583337760243"><ele>89.0</ele><time>2026-04-04T08:06:44.872Z</time></trkpt><trkpt lat="45.2656692560275" lon="9.125797588298186"><ele>89.0</ele><time>2026-04-04T08:06:46.872Z</time></trkpt><trkpt lat="45.26577989857387" lon="9.125761355105189"><ele>89.0</ele><time>2026-04-04T08:06:48.872Z</time></trkpt><trkpt lat="45.26588606777876" lon="9.125723145434739"><ele>89.0</ele><time>2026-04-04T08:06:50.871Z</time></trkpt><trkpt lat="45.26600222404897" lon="9.125677224855153"><ele>88.75</ele><time>2026-04-04T08:06:52.871Z</time></trkpt><trkpt lat="45.266105649734335" lon="9.125640470137553"><ele>88.5</ele><time>2026-04-04T08:06:54.871Z</time></trkpt><trkpt lat="45.266219251742626" lon="9.125596554200044"><ele>88.25</ele><time>2026-04-04T08:06:56.871Z</time></trkpt><trkpt lat="45.266339927598715" lon="9.125550419900495"><ele>88.0</ele><time>2026-04-04T08:06:58.871Z</time></trkpt><trkpt lat="45.26644822317451" lon="9.125509799002788"><ele>88.0</ele><time>2026-04-04T08:07:00.871Z</time></trkpt><trkpt lat="45.2666096237902" lon="9.125447841266025"><ele>88.0</ele><time>2026-04-04T08:07:03.871Z</time></trkpt><trkpt lat="45.266714066137666" lon="9.125407636911525"><ele>88.0</ele><time>2026-04-04T08:07:05.871Z</time></trkpt><trkpt lat="45.26683111446341" lon="9.125363866538722"><ele>88.0</ele><time>2026-04-04T08:07:07.871Z</time></trkpt><trkpt lat="45.26694522066151" lon="9.125320090283859"><ele>88.0</ele><time>2026-04-04T08:07:09.871Z</time></trkpt><trkpt lat="45.26705635286982" lon="9.125277154862927"><ele>88.0</ele><time>2026-04-04T08:07:11.871Z</time></trkpt><trkpt lat="45.26717034409404" lon="9.125232014875847"><ele>88.0</ele><time>2026-04-04T08:07:13.871Z</time></trkpt><trkpt lat="45.26727449999593" lon="9.125195338532645"><ele>88.0</ele><time>2026-04-04T08:07:15.871Z</time></trkpt><trkpt lat="45.26737099764368" lon="9.125153963547266"><ele>88.0</ele><time>2026-04-04T08:07:17.871Z</time></trkpt><trkpt lat="45.267493187695486" lon="9.125119387994392"><ele>88.0</ele><time>2026-04-04T08:07:19.871Z</time></trkpt><trkpt lat="45.267607064953154" lon="9.125070231284832"><ele>88.0</ele><time>2026-04-04T08:07:21.871Z</time></trkpt><trkpt lat="45.267715502709095" lon="9.125033412426074"><ele>88.0</ele><time>2026-04-04T08:07:23.872Z</time></trkpt><trkpt lat="45.267776494768256" lon="9.125007755593154"><ele>88.0</ele><time>2026-04-04T08:07:24.872Z</time></trkpt><trkpt lat="45.267889758448405" lon="9.124959794490378"><ele>88.0</ele><time>2026-04-04T08:07:26.872Z</time></trkpt><trkpt lat="45.268009482371056" lon="9.124919315614354"><ele>87.80000000000001</ele><time>2026-04-04T08:07:28.872Z</time></trkpt><trkpt lat="45.26812044444318" lon="9.124878073313011"><ele>87.6</ele><time>2026-04-04T08:07:30.872Z</time></trkpt><trkpt lat="45.26823128168837" lon="9.124833465243404"><ele>87.4</ele><time>2026-04-04T08:07:32.872Z</time></trkpt><trkpt lat="45.26834609113201" lon="9.12479385456221"><ele>87.19999999999999</ele><time>2026-04-04T08:07:34.872Z</time></trkpt><trkpt lat="45.268436354883704" lon="9.124755150649388"><ele>87.0</ele><time>2026-04-04T08:07:36.872Z</time></trkpt><trkpt lat="45.268548780984226" lon="9.12471106015005"><ele>87.0</ele><time>2026-04-04T08:07:38.872Z</time></trkpt><trkpt lat="45.268651757424756" lon="9.124675247385467"><ele>87.0</ele><time>2026-04-04T08:07:40.872Z</time></trkpt><trkpt lat="45.268757170147104" lon="9.124624593960005"><ele>87.0</ele><time>2026-04-04T08:07:42.872Z</time></trkpt><trkpt lat="45.2688645558668" lon="9.1245830388878"><ele>87.0</ele><time>2026-04-04T08:07:44.871Z</time></trkpt><trkpt lat="45.26898945212069" lon="9.124544677346513"><ele>87.19999999999999</ele><time>2026-04-04T08:07:46.871Z</time></trkpt><trkpt lat="45.269053377456814" lon="9.124523345218526"><ele>87.4</ele><time>2026-04-04T08:07:47.871Z</time></trkpt><trkpt lat="45.26916085927131" lon="9.124480556316987"><ele>87.6</ele><time>2026-04-04T08:07:49.871Z</time></trkpt><trkpt lat="45.26927427031681" lon="9.124437899669807"><ele>87.80000000000001</ele><time>2026-04-04T08:07:51.871Z</time></trkpt><trkpt lat="45.26939066709886" lon="9.12439667827378"><ele>88.0</ele><time>2026-04-04T08:07:53.871Z</time></trkpt><trkpt lat="45.269501922831104" lon="9.12435824588287"><ele>88.0</ele><time>2026-04-04T08:07:55.871Z</time></trkpt><trkpt lat="45.26961750927669" lon="9.124317373237611"><ele>88.0</ele><time>2026-04-04T08:07:57.871Z</time></trkpt><trkpt lat="45.26968071663895" lon="9.124289424651693"><ele>88.0</ele><time>2026-04-04T08:07:58.871Z</time></trkpt><trkpt lat="45.26979472584175" lon="9.124239052335888"><ele>88.0</ele><time>2026-04-04T08:08:00.871Z</time></trkpt><trkpt lat="45.26985926869988" lon="9.124212935732686"><ele>88.0</ele><time>2026-04-04T08:08:01.871Z</time></trkpt><trkpt lat="45.26997461866098" lon="9.124171346607097"><ele>88.5</ele><time>2026-04-04T08:08:03.871Z</time></trkpt><trkpt lat="45.27008854793045" lon="9.124126774068369"><ele>89.0</ele><time>2026-04-04T08:08:05.871Z</time></trkpt><trkpt lat="45.270201778539146" lon="9.124087614910986"><ele>89.5</ele><time>2026-04-04T08:08:07.871Z</time></trkpt><trkpt lat="45.27031424950616" lon="9.124049059215963"><ele>90.0</ele><time>2026-04-04T08:08:09.871Z</time></trkpt><trkpt lat="45.27042455308173" lon="9.12400542499748"><ele>90.0</ele><time>2026-04-04T08:08:11.871Z</time></trkpt><trkpt lat="45.27052927608005" lon="9.123969701750422"><ele>90.0</ele><time>2026-04-04T08:08:13.871Z</time></trkpt><trkpt lat="45.27059384498255" lon="9.123938201071093"><ele>90.0</ele><time>2026-04-04T08:08:14.871Z</time></trkpt><trkpt lat="45.27070284235268" lon="9.123894092722336"><ele>90.0</ele><time>2026-04-04T08:08:16.871Z</time></trkpt><trkpt lat="45.27076417195889" lon="9.123864485748102"><ele>90.0</ele><time>2026-04-04T08:08:17.871Z</time></trkpt><trkpt lat="45.2708755853015" lon="9.123817021959004"><ele>90.0</ele><time>2026-04-04T08:08:19.871Z</time></trkpt><trkpt lat="45.270984861238034" lon="9.123767250877012"><ele>90.0</ele><time>2026-04-04T08:08:21.87Z</time></trkpt><trkpt lat="45.27110018480819" lon="9.123729992744837"><ele>90.0</ele><time>2026-04-04T08:08:23.87Z</time></trkpt><trkpt lat="45.27121630868251" lon="9.123693307488976"><ele>90.0</ele><time>2026-04-04T08:08:25.87Z</time></trkpt><trkpt lat="45.27132962218394" lon="9.123649363586058"><ele>89.75</ele><time>2026-04-04T08:08:27.87Z</time></trkpt><trkpt lat="45.271445411668644" lon="9.123596856048536"><ele>89.5</ele><time>2026-04-04T08:08:29.87Z</time></trkpt><trkpt lat="45.27155858937471" lon="9.123559125010601"><ele>89.25</ele><time>2026-04-04T08:08:31.87Z</time></trkpt><trkpt lat="45.27167590405189" lon="9.123515386460669"><ele>89.0</ele><time>2026-04-04T08:08:33.87Z</time></trkpt><trkpt lat="45.271772005775354" lon="9.123475347673955"><ele>89.0</ele><time>2026-04-04T08:08:35.87Z</time></trkpt><trkpt lat="45.271835953906844" lon="9.123458480102345"><ele>89.0</ele><time>2026-04-04T08:08:36.87Z</time></trkpt><trkpt lat="45.27195357373299" lon="9.123416448196624"><ele>89.0</ele><time>2026-04-04T08:08:38.87Z</time></trkpt><trkpt lat="45.272065847079574" lon="9.12337460895048"><ele>89.0</ele><time>2026-04-04T08:08:40.87Z</time></trkpt><trkpt lat="45.27218280439645" lon="9.123327605309655"><ele>89.0</ele><time>2026-04-04T08:08:42.87Z</time></trkpt><trkpt lat="45.27228502106599" lon="9.123289095398786"><ele>89.0</ele><time>2026-04-04T08:08:44.87Z</time></trkpt><trkpt lat="45.272391596126454" lon="9.123247905288466"><ele>89.0</ele><time>2026-04-04T08:08:46.87Z</time></trkpt><trkpt lat="45.272500527621986" lon="9.123208300555818"><ele>89.0</ele><time>2026-04-04T08:08:48.87Z</time></trkpt><trkpt lat="45.27262073114933" lon="9.123162035644304"><ele>89.0</ele><time>2026-04-04T08:08:50.87Z</time></trkpt><trkpt lat="45.27270841357687" lon="9.123125481685156"><ele>89.0</ele><time>2026-04-04T08:08:52.87Z</time></trkpt><trkpt lat="45.27277853791782" lon="9.123101304171326"><ele>89.0</ele><time>2026-04-04T08:08:53.87Z</time></trkpt><trkpt lat="45.272889180045155" lon="9.12306182285211"><ele>89.0</ele><time>2026-04-04T08:08:55.87Z</time></trkpt><trkpt lat="45.2729958131162" lon="9.123018757380798"><ele>89.0</ele><time>2026-04-04T08:08:57.869Z</time></trkpt><trkpt lat="45.27309753420549" lon="9.122974328600316"><ele>89.0</ele><time>2026-04-04T08:08:59.869Z</time></trkpt><trkpt lat="45.273214441417736" lon="9.122926652421283"><ele>89.0</ele><time>2026-04-04T08:09:01.869Z</time></trkpt><trkpt lat="45.27332280711664" lon="9.122886530550732"><ele>89.0</ele><time>2026-04-04T08:09:03.869Z</time></trkpt><trkpt lat="45.2733886341126" lon="9.122865971992164"><ele>89.0</ele><time>2026-04-04T08:09:04.869Z</time></trkpt><trkpt lat="45.273486739215606" lon="9.122828709859817"><ele>89.0</ele><time>2026-04-04T08:09:06.869Z</time></trkpt><trkpt lat="45.273583260874254" lon="9.122786369963299"><ele>89.0</ele><time>2026-04-04T08:09:08.869Z</time></trkpt><trkpt lat="45.273680215069724" lon="9.122744544410555"><ele>89.0</ele><time>2026-04-04T08:09:10.869Z</time></trkpt><trkpt lat="45.27377661106901" lon="9.12269591259315"><ele>89.0</ele><time>2026-04-04T08:09:12.869Z</time></trkpt><trkpt lat="45.27389677078508" lon="9.12264864101363"><ele>89.0</ele><time>2026-04-04T08:09:14.869Z</time></trkpt><trkpt lat="45.27400821181123" lon="9.12261346614704"><ele>89.0</ele><time>2026-04-04T08:09:16.869Z</time></trkpt><trkpt lat="45.27412843469677" lon="9.122578824070864"><ele>89.2</ele><time>2026-04-04T08:09:18.869Z</time></trkpt><trkpt lat="45.274236076303495" lon="9.122538249556326"><ele>89.4</ele><time>2026-04-04T08:09:20.869Z</time></trkpt><trkpt lat="45.2743563889896" lon="9.122494055601887"><ele>89.6</ele><time>2026-04-04T08:09:22.869Z</time></trkpt><trkpt lat="45.27441860956783" lon="9.122471908847857"><ele>89.8</ele><time>2026-04-04T08:09:23.869Z</time></trkpt><trkpt lat="45.274528748393195" lon="9.122426009882501"><ele>90.0</ele><time>2026-04-04T08:09:25.869Z</time></trkpt><trkpt lat="45.27461432193319" lon="9.122380934634485"><ele>90.0</ele><time>2026-04-04T08:09:27.869Z</time></trkpt><trkpt lat="45.274709931850204" lon="9.12234747764706"><ele>90.0</ele><time>2026-04-04T08:09:29.87Z</time></trkpt><trkpt lat="45.27479716304767" lon="9.122311449582668"><ele>90.0</ele><time>2026-04-04T08:09:31.871Z</time></trkpt><trkpt lat="45.27491111093225" lon="9.122274279388314"><ele>90.0</ele><time>2026-04-04T08:09:33.871Z</time></trkpt><trkpt lat="45.27501346748196" lon="9.122240679374409"><ele>90.0</ele><time>2026-04-04T08:09:35.871Z</time></trkpt><trkpt lat="45.2751063442741" lon="9.122193564281964"><ele>90.0</ele><time>2026-04-04T08:09:37.87Z</time></trkpt><trkpt lat="45.275234834088046" lon="9.122155485577515"><ele>90.0</ele><time>2026-04-04T08:09:39.87Z</time></trkpt><trkpt lat="45.27534482111001" lon="9.122118682152417"><ele>90.0</ele><time>2026-04-04T08:09:41.871Z</time></trkpt><trkpt lat="45.27544490253933" lon="9.1220818660551"><ele>90.0</ele><time>2026-04-04T08:09:43.87Z</time></trkpt><trkpt lat="45.27554772245731" lon="9.1220426599048"><ele>89.6</ele><time>2026-04-04T08:09:45.87Z</time></trkpt><trkpt lat="45.27566787433202" lon="9.121998710268416"><ele>89.2</ele><time>2026-04-04T08:09:47.87Z</time></trkpt><trkpt lat="45.275732240172836" lon="9.121973005775045"><ele>88.80000000000001</ele><time>2026-04-04T08:09:48.87Z</time></trkpt><trkpt lat="45.27585054697815" lon="9.121921259229838"><ele>88.4</ele><time>2026-04-04T08:09:50.87Z</time></trkpt><trkpt lat="45.27595944700883" lon="9.121882836285208"><ele>88.0</ele><time>2026-04-04T08:09:52.87Z</time></trkpt><trkpt lat="45.276023690727115" lon="9.121857067487506"><ele>88.0</ele><time>2026-04-04T08:09:53.87Z</time></trkpt><trkpt lat="45.27608456568035" lon="9.12183346225551"><ele>88.0</ele><time>2026-04-04T08:09:54.87Z</time></trkpt><trkpt lat="45.2761801474054" lon="9.12179722171318"><ele>88.0</ele><time>2026-04-04T08:09:56.87Z</time></trkpt><trkpt lat="45.276267555507445" lon="9.12175603783265"><ele>88.0</ele><time>2026-04-04T08:09:58.87Z</time></trkpt><trkpt lat="45.27637490108015" lon="9.121724103666498"><ele>88.0</ele><time>2026-04-04T08:10:00.87Z</time></trkpt><trkpt lat="45.27643592857121" lon="9.121701228614054"><ele>88.0</ele><time>2026-04-04T08:10:01.87Z</time></trkpt><trkpt lat="45.27650331634941" lon="9.121685691179419"><ele>88.2</ele><time>2026-04-04T08:10:02.87Z</time></trkpt><trkpt lat="45.276599547985064" lon="9.121640207061137"><ele>88.4</ele><time>2026-04-04T08:10:04.87Z</time></trkpt><trkpt lat="45.276684285028544" lon="9.121602938762921"><ele>88.60000000000001</ele><time>2026-04-04T08:10:06.87Z</time></trkpt><trkpt lat="45.27678450075523" lon="9.121562155600207"><ele>88.80000000000001</ele><time>2026-04-04T08:10:08.87Z</time></trkpt><trkpt lat="45.27687899992132" lon="9.121517366286454"><ele>89.0</ele><time>2026-04-04T08:10:10.87Z</time></trkpt><trkpt lat="45.27699615673426" lon="9.121471414179533"><ele>89.0</ele><time>2026-04-04T08:10:12.87Z</time></trkpt><trkpt lat="45.27711008143836" lon="9.121430857815911"><ele>89.0</ele><time>2026-04-04T08:10:14.869Z</time></trkpt><trkpt lat="45.27723946534896" lon="9.121383492144556"><ele>89.0</ele><time>2026-04-04T08:10:16.869Z</time></trkpt><trkpt lat="45.277306831831986" lon="9.121357335589668"><ele>89.0</ele><time>2026-04-04T08:10:17.869Z</time></trkpt><trkpt lat="45.277406816777095" lon="9.121309016991047"><ele>89.0</ele><time>2026-04-04T08:10:19.869Z</time></trkpt><trkpt lat="45.27751553990345" lon="9.121276782079459"><ele>88.80000000000001</ele><time>2026-04-04T08:10:21.869Z</time></trkpt><trkpt lat="45.27762312498119" lon="9.121231460145209"><ele>88.60000000000001</ele><time>2026-04-04T08:10:23.869Z</time></trkpt><trkpt lat="45.277716351855474" lon="9.121200557662394"><ele>88.4</ele><time>2026-04-04T08:10:25.869Z</time></trkpt><trkpt lat="45.277812128571874" lon="9.121168153263541"><ele>88.2</ele><time>2026-04-04T08:10:27.869Z</time></trkpt><trkpt lat="45.27793538328926" lon="9.121122233045565"><ele>88.0</ele><time>2026-04-04T08:10:29.869Z</time></trkpt><trkpt lat="45.27805586194475" lon="9.121079906005416"><ele>88.5</ele><time>2026-04-04T08:10:31.869Z</time></trkpt><trkpt lat="45.27811887325402" lon="9.121060987492617"><ele>89.0</ele><time>2026-04-04T08:10:32.869Z</time></trkpt><trkpt lat="45.27818293724397" lon="9.121042740677302"><ele>89.5</ele><time>2026-04-04T08:10:33.869Z</time></trkpt><trkpt lat="45.27827408117088" lon="9.121007959099659"><ele>90.0</ele><time>2026-04-04T08:10:35.869Z</time></trkpt><trkpt lat="45.27836672054542" lon="9.120965525459818"><ele>90.5</ele><time>2026-04-04T08:10:37.869Z</time></trkpt><trkpt lat="45.27845393680278" lon="9.120927930116252"><ele>91.0</ele><time>2026-04-04T08:10:39.869Z</time></trkpt><trkpt lat="45.2785397826406" lon="9.12088155895236"><ele>91.0</ele><time>2026-04-04T08:10:41.869Z</time></trkpt><trkpt lat="45.27866391857143" lon="9.120853210204094"><ele>91.0</ele><time>2026-04-04T08:10:43.869Z</time></trkpt><trkpt lat="45.278765157393224" lon="9.120811365947132"><ele>91.0</ele><time>2026-04-04T08:10:45.869Z</time></trkpt><trkpt lat="45.27887575304205" lon="9.120763884269358"><ele>91.0</ele><time>2026-04-04T08:10:47.869Z</time></trkpt><trkpt lat="45.27894472102619" lon="9.120740133631667"><ele>91.0</ele><time>2026-04-04T08:10:48.869Z</time></trkpt><trkpt lat="45.27904222278887" lon="9.12069498173388"><ele>90.8</ele><time>2026-04-04T08:10:50.869Z</time></trkpt><trkpt lat="45.27914194203633" lon="9.120655072828177"><ele>90.6</ele><time>2026-04-04T08:10:52.868Z</time></trkpt><trkpt lat="45.27925555006404" lon="9.12061668223541"><ele>90.4</ele><time>2026-04-04T08:10:54.868Z</time></trkpt><trkpt lat="45.279317486071854" lon="9.120599133857702"><ele>90.2</ele><time>2026-04-04T08:10:55.868Z</time></trkpt><trkpt lat="45.27938093408558" lon="9.12057476173794"><ele>90.0</ele><time>2026-04-04T08:10:56.868Z</time></trkpt><trkpt lat="45.279481121576296" lon="9.120530727018137"><ele>90.0</ele><time>2026-04-04T08:10:58.868Z</time></trkpt><trkpt lat="45.279551371700805" lon="9.120491802679595"><ele>90.0</ele><time>2026-04-04T08:11:00.868Z</time></trkpt><trkpt lat="45.27967951229955" lon="9.120459823134516"><ele>90.0</ele><time>2026-04-04T08:11:02.868Z</time></trkpt><trkpt lat="45.27981291317381" lon="9.12041977780208"><ele>90.0</ele><time>2026-04-04T08:11:04.868Z</time></trkpt><trkpt lat="45.27992477914531" lon="9.120372719207968"><ele>89.6</ele><time>2026-04-04T08:11:06.868Z</time></trkpt><trkpt lat="45.28001933789394" lon="9.12033360967583"><ele>89.2</ele><time>2026-04-04T08:11:08.868Z</time></trkpt><trkpt lat="45.28012797588969" lon="9.120293453834122"><ele>88.80000000000001</ele><time>2026-04-04T08:11:10.868Z</time></trkpt><trkpt lat="45.28019433289506" lon="9.120277339003461"><ele>88.4</ele><time>2026-04-04T08:11:11.868Z</time></trkpt><trkpt lat="45.28025927397583" lon="9.120256608486942"><ele>88.0</ele><time>2026-04-04T08:11:12.868Z</time></trkpt><trkpt lat="45.28036692485897" lon="9.120205710427603"><ele>88.0</ele><time>2026-04-04T08:11:14.868Z</time></trkpt><trkpt lat="45.28042717317789" lon="9.120179672705081"><ele>88.0</ele><time>2026-04-04T08:11:15.868Z</time></trkpt><trkpt lat="45.280490521815" lon="9.120156410669633"><ele>88.0</ele><time>2026-04-04T08:11:16.868Z</time></trkpt><trkpt lat="45.280588291608446" lon="9.120117520810549"><ele>88.0</ele><time>2026-04-04T08:11:18.868Z</time></trkpt><trkpt lat="45.280704143432764" lon="9.120085558093885"><ele>88.0</ele><time>2026-04-04T08:11:20.868Z</time></trkpt><trkpt lat="45.28081380189764" lon="9.120039751463272"><ele>88.2</ele><time>2026-04-04T08:11:22.868Z</time></trkpt><trkpt lat="45.28093252598369" lon="9.119993757939719"><ele>88.4</ele><time>2026-04-04T08:11:24.868Z</time></trkpt><trkpt lat="45.28103805019568" lon="9.119954061099278"><ele>88.60000000000001</ele><time>2026-04-04T08:11:26.868Z</time></trkpt><trkpt lat="45.281103051900374" lon="9.119928134646003"><ele>88.80000000000001</ele><time>2026-04-04T08:11:27.868Z</time></trkpt><trkpt lat="45.2812217556199" lon="9.119888212126316"><ele>89.0</ele><time>2026-04-04T08:11:29.867Z</time></trkpt><trkpt lat="45.28128215972136" lon="9.11985256012223"><ele>89.0</ele><time>2026-04-04T08:11:31.867Z</time></trkpt><trkpt lat="45.28140235187241" lon="9.119810660375752"><ele>89.0</ele><time>2026-04-04T08:11:33.867Z</time></trkpt><trkpt lat="45.281513492748154" lon="9.119761808075802"><ele>89.0</ele><time>2026-04-04T08:11:35.869Z</time></trkpt><trkpt lat="45.281576151976466" lon="9.119738737138853"><ele>89.0</ele><time>2026-04-04T08:11:36.869Z</time></trkpt><trkpt lat="45.281640046761375" lon="9.119717438865578"><ele>89.0</ele><time>2026-04-04T08:11:37.869Z</time></trkpt><trkpt lat="45.28170684150577" lon="9.119696174174223"><ele>89.0</ele><time>2026-04-04T08:11:38.869Z</time></trkpt><trkpt lat="45.28182914711436" lon="9.119649074129878"><ele>89.0</ele><time>2026-04-04T08:11:40.869Z</time></trkpt><trkpt lat="45.28189368363296" lon="9.119629070137547"><ele>89.0</ele><time>2026-04-04T08:11:41.869Z</time></trkpt><trkpt lat="45.28199880465427" lon="9.1195836330769"><ele>89.0</ele><time>2026-04-04T08:11:43.869Z</time></trkpt><trkpt lat="45.28211083437619" lon="9.119547485838329"><ele>89.0</ele><time>2026-04-04T08:11:45.869Z</time></trkpt><trkpt lat="45.282180331250515" lon="9.1195205134678"><ele>89.0</ele><time>2026-04-04T08:11:46.869Z</time></trkpt><trkpt lat="45.28228795109669" lon="9.119474909489877"><ele>89.0</ele><time>2026-04-04T08:11:48.869Z</time></trkpt><trkpt lat="45.28240043033946" lon="9.11943276372388"><ele>89.0</ele><time>2026-04-04T08:11:50.869Z</time></trkpt><trkpt lat="45.282468316065746" lon="9.119405350646096"><ele>89.0</ele><time>2026-04-04T08:11:51.869Z</time></trkpt><trkpt lat="45.28257709090366" lon="9.119352436636067"><ele>89.0</ele><time>2026-04-04T08:11:53.869Z</time></trkpt><trkpt lat="45.282641649097506" lon="9.119338556605722"><ele>89.0</ele><time>2026-04-04T08:11:54.869Z</time></trkpt><trkpt lat="45.2827135186883" lon="9.119321196000314"><ele>89.0</ele><time>2026-04-04T08:11:55.869Z</time></trkpt><trkpt lat="45.28279131729604" lon="9.119281836203458"><ele>89.0</ele><time>2026-04-04T08:11:57.869Z</time></trkpt><trkpt lat="45.282904607419425" lon="9.119248104035316"><ele>89.0</ele><time>2026-04-04T08:11:59.869Z</time></trkpt><trkpt lat="45.282992448473905" lon="9.119213720939848"><ele>89.0</ele><time>2026-04-04T08:12:01.869Z</time></trkpt><trkpt lat="45.28305661726898" lon="9.119190563500576"><ele>89.0</ele><time>2026-04-04T08:12:02.869Z</time></trkpt><trkpt lat="45.283143459496344" lon="9.119156987170863"><ele>89.0</ele><time>2026-04-04T08:12:04.869Z</time></trkpt><trkpt lat="45.28325798760019" lon="9.119116617172251"><ele>89.2</ele><time>2026-04-04T08:12:06.869Z</time></trkpt><trkpt lat="45.28337613450899" lon="9.119073397169103"><ele>89.4</ele><time>2026-04-04T08:12:08.869Z</time></trkpt><trkpt lat="45.28348151530751" lon="9.119026685597312"><ele>89.6</ele><time>2026-04-04T08:12:10.868Z</time></trkpt><trkpt lat="45.2835896936126" lon="9.118992129873812"><ele>89.8</ele><time>2026-04-04T08:12:12.868Z</time></trkpt><trkpt lat="45.2836629141678" lon="9.118951662494206"><ele>90.0</ele><time>2026-04-04T08:12:14.868Z</time></trkpt><trkpt lat="45.28372557070835" lon="9.118927544265027"><ele>90.0</ele><time>2026-04-04T08:12:15.868Z</time></trkpt><trkpt lat="45.28384575648925" lon="9.118883558302459"><ele>90.0</ele><time>2026-04-04T08:12:17.868Z</time></trkpt><trkpt lat="45.283960692498304" lon="9.11885804381698"><ele>90.0</ele><time>2026-04-04T08:12:19.868Z</time></trkpt><trkpt lat="45.28404440487537" lon="9.118831181125191"><ele>90.0</ele><time>2026-04-04T08:12:21.868Z</time></trkpt><trkpt lat="45.28411404404966" lon="9.11879541895727"><ele>90.0</ele><time>2026-04-04T08:12:23.868Z</time></trkpt><trkpt lat="45.28420171106499" lon="9.118750400871782"><ele>89.8</ele><time>2026-04-04T08:12:26.868Z</time></trkpt><trkpt lat="45.284286034122616" lon="9.118739681853155"><ele>89.6</ele><time>2026-04-04T08:12:28.868Z</time></trkpt><trkpt lat="45.284369945607274" lon="9.11870991107576"><ele>89.4</ele><time>2026-04-04T08:12:30.868Z</time></trkpt><trkpt lat="45.284470788580016" lon="9.11867260762598"><ele>89.2</ele><time>2026-04-04T08:12:32.868Z</time></trkpt><trkpt lat="45.28457808621763" lon="9.118634370611646"><ele>89.0</ele><time>2026-04-04T08:12:34.868Z</time></trkpt><trkpt lat="45.2846914455256" lon="9.118592011825788"><ele>89.2</ele><time>2026-04-04T08:12:36.868Z</time></trkpt><trkpt lat="45.28480155205557" lon="9.118544537140089"><ele>89.4</ele><time>2026-04-04T08:12:38.869Z</time></trkpt><trkpt lat="45.284891471055" lon="9.118509358472643"><ele>89.6</ele><time>2026-04-04T08:12:40.871Z</time></trkpt><trkpt lat="45.28498880328664" lon="9.118474056730156"><ele>89.8</ele><time>2026-04-04T08:12:42.873Z</time></trkpt><trkpt lat="45.285106502367235" lon="9.118437052944419"><ele>90.0</ele><time>2026-04-04T08:12:44.875Z</time></trkpt><trkpt lat="45.285190713321455" lon="9.118386899257972"><ele>90.0</ele><time>2026-04-04T08:12:46.876Z</time></trkpt><trkpt lat="45.285257710906954" lon="9.11835309859374"><ele>90.0</ele><time>2026-04-04T08:12:48.877Z</time></trkpt><trkpt lat="45.2853306174441" lon="9.118333502304672"><ele>90.0</ele><time>2026-04-04T08:12:50.878Z</time></trkpt><trkpt lat="45.285423700184836" lon="9.118296975942936"><ele>90.0</ele><time>2026-04-04T08:12:52.879Z</time></trkpt><trkpt lat="45.28551114274126" lon="9.118252283033403"><ele>90.0</ele><time>2026-04-04T08:12:54.88Z</time></trkpt><trkpt lat="45.28560758413846" lon="9.118217031474163"><ele>90.0</ele><time>2026-04-04T08:12:56.881Z</time></trkpt><trkpt lat="45.285698541357206" lon="9.11818087332943"><ele>90.0</ele><time>2026-04-04T08:12:58.881Z</time></trkpt><trkpt lat="45.28580189880077" lon="9.118133308802022"><ele>90.0</ele><time>2026-04-04T08:13:00.882Z</time></trkpt><trkpt lat="45.28590485607525" lon="9.118104843662179"><ele>90.0</ele><time>2026-04-04T08:13:02.882Z</time></trkpt><trkpt lat="45.28600775692985" lon="9.118063208948907"><ele>90.0</ele><time>2026-04-04T08:13:04.882Z</time></trkpt><trkpt lat="45.28612277129123" lon="9.118027184000763"><ele>90.0</ele><time>2026-04-04T08:13:06.883Z</time></trkpt><trkpt lat="45.286237051567" lon="9.117990838371037"><ele>90.0</ele><time>2026-04-04T08:13:08.883Z</time></trkpt><trkpt lat="45.286347135980755" lon="9.117941305051351"><ele>90.0</ele><time>2026-04-04T08:13:10.883Z</time></trkpt><trkpt lat="45.28644634493748" lon="9.11789615989021"><ele>90.0</ele><time>2026-04-04T08:13:12.884Z</time></trkpt><trkpt lat="45.286551439232" lon="9.117856949062876"><ele>90.0</ele><time>2026-04-04T08:13:14.884Z</time></trkpt><trkpt lat="45.286647884630426" lon="9.11783074146729"><ele>90.0</ele><time>2026-04-04T08:13:16.884Z</time></trkpt><trkpt lat="45.28673841249571" lon="9.117794414451083"><ele>90.4</ele><time>2026-04-04T08:13:18.884Z</time></trkpt><trkpt lat="45.286839983290704" lon="9.11775605321102"><ele>90.8</ele><time>2026-04-04T08:13:20.884Z</time></trkpt><trkpt lat="45.28694758496209" lon="9.117711161658782"><ele>91.19999999999999</ele><time>2026-04-04T08:13:22.884Z</time></trkpt><trkpt lat="45.287052371234516" lon="9.117672215539608"><ele>91.6</ele><time>2026-04-04T08:13:24.884Z</time></trkpt><trkpt lat="45.28716188363592" lon="9.11763131560639"><ele>92.0</ele><time>2026-04-04T08:13:26.884Z</time></trkpt><trkpt lat="45.28726572992372" lon="9.117591880740315"><ele>92.0</ele><time>2026-04-04T08:13:28.884Z</time></trkpt><trkpt lat="45.28737851853239" lon="9.117550119381916"><ele>92.0</ele><time>2026-04-04T08:13:30.884Z</time></trkpt><trkpt lat="45.28748210522101" lon="9.117507947483707"><ele>92.0</ele><time>2026-04-04T08:13:32.884Z</time></trkpt><trkpt lat="45.2875778551238" lon="9.117465208603543"><ele>92.0</ele><time>2026-04-04T08:13:34.884Z</time></trkpt><trkpt lat="45.28769192462052" lon="9.117424769241676"><ele>92.0</ele><time>2026-04-04T08:13:36.884Z</time></trkpt><trkpt lat="45.28779978410388" lon="9.117394198554377"><ele>92.0</ele><time>2026-04-04T08:13:38.884Z</time></trkpt><trkpt lat="45.287908229962184" lon="9.117346768592618"><ele>92.0</ele><time>2026-04-04T08:13:40.884Z</time></trkpt><trkpt lat="45.28802320069342" lon="9.11730534458706"><ele>92.0</ele><time>2026-04-04T08:13:42.886Z</time></trkpt><trkpt lat="45.28813734987826" lon="9.117258958004681"><ele>92.0</ele><time>2026-04-04T08:13:44.886Z</time></trkpt><trkpt lat="45.288245951158316" lon="9.117216462304482"><ele>92.0</ele><time>2026-04-04T08:13:46.886Z</time></trkpt><trkpt lat="45.2883638431279" lon="9.117174799597887"><ele>92.0</ele><time>2026-04-04T08:13:48.886Z</time></trkpt><trkpt lat="45.28848279892436" lon="9.117129551482025"><ele>92.0</ele><time>2026-04-04T08:13:50.886Z</time></trkpt><trkpt lat="45.28859448726922" lon="9.117086927442767"><ele>92.0</ele><time>2026-04-04T08:13:52.886Z</time></trkpt><trkpt lat="45.28870669860348" lon="9.117043413844627"><ele>92.0</ele><time>2026-04-04T08:13:54.886Z</time></trkpt><trkpt lat="45.28881692239811" lon="9.117003261823582"><ele>92.0</ele><time>2026-04-04T08:13:56.886Z</time></trkpt><trkpt lat="45.28893137408832" lon="9.116961774305757"><ele>92.0</ele><time>2026-04-04T08:13:58.886Z</time></trkpt><trkpt lat="45.289043240009384" lon="9.116924281427298"><ele>92.0</ele><time>2026-04-04T08:14:00.886Z</time></trkpt><trkpt lat="45.289105561177614" lon="9.116894726041718"><ele>92.0</ele><time>2026-04-04T08:14:01.886Z</time></trkpt><trkpt lat="45.28921599473981" lon="9.116855881810652"><ele>91.5</ele><time>2026-04-04T08:14:03.886Z</time></trkpt><trkpt lat="45.28932777603073" lon="9.116815525010665"><ele>91.0</ele><time>2026-04-04T08:14:05.886Z</time></trkpt><trkpt lat="45.28943951825983" lon="9.116771299384569"><ele>90.5</ele><time>2026-04-04T08:14:07.886Z</time></trkpt><trkpt lat="45.28955224216505" lon="9.11672856002372"><ele>90.0</ele><time>2026-04-04T08:14:09.886Z</time></trkpt><trkpt lat="45.289659695293366" lon="9.116685026970604"><ele>90.25</ele><time>2026-04-04T08:14:11.886Z</time></trkpt><trkpt lat="45.28976701768081" lon="9.116641793981167"><ele>90.5</ele><time>2026-04-04T08:14:13.886Z</time></trkpt><trkpt lat="45.289885132416416" lon="9.116600926876792"><ele>90.75</ele><time>2026-04-04T08:14:15.886Z</time></trkpt><trkpt lat="45.29000144686875" lon="9.116558096403471"><ele>91.0</ele><time>2026-04-04T08:14:17.886Z</time></trkpt><trkpt lat="45.290106158993574" lon="9.116512333603001"><ele>91.0</ele><time>2026-04-04T08:14:19.885Z</time></trkpt><trkpt lat="45.29017007887201" lon="9.116492495234652"><ele>91.0</ele><time>2026-04-04T08:14:20.885Z</time></trkpt><trkpt lat="45.29028486777044" lon="9.116451255169046"><ele>91.0</ele><time>2026-04-04T08:14:22.885Z</time></trkpt><trkpt lat="45.29039476523416" lon="9.116403857486418"><ele>91.0</ele><time>2026-04-04T08:14:24.885Z</time></trkpt><trkpt lat="45.290497032721206" lon="9.116365315201575"><ele>91.0</ele><time>2026-04-04T08:14:26.885Z</time></trkpt><trkpt lat="45.290606813896915" lon="9.116316957468856"><ele>91.0</ele><time>2026-04-04T08:14:28.885Z</time></trkpt><trkpt lat="45.29071491871465" lon="9.11628217053356"><ele>91.0</ele><time>2026-04-04T08:14:30.885Z</time></trkpt><trkpt lat="45.29081574586168" lon="9.116239718874318"><ele>91.0</ele><time>2026-04-04T08:14:32.885Z</time></trkpt><trkpt lat="45.29090655389604" lon="9.116212833206328"><ele>91.0</ele><time>2026-04-04T08:14:34.885Z</time></trkpt><trkpt lat="45.291004576208096" lon="9.11617904794704"><ele>91.0</ele><time>2026-04-04T08:14:36.885Z</time></trkpt><trkpt lat="45.29111195765602" lon="9.116141386986076"><ele>91.0</ele><time>2026-04-04T08:14:38.885Z</time></trkpt><trkpt lat="45.291208987790526" lon="9.11610474166981"><ele>91.0</ele><time>2026-04-04T08:14:40.885Z</time></trkpt><trkpt lat="45.291315107888764" lon="9.11606644807402"><ele>91.0</ele><time>2026-04-04T08:14:42.885Z</time></trkpt><trkpt lat="45.29141494194624" lon="9.116031155898252"><ele>91.0</ele><time>2026-04-04T08:14:44.885Z</time></trkpt><trkpt lat="45.29151647306115" lon="9.115988221309962"><ele>91.0</ele><time>2026-04-04T08:14:46.885Z</time></trkpt><trkpt lat="45.291615621957746" lon="9.11595030677992"><ele>91.19999999999999</ele><time>2026-04-04T08:14:48.885Z</time></trkpt><trkpt lat="45.29171812867757" lon="9.115905148438427"><ele>91.39999999999999</ele><time>2026-04-04T08:14:50.885Z</time></trkpt><trkpt lat="45.29178211826547" lon="9.115882999092527"><ele>91.6</ele><time>2026-04-04T08:14:51.885Z</time></trkpt><trkpt lat="45.29188507925101" lon="9.11584907507126"><ele>91.8</ele><time>2026-04-04T08:14:53.885Z</time></trkpt><trkpt lat="45.29199299204056" lon="9.115816329862405"><ele>92.0</ele><time>2026-04-04T08:14:55.885Z</time></trkpt><trkpt lat="45.29208515510405" lon="9.115770720461088"><ele>91.8</ele><time>2026-04-04T08:14:57.885Z</time></trkpt><trkpt lat="45.29219619613396" lon="9.115730399043"><ele>91.6</ele><time>2026-04-04T08:14:59.885Z</time></trkpt><trkpt lat="45.29229784735949" lon="9.115697034897487"><ele>91.39999999999999</ele><time>2026-04-04T08:15:01.885Z</time></trkpt><trkpt lat="45.29240889156576" lon="9.11564941565391"><ele>91.19999999999999</ele><time>2026-04-04T08:15:03.884Z</time></trkpt><trkpt lat="45.292518989525966" lon="9.11560871675537"><ele>91.0</ele><time>2026-04-04T08:15:05.884Z</time></trkpt><trkpt lat="45.2926314060191" lon="9.115562034122823"><ele>91.0</ele><time>2026-04-04T08:15:07.884Z</time></trkpt><trkpt lat="45.29274196161675" lon="9.115514962759182"><ele>91.0</ele><time>2026-04-04T08:15:09.884Z</time></trkpt><trkpt lat="45.292855195113724" lon="9.115476883620348"><ele>91.0</ele><time>2026-04-04T08:15:11.884Z</time></trkpt><trkpt lat="45.29291800864903" lon="9.115455977873575"><ele>91.0</ele><time>2026-04-04T08:15:12.884Z</time></trkpt><trkpt lat="45.293029052188466" lon="9.115411333798212"><ele>91.0</ele><time>2026-04-04T08:15:14.884Z</time></trkpt><trkpt lat="45.293134189305206" lon="9.115372748125992"><ele>91.0</ele><time>2026-04-04T08:15:16.884Z</time></trkpt><trkpt lat="45.29319750794165" lon="9.115349173198808"><ele>91.0</ele><time>2026-04-04T08:15:17.884Z</time></trkpt><trkpt lat="45.2933043921815" lon="9.115301283204657"><ele>91.0</ele><time>2026-04-04T08:15:19.884Z</time></trkpt><trkpt lat="45.29336644200142" lon="9.115280853491429"><ele>91.0</ele><time>2026-04-04T08:15:20.884Z</time></trkpt><trkpt lat="45.29347996430924" lon="9.11523947569317"><ele>91.0</ele><time>2026-04-04T08:15:22.884Z</time></trkpt><trkpt lat="45.29358865608753" lon="9.115194879428012"><ele>91.0</ele><time>2026-04-04T08:15:24.884Z</time></trkpt><trkpt lat="45.29370575899522" lon="9.115154831343688"><ele>91.0</ele><time>2026-04-04T08:15:26.884Z</time></trkpt><trkpt lat="45.2938232337609" lon="9.11511397651011"><ele>91.0</ele><time>2026-04-04T08:15:28.884Z</time></trkpt><trkpt lat="45.29393789940097" lon="9.11507414842396"><ele>91.0</ele><time>2026-04-04T08:15:30.884Z</time></trkpt><trkpt lat="45.294032703912066" lon="9.115037777232113"><ele>91.0</ele><time>2026-04-04T08:15:32.884Z</time></trkpt><trkpt lat="45.29409675005837" lon="9.115017707488017"><ele>91.0</ele><time>2026-04-04T08:15:33.884Z</time></trkpt><trkpt lat="45.29421069105555" lon="9.114969587320736"><ele>91.0</ele><time>2026-04-04T08:15:35.884Z</time></trkpt><trkpt lat="45.29431683612754" lon="9.114917252554234"><ele>91.0</ele><time>2026-04-04T08:15:37.884Z</time></trkpt><trkpt lat="45.29438041051931" lon="9.114893366430055"><ele>91.0</ele><time>2026-04-04T08:15:38.884Z</time></trkpt><trkpt lat="45.2944872374219" lon="9.114851094812478"><ele>91.0</ele><time>2026-04-04T08:15:40.884Z</time></trkpt><trkpt lat="45.29459472718031" lon="9.114813742130732"><ele>91.0</ele><time>2026-04-04T08:15:42.884Z</time></trkpt><trkpt lat="45.29469968182508" lon="9.11477915359964"><ele>91.0</ele><time>2026-04-04T08:15:44.884Z</time></trkpt><trkpt lat="45.294764025974004" lon="9.114758711418654"><ele>91.0</ele><time>2026-04-04T08:15:45.884Z</time></trkpt><trkpt lat="45.294865646957156" lon="9.1147233633374"><ele>91.0</ele><time>2026-04-04T08:15:47.885Z</time></trkpt><trkpt lat="45.2949278084292" lon="9.114702736279103"><ele>91.0</ele><time>2026-04-04T08:15:48.886Z</time></trkpt><trkpt lat="45.2950253731975" lon="9.114661430653479"><ele>91.0</ele><time>2026-04-04T08:15:50.886Z</time></trkpt><trkpt lat="45.29510523008548" lon="9.1146256969799"><ele>91.0</ele><time>2026-04-04T08:15:52.885Z</time></trkpt><trkpt lat="45.295194708776656" lon="9.114587845409932"><ele>91.0</ele><time>2026-04-04T08:15:54.885Z</time></trkpt><trkpt lat="45.295302433385054" lon="9.11454634619352"><ele>91.0</ele><time>2026-04-04T08:15:56.885Z</time></trkpt><trkpt lat="45.2953969897572" lon="9.114503439332827"><ele>91.0</ele><time>2026-04-04T08:15:58.885Z</time></trkpt><trkpt lat="45.2955090562155" lon="9.114469970977437"><ele>91.0</ele><time>2026-04-04T08:16:00.886Z</time></trkpt><trkpt lat="45.295616186424" lon="9.11442561341829"><ele>91.0</ele><time>2026-04-04T08:16:02.885Z</time></trkpt><trkpt lat="45.29571676849464" lon="9.114382821532905"><ele>91.0</ele><time>2026-04-04T08:16:04.885Z</time></trkpt><trkpt lat="45.29582560433153" lon="9.114348388309871"><ele>91.0</ele><time>2026-04-04T08:16:06.885Z</time></trkpt><trkpt lat="45.29593788172722" lon="9.11430651994391"><ele>91.0</ele><time>2026-04-04T08:16:08.885Z</time></trkpt><trkpt lat="45.296044549924396" lon="9.114264230750344"><ele>91.0</ele><time>2026-04-04T08:16:10.885Z</time></trkpt><trkpt lat="45.29614795265765" lon="9.114219128691808"><ele>91.0</ele><time>2026-04-04T08:16:12.885Z</time></trkpt><trkpt lat="45.2962480532816" lon="9.114185645301077"><ele>91.0</ele><time>2026-04-04T08:16:14.885Z</time></trkpt><trkpt lat="45.29635986711001" lon="9.11415212839334"><ele>91.0</ele><time>2026-04-04T08:16:16.885Z</time></trkpt><trkpt lat="45.296452698343856" lon="9.114109122287955"><ele>91.5</ele><time>2026-04-04T08:16:18.885Z</time></trkpt><trkpt lat="45.29656865688658" lon="9.114069402531445"><ele>92.0</ele><time>2026-04-04T08:16:20.885Z</time></trkpt><trkpt lat="45.29667959933489" lon="9.11403450630717"><ele>92.5</ele><time>2026-04-04T08:16:22.885Z</time></trkpt><trkpt lat="45.296782943935106" lon="9.113996064501393"><ele>93.0</ele><time>2026-04-04T08:16:24.885Z</time></trkpt><trkpt lat="45.29689414304482" lon="9.113950388026186"><ele>93.0</ele><time>2026-04-04T08:16:26.885Z</time></trkpt><trkpt lat="45.29699551477648" lon="9.113915840047593"><ele>93.0</ele><time>2026-04-04T08:16:28.885Z</time></trkpt><trkpt lat="45.29709851374892" lon="9.11387769774736"><ele>93.0</ele><time>2026-04-04T08:16:30.885Z</time></trkpt><trkpt lat="45.297211415566515" lon="9.11384119123301"><ele>93.0</ele><time>2026-04-04T08:16:32.885Z</time></trkpt><trkpt lat="45.297317545182324" lon="9.113810569930788"><ele>93.0</ele><time>2026-04-04T08:16:34.885Z</time></trkpt><trkpt lat="45.29742668869386" lon="9.113762717439238"><ele>93.2</ele><time>2026-04-04T08:16:36.885Z</time></trkpt><trkpt lat="45.29749426650088" lon="9.113737131168609"><ele>93.4</ele><time>2026-04-04T08:16:37.885Z</time></trkpt><trkpt lat="45.29759573086321" lon="9.1136932649563"><ele>93.60000000000001</ele><time>2026-04-04T08:16:39.885Z</time></trkpt><trkpt lat="45.297707406572115" lon="9.113648557509142"><ele>93.80000000000001</ele><time>2026-04-04T08:16:41.885Z</time></trkpt><trkpt lat="45.297811371576735" lon="9.11360246903887"><ele>94.0</ele><time>2026-04-04T08:16:43.885Z</time></trkpt><trkpt lat="45.297919844333016" lon="9.113568717018394"><ele>94.0</ele><time>2026-04-04T08:16:45.884Z</time></trkpt><trkpt lat="45.298027227611904" lon="9.113522527591147"><ele>94.0</ele><time>2026-04-04T08:16:47.884Z</time></trkpt><trkpt lat="45.29809373568781" lon="9.113505377189071"><ele>94.0</ele><time>2026-04-04T08:16:48.884Z</time></trkpt><trkpt lat="45.29820059551727" lon="9.113475321641657"><ele>94.0</ele><time>2026-04-04T08:16:50.884Z</time></trkpt><trkpt lat="45.29831367779172" lon="9.113424468203574"><ele>94.0</ele><time>2026-04-04T08:16:52.884Z</time></trkpt><trkpt lat="45.298424544949086" lon="9.113386124822542"><ele>93.80000000000001</ele><time>2026-04-04T08:16:54.884Z</time></trkpt><trkpt lat="45.298529569816395" lon="9.11334544961867"><ele>93.60000000000001</ele><time>2026-04-04T08:16:56.884Z</time></trkpt><trkpt lat="45.29863193142528" lon="9.113305004055556"><ele>93.4</ele><time>2026-04-04T08:16:58.884Z</time></trkpt><trkpt lat="45.298718755461806" lon="9.11326456592818"><ele>93.2</ele><time>2026-04-04T08:17:00.884Z</time></trkpt><trkpt lat="45.298814830382184" lon="9.113231664257018"><ele>93.0</ele><time>2026-04-04T08:17:02.884Z</time></trkpt><trkpt lat="45.29892579599943" lon="9.11318863918543"><ele>92.60000000000001</ele><time>2026-04-04T08:17:04.884Z</time></trkpt><trkpt lat="45.29902202270186" lon="9.113163039046613"><ele>92.2</ele><time>2026-04-04T08:17:06.884Z</time></trkpt><trkpt lat="45.29912201703913" lon="9.11311804593315"><ele>91.8</ele><time>2026-04-04T08:17:08.884Z</time></trkpt><trkpt lat="45.29918443359036" lon="9.11310386153022"><ele>91.4</ele><time>2026-04-04T08:17:09.884Z</time></trkpt><trkpt lat="45.29928681522832" lon="9.113062725063546"><ele>91.0</ele><time>2026-04-04T08:17:11.884Z</time></trkpt><trkpt lat="45.29938928527851" lon="9.113027257710742"><ele>91.0</ele><time>2026-04-04T08:17:13.884Z</time></trkpt><trkpt lat="45.29949659573989" lon="9.112990904334804"><ele>91.0</ele><time>2026-04-04T08:17:15.884Z</time></trkpt><trkpt lat="45.29959074461869" lon="9.112965024028393"><ele>91.0</ele><time>2026-04-04T08:17:17.884Z</time></trkpt><trkpt lat="45.29970646400366" lon="9.112917870304374"><ele>91.0</ele><time>2026-04-04T08:17:19.884Z</time></trkpt><trkpt lat="45.29980478079065" lon="9.112880085651554"><ele>91.0</ele><time>2026-04-04T08:17:21.884Z</time></trkpt><trkpt lat="45.29990612449805" lon="9.112838463142161"><ele>91.25</ele><time>2026-04-04T08:17:23.884Z</time></trkpt><trkpt lat="45.300007756730786" lon="9.112799309324515"><ele>91.5</ele><time>2026-04-04T08:17:25.884Z</time></trkpt><trkpt lat="45.30012229241543" lon="9.112762330753348"><ele>91.75</ele><time>2026-04-04T08:17:27.883Z</time></trkpt><trkpt lat="45.30023928855422" lon="9.112718124002305"><ele>92.0</ele><time>2026-04-04T08:17:29.883Z</time></trkpt><trkpt lat="45.3003539058774" lon="9.112661252280569"><ele>92.0</ele><time>2026-04-04T08:17:31.883Z</time></trkpt><trkpt lat="45.30042065793282" lon="9.11263612173856"><ele>92.0</ele><time>2026-04-04T08:17:32.883Z</time></trkpt><trkpt lat="45.300484695772255" lon="9.112609124632263"><ele>92.0</ele><time>2026-04-04T08:17:33.883Z</time></trkpt><trkpt lat="45.300557765564015" lon="9.112586030836923"><ele>92.0</ele><time>2026-04-04T08:17:34.883Z</time></trkpt><trkpt lat="45.300622586610615" lon="9.112562318535526"><ele>92.0</ele><time>2026-04-04T08:17:35.883Z</time></trkpt><trkpt lat="45.300687929237725" lon="9.11254997359795"><ele>92.0</ele><time>2026-04-04T08:17:36.883Z</time></trkpt><trkpt lat="45.30075189254886" lon="9.11253459588198"><ele>92.0</ele><time>2026-04-04T08:17:37.883Z</time></trkpt><trkpt lat="45.30081068655689" lon="9.112502009507338"><ele>92.0</ele><time>2026-04-04T08:17:38.883Z</time></trkpt><trkpt lat="45.30088453993747" lon="9.112475297818932"><ele>92.0</ele><time>2026-04-04T08:17:39.883Z</time></trkpt><trkpt lat="45.300950703668036" lon="9.112449010308834"><ele>92.0</ele><time>2026-04-04T08:17:40.883Z</time></trkpt><trkpt lat="45.30101624604007" lon="9.11243486671986"><ele>92.0</ele><time>2026-04-04T08:17:41.883Z</time></trkpt><trkpt lat="45.30108285081381" lon="9.112412307636157"><ele>92.0</ele><time>2026-04-04T08:17:42.883Z</time></trkpt><trkpt lat="45.301147833006965" lon="9.112380960972674"><ele>92.0</ele><time>2026-04-04T08:17:43.883Z</time></trkpt><trkpt lat="45.30121999806592" lon="9.112355347855967"><ele>92.0</ele><time>2026-04-04T08:17:44.883Z</time></trkpt><trkpt lat="45.30128666234799" lon="9.11233172590322"><ele>92.0</ele><time>2026-04-04T08:17:45.883Z</time></trkpt><trkpt lat="45.301355348163625" lon="9.112300065847313"><ele>92.0</ele><time>2026-04-04T08:17:46.883Z</time></trkpt><trkpt lat="45.30141543576504" lon="9.112271757315291"><ele>92.0</ele><time>2026-04-04T08:17:47.883Z</time></trkpt><trkpt lat="45.301479683046615" lon="9.112245947148637"><ele>92.0</ele><time>2026-04-04T08:17:48.883Z</time></trkpt><trkpt lat="45.301541357234036" lon="9.112219340703316"><ele>92.0</ele><time>2026-04-04T08:17:49.883Z</time></trkpt><trkpt lat="45.3016060037702" lon="9.112189430204001"><ele>92.0</ele><time>2026-04-04T08:17:50.883Z</time></trkpt><trkpt lat="45.30166927401149" lon="9.112167852828085"><ele>92.0</ele><time>2026-04-04T08:17:51.883Z</time></trkpt><trkpt lat="45.30173641105085" lon="9.112142546382131"><ele>92.0</ele><time>2026-04-04T08:17:52.883Z</time></trkpt><trkpt lat="45.30185695301101" lon="9.11209166825426"><ele>92.0</ele><time>2026-04-04T08:17:54.884Z</time></trkpt><trkpt lat="45.301971016183835" lon="9.112050184613762"><ele>92.0</ele><time>2026-04-04T08:17:56.884Z</time></trkpt><trkpt lat="45.302089084603224" lon="9.112004268716085"><ele>92.0</ele><time>2026-04-04T08:17:58.884Z</time></trkpt><trkpt lat="45.30215572689815" lon="9.111982724407337"><ele>92.0</ele><time>2026-04-04T08:17:59.884Z</time></trkpt><trkpt lat="45.30221962640891" lon="9.111956134541295"><ele>91.8</ele><time>2026-04-04T08:18:00.884Z</time></trkpt><trkpt lat="45.302350856527994" lon="9.111901560055308"><ele>91.6</ele><time>2026-04-04T08:18:02.885Z</time></trkpt><trkpt lat="45.30246156854807" lon="9.111855832515936"><ele>91.39999999999999</ele><time>2026-04-04T08:18:04.885Z</time></trkpt><trkpt lat="45.30252410014694" lon="9.111832868142892"><ele>91.19999999999999</ele><time>2026-04-04T08:18:05.884Z</time></trkpt><trkpt lat="45.3025872265665" lon="9.11181262623751"><ele>91.0</ele><time>2026-04-04T08:18:06.884Z</time></trkpt><trkpt lat="45.30265697542882" lon="9.111791672933949"><ele>91.0</ele><time>2026-04-04T08:18:07.884Z</time></trkpt><trkpt lat="45.30272334502399" lon="9.111757843229917"><ele>91.0</ele><time>2026-04-04T08:18:08.884Z</time></trkpt><trkpt lat="45.30278896854144" lon="9.111729659506318"><ele>91.0</ele><time>2026-04-04T08:18:09.884Z</time></trkpt><trkpt lat="45.30290668561832" lon="9.111686794783619"><ele>91.0</ele><time>2026-04-04T08:18:11.884Z</time></trkpt><trkpt lat="45.30302014752612" lon="9.111639921948901"><ele>91.0</ele><time>2026-04-04T08:18:13.884Z</time></trkpt><trkpt lat="45.303140823057575" lon="9.111602514478674"><ele>91.16666666666666</ele><time>2026-04-04T08:18:15.884Z</time></trkpt><trkpt lat="45.30324581349282" lon="9.111556576071276"><ele>91.33333333333333</ele><time>2026-04-04T08:18:17.884Z</time></trkpt><trkpt lat="45.30333886933172" lon="9.111511118219026"><ele>91.5</ele><time>2026-04-04T08:18:19.884Z</time></trkpt><trkpt lat="45.30343896444355" lon="9.111471525596183"><ele>91.66666666666667</ele><time>2026-04-04T08:18:21.884Z</time></trkpt><trkpt lat="45.30350489349315" lon="9.111457913640395"><ele>91.83333333333334</ele><time>2026-04-04T08:18:22.884Z</time></trkpt><trkpt lat="45.30356625175883" lon="9.111436144230472"><ele>92.0</ele><time>2026-04-04T08:18:23.884Z</time></trkpt><trkpt lat="45.30368767018496" lon="9.111395084918033"><ele>92.0</ele><time>2026-04-04T08:18:25.884Z</time></trkpt><trkpt lat="45.30378106138871" lon="9.111358508138535"><ele>92.0</ele><time>2026-04-04T08:18:27.884Z</time></trkpt><trkpt lat="45.30389388446457" lon="9.111325331350473"><ele>92.0</ele><time>2026-04-04T08:18:29.884Z</time></trkpt><trkpt lat="45.30395814143166" lon="9.111296832901546"><ele>92.0</ele><time>2026-04-04T08:18:30.884Z</time></trkpt><trkpt lat="45.304021668968716" lon="9.111280823662668"><ele>92.0</ele><time>2026-04-04T08:18:31.884Z</time></trkpt><trkpt lat="45.3041298245215" lon="9.111236422199505"><ele>92.19999999999999</ele><time>2026-04-04T08:18:33.884Z</time></trkpt><trkpt lat="45.30423144599881" lon="9.111193280550452"><ele>92.4</ele><time>2026-04-04T08:18:35.883Z</time></trkpt><trkpt lat="45.30434695694569" lon="9.111155427153426"><ele>92.6</ele><time>2026-04-04T08:18:37.883Z</time></trkpt><trkpt lat="45.30445203315309" lon="9.11111564715221"><ele>92.80000000000001</ele><time>2026-04-04T08:18:39.883Z</time></trkpt><trkpt lat="45.30455857956021" lon="9.111072863853948"><ele>93.0</ele><time>2026-04-04T08:18:41.883Z</time></trkpt><trkpt lat="45.30468355297337" lon="9.111027601583258"><ele>93.0</ele><time>2026-04-04T08:18:43.883Z</time></trkpt><trkpt lat="45.3047839221266" lon="9.110987806525145"><ele>93.0</ele><time>2026-04-04T08:18:45.883Z</time></trkpt><trkpt lat="45.30485353279856" lon="9.11094968085038"><ele>93.0</ele><time>2026-04-04T08:18:47.883Z</time></trkpt><trkpt lat="45.30492548974943" lon="9.110923656959285"><ele>93.0</ele><time>2026-04-04T08:18:49.883Z</time></trkpt><trkpt lat="45.30500952897714" lon="9.110893470401061"><ele>93.0</ele><time>2026-04-04T08:18:51.883Z</time></trkpt><trkpt lat="45.30513787458674" lon="9.110850883205643"><ele>93.0</ele><time>2026-04-04T08:18:53.883Z</time></trkpt><trkpt lat="45.30524624194074" lon="9.110801740993379"><ele>93.0</ele><time>2026-04-04T08:18:55.883Z</time></trkpt><trkpt lat="45.30534047544641" lon="9.11076530004029"><ele>93.0</ele><time>2026-04-04T08:18:57.883Z</time></trkpt><trkpt lat="45.30544417590851" lon="9.110723631605325"><ele>93.0</ele><time>2026-04-04T08:18:59.883Z</time></trkpt><trkpt lat="45.30552927820033" lon="9.110685473846546"><ele>93.0</ele><time>2026-04-04T08:19:01.883Z</time></trkpt><trkpt lat="45.30559519885128" lon="9.11066414127512"><ele>93.60000000000001</ele><time>2026-04-04T08:19:02.883Z</time></trkpt><trkpt lat="45.30571171935432" lon="9.110626817887754"><ele>94.2</ele><time>2026-04-04T08:19:04.883Z</time></trkpt><trkpt lat="45.30579613753292" lon="9.11059708517739"><ele>94.8</ele><time>2026-04-04T08:19:05.883Z</time></trkpt><trkpt lat="45.30586269160826" lon="9.110572879465536"><ele>95.4</ele><time>2026-04-04T08:19:06.883Z</time></trkpt><trkpt lat="45.305976163454076" lon="9.110523474908835"><ele>96.0</ele><time>2026-04-04T08:19:08.883Z</time></trkpt><trkpt lat="45.30609909631239" lon="9.110471087632222"><ele>96.0</ele><time>2026-04-04T08:19:10.883Z</time></trkpt><trkpt lat="45.306217654851004" lon="9.110433221260335"><ele>96.0</ele><time>2026-04-04T08:19:12.883Z</time></trkpt><trkpt lat="45.30628378092775" lon="9.110411271560036"><ele>96.0</ele><time>2026-04-04T08:19:13.883Z</time></trkpt><trkpt lat="45.30635041109058" lon="9.11039180389945"><ele>96.0</ele><time>2026-04-04T08:19:14.883Z</time></trkpt><trkpt lat="45.306414515085166" lon="9.110366713285941"><ele>96.0</ele><time>2026-04-04T08:19:15.883Z</time></trkpt><trkpt lat="45.30653232859305" lon="9.11033425340861"><ele>96.0</ele><time>2026-04-04T08:19:17.882Z</time></trkpt><trkpt lat="45.30659385284143" lon="9.11030834866649"><ele>95.6</ele><time>2026-04-04T08:19:18.882Z</time></trkpt><trkpt lat="45.306708042711854" lon="9.110266000951915"><ele>95.19999999999999</ele><time>2026-04-04T08:19:20.882Z</time></trkpt><trkpt lat="45.30676989634336" lon="9.110245025489832"><ele>94.80000000000001</ele><time>2026-04-04T08:19:21.882Z</time></trkpt><trkpt lat="45.30689190023217" lon="9.110196309769515"><ele>94.4</ele><time>2026-04-04T08:19:23.882Z</time></trkpt><trkpt lat="45.307003669742954" lon="9.110161077787224"><ele>94.0</ele><time>2026-04-04T08:19:25.882Z</time></trkpt><trkpt lat="45.307110762149925" lon="9.110112837506598"><ele>94.0</ele><time>2026-04-04T08:19:27.882Z</time></trkpt><trkpt lat="45.3072048059888" lon="9.110088097269625"><ele>94.0</ele><time>2026-04-04T08:19:29.882Z</time></trkpt><trkpt lat="45.30727456933776" lon="9.110060288173427"><ele>94.0</ele><time>2026-04-04T08:19:30.882Z</time></trkpt><trkpt lat="45.30733841282672" lon="9.110042137020464"><ele>94.0</ele><time>2026-04-04T08:19:31.882Z</time></trkpt><trkpt lat="45.30745569804544" lon="9.109992052831174"><ele>94.0</ele><time>2026-04-04T08:19:33.882Z</time></trkpt><trkpt lat="45.307573252640914" lon="9.10996163399061"><ele>93.80000000000001</ele><time>2026-04-04T08:19:35.882Z</time></trkpt><trkpt lat="45.30763395329942" lon="9.109935689859174"><ele>93.60000000000001</ele><time>2026-04-04T08:19:36.882Z</time></trkpt><trkpt lat="45.30769572299885" lon="9.109909643093388"><ele>93.4</ele><time>2026-04-04T08:19:37.882Z</time></trkpt><trkpt lat="45.30781199947629" lon="9.10986969942804"><ele>93.2</ele><time>2026-04-04T08:19:39.882Z</time></trkpt><trkpt lat="45.307924176366974" lon="9.109821679207544"><ele>93.0</ele><time>2026-04-04T08:19:41.882Z</time></trkpt><trkpt lat="45.30803829304583" lon="9.109790154891371"><ele>93.25</ele><time>2026-04-04T08:19:43.882Z</time></trkpt><trkpt lat="45.30815328012335" lon="9.10974954707015"><ele>93.5</ele><time>2026-04-04T08:19:45.882Z</time></trkpt><trkpt lat="45.308265757658205" lon="9.109710725258708"><ele>93.75</ele><time>2026-04-04T08:19:47.882Z</time></trkpt><trkpt lat="45.308383469020356" lon="9.109676269686991"><ele>94.0</ele><time>2026-04-04T08:19:49.882Z</time></trkpt><trkpt lat="45.30850038201955" lon="9.109637078857604"><ele>94.0</ele><time>2026-04-04T08:19:51.882Z</time></trkpt><trkpt lat="45.30861223721817" lon="9.109594013667595"><ele>94.0</ele><time>2026-04-04T08:19:53.882Z</time></trkpt><trkpt lat="45.30867317101123" lon="9.109569202267375"><ele>94.0</ele><time>2026-04-04T08:19:54.882Z</time></trkpt><trkpt lat="45.308789878082614" lon="9.109527693882193"><ele>94.0</ele><time>2026-04-04T08:19:56.882Z</time></trkpt><trkpt lat="45.308903893002025" lon="9.109483698599833"><ele>94.0</ele><time>2026-04-04T08:19:58.882Z</time></trkpt><trkpt lat="45.30901486023046" lon="9.109441146754765"><ele>93.75</ele><time>2026-04-04T08:20:00.883Z</time></trkpt><trkpt lat="45.30911681276554" lon="9.109404197075353"><ele>93.5</ele><time>2026-04-04T08:20:02.883Z</time></trkpt><trkpt lat="45.3092312533333" lon="9.109363634130524"><ele>93.25</ele><time>2026-04-04T08:20:04.884Z</time></trkpt><trkpt lat="45.30934688054607" lon="9.109319410746053"><ele>93.0</ele><time>2026-04-04T08:20:06.884Z</time></trkpt><trkpt lat="45.30945844088243" lon="9.109278556710892"><ele>93.0</ele><time>2026-04-04T08:20:08.883Z</time></trkpt><trkpt lat="45.309566002901185" lon="9.109233155095469"><ele>93.0</ele><time>2026-04-04T08:20:10.884Z</time></trkpt><trkpt lat="45.30966840512672" lon="9.109195084087037"><ele>93.0</ele><time>2026-04-04T08:20:12.884Z</time></trkpt><trkpt lat="45.30977408671652" lon="9.109144375207826"><ele>93.0</ele><time>2026-04-04T08:20:14.884Z</time></trkpt><trkpt lat="45.30987453034144" lon="9.109107999137965"><ele>93.0</ele><time>2026-04-04T08:20:16.884Z</time></trkpt><trkpt lat="45.30993617460405" lon="9.109087497760306"><ele>93.4</ele><time>2026-04-04T08:20:17.884Z</time></trkpt><trkpt lat="45.30999725859693" lon="9.10906217433217"><ele>93.80000000000001</ele><time>2026-04-04T08:20:18.884Z</time></trkpt><trkpt lat="45.31010695618253" lon="9.109022528176817"><ele>94.2</ele><time>2026-04-04T08:20:20.884Z</time></trkpt><trkpt lat="45.31021094112369" lon="9.108980255423498"><ele>94.6</ele><time>2026-04-04T08:20:22.884Z</time></trkpt><trkpt lat="45.310319773216555" lon="9.108943414700876"><ele>95.0</ele><time>2026-04-04T08:20:24.883Z</time></trkpt><trkpt lat="45.31043147247929" lon="9.108901851291833"><ele>95.0</ele><time>2026-04-04T08:20:26.883Z</time></trkpt><trkpt lat="45.31054781652266" lon="9.108847246780675"><ele>95.0</ele><time>2026-04-04T08:20:28.883Z</time></trkpt><trkpt lat="45.31065758929653" lon="9.10881422366737"><ele>95.0</ele><time>2026-04-04T08:20:30.883Z</time></trkpt><trkpt lat="45.310762870634285" lon="9.10877505609824"><ele>95.0</ele><time>2026-04-04T08:20:32.883Z</time></trkpt><trkpt lat="45.310867667831374" lon="9.108739408641753"><ele>94.8</ele><time>2026-04-04T08:20:34.883Z</time></trkpt><trkpt lat="45.31097525530476" lon="9.108693734133286"><ele>94.6</ele><time>2026-04-04T08:20:36.883Z</time></trkpt><trkpt lat="45.31107587547304" lon="9.108650711659864"><ele>94.4</ele><time>2026-04-04T08:20:38.883Z</time></trkpt><trkpt lat="45.31118782688794" lon="9.108610001521939"><ele>94.2</ele><time>2026-04-04T08:20:40.883Z</time></trkpt><trkpt lat="45.31129560576409" lon="9.108567706744742"><ele>94.0</ele><time>2026-04-04T08:20:42.883Z</time></trkpt><trkpt lat="45.31140209433522" lon="9.10852609817347"><ele>93.80000000000001</ele><time>2026-04-04T08:20:44.883Z</time></trkpt><trkpt lat="45.31150574203553" lon="9.10849033317005"><ele>93.60000000000001</ele><time>2026-04-04T08:20:46.883Z</time></trkpt><trkpt lat="45.31160740504286" lon="9.10844711191226"><ele>93.4</ele><time>2026-04-04T08:20:48.883Z</time></trkpt><trkpt lat="45.31171694539616" lon="9.108409146450285"><ele>93.2</ele><time>2026-04-04T08:20:50.883Z</time></trkpt><trkpt lat="45.311819036590855" lon="9.108368835648585"><ele>93.0</ele><time>2026-04-04T08:20:52.883Z</time></trkpt><trkpt lat="45.311924403040486" lon="9.108326210053917"><ele>93.0</ele><time>2026-04-04T08:20:54.883Z</time></trkpt><trkpt lat="45.312035607987305" lon="9.108279308482153"><ele>93.0</ele><time>2026-04-04T08:20:56.883Z</time></trkpt><trkpt lat="45.31213930794565" lon="9.108234465908936"><ele>93.0</ele><time>2026-04-04T08:20:58.883Z</time></trkpt><trkpt lat="45.312249883519065" lon="9.108191359708622"><ele>93.0</ele><time>2026-04-04T08:21:00.883Z</time></trkpt><trkpt lat="45.312360310985156" lon="9.108146789147755"><ele>93.0</ele><time>2026-04-04T08:21:02.883Z</time></trkpt><trkpt lat="45.3124656069234" lon="9.108105279961531"><ele>93.0</ele><time>2026-04-04T08:21:04.883Z</time></trkpt><trkpt lat="45.31256716882246" lon="9.108065804873554"><ele>93.0</ele><time>2026-04-04T08:21:06.883Z</time></trkpt><trkpt lat="45.31267035570129" lon="9.108023484604233"><ele>93.0</ele><time>2026-04-04T08:21:08.882Z</time></trkpt><trkpt lat="45.312782104228006" lon="9.107994397073373"><ele>93.0</ele><time>2026-04-04T08:21:10.882Z</time></trkpt><trkpt lat="45.312891528599515" lon="9.107962467691538"><ele>93.0</ele><time>2026-04-04T08:21:12.882Z</time></trkpt><trkpt lat="45.312997275208" lon="9.10792859477506"><ele>93.0</ele><time>2026-04-04T08:21:14.882Z</time></trkpt><trkpt lat="45.31311444473122" lon="9.10788518684061"><ele>93.0</ele><time>2026-04-04T08:21:16.882Z</time></trkpt><trkpt lat="45.313219772458005" lon="9.10785254871735"><ele>93.0</ele><time>2026-04-04T08:21:18.882Z</time></trkpt><trkpt lat="45.31333079876709" lon="9.107807696652182"><ele>93.2</ele><time>2026-04-04T08:21:20.882Z</time></trkpt><trkpt lat="45.313436869334765" lon="9.107769791647877"><ele>93.4</ele><time>2026-04-04T08:21:22.882Z</time></trkpt><trkpt lat="45.3135449342215" lon="9.10773026004689"><ele>93.60000000000001</ele><time>2026-04-04T08:21:24.882Z</time></trkpt><trkpt lat="45.313650945940054" lon="9.107688678267495"><ele>93.80000000000001</ele><time>2026-04-04T08:21:26.882Z</time></trkpt><trkpt lat="45.3137630691434" lon="9.107648617679455"><ele>94.0</ele><time>2026-04-04T08:21:28.882Z</time></trkpt><trkpt lat="45.31387190485662" lon="9.107615782214264"><ele>93.75</ele><time>2026-04-04T08:21:30.882Z</time></trkpt><trkpt lat="45.313974463878715" lon="9.107579951377556"><ele>93.5</ele><time>2026-04-04T08:21:32.882Z</time></trkpt><trkpt lat="45.31409340060606" lon="9.107558385395913"><ele>93.25</ele><time>2026-04-04T08:21:34.882Z</time></trkpt><trkpt lat="45.31420696518611" lon="9.107532214981022"><ele>93.0</ele><time>2026-04-04T08:21:36.882Z</time></trkpt><trkpt lat="45.31431903800941" lon="9.107535853022494"><ele>93.0</ele><time>2026-04-04T08:21:38.882Z</time></trkpt><trkpt lat="45.31442064379863" lon="9.107532037989309"><ele>93.0</ele><time>2026-04-04T08:21:40.882Z</time></trkpt><trkpt lat="45.314523421846395" lon="9.107529467522651"><ele>93.0</ele><time>2026-04-04T08:21:42.882Z</time></trkpt><trkpt lat="45.31461134583327" lon="9.10754367196152"><ele>93.0</ele><time>2026-04-04T08:21:44.882Z</time></trkpt><trkpt lat="45.31469970689866" lon="9.107546084950169"><ele>93.0</ele><time>2026-04-04T08:21:46.882Z</time></trkpt><trkpt lat="45.31479156153617" lon="9.107547679343622"><ele>93.33333333333333</ele><time>2026-04-04T08:21:48.882Z</time></trkpt><trkpt lat="45.31488024853104" lon="9.107547280427562"><ele>93.66666666666667</ele><time>2026-04-04T08:21:50.882Z</time></trkpt><trkpt lat="45.314961363259044" lon="9.107551266440902"><ele>94.0</ele><time>2026-04-04T08:21:52.881Z</time></trkpt><trkpt lat="45.315041654691505" lon="9.107561529747695"><ele>94.33333333333334</ele><time>2026-04-04T08:21:54.881Z</time></trkpt><trkpt lat="45.31513268327751" lon="9.107563680501134"><ele>94.66666666666667</ele><time>2026-04-04T08:21:56.881Z</time></trkpt><trkpt lat="45.315229924490765" lon="9.107556942493288"><ele>95.0</ele><time>2026-04-04T08:21:58.881Z</time></trkpt><trkpt lat="45.31532295261415" lon="9.10755646645795"><ele>95.0</ele><time>2026-04-04T08:22:00.881Z</time></trkpt><trkpt lat="45.31541765964983" lon="9.107559446012234"><ele>95.0</ele><time>2026-04-04T08:22:02.881Z</time></trkpt><trkpt lat="45.31551462575204" lon="9.107558214953992"><ele>95.0</ele><time>2026-04-04T08:22:04.881Z</time></trkpt><trkpt lat="45.31561284305379" lon="9.107558495758335"><ele>95.0</ele><time>2026-04-04T08:22:06.882Z</time></trkpt><trkpt lat="45.31569564569129" lon="9.107557255337825"><ele>95.0</ele><time>2026-04-04T08:22:08.882Z</time></trkpt><trkpt lat="45.31580242066485" lon="9.107561278223791"><ele>95.2</ele><time>2026-04-04T08:22:10.882Z</time></trkpt><trkpt lat="45.3159029367093" lon="9.107564138431988"><ele>95.4</ele><time>2026-04-04T08:22:12.882Z</time></trkpt><trkpt lat="45.316000125598556" lon="9.10755921756677"><ele>95.6</ele><time>2026-04-04T08:22:14.882Z</time></trkpt><trkpt lat="45.31609528273958" lon="9.107556828023545"><ele>95.8</ele><time>2026-04-04T08:22:16.882Z</time></trkpt><trkpt lat="45.31617914872364" lon="9.107545493548571"><ele>96.0</ele><time>2026-04-04T08:22:18.882Z</time></trkpt><trkpt lat="45.316274360044794" lon="9.107545081459781"><ele>96.0</ele><time>2026-04-04T08:22:20.882Z</time></trkpt><trkpt lat="45.316362162330556" lon="9.10753153375055"><ele>96.0</ele><time>2026-04-04T08:22:22.882Z</time></trkpt><trkpt lat="45.31644745504733" lon="9.1075198145206"><ele>96.0</ele><time>2026-04-04T08:22:24.882Z</time></trkpt><trkpt lat="45.31653348166199" lon="9.107503342885007"><ele>96.0</ele><time>2026-04-04T08:22:26.882Z</time></trkpt><trkpt lat="45.31662465552746" lon="9.1074810189856"><ele>96.0</ele><time>2026-04-04T08:22:28.882Z</time></trkpt><trkpt lat="45.31671205997915" lon="9.107461084542434"><ele>96.0</ele><time>2026-04-04T08:22:30.882Z</time></trkpt><trkpt lat="45.31678393274555" lon="9.107428469837394"><ele>96.0</ele><time>2026-04-04T08:22:32.882Z</time></trkpt><trkpt lat="45.31684931492462" lon="9.1074012714667"><ele>96.0</ele><time>2026-04-04T08:22:34.882Z</time></trkpt><trkpt lat="45.31693084578936" lon="9.107370123465163"><ele>96.0</ele><time>2026-04-04T08:22:36.882Z</time></trkpt><trkpt lat="45.317007312618685" lon="9.107340371093414"><ele>96.0</ele><time>2026-04-04T08:22:38.882Z</time></trkpt><trkpt lat="45.317085793519" lon="9.107301189551942"><ele>96.0</ele><time>2026-04-04T08:22:41.882Z</time></trkpt><trkpt lat="45.317168228311964" lon="9.107278962013902"><ele>96.0</ele><time>2026-04-04T08:22:44.882Z</time></trkpt><trkpt lat="45.3172322520491" lon="9.107217600801643"><ele>96.0</ele><time>2026-04-04T08:22:49.882Z</time></trkpt><trkpt lat="45.3172342558068" lon="9.107108287860182"><ele>96.0</ele><time>2026-04-04T08:22:53.882Z</time></trkpt><trkpt lat="45.31721788764095" lon="9.106991787565894"><ele>96.0</ele><time>2026-04-04T08:22:56.882Z</time></trkpt><trkpt lat="45.317209982249544" lon="9.106884791717237"><ele>96.0</ele><time>2026-04-04T08:22:58.881Z</time></trkpt><trkpt lat="45.317195043039156" lon="9.106760595836528"><ele>96.0</ele><time>2026-04-04T08:23:00.881Z</time></trkpt><trkpt lat="45.3171517314208" lon="9.106636268116683"><ele>96.0</ele><time>2026-04-04T08:23:02.881Z</time></trkpt><trkpt lat="45.31713002071469" lon="9.106500061088292"><ele>96.0</ele><time>2026-04-04T08:23:04.881Z</time></trkpt><trkpt lat="45.317123736864126" lon="9.10639028230582"><ele>96.0</ele><time>2026-04-04T08:23:06.881Z</time></trkpt><trkpt lat="45.31711468665961" lon="9.106271163464697"><ele>96.0</ele><time>2026-04-04T08:23:09.881Z</time></trkpt><trkpt lat="45.317164336606" lon="9.106196837187776"><ele>96.0</ele><time>2026-04-04T08:23:13.881Z</time></trkpt><trkpt lat="45.31723836571335" lon="9.106156455854276"><ele>96.0</ele><time>2026-04-04T08:23:15.881Z</time></trkpt><trkpt lat="45.3173218747981" lon="9.106128627956581"><ele>96.0</ele><time>2026-04-04T08:23:17.881Z</time></trkpt><trkpt lat="45.3174062020684" lon="9.106095473996232"><ele>96.0</ele><time>2026-04-04T08:23:19.881Z</time></trkpt><trkpt lat="45.317496627123944" lon="9.106054216228976"><ele>96.0</ele><time>2026-04-04T08:23:21.881Z</time></trkpt><trkpt lat="45.317605002338354" lon="9.105998006950236"><ele>96.0</ele><time>2026-04-04T08:23:23.881Z</time></trkpt><trkpt lat="45.31771058531976" lon="9.105949116749354"><ele>96.0</ele><time>2026-04-04T08:23:25.881Z</time></trkpt><trkpt lat="45.31782296961416" lon="9.10590403367822"><ele>96.0</ele><time>2026-04-04T08:23:27.881Z</time></trkpt><trkpt lat="45.31793796161409" lon="9.105856498473573"><ele>96.0</ele><time>2026-04-04T08:23:29.881Z</time></trkpt><trkpt lat="45.31805113239709" lon="9.105817259590122"><ele>96.0</ele><time>2026-04-04T08:23:31.881Z</time></trkpt><trkpt lat="45.318158277593795" lon="9.105779422851914"><ele>96.0</ele><time>2026-04-04T08:23:33.881Z</time></trkpt><trkpt lat="45.31826952468496" lon="9.105744805168147"><ele>96.0</ele><time>2026-04-04T08:23:35.881Z</time></trkpt><trkpt lat="45.31838247097074" lon="9.105704132538941"><ele>96.25</ele><time>2026-04-04T08:23:37.881Z</time></trkpt><trkpt lat="45.31848829412931" lon="9.10565715638404"><ele>96.5</ele><time>2026-04-04T08:23:39.881Z</time></trkpt><trkpt lat="45.31859891911499" lon="9.105614586916504"><ele>96.75</ele><time>2026-04-04T08:23:41.88Z</time></trkpt><trkpt lat="45.31871180318116" lon="9.105594313195548"><ele>97.0</ele><time>2026-04-04T08:23:43.88Z</time></trkpt><trkpt lat="45.31882080825785" lon="9.105548780336855"><ele>96.5</ele><time>2026-04-04T08:23:45.88Z</time></trkpt><trkpt lat="45.3189299748824" lon="9.105490500944324"><ele>96.0</ele><time>2026-04-04T08:23:47.88Z</time></trkpt><trkpt lat="45.31904429806544" lon="9.10544675038006"><ele>95.5</ele><time>2026-04-04T08:23:49.88Z</time></trkpt><trkpt lat="45.31915064880389" lon="9.105396845151752"><ele>95.0</ele><time>2026-04-04T08:23:51.88Z</time></trkpt><trkpt lat="45.31926531050733" lon="9.105354927008827"><ele>95.0</ele><time>2026-04-04T08:23:53.88Z</time></trkpt><trkpt lat="45.3193770566218" lon="9.105312927995595"><ele>95.0</ele><time>2026-04-04T08:23:55.88Z</time></trkpt><trkpt lat="45.31949662878483" lon="9.105273787353022"><ele>95.0</ele><time>2026-04-04T08:23:57.88Z</time></trkpt><trkpt lat="45.31961178225336" lon="9.105231165472546"><ele>95.0</ele><time>2026-04-04T08:23:59.88Z</time></trkpt><trkpt lat="45.31972891470359" lon="9.105187801305823"><ele>95.2</ele><time>2026-04-04T08:24:01.88Z</time></trkpt><trkpt lat="45.31984255482689" lon="9.105148252534"><ele>95.4</ele><time>2026-04-04T08:24:03.88Z</time></trkpt><trkpt lat="45.31995652273785" lon="9.10511174519539"><ele>95.6</ele><time>2026-04-04T08:24:05.88Z</time></trkpt><trkpt lat="45.320017461533304" lon="9.105081854587596"><ele>95.8</ele><time>2026-04-04T08:24:06.88Z</time></trkpt><trkpt lat="45.32013402007546" lon="9.10503666533601"><ele>96.0</ele><time>2026-04-04T08:24:08.88Z</time></trkpt><trkpt lat="45.32024816645705" lon="9.10499854599171"><ele>96.0</ele><time>2026-04-04T08:24:10.88Z</time></trkpt><trkpt lat="45.32036326181069" lon="9.104955222613595"><ele>96.0</ele><time>2026-04-04T08:24:12.881Z</time></trkpt><trkpt lat="45.32047522051515" lon="9.104912502838845"><ele>96.0</ele><time>2026-04-04T08:24:14.882Z</time></trkpt><trkpt lat="45.320586732870936" lon="9.104874240185179"><ele>96.0</ele><time>2026-04-04T08:24:16.881Z</time></trkpt><trkpt lat="45.32069404010491" lon="9.10483726508744"><ele>96.0</ele><time>2026-04-04T08:24:18.881Z</time></trkpt><trkpt lat="45.32080526091215" lon="9.104790207962516"><ele>96.0</ele><time>2026-04-04T08:24:20.881Z</time></trkpt><trkpt lat="45.32091810727022" lon="9.104753066593766"><ele>96.0</ele><time>2026-04-04T08:24:22.881Z</time></trkpt><trkpt lat="45.32102797456946" lon="9.104706822347428"><ele>96.0</ele><time>2026-04-04T08:24:24.881Z</time></trkpt><trkpt lat="45.32114272523608" lon="9.104665733074581"><ele>96.0</ele><time>2026-04-04T08:24:26.881Z</time></trkpt><trkpt lat="45.321255032464904" lon="9.104621750950324"><ele>96.0</ele><time>2026-04-04T08:24:28.881Z</time></trkpt><trkpt lat="45.321365209077065" lon="9.104579605500446"><ele>96.0</ele><time>2026-04-04T08:24:30.881Z</time></trkpt><trkpt lat="45.32147937606002" lon="9.104542207467814"><ele>96.0</ele><time>2026-04-04T08:24:32.881Z</time></trkpt><trkpt lat="45.32158750784801" lon="9.104508157245382"><ele>96.25</ele><time>2026-04-04T08:24:34.881Z</time></trkpt><trkpt lat="45.32169494168379" lon="9.104465567564457"><ele>96.5</ele><time>2026-04-04T08:24:36.881Z</time></trkpt><trkpt lat="45.321813648962745" lon="9.104423768114247"><ele>96.75</ele><time>2026-04-04T08:24:38.881Z</time></trkpt><trkpt lat="45.321927419527036" lon="9.104385348600909"><ele>97.0</ele><time>2026-04-04T08:24:40.881Z</time></trkpt><trkpt lat="45.322038829579725" lon="9.104344223766283"><ele>97.0</ele><time>2026-04-04T08:24:42.881Z</time></trkpt><trkpt lat="45.32214978606256" lon="9.104304023748318"><ele>97.0</ele><time>2026-04-04T08:24:44.88Z</time></trkpt><trkpt lat="45.32224157077301" lon="9.104264984428307"><ele>97.0</ele><time>2026-04-04T08:24:46.88Z</time></trkpt><trkpt lat="45.32233286745727" lon="9.104226864531553"><ele>97.0</ele><time>2026-04-04T08:24:48.88Z</time></trkpt><trkpt lat="45.322441322925805" lon="9.104187333808177"><ele>97.0</ele><time>2026-04-04T08:24:50.88Z</time></trkpt><trkpt lat="45.322503546431676" lon="9.104169160740222"><ele>96.83333333333334</ele><time>2026-04-04T08:24:51.88Z</time></trkpt><trkpt lat="45.3225644197208" lon="9.104134368408648"><ele>96.66666666666667</ele><time>2026-04-04T08:24:52.88Z</time></trkpt><trkpt lat="45.32266892462198" lon="9.104101014815011"><ele>96.5</ele><time>2026-04-04T08:24:54.88Z</time></trkpt><trkpt lat="45.32275344542471" lon="9.104057863896408"><ele>96.33333333333334</ele><time>2026-04-04T08:24:56.88Z</time></trkpt><trkpt lat="45.322866873329296" lon="9.104014873297047"><ele>96.16666666666667</ele><time>2026-04-04T08:24:58.88Z</time></trkpt><trkpt lat="45.322933375860195" lon="9.103994364099655"><ele>96.0</ele><time>2026-04-04T08:24:59.88Z</time></trkpt><trkpt lat="45.32299666183397" lon="9.103965652142346"><ele>96.4</ele><time>2026-04-04T08:25:00.88Z</time></trkpt><trkpt lat="45.32306112896811" lon="9.103944035974875"><ele>96.8</ele><time>2026-04-04T08:25:01.88Z</time></trkpt><trkpt lat="45.323150849116445" lon="9.103905412792589"><ele>97.2</ele><time>2026-04-04T08:25:03.88Z</time></trkpt><trkpt lat="45.32326764903298" lon="9.103866331018784"><ele>97.60000000000001</ele><time>2026-04-04T08:25:05.88Z</time></trkpt><trkpt lat="45.32337293060504" lon="9.103823716561276"><ele>98.0</ele><time>2026-04-04T08:25:07.88Z</time></trkpt><trkpt lat="45.32348453066499" lon="9.10378303229416"><ele>98.0</ele><time>2026-04-04T08:25:09.88Z</time></trkpt><trkpt lat="45.32360362089988" lon="9.103743306855986"><ele>98.0</ele><time>2026-04-04T08:25:11.88Z</time></trkpt><trkpt lat="45.32370950892171" lon="9.103699135689366"><ele>98.0</ele><time>2026-04-04T08:25:13.88Z</time></trkpt><trkpt lat="45.32379690710581" lon="9.10365998230733"><ele>98.0</ele><time>2026-04-04T08:25:15.88Z</time></trkpt><trkpt lat="45.323913685845504" lon="9.10362509221237"><ele>98.0</ele><time>2026-04-04T08:25:17.88Z</time></trkpt><trkpt lat="45.3240345432408" lon="9.10357787057744"><ele>97.80000000000001</ele><time>2026-04-04T08:25:19.88Z</time></trkpt><trkpt lat="45.32414681117646" lon="9.103531346224198"><ele>97.6</ele><time>2026-04-04T08:25:21.88Z</time></trkpt><trkpt lat="45.32420810294288" lon="9.103508473662126"><ele>97.4</ele><time>2026-04-04T08:25:22.88Z</time></trkpt><trkpt lat="45.32431363196085" lon="9.103466729680632"><ele>97.19999999999999</ele><time>2026-04-04T08:25:24.88Z</time></trkpt><trkpt lat="45.32441198127275" lon="9.10342217727331"><ele>97.0</ele><time>2026-04-04T08:25:26.879Z</time></trkpt><trkpt lat="45.324475950834724" lon="9.10340248515222"><ele>97.0</ele><time>2026-04-04T08:25:27.879Z</time></trkpt><trkpt lat="45.32457419446869" lon="9.103356218507567"><ele>97.0</ele><time>2026-04-04T08:25:29.879Z</time></trkpt><trkpt lat="45.32468329827718" lon="9.103318681697752"><ele>97.0</ele><time>2026-04-04T08:25:31.879Z</time></trkpt><trkpt lat="45.324779573442875" lon="9.103279096502938"><ele>97.0</ele><time>2026-04-04T08:25:33.879Z</time></trkpt><trkpt lat="45.32487182729453" lon="9.103257187128241"><ele>97.0</ele><time>2026-04-04T08:25:35.879Z</time></trkpt><trkpt lat="45.3249623329414" lon="9.103230311863284"><ele>96.8</ele><time>2026-04-04T08:25:37.879Z</time></trkpt><trkpt lat="45.325061750877545" lon="9.103185032992664"><ele>96.6</ele><time>2026-04-04T08:25:39.879Z</time></trkpt><trkpt lat="45.32516896670275" lon="9.103151700643851"><ele>96.39999999999999</ele><time>2026-04-04T08:25:41.879Z</time></trkpt><trkpt lat="45.32526957058537" lon="9.103113445691832"><ele>96.19999999999999</ele><time>2026-04-04T08:25:43.879Z</time></trkpt><trkpt lat="45.32538126157935" lon="9.103070378030601"><ele>96.0</ele><time>2026-04-04T08:25:45.879Z</time></trkpt><trkpt lat="45.32549561842103" lon="9.103029198801542"><ele>96.0</ele><time>2026-04-04T08:25:47.879Z</time></trkpt><trkpt lat="45.325609925081494" lon="9.103007683905217"><ele>96.0</ele><time>2026-04-04T08:25:49.879Z</time></trkpt><trkpt lat="45.325727679215504" lon="9.10298089421577"><ele>96.0</ele><time>2026-04-04T08:25:51.879Z</time></trkpt><trkpt lat="45.32579462947017" lon="9.10296891685541"><ele>96.0</ele><time>2026-04-04T08:25:52.879Z</time></trkpt><trkpt lat="45.32591443397399" lon="9.10294941697681"><ele>96.0</ele><time>2026-04-04T08:25:54.879Z</time></trkpt><trkpt lat="45.32602904083947" lon="9.102938004614202"><ele>96.0</ele><time>2026-04-04T08:25:56.879Z</time></trkpt><trkpt lat="45.32614200537591" lon="9.10293083506873"><ele>96.0</ele><time>2026-04-04T08:25:58.879Z</time></trkpt><trkpt lat="45.326249331552646" lon="9.102933724019788"><ele>96.0</ele><time>2026-04-04T08:26:00.879Z</time></trkpt><trkpt lat="45.3263686867563" lon="9.102934552151696"><ele>96.0</ele><time>2026-04-04T08:26:02.879Z</time></trkpt><trkpt lat="45.326481544663345" lon="9.102945553311727"><ele>96.5</ele><time>2026-04-04T08:26:04.879Z</time></trkpt><trkpt lat="45.326591493339805" lon="9.102955744176965"><ele>97.0</ele><time>2026-04-04T08:26:06.879Z</time></trkpt><trkpt lat="45.32670615914555" lon="9.102975870662647"><ele>97.5</ele><time>2026-04-04T08:26:08.879Z</time></trkpt><trkpt lat="45.32682148168867" lon="9.102996971293221"><ele>98.0</ele><time>2026-04-04T08:26:10.878Z</time></trkpt><trkpt lat="45.326936719656295" lon="9.103018243553375"><ele>98.0</ele><time>2026-04-04T08:26:12.878Z</time></trkpt><trkpt lat="45.327054411749224" lon="9.10304280869785"><ele>98.0</ele><time>2026-04-04T08:26:14.878Z</time></trkpt><trkpt lat="45.327163205894514" lon="9.103058801308858"><ele>98.0</ele><time>2026-04-04T08:26:16.878Z</time></trkpt><trkpt lat="45.32727152938075" lon="9.103079856639212"><ele>98.0</ele><time>2026-04-04T08:26:18.881Z</time></trkpt><trkpt lat="45.32737498341134" lon="9.103100218003188"><ele>98.0</ele><time>2026-04-04T08:26:20.88Z</time></trkpt><trkpt lat="45.327483182987045" lon="9.10312792312843"><ele>98.0</ele><time>2026-04-04T08:26:22.88Z</time></trkpt><trkpt lat="45.327591498717844" lon="9.103144142049635"><ele>98.0</ele><time>2026-04-04T08:26:24.881Z</time></trkpt><trkpt lat="45.32769738172953" lon="9.103162236784394"><ele>98.0</ele><time>2026-04-04T08:26:26.881Z</time></trkpt><trkpt lat="45.32780445391622" lon="9.103179657313637"><ele>98.0</ele><time>2026-04-04T08:26:28.88Z</time></trkpt><trkpt lat="45.32790685226985" lon="9.103202263505763"><ele>98.0</ele><time>2026-04-04T08:26:30.881Z</time></trkpt><trkpt lat="45.32801184350359" lon="9.103220420806528"><ele>98.0</ele><time>2026-04-04T08:26:32.881Z</time></trkpt><trkpt lat="45.32810928106369" lon="9.103234082348079"><ele>98.0</ele><time>2026-04-04T08:26:34.881Z</time></trkpt><trkpt lat="45.32821224505553" lon="9.103251653752343"><ele>98.0</ele><time>2026-04-04T08:26:36.881Z</time></trkpt><trkpt lat="45.328304396788596" lon="9.103274457407435"><ele>98.0</ele><time>2026-04-04T08:26:38.881Z</time></trkpt><trkpt lat="45.328398906310206" lon="9.103289965278137"><ele>98.0</ele><time>2026-04-04T08:26:40.881Z</time></trkpt><trkpt lat="45.328480143321826" lon="9.103306470944144"><ele>98.16666666666666</ele><time>2026-04-04T08:26:42.881Z</time></trkpt><trkpt lat="45.328558134142284" lon="9.103318412467514"><ele>98.33333333333333</ele><time>2026-04-04T08:26:44.88Z</time></trkpt><trkpt lat="45.32863599925174" lon="9.103338889846896"><ele>98.5</ele><time>2026-04-04T08:26:46.88Z</time></trkpt><trkpt lat="45.32871120585391" lon="9.10335251750633"><ele>98.66666666666666</ele><time>2026-04-04T08:26:48.88Z</time></trkpt><trkpt lat="45.328796035194806" lon="9.103374033750216"><ele>98.83333333333333</ele><time>2026-04-04T08:26:50.88Z</time></trkpt><trkpt lat="45.32888330389912" lon="9.103386042776538"><ele>99.0</ele><time>2026-04-04T08:26:52.88Z</time></trkpt><trkpt lat="45.328960528041925" lon="9.103398058817884"><ele>99.0</ele><time>2026-04-04T08:26:54.88Z</time></trkpt><trkpt lat="45.3290366635943" lon="9.10340799924307"><ele>99.0</ele><time>2026-04-04T08:26:56.88Z</time></trkpt><trkpt lat="45.32913247379635" lon="9.103428277035743"><ele>99.0</ele><time>2026-04-04T08:26:58.88Z</time></trkpt><trkpt lat="45.329224524335494" lon="9.103445535071652"><ele>99.0</ele><time>2026-04-04T08:27:00.88Z</time></trkpt><trkpt lat="45.329314622244766" lon="9.103464347894594"><ele>99.0</ele><time>2026-04-04T08:27:02.88Z</time></trkpt><trkpt lat="45.3294129831151" lon="9.103479945485658"><ele>99.0</ele><time>2026-04-04T08:27:04.88Z</time></trkpt><trkpt lat="45.329512612066" lon="9.103502676218751"><ele>99.0</ele><time>2026-04-04T08:27:06.88Z</time></trkpt><trkpt lat="45.32960795615544" lon="9.103520066550276"><ele>99.0</ele><time>2026-04-04T08:27:08.88Z</time></trkpt><trkpt lat="45.32971336209443" lon="9.10354162862416"><ele>99.0</ele><time>2026-04-04T08:27:10.88Z</time></trkpt><trkpt lat="45.329808461053894" lon="9.103559874290184"><ele>99.0</ele><time>2026-04-04T08:27:12.88Z</time></trkpt><trkpt lat="45.32990793549782" lon="9.103575440229697"><ele>99.0</ele><time>2026-04-04T08:27:14.88Z</time></trkpt><trkpt lat="45.33000652222267" lon="9.103589247956865"><ele>99.0</ele><time>2026-04-04T08:27:16.88Z</time></trkpt><trkpt lat="45.33010738806765" lon="9.103610728010649"><ele>99.0</ele><time>2026-04-04T08:27:18.88Z</time></trkpt><trkpt lat="45.33020756740424" lon="9.10362175371105"><ele>99.0</ele><time>2026-04-04T08:27:20.88Z</time></trkpt><trkpt lat="45.330304734083555" lon="9.103639781977142"><ele>99.0</ele><time>2026-04-04T08:27:22.88Z</time></trkpt><trkpt lat="45.33040359899851" lon="9.103657782962378"><ele>99.0</ele><time>2026-04-04T08:27:24.88Z</time></trkpt><trkpt lat="45.33050924507705" lon="9.103675410020601"><ele>99.0</ele><time>2026-04-04T08:27:26.879Z</time></trkpt><trkpt lat="45.3306121362075" lon="9.103691568178931"><ele>99.0</ele><time>2026-04-04T08:27:28.879Z</time></trkpt><trkpt lat="45.33072244532512" lon="9.103716406572094"><ele>99.0</ele><time>2026-04-04T08:27:30.879Z</time></trkpt><trkpt lat="45.33082540057465" lon="9.103733570896377"><ele>99.0</ele><time>2026-04-04T08:27:32.879Z</time></trkpt><trkpt lat="45.33093375740307" lon="9.103747034197752"><ele>98.80000000000001</ele><time>2026-04-04T08:27:34.879Z</time></trkpt><trkpt lat="45.33103860862881" lon="9.10377755465302"><ele>98.60000000000001</ele><time>2026-04-04T08:27:36.879Z</time></trkpt><trkpt lat="45.331142096839585" lon="9.103798541840868"><ele>98.4</ele><time>2026-04-04T08:27:38.879Z</time></trkpt><trkpt lat="45.331253080469615" lon="9.103828694310398"><ele>98.2</ele><time>2026-04-04T08:27:40.879Z</time></trkpt><trkpt lat="45.33136513886588" lon="9.103857388593081"><ele>98.0</ele><time>2026-04-04T08:27:42.879Z</time></trkpt><trkpt lat="45.331468869948125" lon="9.103870431101656"><ele>98.0</ele><time>2026-04-04T08:27:44.879Z</time></trkpt><trkpt lat="45.33157052738617" lon="9.103886764785068"><ele>98.0</ele><time>2026-04-04T08:27:46.879Z</time></trkpt><trkpt lat="45.33167773565742" lon="9.103913848243593"><ele>98.0</ele><time>2026-04-04T08:27:48.879Z</time></trkpt><trkpt lat="45.33177669587057" lon="9.103931974516446"><ele>98.0</ele><time>2026-04-04T08:27:50.879Z</time></trkpt><trkpt lat="45.331876893865214" lon="9.103947611160253"><ele>98.0</ele><time>2026-04-04T08:27:52.879Z</time></trkpt><trkpt lat="45.33197064866682" lon="9.103966457481551"><ele>98.0</ele><time>2026-04-04T08:27:54.879Z</time></trkpt><trkpt lat="45.332072750857996" lon="9.103984931222204"><ele>98.0</ele><time>2026-04-04T08:27:56.879Z</time></trkpt><trkpt lat="45.332167625588134" lon="9.104006209231992"><ele>98.0</ele><time>2026-04-04T08:27:58.879Z</time></trkpt><trkpt lat="45.33227072058092" lon="9.10402798038669"><ele>98.0</ele><time>2026-04-04T08:28:00.879Z</time></trkpt><trkpt lat="45.332369181582024" lon="9.104048179625535"><ele>98.0</ele><time>2026-04-04T08:28:02.879Z</time></trkpt><trkpt lat="45.33246450339434" lon="9.104064506948655"><ele>98.4</ele><time>2026-04-04T08:28:04.879Z</time></trkpt><trkpt lat="45.33256033644103" lon="9.104082737870495"><ele>98.80000000000001</ele><time>2026-04-04T08:28:06.879Z</time></trkpt><trkpt lat="45.33265348099768" lon="9.104103150157954"><ele>99.2</ele><time>2026-04-04T08:28:08.879Z</time></trkpt><trkpt lat="45.33274391206819" lon="9.104117737505993"><ele>99.6</ele><time>2026-04-04T08:28:10.878Z</time></trkpt><trkpt lat="45.33283587277011" lon="9.104133429075516"><ele>100.0</ele><time>2026-04-04T08:28:12.878Z</time></trkpt><trkpt lat="45.33292386244505" lon="9.104146387355163"><ele>100.00000000000001</ele><time>2026-04-04T08:28:14.878Z</time></trkpt><trkpt lat="45.333011702445596" lon="9.10416429259288"><ele>100.0</ele><time>2026-04-04T08:28:16.878Z</time></trkpt><trkpt lat="45.33308657828599" lon="9.104177272856461"><ele>100.0</ele><time>2026-04-04T08:28:18.878Z</time></trkpt><trkpt lat="45.333165171093384" lon="9.10419286363299"><ele>100.0</ele><time>2026-04-04T08:28:20.878Z</time></trkpt><trkpt lat="45.33324536624967" lon="9.104211133747455"><ele>100.00000000000001</ele><time>2026-04-04T08:28:22.878Z</time></trkpt><trkpt lat="45.33332338917451" lon="9.104231220212062"><ele>100.0</ele><time>2026-04-04T08:28:24.88Z</time></trkpt><trkpt lat="45.3334013991115" lon="9.104251459214305"><ele>100.16666666666667</ele><time>2026-04-04T08:28:26.879Z</time></trkpt><trkpt lat="45.33347668783959" lon="9.10427783967442"><ele>100.33333333333334</ele><time>2026-04-04T08:28:28.879Z</time></trkpt><trkpt lat="45.333551041451344" lon="9.104299303306842"><ele>100.5</ele><time>2026-04-04T08:28:30.879Z</time></trkpt><trkpt lat="45.33363252006502" lon="9.104334710071887"><ele>100.66666666666666</ele><time>2026-04-04T08:28:32.879Z</time></trkpt><trkpt lat="45.333709177866375" lon="9.10438035890904"><ele>100.83333333333333</ele><time>2026-04-04T08:28:34.879Z</time></trkpt><trkpt lat="45.333767370725425" lon="9.104440079645665"><ele>101.0</ele><time>2026-04-04T08:28:36.88Z</time></trkpt><trkpt lat="45.3338266057927" lon="9.104503929170098"><ele>100.99999999999999</ele><time>2026-04-04T08:28:38.88Z</time></trkpt><trkpt lat="45.33387757369975" lon="9.10456242527418"><ele>101.0</ele><time>2026-04-04T08:28:40.88Z</time></trkpt><trkpt lat="45.33392014880991" lon="9.104659579863247"><ele>101.0</ele><time>2026-04-04T08:28:43.879Z</time></trkpt><trkpt lat="45.333997772334534" lon="9.104624954348155"><ele>101.0</ele><time>2026-04-04T08:29:07.879Z</time></trkpt><trkpt lat="45.33407429958089" lon="9.104612919941612"><ele>100.99999999999999</ele><time>2026-04-04T08:29:10.879Z</time></trkpt><trkpt lat="45.334135096358374" lon="9.104672111790817"><ele>101.0</ele><time>2026-04-04T08:29:13.879Z</time></trkpt><trkpt lat="45.33416612408526" lon="9.104772233250424"><ele>100.83333333333333</ele><time>2026-04-04T08:29:16.879Z</time></trkpt><trkpt lat="45.334211344327905" lon="9.10484573340243"><ele>100.66666666666666</ele><time>2026-04-04T08:29:20.879Z</time></trkpt><trkpt lat="45.334270998491" lon="9.104900138675797"><ele>100.5</ele><time>2026-04-04T08:29:23.879Z</time></trkpt><trkpt lat="45.334338892491544" lon="9.104963533272539"><ele>100.33333333333334</ele><time>2026-04-04T08:29:26.878Z</time></trkpt><trkpt lat="45.33439945766187" lon="9.104992356719332"><ele>100.16666666666667</ele><time>2026-04-04T08:29:28.878Z</time></trkpt><trkpt lat="45.33449608782943" lon="9.10503114214944"><ele>100.0</ele><time>2026-04-04T08:29:30.878Z</time></trkpt><trkpt lat="45.33462391716933" lon="9.105045815930593"><ele>100.00000000000001</ele><time>2026-04-04T08:29:32.878Z</time></trkpt><trkpt lat="45.33469503772485" lon="9.105053368797783"><ele>100.0</ele><time>2026-04-04T08:29:33.878Z</time></trkpt><trkpt lat="45.33476322879253" lon="9.105069401262536"><ele>100.0</ele><time>2026-04-04T08:29:34.878Z</time></trkpt><trkpt lat="45.33482755892113" lon="9.10509997685956"><ele>100.0</ele><time>2026-04-04T08:29:35.878Z</time></trkpt><trkpt lat="45.334930485735136" lon="9.105186443855224"><ele>100.00000000000001</ele><time>2026-04-04T08:29:37.878Z</time></trkpt><trkpt lat="45.33500362723786" lon="9.105298785468616"><ele>100.0</ele><time>2026-04-04T08:29:39.878Z</time></trkpt><trkpt lat="45.33511489816171" lon="9.105358502375015"><ele>99.8</ele><time>2026-04-04T08:29:41.878Z</time></trkpt><trkpt lat="45.335213064430974" lon="9.105423820851357"><ele>99.6</ele><time>2026-04-04T08:29:43.878Z</time></trkpt><trkpt lat="45.3353003432289" lon="9.105489911714251"><ele>99.4</ele><time>2026-04-04T08:29:45.878Z</time></trkpt><trkpt lat="45.33539587567014" lon="9.105552084130474"><ele>99.2</ele><time>2026-04-04T08:29:47.875Z</time></trkpt><trkpt lat="45.33547849938541" lon="9.105610624202416"><ele>99.0</ele><time>2026-04-04T08:29:49.872Z</time></trkpt><trkpt lat="45.335573042311" lon="9.105666148229474"><ele>99.0</ele><time>2026-04-04T08:29:51.868Z</time></trkpt><trkpt lat="45.335687600415746" lon="9.105710970225653"><ele>99.0</ele><time>2026-04-04T08:29:53.865Z</time></trkpt><trkpt lat="45.33579352874269" lon="9.105762998739412"><ele>99.0</ele><time>2026-04-04T08:29:55.863Z</time></trkpt><trkpt lat="45.33588892404476" lon="9.105811712685929"><ele>99.0</ele><time>2026-04-04T08:29:57.86Z</time></trkpt><trkpt lat="45.33597927015609" lon="9.105854045688968"><ele>99.0</ele><time>2026-04-04T08:29:59.858Z</time></trkpt><trkpt lat="45.33609199544809" lon="9.105912196014074"><ele>99.16666666666667</ele><time>2026-04-04T08:30:01.856Z</time></trkpt><trkpt lat="45.33616535134254" lon="9.105945783320113"><ele>99.33333333333334</ele><time>2026-04-04T08:30:03.855Z</time></trkpt><trkpt lat="45.33623607706502" lon="9.10598055440705"><ele>99.5</ele><time>2026-04-04T08:30:05.853Z</time></trkpt><trkpt lat="45.336316521668365" lon="9.1060194616044"><ele>99.66666666666667</ele><time>2026-04-04T08:30:07.852Z</time></trkpt><trkpt lat="45.33640590035035" lon="9.10608002168222"><ele>99.83333333333334</ele><time>2026-04-04T08:30:09.851Z</time></trkpt><trkpt lat="45.33648259793034" lon="9.10617545836667"><ele>100.0</ele><time>2026-04-04T08:30:11.85Z</time></trkpt><trkpt lat="45.33654048830601" lon="9.106287352422532"><ele>100.0</ele><time>2026-04-04T08:30:13.849Z</time></trkpt><trkpt lat="45.33658352798401" lon="9.106421818337441"><ele>100.0</ele><time>2026-04-04T08:30:15.848Z</time></trkpt><trkpt lat="45.336610465080916" lon="9.106554469704715"><ele>100.0</ele><time>2026-04-04T08:30:17.848Z</time></trkpt><trkpt lat="45.336648283669305" lon="9.106691727752947"><ele>100.0</ele><time>2026-04-04T08:30:19.847Z</time></trkpt><trkpt lat="45.33669830044537" lon="9.106811687564738"><ele>100.0</ele><time>2026-04-04T08:30:21.847Z</time></trkpt><trkpt lat="45.33675529797288" lon="9.10692747211869"><ele>100.0</ele><time>2026-04-04T08:30:23.846Z</time></trkpt><trkpt lat="45.33679445694656" lon="9.10705030802601"><ele>100.0</ele><time>2026-04-04T08:30:25.846Z</time></trkpt><trkpt lat="45.336827805994275" lon="9.107185364561087"><ele>100.0</ele><time>2026-04-04T08:30:27.845Z</time></trkpt><trkpt lat="45.33686826119472" lon="9.107311614003926"><ele>100.0</ele><time>2026-04-04T08:30:29.846Z</time></trkpt><trkpt lat="45.3369366973754" lon="9.107412360517449"><ele>100.0</ele><time>2026-04-04T08:30:31.846Z</time></trkpt><trkpt lat="45.33699815846468" lon="9.10751838727716"><ele>100.0</ele><time>2026-04-04T08:30:33.845Z</time></trkpt><trkpt lat="45.33704443080797" lon="9.107637909856619"><ele>100.0</ele><time>2026-04-04T08:30:35.846Z</time></trkpt><trkpt lat="45.337091965295556" lon="9.107760573097064"><ele>100.0</ele><time>2026-04-04T08:30:37.846Z</time></trkpt><trkpt lat="45.337146795430584" lon="9.107885665738932"><ele>100.0</ele><time>2026-04-04T08:30:39.845Z</time></trkpt><trkpt lat="45.337204461993544" lon="9.107998746081416"><ele>100.0</ele><time>2026-04-04T08:30:41.845Z</time></trkpt><trkpt lat="45.337270494583244" lon="9.108109886881785"><ele>99.8</ele><time>2026-04-04T08:30:43.844Z</time></trkpt><trkpt lat="45.33732805282294" lon="9.108190722692784"><ele>99.6</ele><time>2026-04-04T08:30:45.844Z</time></trkpt><trkpt lat="45.337401943466496" lon="9.108283512466059"><ele>99.4</ele><time>2026-04-04T08:30:47.844Z</time></trkpt><trkpt lat="45.33746808522241" lon="9.108364568859026"><ele>99.2</ele><time>2026-04-04T08:30:49.844Z</time></trkpt><trkpt lat="45.33755281875442" lon="9.108472796267252"><ele>99.0</ele><time>2026-04-04T08:30:51.844Z</time></trkpt><trkpt lat="45.33762197929607" lon="9.108573383322526"><ele>99.0</ele><time>2026-04-04T08:30:53.844Z</time></trkpt><trkpt lat="45.33768961245304" lon="9.108684968099565"><ele>99.0</ele><time>2026-04-04T08:30:55.844Z</time></trkpt><trkpt lat="45.33777305837185" lon="9.108791345974346"><ele>99.0</ele><time>2026-04-04T08:30:57.844Z</time></trkpt><trkpt lat="45.33782436527752" lon="9.108843584676908"><ele>99.0</ele><time>2026-04-04T08:30:58.844Z</time></trkpt><trkpt lat="45.337912546275334" lon="9.10894205319354"><ele>99.0</ele><time>2026-04-04T08:31:00.843Z</time></trkpt><trkpt lat="45.33798502912041" lon="9.109032210631648"><ele>98.80000000000001</ele><time>2026-04-04T08:31:02.843Z</time></trkpt><trkpt lat="45.33805344481942" lon="9.10906575812718"><ele>98.60000000000001</ele><time>2026-04-04T08:31:04.843Z</time></trkpt><trkpt lat="45.338136449223434" lon="9.109147303841821"><ele>98.4</ele><time>2026-04-04T08:31:06.843Z</time></trkpt><trkpt lat="45.33821917584074" lon="9.10923459648715"><ele>98.2</ele><time>2026-04-04T08:31:08.843Z</time></trkpt><trkpt lat="45.33830173711042" lon="9.109318163683167"><ele>98.0</ele><time>2026-04-04T08:31:10.843Z</time></trkpt><trkpt lat="45.338385255240986" lon="9.109396371268236"><ele>97.60000000000001</ele><time>2026-04-04T08:31:12.843Z</time></trkpt><trkpt lat="45.33845859852606" lon="9.10948238542898"><ele>97.2</ele><time>2026-04-04T08:31:14.843Z</time></trkpt><trkpt lat="45.33853201769" lon="9.109569713626236"><ele>96.8</ele><time>2026-04-04T08:31:16.843Z</time></trkpt><trkpt lat="45.33860648545714" lon="9.109646664903964"><ele>96.4</ele><time>2026-04-04T08:31:18.843Z</time></trkpt><trkpt lat="45.33868175579579" lon="9.109737094791573"><ele>96.0</ele><time>2026-04-04T08:31:20.843Z</time></trkpt><trkpt lat="45.33875226095572" lon="9.109812227151199"><ele>96.0</ele><time>2026-04-04T08:31:22.843Z</time></trkpt><trkpt lat="45.33883336291646" lon="9.10990147488519"><ele>96.0</ele><time>2026-04-04T08:31:24.842Z</time></trkpt><trkpt lat="45.33890412766345" lon="9.109986245456705"><ele>96.0</ele><time>2026-04-04T08:31:26.842Z</time></trkpt><trkpt lat="45.33897815813233" lon="9.110067289968217"><ele>96.0</ele><time>2026-04-04T08:31:28.842Z</time></trkpt><trkpt lat="45.33906165960084" lon="9.11016505342268"><ele>96.0</ele><time>2026-04-04T08:31:30.842Z</time></trkpt><trkpt lat="45.3391400861562" lon="9.110261849656894"><ele>96.0</ele><time>2026-04-04T08:31:32.842Z</time></trkpt><trkpt lat="45.3392217877843" lon="9.110353782063315"><ele>96.0</ele><time>2026-04-04T08:31:34.842Z</time></trkpt><trkpt lat="45.33930033144158" lon="9.110445770941274"><ele>96.0</ele><time>2026-04-04T08:31:36.842Z</time></trkpt><trkpt lat="45.339374922932095" lon="9.11053429344422"><ele>96.0</ele><time>2026-04-04T08:31:38.842Z</time></trkpt><trkpt lat="45.33946076354196" lon="9.110628361355541"><ele>96.0</ele><time>2026-04-04T08:31:40.842Z</time></trkpt><trkpt lat="45.33954050650455" lon="9.110716092682795"><ele>96.0</ele><time>2026-04-04T08:31:42.842Z</time></trkpt><trkpt lat="45.33960472783877" lon="9.110789908215793"><ele>96.0</ele><time>2026-04-04T08:31:44.842Z</time></trkpt><trkpt lat="45.33967211372534" lon="9.11086384085391"><ele>96.0</ele><time>2026-04-04T08:31:46.842Z</time></trkpt><trkpt lat="45.33975404218871" lon="9.110968037071217"><ele>96.0</ele><time>2026-04-04T08:31:48.842Z</time></trkpt><trkpt lat="45.339844793430586" lon="9.11105750237643"><ele>96.0</ele><time>2026-04-04T08:31:50.842Z</time></trkpt><trkpt lat="45.33991186387761" lon="9.111136820490255"><ele>96.0</ele><time>2026-04-04T08:31:52.842Z</time></trkpt><trkpt lat="45.33998582967923" lon="9.111214516472883"><ele>96.0</ele><time>2026-04-04T08:31:54.841Z</time></trkpt><trkpt lat="45.340068522678116" lon="9.111316614414003"><ele>96.0</ele><time>2026-04-04T08:31:56.841Z</time></trkpt><trkpt lat="45.34015669868245" lon="9.111418186938712"><ele>96.0</ele><time>2026-04-04T08:31:58.841Z</time></trkpt><trkpt lat="45.34023267025887" lon="9.111513242850801"><ele>96.0</ele><time>2026-04-04T08:32:00.841Z</time></trkpt><trkpt lat="45.34031304827904" lon="9.111605336383995"><ele>96.16666666666667</ele><time>2026-04-04T08:32:02.841Z</time></trkpt><trkpt lat="45.34038789498699" lon="9.111686494145017"><ele>96.33333333333334</ele><time>2026-04-04T08:32:04.841Z</time></trkpt><trkpt lat="45.34044453953269" lon="9.111731019338741"><ele>96.5</ele><time>2026-04-04T08:32:06.841Z</time></trkpt><trkpt lat="45.34051567394435" lon="9.111777856381625"><ele>96.66666666666667</ele><time>2026-04-04T08:32:08.841Z</time></trkpt><trkpt lat="45.34058581460998" lon="9.111846403072906"><ele>96.83333333333334</ele><time>2026-04-04T08:32:10.841Z</time></trkpt><trkpt lat="45.34066916760435" lon="9.111937320321823"><ele>97.0</ele><time>2026-04-04T08:32:12.841Z</time></trkpt><trkpt lat="45.34074000397151" lon="9.11203207547393"><ele>97.0</ele><time>2026-04-04T08:32:14.841Z</time></trkpt><trkpt lat="45.3408170333153" lon="9.112140872591128"><ele>97.0</ele><time>2026-04-04T08:32:16.841Z</time></trkpt><trkpt lat="45.34086796217856" lon="9.112207870060482"><ele>97.0</ele><time>2026-04-04T08:32:17.841Z</time></trkpt><trkpt lat="45.34092758859753" lon="9.112270126750857"><ele>97.0</ele><time>2026-04-04T08:32:18.841Z</time></trkpt><trkpt lat="45.341019327235166" lon="9.11238658898103"><ele>97.0</ele><time>2026-04-04T08:32:20.841Z</time></trkpt><trkpt lat="45.34111008478043" lon="9.112495037789143"><ele>97.0</ele><time>2026-04-04T08:32:22.841Z</time></trkpt><trkpt lat="45.34120293118114" lon="9.112605376599983"><ele>97.0</ele><time>2026-04-04T08:32:24.841Z</time></trkpt><trkpt lat="45.341257892617" lon="9.112665856350358"><ele>97.0</ele><time>2026-04-04T08:32:25.841Z</time></trkpt><trkpt lat="45.341354596852156" lon="9.112777790840264"><ele>97.0</ele><time>2026-04-04T08:32:27.84Z</time></trkpt><trkpt lat="45.34143478301191" lon="9.112861134577791"><ele>97.0</ele><time>2026-04-04T08:32:29.84Z</time></trkpt><trkpt lat="45.34151102853856" lon="9.112958277823779"><ele>97.19999999999999</ele><time>2026-04-04T08:32:31.84Z</time></trkpt><trkpt lat="45.34159852569711" lon="9.113065156876118"><ele>97.4</ele><time>2026-04-04T08:32:33.84Z</time></trkpt><trkpt lat="45.34164600343167" lon="9.113123990414147"><ele>97.6</ele><time>2026-04-04T08:32:34.84Z</time></trkpt><trkpt lat="45.34173374938026" lon="9.113228604006514"><ele>97.80000000000001</ele><time>2026-04-04T08:32:36.842Z</time></trkpt><trkpt lat="45.3418186364201" lon="9.113320090799068"><ele>98.0</ele><time>2026-04-04T08:32:38.842Z</time></trkpt><trkpt lat="45.34191279757741" lon="9.113423524117445"><ele>98.0</ele><time>2026-04-04T08:32:40.842Z</time></trkpt><trkpt lat="45.341999508976436" lon="9.113522272729114"><ele>98.0</ele><time>2026-04-04T08:32:42.842Z</time></trkpt><trkpt lat="45.342092658133446" lon="9.113631703962634"><ele>98.0</ele><time>2026-04-04T08:32:44.841Z</time></trkpt><trkpt lat="45.34218542595022" lon="9.113736739580748"><ele>98.0</ele><time>2026-04-04T08:32:46.842Z</time></trkpt><trkpt lat="45.3422759192828" lon="9.113832579912852"><ele>97.80000000000001</ele><time>2026-04-04T08:32:48.842Z</time></trkpt><trkpt lat="45.34232488216077" lon="9.113892494580089"><ele>97.6</ele><time>2026-04-04T08:32:49.842Z</time></trkpt><trkpt lat="45.34241190390263" lon="9.113988774167463"><ele>97.4</ele><time>2026-04-04T08:32:51.842Z</time></trkpt><trkpt lat="45.3424960417482" lon="9.114080228870067"><ele>97.19999999999999</ele><time>2026-04-04T08:32:53.842Z</time></trkpt><trkpt lat="45.34256820257171" lon="9.114164976423647"><ele>97.0</ele><time>2026-04-04T08:32:55.842Z</time></trkpt><trkpt lat="45.3426481434402" lon="9.11425456827253"><ele>97.0</ele><time>2026-04-04T08:32:57.842Z</time></trkpt><trkpt lat="45.34273938434275" lon="9.114362322062348"><ele>97.0</ele><time>2026-04-04T08:32:59.841Z</time></trkpt><trkpt lat="45.34281835967517" lon="9.114458560536063"><ele>97.0</ele><time>2026-04-04T08:33:01.841Z</time></trkpt><trkpt lat="45.342907308488954" lon="9.114553864434761"><ele>97.0</ele><time>2026-04-04T08:33:03.841Z</time></trkpt><trkpt lat="45.34299296300056" lon="9.11465798327804"><ele>97.0</ele><time>2026-04-04T08:33:05.841Z</time></trkpt><trkpt lat="45.343077590962224" lon="9.114752835677923"><ele>97.0</ele><time>2026-04-04T08:33:07.841Z</time></trkpt><trkpt lat="45.34317411571838" lon="9.114859930512582"><ele>97.0</ele><time>2026-04-04T08:33:09.841Z</time></trkpt><trkpt lat="45.34325784733969" lon="9.11496094395746"><ele>97.0</ele><time>2026-04-04T08:33:11.841Z</time></trkpt><trkpt lat="45.34335180044909" lon="9.115063713902677"><ele>97.0</ele><time>2026-04-04T08:33:13.841Z</time></trkpt><trkpt lat="45.34344011160778" lon="9.115166701913553"><ele>97.0</ele><time>2026-04-04T08:33:15.841Z</time></trkpt><trkpt lat="45.34348757890461" lon="9.115229563471841"><ele>97.0</ele><time>2026-04-04T08:33:16.841Z</time></trkpt><trkpt lat="45.34358292787192" lon="9.11533920192311"><ele>97.0</ele><time>2026-04-04T08:33:18.841Z</time></trkpt><trkpt lat="45.343678237292366" lon="9.115437437669849"><ele>97.0</ele><time>2026-04-04T08:33:20.841Z</time></trkpt><trkpt lat="45.343776289012396" lon="9.115548983952332"><ele>97.0</ele><time>2026-04-04T08:33:22.841Z</time></trkpt><trkpt lat="45.34386967195909" lon="9.115647312721682"><ele>97.0</ele><time>2026-04-04T08:33:24.841Z</time></trkpt><trkpt lat="45.343960091655205" lon="9.115746140092531"><ele>97.0</ele><time>2026-04-04T08:33:26.841Z</time></trkpt><trkpt lat="45.34400908484911" lon="9.115805702276534"><ele>97.0</ele><time>2026-04-04T08:33:27.841Z</time></trkpt><trkpt lat="45.34410317859761" lon="9.115904777549822"><ele>97.0</ele><time>2026-04-04T08:33:29.841Z</time></trkpt><trkpt lat="45.34417878257223" lon="9.115993425954448"><ele>97.0</ele><time>2026-04-04T08:33:31.841Z</time></trkpt><trkpt lat="45.34425817970306" lon="9.116088471728249"><ele>97.0</ele><time>2026-04-04T08:33:33.84Z</time></trkpt><trkpt lat="45.3443475567588" lon="9.116191329371686"><ele>97.0</ele><time>2026-04-04T08:33:35.84Z</time></trkpt><trkpt lat="45.344417200897986" lon="9.116281207607788"><ele>97.0</ele><time>2026-04-04T08:33:37.84Z</time></trkpt><trkpt lat="45.34451790864134" lon="9.116384817310228"><ele>97.0</ele><time>2026-04-04T08:33:39.84Z</time></trkpt><trkpt lat="45.344605857206616" lon="9.116485390647913"><ele>97.0</ele><time>2026-04-04T08:33:41.84Z</time></trkpt><trkpt lat="45.344695641701236" lon="9.11659341739232"><ele>97.0</ele><time>2026-04-04T08:33:43.84Z</time></trkpt><trkpt lat="45.344783197983496" lon="9.116693389089539"><ele>97.0</ele><time>2026-04-04T08:33:45.84Z</time></trkpt><trkpt lat="45.344869383015954" lon="9.116788287516467"><ele>97.0</ele><time>2026-04-04T08:33:47.84Z</time></trkpt><trkpt lat="45.344947037723415" lon="9.116883120548668"><ele>97.0</ele><time>2026-04-04T08:33:49.84Z</time></trkpt><trkpt lat="45.34503211714662" lon="9.116966613634272"><ele>97.0</ele><time>2026-04-04T08:33:51.84Z</time></trkpt><trkpt lat="45.34512019604737" lon="9.11706637873096"><ele>97.00000000000001</ele><time>2026-04-04T08:33:53.84Z</time></trkpt><trkpt lat="45.34520720503306" lon="9.117159595843372"><ele>97.0</ele><time>2026-04-04T08:33:55.84Z</time></trkpt><trkpt lat="45.34525913409662" lon="9.117225827460421"><ele>97.0</ele><time>2026-04-04T08:33:56.84Z</time></trkpt><trkpt lat="45.345309899433545" lon="9.117280701646932"><ele>97.0</ele><time>2026-04-04T08:33:57.84Z</time></trkpt><trkpt lat="45.3453619207069" lon="9.117337379521697"><ele>97.00000000000001</ele><time>2026-04-04T08:33:58.84Z</time></trkpt><trkpt lat="45.34541518047591" lon="9.117391559755276"><ele>97.0</ele><time>2026-04-04T08:33:59.84Z</time></trkpt><trkpt lat="45.34549304018348" lon="9.117485585266248"><ele>97.0</ele><time>2026-04-04T08:34:01.84Z</time></trkpt><trkpt lat="45.34557873179779" lon="9.117587064760933"><ele>97.0</ele><time>2026-04-04T08:34:03.84Z</time></trkpt><trkpt lat="45.34566555326271" lon="9.117680392049552"><ele>97.0</ele><time>2026-04-04T08:34:05.839Z</time></trkpt><trkpt lat="45.345751550130146" lon="9.11777354162383"><ele>97.0</ele><time>2026-04-04T08:34:07.839Z</time></trkpt><trkpt lat="45.345835101905436" lon="9.117874386696188"><ele>97.0</ele><time>2026-04-04T08:34:09.839Z</time></trkpt><trkpt lat="45.345915650508054" lon="9.11796820996873"><ele>97.0</ele><time>2026-04-04T08:34:11.839Z</time></trkpt><trkpt lat="45.34600129032877" lon="9.11807192211853"><ele>97.0</ele><time>2026-04-04T08:34:13.839Z</time></trkpt><trkpt lat="45.34609101477075" lon="9.118177055834941"><ele>97.0</ele><time>2026-04-04T08:34:15.839Z</time></trkpt><trkpt lat="45.346167757703284" lon="9.11826952171162"><ele>97.0</ele><time>2026-04-04T08:34:17.839Z</time></trkpt><trkpt lat="45.346216488226034" lon="9.118329188823207"><ele>97.0</ele><time>2026-04-04T08:34:18.839Z</time></trkpt><trkpt lat="45.34630742286654" lon="9.11843339044861"><ele>96.8</ele><time>2026-04-04T08:34:20.839Z</time></trkpt><trkpt lat="45.34639312311236" lon="9.11852879827406"><ele>96.6</ele><time>2026-04-04T08:34:22.839Z</time></trkpt><trkpt lat="45.346483936852735" lon="9.118623260366913"><ele>96.39999999999999</ele><time>2026-04-04T08:34:24.839Z</time></trkpt><trkpt lat="45.346567534001494" lon="9.118724749589486"><ele>96.19999999999999</ele><time>2026-04-04T08:34:26.839Z</time></trkpt><trkpt lat="45.3466544150441" lon="9.118825367064105"><ele>96.0</ele><time>2026-04-04T08:34:28.839Z</time></trkpt><trkpt lat="45.346742401406644" lon="9.118927553961061"><ele>96.0</ele><time>2026-04-04T08:34:30.839Z</time></trkpt><trkpt lat="45.34683872095863" lon="9.119037123050644"><ele>96.0</ele><time>2026-04-04T08:34:32.839Z</time></trkpt><trkpt lat="45.346922029899524" lon="9.119120113691135"><ele>96.0</ele><time>2026-04-04T08:34:34.839Z</time></trkpt><trkpt lat="45.34698482006729" lon="9.119200319862157"><ele>96.0</ele><time>2026-04-04T08:34:36.839Z</time></trkpt><trkpt lat="45.34703808033615" lon="9.119258032284867"><ele>96.0</ele><time>2026-04-04T08:34:37.838Z</time></trkpt><trkpt lat="45.347089440373985" lon="9.11931188064865"><ele>96.0</ele><time>2026-04-04T08:34:38.838Z</time></trkpt><trkpt lat="45.34717126752634" lon="9.119402064192839"><ele>96.19999999999999</ele><time>2026-04-04T08:34:40.838Z</time></trkpt><trkpt lat="45.34725619449282" lon="9.119496165925849"><ele>96.39999999999999</ele><time>2026-04-04T08:34:42.84Z</time></trkpt><trkpt lat="45.34732270824096" lon="9.119575926706995"><ele>96.6</ele><time>2026-04-04T08:34:44.84Z</time></trkpt><trkpt lat="45.34739172685028" lon="9.119652403424134"><ele>96.8</ele><time>2026-04-04T08:34:46.84Z</time></trkpt><trkpt lat="45.3474579375294" lon="9.119727477219651"><ele>97.0</ele><time>2026-04-04T08:34:48.839Z</time></trkpt><trkpt lat="45.347542337855835" lon="9.119823252636905"><ele>97.19999999999999</ele><time>2026-04-04T08:34:50.84Z</time></trkpt><trkpt lat="45.347617163020416" lon="9.119920401872028"><ele>97.4</ele><time>2026-04-04T08:34:52.84Z</time></trkpt><trkpt lat="45.34766411241425" lon="9.11998178710937"><ele>97.6</ele><time>2026-04-04T08:34:53.84Z</time></trkpt><trkpt lat="45.34774956529781" lon="9.120075566718459"><ele>97.80000000000001</ele><time>2026-04-04T08:34:55.84Z</time></trkpt><trkpt lat="45.347826053055506" lon="9.120154902038273"><ele>98.0</ele><time>2026-04-04T08:34:57.84Z</time></trkpt><trkpt lat="45.34792891480275" lon="9.120273936774076"><ele>98.0</ele><time>2026-04-04T08:35:00.84Z</time></trkpt><trkpt lat="45.34798151067797" lon="9.120331765249661"><ele>98.0</ele><time>2026-04-04T08:35:01.84Z</time></trkpt><trkpt lat="45.348071507299395" lon="9.12043120562282"><ele>98.0</ele><time>2026-04-04T08:35:03.84Z</time></trkpt><trkpt lat="45.34815393681308" lon="9.120530778096239"><ele>98.0</ele><time>2026-04-04T08:35:05.84Z</time></trkpt><trkpt lat="45.34824098528747" lon="9.120623126530056"><ele>98.0</ele><time>2026-04-04T08:35:07.84Z</time></trkpt><trkpt lat="45.34832665659398" lon="9.120716916108249"><ele>97.80000000000001</ele><time>2026-04-04T08:35:09.84Z</time></trkpt><trkpt lat="45.348409935531606" lon="9.120814293526848"><ele>97.6</ele><time>2026-04-04T08:35:11.84Z</time></trkpt><trkpt lat="45.34850026023568" lon="9.120912784050711"><ele>97.4</ele><time>2026-04-04T08:35:13.84Z</time></trkpt><trkpt lat="45.348573711663086" lon="9.121007588115882"><ele>97.19999999999999</ele><time>2026-04-04T08:35:15.839Z</time></trkpt><trkpt lat="45.34865593686038" lon="9.121103790688542"><ele>97.0</ele><time>2026-04-04T08:35:17.839Z</time></trkpt><trkpt lat="45.34874658925964" lon="9.12120166470251"><ele>97.0</ele><time>2026-04-04T08:35:19.839Z</time></trkpt><trkpt lat="45.34883424869782" lon="9.12130455725347"><ele>97.0</ele><time>2026-04-04T08:35:21.839Z</time></trkpt><trkpt lat="45.348922740176235" lon="9.121404210723032"><ele>97.0</ele><time>2026-04-04T08:35:23.839Z</time></trkpt><trkpt lat="45.34901879458561" lon="9.121510388972453"><ele>97.0</ele><time>2026-04-04T08:35:25.839Z</time></trkpt><trkpt lat="45.349112287413156" lon="9.12161809171123"><ele>97.19999999999999</ele><time>2026-04-04T08:35:27.839Z</time></trkpt><trkpt lat="45.349194855275734" lon="9.121726448886694"><ele>97.4</ele><time>2026-04-04T08:35:29.839Z</time></trkpt><trkpt lat="45.34924690174965" lon="9.121780103368957"><ele>97.6</ele><time>2026-04-04T08:35:30.839Z</time></trkpt><trkpt lat="45.34934546657223" lon="9.121879240070523"><ele>97.80000000000001</ele><time>2026-04-04T08:35:32.839Z</time></trkpt><trkpt lat="45.349434106078846" lon="9.121987439184265"><ele>98.0</ele><time>2026-04-04T08:35:34.839Z</time></trkpt><trkpt lat="45.34953128418397" lon="9.122095241992776"><ele>98.0</ele><time>2026-04-04T08:35:36.839Z</time></trkpt><trkpt lat="45.34962784788832" lon="9.122201652577518"><ele>98.0</ele><time>2026-04-04T08:35:38.839Z</time></trkpt><trkpt lat="45.34967961339983" lon="9.122259995428031"><ele>98.0</ele><time>2026-04-04T08:35:39.839Z</time></trkpt><trkpt lat="45.349770873265946" lon="9.12236341901736"><ele>98.0</ele><time>2026-04-04T08:35:41.839Z</time></trkpt><trkpt lat="45.34982061153409" lon="9.122420989450735"><ele>98.0</ele><time>2026-04-04T08:35:42.839Z</time></trkpt><trkpt lat="45.34991286150386" lon="9.12251546955695"><ele>97.80000000000001</ele><time>2026-04-04T08:35:44.839Z</time></trkpt><trkpt lat="45.349984390690146" lon="9.122604129797871"><ele>97.6</ele><time>2026-04-04T08:35:46.839Z</time></trkpt><trkpt lat="45.35006667149692" lon="9.122698948753433"><ele>97.4</ele><time>2026-04-04T08:35:48.838Z</time></trkpt><trkpt lat="45.35015108784782" lon="9.122795379510256"><ele>97.19999999999999</ele><time>2026-04-04T08:35:50.838Z</time></trkpt><trkpt lat="45.35023531555595" lon="9.122881561842958"><ele>97.0</ele><time>2026-04-04T08:35:52.838Z</time></trkpt><trkpt lat="45.350319073278186" lon="9.122980210388087"><ele>97.0</ele><time>2026-04-04T08:35:54.838Z</time></trkpt><trkpt lat="45.35040018759272" lon="9.123077074948384"><ele>97.0</ele><time>2026-04-04T08:35:56.838Z</time></trkpt><trkpt lat="45.35047950997525" lon="9.123162846253699"><ele>97.0</ele><time>2026-04-04T08:35:58.838Z</time></trkpt><trkpt lat="45.35055389513172" lon="9.123250983696114"><ele>97.0</ele><time>2026-04-04T08:36:00.838Z</time></trkpt><trkpt lat="45.35062971339407" lon="9.123341619545426"><ele>97.0</ele><time>2026-04-04T08:36:02.838Z</time></trkpt><trkpt lat="45.35071339075823" lon="9.123430367340308"><ele>97.0</ele><time>2026-04-04T08:36:04.838Z</time></trkpt><trkpt lat="45.350791191737365" lon="9.1235236483931"><ele>97.0</ele><time>2026-04-04T08:36:06.838Z</time></trkpt><trkpt lat="45.35086423249762" lon="9.123618903769387"><ele>97.0</ele><time>2026-04-04T08:36:08.838Z</time></trkpt><trkpt lat="45.35095049934335" lon="9.123716376151258"><ele>97.0</ele><time>2026-04-04T08:36:10.838Z</time></trkpt><trkpt lat="45.3510411500743" lon="9.123814077349026"><ele>97.0</ele><time>2026-04-04T08:36:12.838Z</time></trkpt><trkpt lat="45.35112551807494" lon="9.123917642283356"><ele>97.0</ele><time>2026-04-04T08:36:14.838Z</time></trkpt><trkpt lat="45.351211517085424" lon="9.124015662721579"><ele>97.0</ele><time>2026-04-04T08:36:16.838Z</time></trkpt><trkpt lat="45.35130166785659" lon="9.124116603821761"><ele>97.0</ele><time>2026-04-04T08:36:18.838Z</time></trkpt><trkpt lat="45.35138742760116" lon="9.124213868792953"><ele>97.0</ele><time>2026-04-04T08:36:20.837Z</time></trkpt><trkpt lat="45.35145112990365" lon="9.12428356787055"><ele>97.0</ele><time>2026-04-04T08:36:22.837Z</time></trkpt><trkpt lat="45.3515174138102" lon="9.124363157033638"><ele>97.33333333333334</ele><time>2026-04-04T08:36:24.837Z</time></trkpt><trkpt lat="45.35159907027917" lon="9.124453229404311"><ele>97.66666666666667</ele><time>2026-04-04T08:36:26.837Z</time></trkpt><trkpt lat="45.35165808955178" lon="9.124516934979647"><ele>98.0</ele><time>2026-04-04T08:36:28.837Z</time></trkpt><trkpt lat="45.35172734145959" lon="9.124607079301628"><ele>98.33333333333334</ele><time>2026-04-04T08:36:30.837Z</time></trkpt><trkpt lat="45.351784531177834" lon="9.124677328477071"><ele>98.66666666666667</ele><time>2026-04-04T08:36:32.837Z</time></trkpt><trkpt lat="45.351846724984135" lon="9.12476840427971"><ele>99.0</ele><time>2026-04-04T08:36:34.837Z</time></trkpt><trkpt lat="45.35192942009539" lon="9.124860981234672"><ele>99.0</ele><time>2026-04-04T08:36:36.837Z</time></trkpt><trkpt lat="45.352004877835974" lon="9.124949979379394"><ele>99.0</ele><time>2026-04-04T08:36:38.837Z</time></trkpt><trkpt lat="45.35209337032479" lon="9.12505101737327"><ele>99.0</ele><time>2026-04-04T08:36:40.837Z</time></trkpt><trkpt lat="45.35215333606074" lon="9.12511544697989"><ele>99.0</ele><time>2026-04-04T08:36:42.837Z</time></trkpt><trkpt lat="45.35220928130538" lon="9.125171349532051"><ele>99.0</ele><time>2026-04-04T08:36:43.837Z</time></trkpt><trkpt lat="45.352296763484375" lon="9.125269177041922"><ele>99.0</ele><time>2026-04-04T08:36:45.837Z</time></trkpt><trkpt lat="45.352373766956745" lon="9.125355644339177"><ele>99.0</ele><time>2026-04-04T08:36:47.838Z</time></trkpt><trkpt lat="45.35244744875312" lon="9.125445244448612"><ele>99.0</ele><time>2026-04-04T08:36:49.838Z</time></trkpt><trkpt lat="45.3525194480014" lon="9.125524990336697"><ele>99.0</ele><time>2026-04-04T08:36:51.838Z</time></trkpt><trkpt lat="45.35259995177562" lon="9.125607857939928"><ele>99.0</ele><time>2026-04-04T08:36:53.838Z</time></trkpt><trkpt lat="45.352663756787194" lon="9.12568512954048"><ele>99.16666666666667</ele><time>2026-04-04T08:36:55.837Z</time></trkpt><trkpt lat="45.352740591306265" lon="9.12576868277185"><ele>99.33333333333334</ele><time>2026-04-04T08:36:58.838Z</time></trkpt><trkpt lat="45.35279309050592" lon="9.125829133230594"><ele>99.5</ele><time>2026-04-04T08:37:00.838Z</time></trkpt><trkpt lat="45.352849416182934" lon="9.12588702535046"><ele>99.66666666666667</ele><time>2026-04-04T08:37:02.838Z</time></trkpt><trkpt lat="45.35290589393658" lon="9.125960850334225"><ele>99.83333333333334</ele><time>2026-04-04T08:37:05.837Z</time></trkpt><trkpt lat="45.352965967523694" lon="9.126028173554072"><ele>100.0</ele><time>2026-04-04T08:37:08.837Z</time></trkpt><trkpt lat="45.35301847215092" lon="9.126088829256744"><ele>100.00000000000001</ele><time>2026-04-04T08:37:10.837Z</time></trkpt><trkpt lat="45.353085454293314" lon="9.126177491293072"><ele>100.0</ele><time>2026-04-04T08:37:13.837Z</time></trkpt><trkpt lat="45.35313541850836" lon="9.126232075613135"><ele>100.0</ele><time>2026-04-04T08:37:15.837Z</time></trkpt><trkpt lat="45.35320445905717" lon="9.126312235393163"><ele>100.0</ele><time>2026-04-04T08:37:18.837Z</time></trkpt><trkpt lat="45.353274057531195" lon="9.126383992922074"><ele>100.00000000000001</ele><time>2026-04-04T08:37:21.837Z</time></trkpt><trkpt lat="45.353327440270576" lon="9.126443477295448"><ele>100.0</ele><time>2026-04-04T08:37:24.837Z</time></trkpt><trkpt lat="45.35339729756849" lon="9.126507226834423"><ele>100.00000000000001</ele><time>2026-04-04T08:37:27.837Z</time></trkpt><trkpt lat="45.3534486522347" lon="9.126559903388682"><ele>100.0</ele><time>2026-04-04T08:37:30.837Z</time></trkpt><trkpt lat="45.353510637725925" lon="9.126474998654384"><ele>100.0</ele><time>2026-04-04T08:37:33.837Z</time></trkpt><trkpt lat="45.35355550369779" lon="9.126404721090026"><ele>100.0</ele><time>2026-04-04T08:37:35.837Z</time></trkpt><trkpt lat="45.353627790714214" lon="9.126399803400599"><ele>100.0</ele><time>2026-04-04T08:37:37.836Z</time></trkpt><trkpt lat="45.35366414525166" lon="9.126489669060454"><ele>100.00000000000001</ele><time>2026-04-04T08:37:39.836Z</time></trkpt><trkpt lat="45.353717822159204" lon="9.126585130869886"><ele>100.0</ele><time>2026-04-04T08:37:42.836Z</time></trkpt><trkpt lat="45.353787621563626" lon="9.126660194835278"><ele>99.6</ele><time>2026-04-04T08:37:44.836Z</time></trkpt><trkpt lat="45.35385984748574" lon="9.1267355506427"><ele>99.2</ele><time>2026-04-04T08:37:46.836Z</time></trkpt><trkpt lat="45.3539329869691" lon="9.126825744813633"><ele>98.80000000000001</ele><time>2026-04-04T08:37:48.836Z</time></trkpt><trkpt lat="45.35400598740942" lon="9.126906498963045"><ele>98.4</ele><time>2026-04-04T08:37:50.836Z</time></trkpt><trkpt lat="45.35408523348757" lon="9.12699382572023"><ele>98.0</ele><time>2026-04-04T08:37:52.836Z</time></trkpt><trkpt lat="45.35415965236668" lon="9.127078700249067"><ele>98.0</ele><time>2026-04-04T08:37:54.836Z</time></trkpt><trkpt lat="45.3542429430591" lon="9.127171272414994"><ele>98.0</ele><time>2026-04-04T08:37:56.836Z</time></trkpt><trkpt lat="45.35432409413201" lon="9.12726020541073"><ele>98.0</ele><time>2026-04-04T08:37:58.836Z</time></trkpt><trkpt lat="45.354406210679215" lon="9.127347855215788"><ele>98.0</ele><time>2026-04-04T08:38:00.836Z</time></trkpt><trkpt lat="45.35449564288575" lon="9.127441791321521"><ele>98.0</ele><time>2026-04-04T08:38:02.836Z</time></trkpt><trkpt lat="45.3545825803416" lon="9.127518664475218"><ele>97.80000000000001</ele><time>2026-04-04T08:38:04.836Z</time></trkpt><trkpt lat="45.35468437838139" lon="9.127571512929507"><ele>97.6</ele><time>2026-04-04T08:38:06.836Z</time></trkpt><trkpt lat="45.354784970365294" lon="9.127614130465346"><ele>97.4</ele><time>2026-04-04T08:38:08.836Z</time></trkpt><trkpt lat="45.35488376606302" lon="9.127656604389067"><ele>97.19999999999999</ele><time>2026-04-04T08:38:10.835Z</time></trkpt><trkpt lat="45.35498260955709" lon="9.127712179170517"><ele>97.0</ele><time>2026-04-04T08:38:12.835Z</time></trkpt><trkpt lat="45.3550842890765" lon="9.127796023261842"><ele>96.8</ele><time>2026-04-04T08:38:14.835Z</time></trkpt><trkpt lat="45.35517546551282" lon="9.127900751462853"><ele>96.6</ele><time>2026-04-04T08:38:16.835Z</time></trkpt><trkpt lat="45.35526745698181" lon="9.127982887174255"><ele>96.39999999999999</ele><time>2026-04-04T08:38:18.835Z</time></trkpt><trkpt lat="45.35536844696077" lon="9.128047747683551"><ele>96.19999999999999</ele><time>2026-04-04T08:38:20.835Z</time></trkpt><trkpt lat="45.35547107335675" lon="9.128111727227667"><ele>96.0</ele><time>2026-04-04T08:38:22.835Z</time></trkpt><trkpt lat="45.35557349245528" lon="9.128176943274822"><ele>96.4</ele><time>2026-04-04T08:38:24.835Z</time></trkpt><trkpt lat="45.355677278482595" lon="9.128238824671817"><ele>96.8</ele><time>2026-04-04T08:38:26.835Z</time></trkpt><trkpt lat="45.35577092684637" lon="9.128297944227844"><ele>97.2</ele><time>2026-04-04T08:38:28.835Z</time></trkpt><trkpt lat="45.355875676922906" lon="9.128367530694987"><ele>97.60000000000001</ele><time>2026-04-04T08:38:30.835Z</time></trkpt><trkpt lat="45.35597581297574" lon="9.128430374493055"><ele>98.0</ele><time>2026-04-04T08:38:32.835Z</time></trkpt><trkpt lat="45.35607964579476" lon="9.128491746310832"><ele>98.0</ele><time>2026-04-04T08:38:34.835Z</time></trkpt><trkpt lat="45.35618326712232" lon="9.128546519059556"><ele>98.0</ele><time>2026-04-04T08:38:36.835Z</time></trkpt><trkpt lat="45.356285360176685" lon="9.1286091925615"><ele>98.0</ele><time>2026-04-04T08:38:38.835Z</time></trkpt><trkpt lat="45.356384457700756" lon="9.12867053345553"><ele>98.0</ele><time>2026-04-04T08:38:40.835Z</time></trkpt><trkpt lat="45.35647948320001" lon="9.128726948337816"><ele>98.0</ele><time>2026-04-04T08:38:42.834Z</time></trkpt><trkpt lat="45.35657949978391" lon="9.128787229435664"><ele>98.4</ele><time>2026-04-04T08:38:44.834Z</time></trkpt><trkpt lat="45.356676704529974" lon="9.128848504902116"><ele>98.80000000000001</ele><time>2026-04-04T08:38:46.834Z</time></trkpt><trkpt lat="45.356780152626165" lon="9.128910545290154"><ele>99.2</ele><time>2026-04-04T08:38:48.834Z</time></trkpt><trkpt lat="45.35688315382096" lon="9.128963482810393"><ele>99.6</ele><time>2026-04-04T08:38:50.834Z</time></trkpt><trkpt lat="45.356978828128376" lon="9.129028273546824"><ele>100.0</ele><time>2026-04-04T08:38:52.834Z</time></trkpt><trkpt lat="45.35707381290202" lon="9.129081132392923"><ele>100.0</ele><time>2026-04-04T08:38:54.836Z</time></trkpt><trkpt lat="45.35717181361277" lon="9.129130017909356"><ele>100.0</ele><time>2026-04-04T08:38:56.836Z</time></trkpt><trkpt lat="45.35726266176855" lon="9.129171808528532"><ele>100.0</ele><time>2026-04-04T08:38:58.836Z</time></trkpt><trkpt lat="45.35736342638598" lon="9.129234495476735"><ele>100.0</ele><time>2026-04-04T08:39:00.836Z</time></trkpt><trkpt lat="45.35745576736096" lon="9.129310520062687"><ele>100.0</ele><time>2026-04-04T08:39:02.836Z</time></trkpt><trkpt lat="45.35756350151886" lon="9.129372651202253"><ele>99.75</ele><time>2026-04-04T08:39:04.836Z</time></trkpt><trkpt lat="45.35766335239101" lon="9.129430550216032"><ele>99.5</ele><time>2026-04-04T08:39:06.836Z</time></trkpt><trkpt lat="45.357774657908976" lon="9.129493808719674"><ele>99.25</ele><time>2026-04-04T08:39:08.836Z</time></trkpt><trkpt lat="45.35787961419252" lon="9.12956248998089"><ele>99.0</ele><time>2026-04-04T08:39:10.835Z</time></trkpt><trkpt lat="45.35797611164306" lon="9.129634296486111"><ele>98.75</ele><time>2026-04-04T08:39:12.835Z</time></trkpt><trkpt lat="45.358081477780914" lon="9.129685176089147"><ele>98.5</ele><time>2026-04-04T08:39:14.835Z</time></trkpt><trkpt lat="45.35818489320842" lon="9.129747245450552"><ele>98.25</ele><time>2026-04-04T08:39:16.835Z</time></trkpt><trkpt lat="45.35829058062861" lon="9.129813941573024"><ele>98.0</ele><time>2026-04-04T08:39:18.835Z</time></trkpt><trkpt lat="45.35839257544961" lon="9.129876476914665"><ele>98.0</ele><time>2026-04-04T08:39:20.835Z</time></trkpt><trkpt lat="45.3584971649811" lon="9.12994422189467"><ele>98.0</ele><time>2026-04-04T08:39:22.835Z</time></trkpt><trkpt lat="45.35860456919479" lon="9.130003353635804"><ele>98.0</ele><time>2026-04-04T08:39:24.835Z</time></trkpt><trkpt lat="45.358711397215785" lon="9.130060095462058"><ele>98.0</ele><time>2026-04-04T08:39:26.835Z</time></trkpt><trkpt lat="45.35881589487985" lon="9.130119853704425"><ele>97.80000000000001</ele><time>2026-04-04T08:39:28.835Z</time></trkpt><trkpt lat="45.35891538176528" lon="9.1301669869691"><ele>97.6</ele><time>2026-04-04T08:39:30.835Z</time></trkpt><trkpt lat="45.358977693121446" lon="9.13019211279581"><ele>97.4</ele><time>2026-04-04T08:39:31.835Z</time></trkpt><trkpt lat="45.35908573717255" lon="9.130259078152653"><ele>97.19999999999999</ele><time>2026-04-04T08:39:33.835Z</time></trkpt><trkpt lat="45.35918895088047" lon="9.130333339289045"><ele>97.0</ele><time>2026-04-04T08:39:35.835Z</time></trkpt><trkpt lat="45.35929195860191" lon="9.130406127662795"><ele>97.0</ele><time>2026-04-04T08:39:37.835Z</time></trkpt><trkpt lat="45.35939465969875" lon="9.130469605109859"><ele>97.0</ele><time>2026-04-04T08:39:39.835Z</time></trkpt><trkpt lat="45.35949545615653" lon="9.130521641417188"><ele>97.0</ele><time>2026-04-04T08:39:41.835Z</time></trkpt><trkpt lat="45.359583051520985" lon="9.130572330671326"><ele>97.0</ele><time>2026-04-04T08:39:43.834Z</time></trkpt><trkpt lat="45.35967147200439" lon="9.130629905788018"><ele>97.0</ele><time>2026-04-04T08:39:45.834Z</time></trkpt><trkpt lat="45.35975862233084" lon="9.1306677036623"><ele>97.00000000000001</ele><time>2026-04-04T08:39:47.834Z</time></trkpt><trkpt lat="45.35982749787317" lon="9.13071649412192"><ele>97.0</ele><time>2026-04-04T08:39:49.834Z</time></trkpt><trkpt lat="45.359900839889036" lon="9.13075871335613"><ele>97.0</ele><time>2026-04-04T08:39:51.834Z</time></trkpt><trkpt lat="45.359992341957096" lon="9.130805039181498"><ele>97.0</ele><time>2026-04-04T08:39:53.834Z</time></trkpt><trkpt lat="45.360070516974545" lon="9.130866808833805"><ele>97.00000000000001</ele><time>2026-04-04T08:39:55.834Z</time></trkpt><trkpt lat="45.360163291517964" lon="9.130921880971702"><ele>97.0</ele><time>2026-04-04T08:39:57.834Z</time></trkpt><trkpt lat="45.36024756272126" lon="9.130968159777556"><ele>97.0</ele><time>2026-04-04T08:39:59.834Z</time></trkpt><trkpt lat="45.36033445931235" lon="9.131020875865904"><ele>97.0</ele><time>2026-04-04T08:40:01.834Z</time></trkpt><trkpt lat="45.36042857292886" lon="9.131074852197072"><ele>97.0</ele><time>2026-04-04T08:40:03.834Z</time></trkpt><trkpt lat="45.36052525436945" lon="9.131143932302509"><ele>97.0</ele><time>2026-04-04T08:40:05.834Z</time></trkpt><trkpt lat="45.360622690082415" lon="9.131204801295768"><ele>97.0</ele><time>2026-04-04T08:40:07.834Z</time></trkpt><trkpt lat="45.36071781553807" lon="9.13125916074993"><ele>97.0</ele><time>2026-04-04T08:40:09.834Z</time></trkpt><trkpt lat="45.36081659121377" lon="9.131314080320225"><ele>97.0</ele><time>2026-04-04T08:40:11.834Z</time></trkpt><trkpt lat="45.36091252729219" lon="9.131372683527395"><ele>97.0</ele><time>2026-04-04T08:40:13.834Z</time></trkpt><trkpt lat="45.36100831420173" lon="9.13143031178834"><ele>97.0</ele><time>2026-04-04T08:40:15.833Z</time></trkpt><trkpt lat="45.36110790057158" lon="9.131486463918396"><ele>97.0</ele><time>2026-04-04T08:40:17.833Z</time></trkpt><trkpt lat="45.36120302464516" lon="9.131549714158735"><ele>97.19999999999999</ele><time>2026-04-04T08:40:19.833Z</time></trkpt><trkpt lat="45.3612957910343" lon="9.131605346070316"><ele>97.4</ele><time>2026-04-04T08:40:21.833Z</time></trkpt><trkpt lat="45.36139531190727" lon="9.131657274096888"><ele>97.6</ele><time>2026-04-04T08:40:23.833Z</time></trkpt><trkpt lat="45.36150007164385" lon="9.131720264493795"><ele>97.80000000000001</ele><time>2026-04-04T08:40:25.833Z</time></trkpt><trkpt lat="45.361604867119595" lon="9.131781040736655"><ele>98.0</ele><time>2026-04-04T08:40:27.833Z</time></trkpt><trkpt lat="45.3616946806169" lon="9.131831810459376"><ele>98.0</ele><time>2026-04-04T08:40:29.833Z</time></trkpt><trkpt lat="45.361789367423874" lon="9.131903110024929"><ele>98.0</ele><time>2026-04-04T08:40:31.833Z</time></trkpt><trkpt lat="45.361887523076525" lon="9.131960693520458"><ele>98.0</ele><time>2026-04-04T08:40:33.833Z</time></trkpt><trkpt lat="45.36198323747088" lon="9.132020715713578"><ele>98.0</ele><time>2026-04-04T08:40:35.833Z</time></trkpt><trkpt lat="45.36207996134203" lon="9.13208503794892"><ele>98.0</ele><time>2026-04-04T08:40:37.833Z</time></trkpt><trkpt lat="45.36218188748389" lon="9.132138670529887"><ele>98.0</ele><time>2026-04-04T08:40:39.833Z</time></trkpt><trkpt lat="45.36227942409275" lon="9.132198100828948"><ele>98.0</ele><time>2026-04-04T08:40:41.833Z</time></trkpt><trkpt lat="45.36237161117322" lon="9.132253006087831"><ele>98.0</ele><time>2026-04-04T08:40:43.833Z</time></trkpt><trkpt lat="45.362459358996794" lon="9.132306038854155"><ele>98.0</ele><time>2026-04-04T08:40:45.833Z</time></trkpt><trkpt lat="45.36255649695762" lon="9.132368213058673"><ele>98.0</ele><time>2026-04-04T08:40:47.832Z</time></trkpt><trkpt lat="45.36265071445736" lon="9.132418408730064"><ele>97.80000000000001</ele><time>2026-04-04T08:40:49.832Z</time></trkpt><trkpt lat="45.3627499946041" lon="9.132478045714528"><ele>97.6</ele><time>2026-04-04T08:40:51.832Z</time></trkpt><trkpt lat="45.36284324140341" lon="9.132544777968162"><ele>97.4</ele><time>2026-04-04T08:40:53.832Z</time></trkpt><trkpt lat="45.362935582396425" lon="9.1326098825449"><ele>97.19999999999999</ele><time>2026-04-04T08:40:55.832Z</time></trkpt><trkpt lat="45.36303812240564" lon="9.132673851401837"><ele>97.0</ele><time>2026-04-04T08:40:57.832Z</time></trkpt><trkpt lat="45.36313753236369" lon="9.132723715466543"><ele>96.8</ele><time>2026-04-04T08:40:59.834Z</time></trkpt><trkpt lat="45.36323700794401" lon="9.132786468587309"><ele>96.6</ele><time>2026-04-04T08:41:01.834Z</time></trkpt><trkpt lat="45.36333414988708" lon="9.132841375841194"><ele>96.39999999999999</ele><time>2026-04-04T08:41:03.834Z</time></trkpt><trkpt lat="45.36343591885153" lon="9.132905420951646"><ele>96.19999999999999</ele><time>2026-04-04T08:41:05.833Z</time></trkpt><trkpt lat="45.36353235667258" lon="9.132964331524175"><ele>96.0</ele><time>2026-04-04T08:41:07.834Z</time></trkpt><trkpt lat="45.363629465390375" lon="9.133019571171033"><ele>96.0</ele><time>2026-04-04T08:41:09.834Z</time></trkpt><trkpt lat="45.36372893205961" lon="9.133080511293423"><ele>96.0</ele><time>2026-04-04T08:41:11.834Z</time></trkpt><trkpt lat="45.36383386105187" lon="9.13313691318466"><ele>96.0</ele><time>2026-04-04T08:41:13.834Z</time></trkpt><trkpt lat="45.36393896797497" lon="9.133202506266768"><ele>96.0</ele><time>2026-04-04T08:41:15.834Z</time></trkpt><trkpt lat="45.36404237236259" lon="9.133261873501674"><ele>96.0</ele><time>2026-04-04T08:41:17.834Z</time></trkpt><trkpt lat="45.36414744819008" lon="9.133319096299369"><ele>96.19999999999999</ele><time>2026-04-04T08:41:19.834Z</time></trkpt><trkpt lat="45.36423728321747" lon="9.133367448791196"><ele>96.39999999999999</ele><time>2026-04-04T08:41:21.834Z</time></trkpt><trkpt lat="45.3643307655293" lon="9.133441698164953"><ele>96.6</ele><time>2026-04-04T08:41:23.834Z</time></trkpt><trkpt lat="45.36442897187858" lon="9.133499256060249"><ele>96.8</ele><time>2026-04-04T08:41:25.834Z</time></trkpt><trkpt lat="45.36452253796576" lon="9.13355871128384"><ele>97.0</ele><time>2026-04-04T08:41:27.834Z</time></trkpt><trkpt lat="45.364618711582054" lon="9.133617663273899"><ele>97.0</ele><time>2026-04-04T08:41:29.833Z</time></trkpt><trkpt lat="45.364718213449066" lon="9.133684474951028"><ele>97.0</ele><time>2026-04-04T08:41:31.833Z</time></trkpt><trkpt lat="45.36481533306095" lon="9.133744302838439"><ele>97.0</ele><time>2026-04-04T08:41:33.833Z</time></trkpt><trkpt lat="45.364912253206995" lon="9.133800328039426"><ele>97.0</ele><time>2026-04-04T08:41:35.833Z</time></trkpt><trkpt lat="45.36500477692988" lon="9.133860474900423"><ele>97.0</ele><time>2026-04-04T08:41:37.833Z</time></trkpt><trkpt lat="45.365099684188046" lon="9.133916294765697"><ele>97.0</ele><time>2026-04-04T08:41:39.833Z</time></trkpt><trkpt lat="45.3651945240191" lon="9.13397848242763"><ele>97.0</ele><time>2026-04-04T08:41:41.833Z</time></trkpt><trkpt lat="45.36529305188874" lon="9.134029955621944"><ele>97.0</ele><time>2026-04-04T08:41:43.833Z</time></trkpt><trkpt lat="45.365391751388735" lon="9.134091649890234"><ele>97.0</ele><time>2026-04-04T08:41:45.833Z</time></trkpt><trkpt lat="45.36549144785789" lon="9.134156510138858"><ele>97.0</ele><time>2026-04-04T08:41:47.833Z</time></trkpt><trkpt lat="45.36559225403536" lon="9.134216933324721"><ele>97.0</ele><time>2026-04-04T08:41:49.833Z</time></trkpt><trkpt lat="45.36569410785049" lon="9.134277001378853"><ele>97.0</ele><time>2026-04-04T08:41:51.833Z</time></trkpt><trkpt lat="45.36579558269762" lon="9.13433843333279"><ele>97.0</ele><time>2026-04-04T08:41:53.833Z</time></trkpt><trkpt lat="45.365895273886686" lon="9.13440392272715"><ele>97.0</ele><time>2026-04-04T08:41:55.833Z</time></trkpt><trkpt lat="45.36599792846023" lon="9.134465249805391"><ele>97.0</ele><time>2026-04-04T08:41:57.833Z</time></trkpt><trkpt lat="45.3661010080088" lon="9.134526671941174"><ele>97.0</ele><time>2026-04-04T08:41:59.833Z</time></trkpt><trkpt lat="45.36620431512935" lon="9.13458697710316"><ele>97.0</ele><time>2026-04-04T08:42:01.832Z</time></trkpt><trkpt lat="45.36630184952465" lon="9.13464543051908"><ele>97.0</ele><time>2026-04-04T08:42:03.832Z</time></trkpt><trkpt lat="45.36639780586583" lon="9.134715304235927"><ele>97.0</ele><time>2026-04-04T08:42:05.832Z</time></trkpt><trkpt lat="45.36650071665044" lon="9.134773350937596"><ele>97.0</ele><time>2026-04-04T08:42:07.832Z</time></trkpt><trkpt lat="45.366596521932664" lon="9.134830132277212"><ele>97.0</ele><time>2026-04-04T08:42:09.832Z</time></trkpt><trkpt lat="45.36669738352843" lon="9.134887815100967"><ele>97.0</ele><time>2026-04-04T08:42:11.832Z</time></trkpt><trkpt lat="45.366798131862026" lon="9.134945671239729"><ele>97.0</ele><time>2026-04-04T08:42:13.832Z</time></trkpt><trkpt lat="45.366895667892265" lon="9.13500650753609"><ele>97.0</ele><time>2026-04-04T08:42:15.832Z</time></trkpt><trkpt lat="45.36699478218058" lon="9.135068027118498"><ele>97.0</ele><time>2026-04-04T08:42:17.832Z</time></trkpt><trkpt lat="45.36709273553956" lon="9.135123492559396"><ele>97.0</ele><time>2026-04-04T08:42:19.832Z</time></trkpt><trkpt lat="45.36720151266578" lon="9.135182119153923"><ele>97.0</ele><time>2026-04-04T08:42:21.832Z</time></trkpt><trkpt lat="45.36730052019609" lon="9.135244837071287"><ele>97.0</ele><time>2026-04-04T08:42:23.832Z</time></trkpt><trkpt lat="45.36739604441242" lon="9.135303708685512"><ele>97.0</ele><time>2026-04-04T08:42:25.832Z</time></trkpt><trkpt lat="45.367496998901856" lon="9.135367123773731"><ele>97.0</ele><time>2026-04-04T08:42:27.832Z</time></trkpt><trkpt lat="45.367591167169714" lon="9.13542565904791"><ele>97.0</ele><time>2026-04-04T08:42:29.832Z</time></trkpt><trkpt lat="45.36768795764732" lon="9.1354736186155"><ele>97.0</ele><time>2026-04-04T08:42:31.832Z</time></trkpt><trkpt lat="45.367794402096344" lon="9.135529616123234"><ele>97.0</ele><time>2026-04-04T08:42:33.831Z</time></trkpt><trkpt lat="45.367889028825644" lon="9.135596609960217"><ele>97.0</ele><time>2026-04-04T08:42:35.831Z</time></trkpt><trkpt lat="45.36798608734485" lon="9.135644817659266"><ele>97.0</ele><time>2026-04-04T08:42:37.831Z</time></trkpt><trkpt lat="45.368074360653935" lon="9.13569446383558"><ele>97.33333333333334</ele><time>2026-04-04T08:42:39.831Z</time></trkpt><trkpt lat="45.3681478137109" lon="9.135749937109274"><ele>97.66666666666667</ele><time>2026-04-04T08:42:41.831Z</time></trkpt><trkpt lat="45.36823932674339" lon="9.135792819327873"><ele>98.0</ele><time>2026-04-04T08:42:44.831Z</time></trkpt><trkpt lat="45.36830328046728" lon="9.135832178005144"><ele>98.33333333333334</ele><time>2026-04-04T08:42:46.831Z</time></trkpt><trkpt lat="45.36837086585495" lon="9.135864125633507"><ele>98.66666666666667</ele><time>2026-04-04T08:42:48.831Z</time></trkpt><trkpt lat="45.36845402843388" lon="9.13592094546928"><ele>99.0</ele><time>2026-04-04T08:42:51.831Z</time></trkpt><trkpt lat="45.368519105457004" lon="9.135942437767836"><ele>99.0</ele><time>2026-04-04T08:42:54.831Z</time></trkpt><trkpt lat="45.36860041422185" lon="9.135995124528973"><ele>99.0</ele><time>2026-04-04T08:42:58.831Z</time></trkpt><trkpt lat="45.368656944394104" lon="9.136039987735757"><ele>99.0</ele><time>2026-04-04T08:43:00.831Z</time></trkpt><trkpt lat="45.36873001188906" lon="9.13608798895645"><ele>99.0</ele><time>2026-04-04T08:43:02.831Z</time></trkpt><trkpt lat="45.368816218010146" lon="9.136131920760766"><ele>99.0</ele><time>2026-04-04T08:43:04.831Z</time></trkpt><trkpt lat="45.36889721347537" lon="9.136176727769113"><ele>99.0</ele><time>2026-04-04T08:43:06.998Z</time></trkpt><trkpt lat="45.36896667199508" lon="9.136218817673166"><ele>99.0</ele><time>2026-04-04T08:43:08.999Z</time></trkpt><trkpt lat="45.3690649367795" lon="9.1362696695642"><ele>99.0</ele><time>2026-04-04T08:43:11.999Z</time></trkpt><trkpt lat="45.36912854834779" lon="9.136307895733088"><ele>99.0</ele><time>2026-04-04T08:43:13.999Z</time></trkpt><trkpt lat="45.369186918451426" lon="9.136342723396686"><ele>99.0</ele><time>2026-04-04T08:43:15.999Z</time></trkpt><trkpt lat="45.369263790034104" lon="9.136385545307219"><ele>99.0</ele><time>2026-04-04T08:43:17.999Z</time></trkpt><trkpt lat="45.369331800811004" lon="9.136432502892498"><ele>99.0</ele><time>2026-04-04T08:43:20Z</time></trkpt><trkpt lat="45.36941179877321" lon="9.136471552929466"><ele>99.0</ele><time>2026-04-04T08:43:22Z</time></trkpt><trkpt lat="45.369497449094176" lon="9.136518865112725"><ele>99.0</ele><time>2026-04-04T08:43:24Z</time></trkpt><trkpt lat="45.36957567258962" lon="9.136566418132393"><ele>99.0</ele><time>2026-04-04T08:43:26Z</time></trkpt><trkpt lat="45.36965280047609" lon="9.136601856556188"><ele>99.0</ele><time>2026-04-04T08:43:28Z</time></trkpt><trkpt lat="45.36974017395154" lon="9.136656970223466"><ele>99.0</ele><time>2026-04-04T08:43:30Z</time></trkpt><trkpt lat="45.36982604666484" lon="9.136705328089857"><ele>99.0</ele><time>2026-04-04T08:43:32Z</time></trkpt><trkpt lat="45.36992250730308" lon="9.136756044039185"><ele>99.4</ele><time>2026-04-04T08:43:34Z</time></trkpt><trkpt lat="45.37001458748934" lon="9.136808186811612"><ele>99.80000000000001</ele><time>2026-04-04T08:43:36Z</time></trkpt><trkpt lat="45.37011371511527" lon="9.13686132497896"><ele>100.19999999999999</ele><time>2026-04-04T08:43:38Z</time></trkpt><trkpt lat="45.37020869556805" lon="9.136911221064178"><ele>100.6</ele><time>2026-04-04T08:43:40Z</time></trkpt><trkpt lat="45.37030100491515" lon="9.136966178375397"><ele>101.0</ele><time>2026-04-04T08:43:42Z</time></trkpt><trkpt lat="45.37039532106382" lon="9.137023063338765"><ele>101.0</ele><time>2026-04-04T08:43:44Z</time></trkpt><trkpt lat="45.37049886156347" lon="9.137080914467015"><ele>101.0</ele><time>2026-04-04T08:43:46Z</time></trkpt><trkpt lat="45.370593021255026" lon="9.137132373575417"><ele>101.0</ele><time>2026-04-04T08:43:48Z</time></trkpt><trkpt lat="45.37069521289674" lon="9.137178838616558"><ele>101.0</ele><time>2026-04-04T08:43:50Z</time></trkpt><trkpt lat="45.37079069105911" lon="9.13724580087485"><ele>101.0</ele><time>2026-04-04T08:43:52.001Z</time></trkpt><trkpt lat="45.37088937113072" lon="9.137291147154745"><ele>100.8</ele><time>2026-04-04T08:43:54.001Z</time></trkpt><trkpt lat="45.3709856857382" lon="9.137348690376712"><ele>100.6</ele><time>2026-04-04T08:43:56.001Z</time></trkpt><trkpt lat="45.371089329376176" lon="9.137407097749113"><ele>100.4</ele><time>2026-04-04T08:43:58.001Z</time></trkpt><trkpt lat="45.37119126616415" lon="9.137469779983268"><ele>100.2</ele><time>2026-04-04T08:44:00.001Z</time></trkpt><trkpt lat="45.371292807599595" lon="9.137526423329222"><ele>100.0</ele><time>2026-04-04T08:44:02.001Z</time></trkpt><trkpt lat="45.37139919232629" lon="9.137583385602936"><ele>99.4</ele><time>2026-04-04T08:44:04.001Z</time></trkpt><trkpt lat="45.37149575360701" lon="9.137634044158464"><ele>98.8</ele><time>2026-04-04T08:44:06.001Z</time></trkpt><trkpt lat="45.371595244832655" lon="9.137689974532064"><ele>98.19999999999999</ele><time>2026-04-04T08:44:08.001Z</time></trkpt><trkpt lat="45.371693295779075" lon="9.137746593302598"><ele>97.6</ele><time>2026-04-04T08:44:10.001Z</time></trkpt><trkpt lat="45.37179458512225" lon="9.137802776227968"><ele>97.0</ele><time>2026-04-04T08:44:12.001Z</time></trkpt><trkpt lat="45.37189472398559" lon="9.137860677992906"><ele>97.0</ele><time>2026-04-04T08:44:14.001Z</time></trkpt><trkpt lat="45.371995350416164" lon="9.13791422832453"><ele>97.0</ele><time>2026-04-04T08:44:16.001Z</time></trkpt><trkpt lat="45.37209795511189" lon="9.137970242364753"><ele>97.0</ele><time>2026-04-04T08:44:18.001Z</time></trkpt><trkpt lat="45.37219606375278" lon="9.138025636144377"><ele>97.0</ele><time>2026-04-04T08:44:20.001Z</time></trkpt><trkpt lat="45.37228995782449" lon="9.138070615496233"><ele>97.0</ele><time>2026-04-04T08:44:22.001Z</time></trkpt><trkpt lat="45.37238375903764" lon="9.138123891037145"><ele>97.19999999999999</ele><time>2026-04-04T08:44:24.001Z</time></trkpt><trkpt lat="45.372482241841674" lon="9.138179050904384"><ele>97.4</ele><time>2026-04-04T08:44:26.001Z</time></trkpt><trkpt lat="45.37258366391655" lon="9.138235531873919"><ele>97.6</ele><time>2026-04-04T08:44:28.001Z</time></trkpt><trkpt lat="45.37268574618418" lon="9.138286888374322"><ele>97.80000000000001</ele><time>2026-04-04T08:44:30.001Z</time></trkpt><trkpt lat="45.37278354705317" lon="9.138339009555567"><ele>98.0</ele><time>2026-04-04T08:44:32.001Z</time></trkpt><trkpt lat="45.37288344010522" lon="9.1384033771983"><ele>98.0</ele><time>2026-04-04T08:44:34.001Z</time></trkpt><trkpt lat="45.37298202652459" lon="9.138460768200305"><ele>98.0</ele><time>2026-04-04T08:44:36.001Z</time></trkpt><trkpt lat="45.37307758342404" lon="9.138518376908108"><ele>98.0</ele><time>2026-04-04T08:44:38.001Z</time></trkpt><trkpt lat="45.37318121875579" lon="9.138570418913377"><ele>98.0</ele><time>2026-04-04T08:44:40.001Z</time></trkpt><trkpt lat="45.37328499286381" lon="9.138618018060809"><ele>98.0</ele><time>2026-04-04T08:44:42.001Z</time></trkpt><trkpt lat="45.37338841452984" lon="9.138658054347312"><ele>98.0</ele><time>2026-04-04T08:44:44.001Z</time></trkpt><trkpt lat="45.373493390833474" lon="9.138676985406828"><ele>98.0</ele><time>2026-04-04T08:44:46.001Z</time></trkpt><trkpt lat="45.37358869431826" lon="9.138704961919691"><ele>98.0</ele><time>2026-04-04T08:44:48.001Z</time></trkpt><trkpt lat="45.37370558872707" lon="9.138741367171129"><ele>98.0</ele><time>2026-04-04T08:44:50.001Z</time></trkpt><trkpt lat="45.37380663948958" lon="9.13881041897228"><ele>98.0</ele><time>2026-04-04T08:44:52.001Z</time></trkpt><trkpt lat="45.37387548694809" lon="9.138885788830816"><ele>98.16666666666666</ele><time>2026-04-04T08:44:54.001Z</time></trkpt><trkpt lat="45.37395164065852" lon="9.138966228670514"><ele>98.33333333333333</ele><time>2026-04-04T08:44:56.001Z</time></trkpt><trkpt lat="45.3740218366884" lon="9.139037194764024"><ele>98.5</ele><time>2026-04-04T08:44:58.001Z</time></trkpt><trkpt lat="45.37410237528213" lon="9.139079660469717"><ele>98.66666666666666</ele><time>2026-04-04T08:45:00.001Z</time></trkpt><trkpt lat="45.37417183080144" lon="9.139106596251475"><ele>98.83333333333333</ele><time>2026-04-04T08:45:02.001Z</time></trkpt><trkpt lat="45.37426357707892" lon="9.139161090261176"><ele>99.0</ele><time>2026-04-04T08:45:04.001Z</time></trkpt><trkpt lat="45.3743527331942" lon="9.139221646328373"><ele>99.2</ele><time>2026-04-04T08:45:06.001Z</time></trkpt><trkpt lat="45.37443551451553" lon="9.139267097014308"><ele>99.4</ele><time>2026-04-04T08:45:08.001Z</time></trkpt><trkpt lat="45.374516400811785" lon="9.139311941355626"><ele>99.6</ele><time>2026-04-04T08:45:10.001Z</time></trkpt><trkpt lat="45.374606729353616" lon="9.139357958774337"><ele>99.8</ele><time>2026-04-04T08:45:12.003Z</time></trkpt><trkpt lat="45.37469509967674" lon="9.139410092742155"><ele>100.0</ele><time>2026-04-04T08:45:14.003Z</time></trkpt><trkpt lat="45.3747857084938" lon="9.139463341559324"><ele>100.0</ele><time>2026-04-04T08:45:16.003Z</time></trkpt><trkpt lat="45.37487671444633" lon="9.139519265057697"><ele>100.0</ele><time>2026-04-04T08:45:18.003Z</time></trkpt><trkpt lat="45.374975972206194" lon="9.13957299182347"><ele>100.0</ele><time>2026-04-04T08:45:20.002Z</time></trkpt><trkpt lat="45.37506226127386" lon="9.13962103015505"><ele>100.0</ele><time>2026-04-04T08:45:22.002Z</time></trkpt><trkpt lat="45.37515711195308" lon="9.139677850991912"><ele>100.0</ele><time>2026-04-04T08:45:24.002Z</time></trkpt><trkpt lat="45.37523616499303" lon="9.1397269626091"><ele>100.0</ele><time>2026-04-04T08:45:26.002Z</time></trkpt><trkpt lat="45.37532833265006" lon="9.139771535079818"><ele>100.0</ele><time>2026-04-04T08:45:28.002Z</time></trkpt><trkpt lat="45.375418193627766" lon="9.139825817096133"><ele>100.0</ele><time>2026-04-04T08:45:30.002Z</time></trkpt><trkpt lat="45.37551863948717" lon="9.139882946049847"><ele>100.0</ele><time>2026-04-04T08:45:32.002Z</time></trkpt><trkpt lat="45.375618704132854" lon="9.139932614776864"><ele>100.0</ele><time>2026-04-04T08:45:34.002Z</time></trkpt><trkpt lat="45.37571428645141" lon="9.13997359438804"><ele>100.4</ele><time>2026-04-04T08:45:36.002Z</time></trkpt><trkpt lat="45.3758056777619" lon="9.140026529750289"><ele>100.8</ele><time>2026-04-04T08:45:38.001Z</time></trkpt><trkpt lat="45.375899632121374" lon="9.14008158126599"><ele>101.19999999999999</ele><time>2026-04-04T08:45:40.001Z</time></trkpt><trkpt lat="45.37599784156457" lon="9.140132085524336"><ele>101.6</ele><time>2026-04-04T08:45:42.001Z</time></trkpt><trkpt lat="45.37609783564457" lon="9.140181118778283"><ele>102.0</ele><time>2026-04-04T08:45:44.001Z</time></trkpt><trkpt lat="45.376194300862515" lon="9.140243674905252"><ele>102.0</ele><time>2026-04-04T08:45:46.001Z</time></trkpt><trkpt lat="45.37629332941487" lon="9.140296141092724"><ele>102.0</ele><time>2026-04-04T08:45:48.001Z</time></trkpt><trkpt lat="45.37639556803679" lon="9.140347767869594"><ele>102.0</ele><time>2026-04-04T08:45:50.001Z</time></trkpt><trkpt lat="45.37649427072558" lon="9.140402934149988"><ele>102.0</ele><time>2026-04-04T08:45:52.001Z</time></trkpt><trkpt lat="45.37659895343104" lon="9.140459835570974"><ele>102.0</ele><time>2026-04-04T08:45:54.001Z</time></trkpt><trkpt lat="45.37669693901333" lon="9.140516817491672"><ele>101.6</ele><time>2026-04-04T08:45:56.001Z</time></trkpt><trkpt lat="45.376793227082054" lon="9.140567130404001"><ele>101.19999999999999</ele><time>2026-04-04T08:45:58.001Z</time></trkpt><trkpt lat="45.376875103503444" lon="9.140613338975186"><ele>100.8</ele><time>2026-04-04T08:46:00.001Z</time></trkpt><trkpt lat="45.37696819952236" lon="9.140661526023552"><ele>100.4</ele><time>2026-04-04T08:46:02.001Z</time></trkpt><trkpt lat="45.377054069844476" lon="9.14071796665582"><ele>100.0</ele><time>2026-04-04T08:46:04.001Z</time></trkpt><trkpt lat="45.377152952040866" lon="9.14076843933409"><ele>99.8</ele><time>2026-04-04T08:46:06.001Z</time></trkpt><trkpt lat="45.37724676273733" lon="9.140822956596871"><ele>99.6</ele><time>2026-04-04T08:46:08.001Z</time></trkpt><trkpt lat="45.3773396274845" lon="9.140875419876272"><ele>99.4</ele><time>2026-04-04T08:46:10.001Z</time></trkpt><trkpt lat="45.377441770484204" lon="9.140935879097407"><ele>99.2</ele><time>2026-04-04T08:46:12.001Z</time></trkpt><trkpt lat="45.377534264932564" lon="9.14098372683263"><ele>99.0</ele><time>2026-04-04T08:46:14.001Z</time></trkpt><trkpt lat="45.377630806220154" lon="9.141033373426172"><ele>99.0</ele><time>2026-04-04T08:46:16.001Z</time></trkpt><trkpt lat="45.37773042836599" lon="9.141087726025832"><ele>99.0</ele><time>2026-04-04T08:46:18.001Z</time></trkpt><trkpt lat="45.37782124073558" lon="9.141144972165474"><ele>99.0</ele><time>2026-04-04T08:46:20.001Z</time></trkpt><trkpt lat="45.37792242287803" lon="9.141205021406106"><ele>99.0</ele><time>2026-04-04T08:46:22.001Z</time></trkpt><trkpt lat="45.37802035269926" lon="9.141252152111326"><ele>99.0</ele><time>2026-04-04T08:46:24.001Z</time></trkpt><trkpt lat="45.37811295899259" lon="9.141306763468107"><ele>99.0</ele><time>2026-04-04T08:46:26.001Z</time></trkpt><trkpt lat="45.378204351680964" lon="9.141362726006573"><ele>99.0</ele><time>2026-04-04T08:46:28.001Z</time></trkpt><trkpt lat="45.37830511760202" lon="9.141419565242199"><ele>99.0</ele><time>2026-04-04T08:46:30.001Z</time></trkpt><trkpt lat="45.37840013990897" lon="9.141471097710463"><ele>99.0</ele><time>2026-04-04T08:46:32.001Z</time></trkpt><trkpt lat="45.37849279266241" lon="9.141524750696771"><ele>99.0</ele><time>2026-04-04T08:46:34.001Z</time></trkpt><trkpt lat="45.37857913407439" lon="9.141564823503117"><ele>99.0</ele><time>2026-04-04T08:46:36.001Z</time></trkpt><trkpt lat="45.378663333482486" lon="9.141611080081727"><ele>99.0</ele><time>2026-04-04T08:46:38.001Z</time></trkpt><trkpt lat="45.37875087133748" lon="9.141663698642828"><ele>99.0</ele><time>2026-04-04T08:46:40.001Z</time></trkpt><trkpt lat="45.37883711063942" lon="9.141715461651671"><ele>99.0</ele><time>2026-04-04T08:46:42.001Z</time></trkpt><trkpt lat="45.378928421774845" lon="9.14176066196366"><ele>99.0</ele><time>2026-04-04T08:46:44.001Z</time></trkpt><trkpt lat="45.37901615513497" lon="9.141812554721428"><ele>99.2</ele><time>2026-04-04T08:46:46.001Z</time></trkpt><trkpt lat="45.379111519909735" lon="9.141861662177948"><ele>99.4</ele><time>2026-04-04T08:46:48.001Z</time></trkpt><trkpt lat="45.37920553906048" lon="9.141909271969622"><ele>99.6</ele><time>2026-04-04T08:46:50.001Z</time></trkpt><trkpt lat="45.37930669780618" lon="9.141947877228205"><ele>99.8</ele><time>2026-04-04T08:46:52.001Z</time></trkpt><trkpt lat="45.37940676825365" lon="9.142009091054128"><ele>100.0</ele><time>2026-04-04T08:46:54.001Z</time></trkpt><trkpt lat="45.379510545366756" lon="9.142081328883917"><ele>100.0</ele><time>2026-04-04T08:46:56.001Z</time></trkpt><trkpt lat="45.37961878467871" lon="9.142140889045606"><ele>100.0</ele><time>2026-04-04T08:46:58.001Z</time></trkpt><trkpt lat="45.379706003017816" lon="9.142186893833403"><ele>100.0</ele><time>2026-04-04T08:47:00.001Z</time></trkpt><trkpt lat="45.37979348458962" lon="9.14223305948014"><ele>100.0</ele><time>2026-04-04T08:47:03.001Z</time></trkpt><trkpt lat="45.37985509049346" lon="9.142283016106893"><ele>100.0</ele><time>2026-04-04T08:47:04.001Z</time></trkpt><trkpt lat="45.37995993531089" lon="9.1423350997049"><ele>100.8</ele><time>2026-04-04T08:47:06.001Z</time></trkpt><trkpt lat="45.38005644610677" lon="9.142385447528696"><ele>101.6</ele><time>2026-04-04T08:47:08.001Z</time></trkpt><trkpt lat="45.380152538224536" lon="9.14243832610296"><ele>102.4</ele><time>2026-04-04T08:47:10.001Z</time></trkpt><trkpt lat="45.380235929228085" lon="9.14248686667921"><ele>103.2</ele><time>2026-04-04T08:47:12.001Z</time></trkpt><trkpt lat="45.38031066688052" lon="9.142527421335766"><ele>104.0</ele><time>2026-04-04T08:47:14.001Z</time></trkpt><trkpt lat="45.38039910369497" lon="9.142560837298324"><ele>103.99999999999999</ele><time>2026-04-04T08:47:17.001Z</time></trkpt><trkpt lat="45.38048016580638" lon="9.142599823722662"><ele>104.0</ele><time>2026-04-04T08:47:20.002Z</time></trkpt><trkpt lat="45.38056303665777" lon="9.14263747868083"><ele>104.0</ele><time>2026-04-04T08:47:23.002Z</time></trkpt><trkpt lat="45.38063981426752" lon="9.142691112885784"><ele>104.0</ele><time>2026-04-04T08:47:26.002Z</time></trkpt><trkpt lat="45.38071866096068" lon="9.142739277186541"><ele>103.99999999999999</ele><time>2026-04-04T08:47:29.002Z</time></trkpt><trkpt lat="45.38080877569342" lon="9.142792795376838"><ele>104.0</ele><time>2026-04-04T08:47:32.002Z</time></trkpt><trkpt lat="45.380876852180954" lon="9.142835486376915"><ele>104.16666666666666</ele><time>2026-04-04T08:47:34.002Z</time></trkpt><trkpt lat="45.38095042327425" lon="9.142881344485485"><ele>104.33333333333333</ele><time>2026-04-04T08:47:36.002Z</time></trkpt><trkpt lat="45.38102220593138" lon="9.14292022523686"><ele>104.5</ele><time>2026-04-04T08:47:38.001Z</time></trkpt><trkpt lat="45.38109129630038" lon="9.14295540836249"><ele>104.66666666666666</ele><time>2026-04-04T08:47:40.001Z</time></trkpt><trkpt lat="45.381155065054486" lon="9.142995696072793"><ele>104.83333333333333</ele><time>2026-04-04T08:47:42.001Z</time></trkpt><trkpt lat="45.3812366246971" lon="9.143044115888372"><ele>105.0</ele><time>2026-04-04T08:47:44.001Z</time></trkpt><trkpt lat="45.38132033928484" lon="9.143091161112057"><ele>105.0</ele><time>2026-04-04T08:47:46.001Z</time></trkpt><trkpt lat="45.381410280673904" lon="9.143134231728085"><ele>105.0</ele><time>2026-04-04T08:47:48.001Z</time></trkpt><trkpt lat="45.38149364078581" lon="9.143180517542032"><ele>105.0</ele><time>2026-04-04T08:47:50.001Z</time></trkpt><trkpt lat="45.381567078160494" lon="9.143215157734245"><ele>105.0</ele><time>2026-04-04T08:47:52.001Z</time></trkpt><trkpt lat="45.38163653907486" lon="9.143268441797654"><ele>105.0</ele><time>2026-04-04T08:47:54.001Z</time></trkpt><trkpt lat="45.38171115331387" lon="9.143314817032161"><ele>105.0</ele><time>2026-04-04T08:47:56.001Z</time></trkpt><trkpt lat="45.38178429956969" lon="9.143359428363508"><ele>105.0</ele><time>2026-04-04T08:47:58.001Z</time></trkpt><trkpt lat="45.3818586201985" lon="9.143403431995024"><ele>105.0</ele><time>2026-04-04T08:48:00.001Z</time></trkpt><trkpt lat="45.38193265272619" lon="9.143453059361065"><ele>105.0</ele><time>2026-04-04T08:48:02.001Z</time></trkpt><trkpt lat="45.38201579867907" lon="9.143491260453132"><ele>105.0</ele><time>2026-04-04T08:48:04.001Z</time></trkpt><trkpt lat="45.382106836574394" lon="9.143545809341447"><ele>105.0</ele><time>2026-04-04T08:48:06.001Z</time></trkpt><trkpt lat="45.382195066552065" lon="9.143591061941224"><ele>105.0</ele><time>2026-04-04T08:48:08.001Z</time></trkpt><trkpt lat="45.382286688748145" lon="9.14363415649062"><ele>104.4</ele><time>2026-04-04T08:48:10.001Z</time></trkpt><trkpt lat="45.38237787563607" lon="9.143682556452928"><ele>103.8</ele><time>2026-04-04T08:48:12.001Z</time></trkpt><trkpt lat="45.38247187401363" lon="9.143731246788938"><ele>103.19999999999999</ele><time>2026-04-04T08:48:14.001Z</time></trkpt><trkpt lat="45.38255475966493" lon="9.14378567320032"><ele>102.6</ele><time>2026-04-04T08:48:16Z</time></trkpt><trkpt lat="45.38263702021192" lon="9.143834581234767"><ele>102.0</ele><time>2026-04-04T08:48:18Z</time></trkpt><trkpt lat="45.382727039795945" lon="9.143882759630909"><ele>102.0</ele><time>2026-04-04T08:48:20Z</time></trkpt><trkpt lat="45.38281818411388" lon="9.143934954205498"><ele>102.0</ele><time>2026-04-04T08:48:22Z</time></trkpt><trkpt lat="45.382915583426744" lon="9.14397924971045"><ele>102.0</ele><time>2026-04-04T08:48:24Z</time></trkpt><trkpt lat="45.38300835031077" lon="9.144021916596401"><ele>102.0</ele><time>2026-04-04T08:48:26Z</time></trkpt><trkpt lat="45.383099812186856" lon="9.144078442072782"><ele>102.0</ele><time>2026-04-04T08:48:28Z</time></trkpt><trkpt lat="45.3831830807046" lon="9.14413226101188"><ele>101.8</ele><time>2026-04-04T08:48:30Z</time></trkpt><trkpt lat="45.3832775491136" lon="9.144176254132667"><ele>101.6</ele><time>2026-04-04T08:48:32Z</time></trkpt><trkpt lat="45.38337575187513" lon="9.14423382042951"><ele>101.39999999999999</ele><time>2026-04-04T08:48:34Z</time></trkpt><trkpt lat="45.38346680654085" lon="9.144282500302904"><ele>101.19999999999999</ele><time>2026-04-04T08:48:36Z</time></trkpt><trkpt lat="45.383565710450426" lon="9.144319684196612"><ele>101.0</ele><time>2026-04-04T08:48:38Z</time></trkpt><trkpt lat="45.38366105719987" lon="9.144373925304116"><ele>101.0</ele><time>2026-04-04T08:48:40Z</time></trkpt><trkpt lat="45.38375860009657" lon="9.144419554919727"><ele>101.0</ele><time>2026-04-04T08:48:42Z</time></trkpt><trkpt lat="45.38384770248766" lon="9.144479096911363"><ele>101.0</ele><time>2026-04-04T08:48:44Z</time></trkpt><trkpt lat="45.383937191939005" lon="9.144528847975744"><ele>101.0</ele><time>2026-04-04T08:48:46Z</time></trkpt><trkpt lat="45.3840056068969" lon="9.14456792719952"><ele>101.0</ele><time>2026-04-04T08:48:48Z</time></trkpt><trkpt lat="45.38407687573915" lon="9.144617436833387"><ele>100.83333333333333</ele><time>2026-04-04T08:48:50Z</time></trkpt><trkpt lat="45.38414976213233" lon="9.144650262655368"><ele>100.66666666666666</ele><time>2026-04-04T08:48:52Z</time></trkpt><trkpt lat="45.38422273266735" lon="9.144685335196206"><ele>100.5</ele><time>2026-04-04T08:48:54Z</time></trkpt><trkpt lat="45.384304645329394" lon="9.144737186172804"><ele>100.33333333333334</ele><time>2026-04-04T08:48:56Z</time></trkpt><trkpt lat="45.384392223167374" lon="9.144777336751078"><ele>100.16666666666667</ele><time>2026-04-04T08:48:58Z</time></trkpt><trkpt lat="45.38447106700339" lon="9.144833734999006"><ele>100.0</ele><time>2026-04-04T08:49:00Z</time></trkpt><trkpt lat="45.38455040535421" lon="9.144880046388392"><ele>100.4</ele><time>2026-04-04T08:49:02Z</time></trkpt><trkpt lat="45.38464142372655" lon="9.14492626865116"><ele>100.8</ele><time>2026-04-04T08:49:04Z</time></trkpt><trkpt lat="45.38472566622526" lon="9.144970600498395"><ele>101.19999999999999</ele><time>2026-04-04T08:49:06Z</time></trkpt><trkpt lat="45.384822056799045" lon="9.145028355052725"><ele>101.6</ele><time>2026-04-04T08:49:08Z</time></trkpt><trkpt lat="45.38491137777887" lon="9.145085512936655"><ele>102.0</ele><time>2026-04-04T08:49:10Z</time></trkpt><trkpt lat="45.385007632993116" lon="9.145138594304944"><ele>102.19999999999999</ele><time>2026-04-04T08:49:12Z</time></trkpt><trkpt lat="45.38509541119778" lon="9.145188034525216"><ele>102.4</ele><time>2026-04-04T08:49:14Z</time></trkpt><trkpt lat="45.38518615347532" lon="9.14524063650569"><ele>102.6</ele><time>2026-04-04T08:49:16Z</time></trkpt><trkpt lat="45.385274509465034" lon="9.145288993847506"><ele>102.80000000000001</ele><time>2026-04-04T08:49:18Z</time></trkpt><trkpt lat="45.38537356970764" lon="9.145343008515692"><ele>103.0</ele><time>2026-04-04T08:49:20Z</time></trkpt><trkpt lat="45.38546469323848" lon="9.14540842137331"><ele>103.0</ele><time>2026-04-04T08:49:22Z</time></trkpt><trkpt lat="45.38554460925604" lon="9.145449121376975"><ele>103.0</ele><time>2026-04-04T08:49:24.001Z</time></trkpt><trkpt lat="45.38563818261169" lon="9.145499383617054"><ele>103.0</ele><time>2026-04-04T08:49:26.001Z</time></trkpt><trkpt lat="45.385737426477654" lon="9.145555575900046"><ele>103.0</ele><time>2026-04-04T08:49:28.001Z</time></trkpt><trkpt lat="45.3858278364027" lon="9.14560460831357"><ele>103.0</ele><time>2026-04-04T08:49:30.001Z</time></trkpt><trkpt lat="45.38592413011391" lon="9.14565607896428"><ele>103.0</ele><time>2026-04-04T08:49:32.001Z</time></trkpt><trkpt lat="45.38601772797363" lon="9.145704661045528"><ele>103.0</ele><time>2026-04-04T08:49:34.001Z</time></trkpt><trkpt lat="45.3861075305125" lon="9.145744035750116"><ele>103.0</ele><time>2026-04-04T08:49:36.001Z</time></trkpt><trkpt lat="45.38619200800343" lon="9.145780154548888"><ele>103.0</ele><time>2026-04-04T08:49:38.001Z</time></trkpt><trkpt lat="45.38626231044235" lon="9.145832377558534"><ele>103.0</ele><time>2026-04-04T08:49:40.001Z</time></trkpt><trkpt lat="45.38637311525073" lon="9.145894169295941"><ele>103.60000000000001</ele><time>2026-04-04T08:49:42.001Z</time></trkpt><trkpt lat="45.386486019917506" lon="9.145947925671512"><ele>104.2</ele><time>2026-04-04T08:49:44.001Z</time></trkpt><trkpt lat="45.38657998333781" lon="9.14600575944071"><ele>104.8</ele><time>2026-04-04T08:49:46.001Z</time></trkpt><trkpt lat="45.38667963117538" lon="9.146068878383932"><ele>105.4</ele><time>2026-04-04T08:49:48.001Z</time></trkpt><trkpt lat="45.386792578491146" lon="9.146116758356559"><ele>106.0</ele><time>2026-04-04T08:49:50.001Z</time></trkpt><trkpt lat="45.38690497238168" lon="9.146151689053296"><ele>106.0</ele><time>2026-04-04T08:49:52.001Z</time></trkpt><trkpt lat="45.38701318079094" lon="9.1461865123133"><ele>106.0</ele><time>2026-04-04T08:49:54.001Z</time></trkpt><trkpt lat="45.387117393010875" lon="9.146247584464952"><ele>106.0</ele><time>2026-04-04T08:49:56.001Z</time></trkpt><trkpt lat="45.387211129694165" lon="9.14630722145385"><ele>106.0</ele><time>2026-04-04T08:49:58.001Z</time></trkpt><trkpt lat="45.38730956060463" lon="9.146384150256232"><ele>106.0</ele><time>2026-04-04T08:50:00.001Z</time></trkpt><trkpt lat="45.38740795121657" lon="9.146461506050208"><ele>105.5</ele><time>2026-04-04T08:50:02.001Z</time></trkpt><trkpt lat="45.38751796629605" lon="9.146524601757966"><ele>105.0</ele><time>2026-04-04T08:50:04Z</time></trkpt><trkpt lat="45.38762286714792" lon="9.146581870495382"><ele>104.5</ele><time>2026-04-04T08:50:06Z</time></trkpt><trkpt lat="45.38773216837988" lon="9.146633285606965"><ele>104.0</ele><time>2026-04-04T08:50:08Z</time></trkpt><trkpt lat="45.38783415789166" lon="9.146694422016484"><ele>103.80000000000001</ele><time>2026-04-04T08:50:10Z</time></trkpt><trkpt lat="45.38793756303627" lon="9.146751871096475"><ele>103.60000000000001</ele><time>2026-04-04T08:50:12Z</time></trkpt><trkpt lat="45.38803966830052" lon="9.146812104218515"><ele>103.4</ele><time>2026-04-04T08:50:14Z</time></trkpt><trkpt lat="45.3881410445839" lon="9.146869662604612"><ele>103.2</ele><time>2026-04-04T08:50:16Z</time></trkpt><trkpt lat="45.38824570519468" lon="9.14692973397553"><ele>103.0</ele><time>2026-04-04T08:50:18Z</time></trkpt><trkpt lat="45.388345399439665" lon="9.146984008063834"><ele>102.80000000000001</ele><time>2026-04-04T08:50:20Z</time></trkpt><trkpt lat="45.38844772098052" lon="9.147041821233787"><ele>102.6</ele><time>2026-04-04T08:50:22Z</time></trkpt><trkpt lat="45.388553513588086" lon="9.147099675211114"><ele>102.4</ele><time>2026-04-04T08:50:24Z</time></trkpt><trkpt lat="45.388656133412276" lon="9.147164452194055"><ele>102.19999999999999</ele><time>2026-04-04T08:50:26Z</time></trkpt><trkpt lat="45.38876167111712" lon="9.147222528566862"><ele>102.0</ele><time>2026-04-04T08:50:28Z</time></trkpt><trkpt lat="45.38886186921809" lon="9.147276605525681"><ele>102.0</ele><time>2026-04-04T08:50:30Z</time></trkpt><trkpt lat="45.38896457364948" lon="9.147332000242292"><ele>102.0</ele><time>2026-04-04T08:50:32Z</time></trkpt><trkpt lat="45.38906520649865" lon="9.147386346223273"><ele>102.0</ele><time>2026-04-04T08:50:34Z</time></trkpt><trkpt lat="45.3891646703887" lon="9.147449086494085"><ele>102.0</ele><time>2026-04-04T08:50:36Z</time></trkpt><trkpt lat="45.38926587878693" lon="9.147506393925463"><ele>102.0</ele><time>2026-04-04T08:50:38Z</time></trkpt><trkpt lat="45.38936769687694" lon="9.147558808308125"><ele>102.0</ele><time>2026-04-04T08:50:40Z</time></trkpt><trkpt lat="45.38946499150663" lon="9.147606137500858"><ele>102.0</ele><time>2026-04-04T08:50:42Z</time></trkpt><trkpt lat="45.389565690016255" lon="9.14766602824743"><ele>102.0</ele><time>2026-04-04T08:50:44Z</time></trkpt><trkpt lat="45.38966143877509" lon="9.147720124314308"><ele>102.0</ele><time>2026-04-04T08:50:46Z</time></trkpt><trkpt lat="45.389760460629006" lon="9.147768979199215"><ele>102.0</ele><time>2026-04-04T08:50:48Z</time></trkpt><trkpt lat="45.38985819639037" lon="9.147824769272257"><ele>101.8</ele><time>2026-04-04T08:50:50Z</time></trkpt><trkpt lat="45.38995689299908" lon="9.147879055404658"><ele>101.6</ele><time>2026-04-04T08:50:52Z</time></trkpt><trkpt lat="45.39005578602661" lon="9.147930700341826"><ele>101.39999999999999</ele><time>2026-04-04T08:50:54Z</time></trkpt><trkpt lat="45.390145307303854" lon="9.147981932978189"><ele>101.19999999999999</ele><time>2026-04-04T08:50:56Z</time></trkpt><trkpt lat="45.39022653162849" lon="9.14802862950574"><ele>101.0</ele><time>2026-04-04T08:50:58Z</time></trkpt><trkpt lat="45.39030835778799" lon="9.148073082645656"><ele>100.99999999999999</ele><time>2026-04-04T08:51:00Z</time></trkpt><trkpt lat="45.39038635849686" lon="9.148118596266125"><ele>101.0</ele><time>2026-04-04T08:51:02Z</time></trkpt><trkpt lat="45.3904683205566" lon="9.148159654275615"><ele>101.0</ele><time>2026-04-04T08:51:04Z</time></trkpt><trkpt lat="45.390542231805824" lon="9.148189266412619"><ele>101.0</ele><time>2026-04-04T08:51:06Z</time></trkpt><trkpt lat="45.39061462378392" lon="9.148224054125494"><ele>100.99999999999999</ele><time>2026-04-04T08:51:08Z</time></trkpt><trkpt lat="45.39068204397751" lon="9.148269047424488"><ele>101.0</ele><time>2026-04-04T08:51:11Z</time></trkpt><trkpt lat="45.390737876106485" lon="9.148312433366199"><ele>102.19999999999999</ele><time>2026-04-04T08:51:13Z</time></trkpt><trkpt lat="45.39081021678497" lon="9.148351957773226"><ele>103.39999999999999</ele><time>2026-04-04T08:51:15Z</time></trkpt><trkpt lat="45.390891201630666" lon="9.148407936901283"><ele>104.6</ele><time>2026-04-04T08:51:17Z</time></trkpt><trkpt lat="45.39098063421284" lon="9.14846427527938"><ele>105.8</ele><time>2026-04-04T08:51:18.999Z</time></trkpt><trkpt lat="45.39108582537109" lon="9.148525231569035"><ele>107.0</ele><time>2026-04-04T08:51:20.999Z</time></trkpt><trkpt lat="45.39119136833388" lon="9.148589828104402"><ele>107.0</ele><time>2026-04-04T08:51:22.999Z</time></trkpt><trkpt lat="45.391294705740364" lon="9.148655170695372"><ele>106.99999999999999</ele><time>2026-04-04T08:51:24.999Z</time></trkpt><trkpt lat="45.391396946005706" lon="9.148711631730835"><ele>106.99999999999999</ele><time>2026-04-04T08:51:26.999Z</time></trkpt><trkpt lat="45.391490218647306" lon="9.148770533765168"><ele>107.0</ele><time>2026-04-04T08:51:28.999Z</time></trkpt><trkpt lat="45.39158952299858" lon="9.14883375155133"><ele>107.0</ele><time>2026-04-04T08:51:31.001Z</time></trkpt><trkpt lat="45.39168221828572" lon="9.148892096142436"><ele>106.8</ele><time>2026-04-04T08:51:33.001Z</time></trkpt><trkpt lat="45.39177564127625" lon="9.148949768708174"><ele>106.6</ele><time>2026-04-04T08:51:35.001Z</time></trkpt><trkpt lat="45.39186926879586" lon="9.149000011505729"><ele>106.39999999999999</ele><time>2026-04-04T08:51:37.001Z</time></trkpt><trkpt lat="45.391970671558745" lon="9.149052028987533"><ele>106.19999999999999</ele><time>2026-04-04T08:51:39.001Z</time></trkpt><trkpt lat="45.39207316186028" lon="9.149114311335122"><ele>106.0</ele><time>2026-04-04T08:51:41.001Z</time></trkpt><trkpt lat="45.392175798484864" lon="9.149173894483258"><ele>106.0</ele><time>2026-04-04T08:51:43.001Z</time></trkpt><trkpt lat="45.39228040555166" lon="9.149231593896914"><ele>106.0</ele><time>2026-04-04T08:51:45.001Z</time></trkpt><trkpt lat="45.392377512703" lon="9.149296595156342"><ele>106.0</ele><time>2026-04-04T08:51:47.001Z</time></trkpt><trkpt lat="45.39245441649551" lon="9.149338808868784"><ele>106.0</ele><time>2026-04-04T08:51:49.001Z</time></trkpt><trkpt lat="45.392522480190166" lon="9.149371119363423"><ele>106.0</ele><time>2026-04-04T08:51:51.001Z</time></trkpt><trkpt lat="45.392597470342665" lon="9.149439620898194"><ele>106.0</ele><time>2026-04-04T08:51:54Z</time></trkpt><trkpt lat="45.39271787609373" lon="9.149498570600656"><ele>106.0</ele><time>2026-04-04T08:51:56Z</time></trkpt><trkpt lat="45.39283401118325" lon="9.149562789997331"><ele>106.0</ele><time>2026-04-04T08:51:58Z</time></trkpt><trkpt lat="45.392932377243575" lon="9.149619186393284"><ele>106.0</ele><time>2026-04-04T08:52:00Z</time></trkpt><trkpt lat="45.39303784659173" lon="9.149676784805452"><ele>106.19999999999999</ele><time>2026-04-04T08:52:02Z</time></trkpt><trkpt lat="45.3931369469677" lon="9.149740702163887"><ele>106.39999999999999</ele><time>2026-04-04T08:52:04Z</time></trkpt><trkpt lat="45.393231000179135" lon="9.149801713974705"><ele>106.6</ele><time>2026-04-04T08:52:06Z</time></trkpt><trkpt lat="45.3933294451335" lon="9.149852659261143"><ele>106.8</ele><time>2026-04-04T08:52:08Z</time></trkpt><trkpt lat="45.39342933676783" lon="9.149909796586485"><ele>107.0</ele><time>2026-04-04T08:52:10Z</time></trkpt><trkpt lat="45.39353495211065" lon="9.149961871660418"><ele>107.0</ele><time>2026-04-04T08:52:12Z</time></trkpt><trkpt lat="45.393589035720815" lon="9.150010272118058"><ele>106.99999999999999</ele><time>2026-04-04T08:52:13Z</time></trkpt><trkpt lat="45.39370354841543" lon="9.150077632268847"><ele>106.99999999999999</ele><time>2026-04-04T08:52:15Z</time></trkpt><trkpt lat="45.393803249776354" lon="9.150152870007805"><ele>107.0</ele><time>2026-04-04T08:52:17Z</time></trkpt><trkpt lat="45.39391468717434" lon="9.150208331712598"><ele>107.0</ele><time>2026-04-04T08:52:19Z</time></trkpt><trkpt lat="45.394017271225835" lon="9.150275575687498"><ele>107.19999999999999</ele><time>2026-04-04T08:52:21Z</time></trkpt><trkpt lat="45.39411617094205" lon="9.15032531235524"><ele>107.39999999999999</ele><time>2026-04-04T08:52:23Z</time></trkpt><trkpt lat="45.394206737904305" lon="9.150393786200992"><ele>107.60000000000001</ele><time>2026-04-04T08:52:25Z</time></trkpt><trkpt lat="45.39430781580653" lon="9.150454438559265"><ele>107.80000000000001</ele><time>2026-04-04T08:52:27Z</time></trkpt><trkpt lat="45.39440682076117" lon="9.15051211421401"><ele>108.0</ele><time>2026-04-04T08:52:29Z</time></trkpt><trkpt lat="45.39450394528937" lon="9.150559975969376"><ele>108.0</ele><time>2026-04-04T08:52:31Z</time></trkpt><trkpt lat="45.39455797861607" lon="9.150606992901748"><ele>108.00000000000001</ele><time>2026-04-04T08:52:32Z</time></trkpt><trkpt lat="45.394653171987045" lon="9.150673049446288"><ele>108.00000000000001</ele><time>2026-04-04T08:52:34Z</time></trkpt><trkpt lat="45.3947561058132" lon="9.15073359666343"><ele>108.0</ele><time>2026-04-04T08:52:36Z</time></trkpt><trkpt lat="45.394851266905576" lon="9.150801751270935"><ele>108.0</ele><time>2026-04-04T08:52:38Z</time></trkpt><trkpt lat="45.394944634073596" lon="9.150850276100964"><ele>107.80000000000001</ele><time>2026-04-04T08:52:40Z</time></trkpt><trkpt lat="45.39503928869182" lon="9.150910812670425"><ele>107.60000000000001</ele><time>2026-04-04T08:52:42Z</time></trkpt><trkpt lat="45.39513464042975" lon="9.150960331249454"><ele>107.39999999999999</ele><time>2026-04-04T08:52:44Z</time></trkpt><trkpt lat="45.39522100392494" lon="9.151019887698059"><ele>107.19999999999999</ele><time>2026-04-04T08:52:46Z</time></trkpt><trkpt lat="45.39530134718992" lon="9.151066288156363"><ele>107.0</ele><time>2026-04-04T08:52:48Z</time></trkpt><trkpt lat="45.39536814832238" lon="9.151119434806406"><ele>106.99999999999999</ele><time>2026-04-04T08:52:50Z</time></trkpt><trkpt lat="45.39543761811514" lon="9.151152192097742"><ele>107.0</ele><time>2026-04-04T08:52:51.999Z</time></trkpt><trkpt lat="45.39550145555644" lon="9.15118508707595"><ele>107.0</ele><time>2026-04-04T08:52:56.999Z</time></trkpt><trkpt lat="45.39558315638644" lon="9.151232949576695"><ele>107.0</ele><time>2026-04-04T08:53:00.999Z</time></trkpt><trkpt lat="45.395647425422545" lon="9.151273038107437"><ele>106.99999999999999</ele><time>2026-04-04T08:53:03.999Z</time></trkpt><trkpt lat="45.39573369624705" lon="9.151319988591954"><ele>107.0</ele><time>2026-04-04T08:53:06.999Z</time></trkpt><trkpt lat="45.39580868026298" lon="9.151370791717374"><ele>106.8</ele><time>2026-04-04T08:53:08.999Z</time></trkpt><trkpt lat="45.39589957459327" lon="9.151427299450203"><ele>106.6</ele><time>2026-04-04T08:53:10.999Z</time></trkpt><trkpt lat="45.395989983955666" lon="9.151481685563944"><ele>106.39999999999999</ele><time>2026-04-04T08:53:12.999Z</time></trkpt><trkpt lat="45.396071796279486" lon="9.151531852436442"><ele>106.19999999999999</ele><time>2026-04-04T08:53:14.999Z</time></trkpt><trkpt lat="45.3961499983396" lon="9.151587491664307"><ele>106.0</ele><time>2026-04-04T08:53:16.999Z</time></trkpt><trkpt lat="45.39622851366669" lon="9.1516277764955"><ele>106.16666666666667</ele><time>2026-04-04T08:53:18.999Z</time></trkpt><trkpt lat="45.39629586665966" lon="9.151675051633637"><ele>106.33333333333334</ele><time>2026-04-04T08:53:20.999Z</time></trkpt><trkpt lat="45.39637203006411" lon="9.15172847123198"><ele>106.5</ele><time>2026-04-04T08:53:22.999Z</time></trkpt><trkpt lat="45.396455017543744" lon="9.151781625297401"><ele>106.66666666666666</ele><time>2026-04-04T08:53:24.999Z</time></trkpt><trkpt lat="45.39654140487316" lon="9.15182846910488"><ele>106.83333333333333</ele><time>2026-04-04T08:53:26.999Z</time></trkpt><trkpt lat="45.39662364040859" lon="9.151882137038196"><ele>107.0</ele><time>2026-04-04T08:53:28.999Z</time></trkpt><trkpt lat="45.39670718075921" lon="9.15193416714789"><ele>107.0</ele><time>2026-04-04T08:53:30.999Z</time></trkpt><trkpt lat="45.396783943916724" lon="9.151972829742748"><ele>106.99999999999999</ele><time>2026-04-04T08:53:32.999Z</time></trkpt><trkpt lat="45.396868020208736" lon="9.152031024292542"><ele>106.99999999999999</ele><time>2026-04-04T08:53:34.999Z</time></trkpt><trkpt lat="45.39695935625566" lon="9.152077192975753"><ele>107.0</ele><time>2026-04-04T08:53:36.999Z</time></trkpt><trkpt lat="45.397040000492616" lon="9.152133378918206"><ele>107.0</ele><time>2026-04-04T08:53:38.999Z</time></trkpt><trkpt lat="45.39713444456792" lon="9.152187553751489"><ele>107.19999999999999</ele><time>2026-04-04T08:53:40.999Z</time></trkpt><trkpt lat="45.39722909559851" lon="9.152243498612412"><ele>107.39999999999999</ele><time>2026-04-04T08:53:42.999Z</time></trkpt><trkpt lat="45.39732161273916" lon="9.152296584334774"><ele>107.60000000000001</ele><time>2026-04-04T08:53:44.999Z</time></trkpt><trkpt lat="45.39741442230287" lon="9.152357683921895"><ele>107.80000000000001</ele><time>2026-04-04T08:53:46.999Z</time></trkpt><trkpt lat="45.39751788210419" lon="9.15240749773124"><ele>108.0</ele><time>2026-04-04T08:53:48.999Z</time></trkpt><trkpt lat="45.39760677759922" lon="9.152463380916897"><ele>108.4</ele><time>2026-04-04T08:53:50.999Z</time></trkpt><trkpt lat="45.39770126128783" lon="9.152514793350642"><ele>108.80000000000001</ele><time>2026-04-04T08:53:52.999Z</time></trkpt><trkpt lat="45.39779628783291" lon="9.152571833274965"><ele>109.2</ele><time>2026-04-04T08:53:54.999Z</time></trkpt><trkpt lat="45.397891990811516" lon="9.152627484002938"><ele>109.6</ele><time>2026-04-04T08:53:56.999Z</time></trkpt><trkpt lat="45.39798045101114" lon="9.152678411075627"><ele>110.0</ele><time>2026-04-04T08:53:58.999Z</time></trkpt><trkpt lat="45.398071825668936" lon="9.15274072443835"><ele>109.2</ele><time>2026-04-04T08:54:00.999Z</time></trkpt><trkpt lat="45.39815838537122" lon="9.152792510060262"><ele>108.4</ele><time>2026-04-04T08:54:02.999Z</time></trkpt><trkpt lat="45.39824644349771" lon="9.152845498407938"><ele>107.6</ele><time>2026-04-04T08:54:04.999Z</time></trkpt><trkpt lat="45.39833310857004" lon="9.152897509780006"><ele>106.8</ele><time>2026-04-04T08:54:06.998Z</time></trkpt><trkpt lat="45.39842437580211" lon="9.15295498095887"><ele>106.0</ele><time>2026-04-04T08:54:08.998Z</time></trkpt><trkpt lat="45.39852388019109" lon="9.153002438042162"><ele>106.0</ele><time>2026-04-04T08:54:10.998Z</time></trkpt><trkpt lat="45.39862183563262" lon="9.153061212409158"><ele>106.0</ele><time>2026-04-04T08:54:12.998Z</time></trkpt><trkpt lat="45.398724073881695" lon="9.153116036904024"><ele>106.0</ele><time>2026-04-04T08:54:14.998Z</time></trkpt><trkpt lat="45.39882223494475" lon="9.153171757502596"><ele>106.0</ele><time>2026-04-04T08:54:16.998Z</time></trkpt><trkpt lat="45.39892187696655" lon="9.153246718861295"><ele>106.0</ele><time>2026-04-04T08:54:18.998Z</time></trkpt><trkpt lat="45.39901917681681" lon="9.153316558329834"><ele>106.6</ele><time>2026-04-04T08:54:20.998Z</time></trkpt><trkpt lat="45.39911835408156" lon="9.153377645498733"><ele>107.19999999999999</ele><time>2026-04-04T08:54:22.998Z</time></trkpt><trkpt lat="45.39922078058199" lon="9.153439861119399"><ele>107.80000000000001</ele><time>2026-04-04T08:54:24.998Z</time></trkpt><trkpt lat="45.39931592934811" lon="9.153499678536019"><ele>108.4</ele><time>2026-04-04T08:54:26.998Z</time></trkpt><trkpt lat="45.39941551899457" lon="9.15356848008029"><ele>109.0</ele><time>2026-04-04T08:54:28.998Z</time></trkpt><trkpt lat="45.39951673352507" lon="9.153615050085657"><ele>109.0</ele><time>2026-04-04T08:54:30.998Z</time></trkpt><trkpt lat="45.399613962341746" lon="9.15367898826566"><ele>109.0</ele><time>2026-04-04T08:54:32.998Z</time></trkpt><trkpt lat="45.399714249925296" lon="9.153738069585522"><ele>109.0</ele><time>2026-04-04T08:54:34.998Z</time></trkpt><trkpt lat="45.399808138994025" lon="9.153791762855437"><ele>109.0</ele><time>2026-04-04T08:54:36.998Z</time></trkpt><trkpt lat="45.39990400817904" lon="9.153839161316226"><ele>109.0</ele><time>2026-04-04T08:54:38.998Z</time></trkpt><trkpt lat="45.399991376912915" lon="9.153894094602718"><ele>108.4</ele><time>2026-04-04T08:54:40.998Z</time></trkpt><trkpt lat="45.40009234513145" lon="9.15395083675439"><ele>107.80000000000001</ele><time>2026-04-04T08:54:42.998Z</time></trkpt><trkpt lat="45.400189692759355" lon="9.154012293828165"><ele>107.19999999999999</ele><time>2026-04-04T08:54:44.998Z</time></trkpt><trkpt lat="45.40028170591027" lon="9.15407962153878"><ele>106.6</ele><time>2026-04-04T08:54:46.998Z</time></trkpt><trkpt lat="45.40037795015766" lon="9.154137327607224"><ele>106.0</ele><time>2026-04-04T08:54:48.998Z</time></trkpt><trkpt lat="45.40047014580091" lon="9.154201978696378"><ele>105.6</ele><time>2026-04-04T08:54:50.998Z</time></trkpt><trkpt lat="45.40056555715831" lon="9.154251940857431"><ele>105.19999999999999</ele><time>2026-04-04T08:54:52.998Z</time></trkpt><trkpt lat="45.40066276015845" lon="9.154314152283714"><ele>104.80000000000001</ele><time>2026-04-04T08:54:54.998Z</time></trkpt><trkpt lat="45.4007573898739" lon="9.154368277760025"><ele>104.4</ele><time>2026-04-04T08:54:56.998Z</time></trkpt><trkpt lat="45.400849859882676" lon="9.1544216212422"><ele>104.0</ele><time>2026-04-04T08:54:58.998Z</time></trkpt><trkpt lat="45.400953309948136" lon="9.15448493336451"><ele>104.0</ele><time>2026-04-04T08:55:00.998Z</time></trkpt><trkpt lat="45.4010527334526" lon="9.154539631765019"><ele>104.0</ele><time>2026-04-04T08:55:02.998Z</time></trkpt><trkpt lat="45.40115772984324" lon="9.154607808732198"><ele>104.0</ele><time>2026-04-04T08:55:04.998Z</time></trkpt><trkpt lat="45.40125552946283" lon="9.154669666285184"><ele>104.0</ele><time>2026-04-04T08:55:06.998Z</time></trkpt><trkpt lat="45.40135215769874" lon="9.15473450716925"><ele>104.0</ele><time>2026-04-04T08:55:08.998Z</time></trkpt><trkpt lat="45.40144802310087" lon="9.154791145962049"><ele>104.6</ele><time>2026-04-04T08:55:10.998Z</time></trkpt><trkpt lat="45.40153514258489" lon="9.154853633219437"><ele>105.2</ele><time>2026-04-04T08:55:12.998Z</time></trkpt><trkpt lat="45.401633787172116" lon="9.154905397404724"><ele>105.79999999999998</ele><time>2026-04-04T08:55:14.998Z</time></trkpt><trkpt lat="45.40172899186603" lon="9.15495441782532"><ele>106.39999999999999</ele><time>2026-04-04T08:55:16.998Z</time></trkpt><trkpt lat="45.40181317326476" lon="9.15500738441046"><ele>107.0</ele><time>2026-04-04T08:55:18.998Z</time></trkpt><trkpt lat="45.401893588807674" lon="9.155060980767814"><ele>107.0</ele><time>2026-04-04T08:55:20.998Z</time></trkpt><trkpt lat="45.40198108907722" lon="9.155122631144756"><ele>106.99999999999999</ele><time>2026-04-04T08:55:22.997Z</time></trkpt><trkpt lat="45.402070611276" lon="9.155175317240882"><ele>106.99999999999999</ele><time>2026-04-04T08:55:24.997Z</time></trkpt><trkpt lat="45.402156623609265" lon="9.155230088015928"><ele>107.0</ele><time>2026-04-04T08:55:26.997Z</time></trkpt><trkpt lat="45.402251087555044" lon="9.155289161148824"><ele>107.0</ele><time>2026-04-04T08:55:28.997Z</time></trkpt><trkpt lat="45.40233100524768" lon="9.155332342427569"><ele>106.6</ele><time>2026-04-04T08:55:30.997Z</time></trkpt><trkpt lat="45.4024180631566" lon="9.155396019767116"><ele>106.19999999999999</ele><time>2026-04-04T08:55:32.997Z</time></trkpt><trkpt lat="45.402511068798894" lon="9.155448465860712"><ele>105.8</ele><time>2026-04-04T08:55:34.997Z</time></trkpt><trkpt lat="45.40258972775675" lon="9.15548842304421"><ele>105.4</ele><time>2026-04-04T08:55:36.997Z</time></trkpt><trkpt lat="45.40266205885627" lon="9.155552181865374"><ele>105.0</ele><time>2026-04-04T08:55:38.997Z</time></trkpt><trkpt lat="45.40274985445233" lon="9.155608730234817"><ele>105.0</ele><time>2026-04-04T08:55:40.997Z</time></trkpt><trkpt lat="45.40284631444975" lon="9.155655667611702"><ele>105.0</ele><time>2026-04-04T08:55:42.997Z</time></trkpt><trkpt lat="45.40294866171833" lon="9.155712349809283"><ele>105.0</ele><time>2026-04-04T08:55:44.997Z</time></trkpt><trkpt lat="45.40305030340371" lon="9.155775917746954"><ele>105.0</ele><time>2026-04-04T08:55:46.997Z</time></trkpt><trkpt lat="45.40315156955239" lon="9.155831575112856"><ele>105.0</ele><time>2026-04-04T08:55:48.997Z</time></trkpt><trkpt lat="45.40324360239436" lon="9.155884226559332"><ele>105.33333333333333</ele><time>2026-04-04T08:55:50.997Z</time></trkpt><trkpt lat="45.40332192538618" lon="9.15594155474717"><ele>105.66666666666666</ele><time>2026-04-04T08:55:52.997Z</time></trkpt><trkpt lat="45.40338058292612" lon="9.15600080554017"><ele>106.0</ele><time>2026-04-04T08:55:54.997Z</time></trkpt><trkpt lat="45.40345068802817" lon="9.156056034685658"><ele>106.33333333333333</ele><time>2026-04-04T08:55:56.997Z</time></trkpt><trkpt lat="45.403519938539716" lon="9.15608807872452"><ele>106.66666666666666</ele><time>2026-04-04T08:55:58.997Z</time></trkpt><trkpt lat="45.40362519466068" lon="9.15614214328323"><ele>107.0</ele><time>2026-04-04T08:56:00.997Z</time></trkpt><trkpt lat="45.40372572047158" lon="9.156194202705267"><ele>107.0</ele><time>2026-04-04T08:56:02.997Z</time></trkpt><trkpt lat="45.40381626197031" lon="9.156249410125683"><ele>106.99999999999999</ele><time>2026-04-04T08:56:04.997Z</time></trkpt><trkpt lat="45.4039161177784" lon="9.156302217568225"><ele>106.99999999999999</ele><time>2026-04-04T08:56:06.997Z</time></trkpt><trkpt lat="45.40401730032328" lon="9.156359435224239"><ele>107.0</ele><time>2026-04-04T08:56:08.997Z</time></trkpt><trkpt lat="45.404118709086845" lon="9.156411216361816"><ele>107.0</ele><time>2026-04-04T08:56:10.997Z</time></trkpt><trkpt lat="45.40421979380017" lon="9.156460489943244"><ele>107.0</ele><time>2026-04-04T08:56:12.997Z</time></trkpt><trkpt lat="45.40431951356476" lon="9.156528253116077"><ele>106.99999999999999</ele><time>2026-04-04T08:56:14.997Z</time></trkpt><trkpt lat="45.40442782635865" lon="9.156579196448506"><ele>106.99999999999999</ele><time>2026-04-04T08:56:16.997Z</time></trkpt><trkpt lat="45.404532326864135" lon="9.156639381721112"><ele>107.0</ele><time>2026-04-04T08:56:18.997Z</time></trkpt><trkpt lat="45.404634403238255" lon="9.15670281772853"><ele>107.0</ele><time>2026-04-04T08:56:20.997Z</time></trkpt><trkpt lat="45.40473828348679" lon="9.156774440564693"><ele>107.0</ele><time>2026-04-04T08:56:22.997Z</time></trkpt><trkpt lat="45.40484028267507" lon="9.156846300363567"><ele>106.99999999999999</ele><time>2026-04-04T08:56:24.997Z</time></trkpt><trkpt lat="45.404943491098926" lon="9.156908866694009"><ele>106.99999999999999</ele><time>2026-04-04T08:56:26.997Z</time></trkpt><trkpt lat="45.4050473368405" lon="9.156974157820786"><ele>107.0</ele><time>2026-04-04T08:56:28.997Z</time></trkpt><trkpt lat="45.40514910752039" lon="9.157032928890864"><ele>107.0</ele><time>2026-04-04T08:56:30.997Z</time></trkpt><trkpt lat="45.40524936605922" lon="9.157096812749973"><ele>107.0</ele><time>2026-04-04T08:56:32.997Z</time></trkpt><trkpt lat="45.40535300900041" lon="9.157156862152572"><ele>106.99999999999999</ele><time>2026-04-04T08:56:34.997Z</time></trkpt><trkpt lat="45.40545186159932" lon="9.157221473191154"><ele>106.99999999999999</ele><time>2026-04-04T08:56:36.997Z</time></trkpt><trkpt lat="45.405548151325206" lon="9.157281356433923"><ele>107.0</ele><time>2026-04-04T08:56:38.996Z</time></trkpt><trkpt lat="45.405634562109036" lon="9.157334577262473"><ele>107.0</ele><time>2026-04-04T08:56:40.996Z</time></trkpt><trkpt lat="45.4057250611374" lon="9.157388278208028"><ele>107.0</ele><time>2026-04-04T08:56:42.996Z</time></trkpt><trkpt lat="45.405814237377015" lon="9.157440917522528"><ele>106.99999999999999</ele><time>2026-04-04T08:56:44.996Z</time></trkpt><trkpt lat="45.40591197775531" lon="9.157501966043212"><ele>106.99999999999999</ele><time>2026-04-04T08:56:46.996Z</time></trkpt><trkpt lat="45.406009835896484" lon="9.157552409831103"><ele>107.0</ele><time>2026-04-04T08:56:48.996Z</time></trkpt><trkpt lat="45.40610818670442" lon="9.15761201148828"><ele>107.0</ele><time>2026-04-04T08:56:50.996Z</time></trkpt><trkpt lat="45.406199082327625" lon="9.157671365501638"><ele>107.0</ele><time>2026-04-04T08:56:52.996Z</time></trkpt><trkpt lat="45.40628289578563" lon="9.15771383859018"><ele>106.99999999999999</ele><time>2026-04-04T08:56:54.996Z</time></trkpt><trkpt lat="45.40636738941816" lon="9.157759298612472"><ele>106.99999999999999</ele><time>2026-04-04T08:56:56.996Z</time></trkpt><trkpt lat="45.40645644490345" lon="9.15781048650833"><ele>107.0</ele><time>2026-04-04T08:56:58.996Z</time></trkpt><trkpt lat="45.40655174827726" lon="9.157867243440757"><ele>107.0</ele><time>2026-04-04T08:57:00.996Z</time></trkpt><trkpt lat="45.4066440607248" lon="9.157923277006741"><ele>107.0</ele><time>2026-04-04T08:57:02.996Z</time></trkpt><trkpt lat="45.406738640820876" lon="9.157982735173896"><ele>106.99999999999999</ele><time>2026-04-04T08:57:04.996Z</time></trkpt><trkpt lat="45.40683316694132" lon="9.158041571873921"><ele>106.99999999999999</ele><time>2026-04-04T08:57:06.996Z</time></trkpt><trkpt lat="45.406927768056455" lon="9.158069656531353"><ele>107.0</ele><time>2026-04-04T08:57:08.996Z</time></trkpt><trkpt lat="45.40701565922932" lon="9.158123454649658"><ele>107.0</ele><time>2026-04-04T08:57:10.996Z</time></trkpt><trkpt lat="45.407108892496595" lon="9.15820059525272"><ele>106.6</ele><time>2026-04-04T08:57:12.996Z</time></trkpt><trkpt lat="45.40720215220266" lon="9.15826320883735"><ele>106.19999999999999</ele><time>2026-04-04T08:57:14.996Z</time></trkpt><trkpt lat="45.40729585064711" lon="9.158295528142164"><ele>105.8</ele><time>2026-04-04T08:57:16.996Z</time></trkpt><trkpt lat="45.407392388266196" lon="9.158336062071525"><ele>105.4</ele><time>2026-04-04T08:57:18.996Z</time></trkpt><trkpt lat="45.407492946101264" lon="9.15837645120588"><ele>105.0</ele><time>2026-04-04T08:57:20.996Z</time></trkpt><trkpt lat="45.407586882457295" lon="9.158420059795143"><ele>105.0</ele><time>2026-04-04T08:57:22.996Z</time></trkpt><trkpt lat="45.40767957120088" lon="9.15848862697958"><ele>105.0</ele><time>2026-04-04T08:57:24.996Z</time></trkpt><trkpt lat="45.407767736823544" lon="9.158571476181898"><ele>105.0</ele><time>2026-04-04T08:57:26.996Z</time></trkpt><trkpt lat="45.407855899138134" lon="9.158645571796393"><ele>105.0</ele><time>2026-04-04T08:57:28.996Z</time></trkpt><trkpt lat="45.40794294561823" lon="9.15871349571882"><ele>105.0</ele><time>2026-04-04T08:57:30.996Z</time></trkpt><trkpt lat="45.408018189735294" lon="9.158773915483847"><ele>104.83333333333333</ele><time>2026-04-04T08:57:32.996Z</time></trkpt><trkpt lat="45.4081043680396" lon="9.158808823414647"><ele>104.66666666666666</ele><time>2026-04-04T08:57:34.996Z</time></trkpt><trkpt lat="45.40818269521085" lon="9.158865650353704"><ele>104.5</ele><time>2026-04-04T08:57:36.996Z</time></trkpt><trkpt lat="45.408259201787196" lon="9.158904138711836"><ele>104.33333333333333</ele><time>2026-04-04T08:57:38.996Z</time></trkpt><trkpt lat="45.40833708711198" lon="9.158962901906687"><ele>104.16666666666666</ele><time>2026-04-04T08:57:40.996Z</time></trkpt><trkpt lat="45.40842031968732" lon="9.159021371391264"><ele>104.0</ele><time>2026-04-04T08:57:42.996Z</time></trkpt><trkpt lat="45.40849855712103" lon="9.159056880527825"><ele>104.0</ele><time>2026-04-04T08:57:44.996Z</time></trkpt><trkpt lat="45.40857776142664" lon="9.159104238952466"><ele>104.0</ele><time>2026-04-04T08:57:46.996Z</time></trkpt><trkpt lat="45.40866495275257" lon="9.159171924440757"><ele>104.0</ele><time>2026-04-04T08:57:48.996Z</time></trkpt><trkpt lat="45.408752461306555" lon="9.159229566098077"><ele>104.0</ele><time>2026-04-04T08:57:50.996Z</time></trkpt><trkpt lat="45.408846250964324" lon="9.159276182977"><ele>104.0</ele><time>2026-04-04T08:57:52.996Z</time></trkpt><trkpt lat="45.408937065141046" lon="9.159346670897538"><ele>104.2</ele><time>2026-04-04T08:57:54.995Z</time></trkpt><trkpt lat="45.40903156634042" lon="9.159402403466402"><ele>104.4</ele><time>2026-04-04T08:57:56.995Z</time></trkpt><trkpt lat="45.409121137676465" lon="9.159458950079662"><ele>104.6</ele><time>2026-04-04T08:57:58.995Z</time></trkpt><trkpt lat="45.40921701629501" lon="9.15951736962729"><ele>104.8</ele><time>2026-04-04T08:58:00.995Z</time></trkpt><trkpt lat="45.409306758213575" lon="9.159567911203487"><ele>105.0</ele><time>2026-04-04T08:58:02.995Z</time></trkpt><trkpt lat="45.40940088991806" lon="9.159625456923722"><ele>105.0</ele><time>2026-04-04T08:58:04.995Z</time></trkpt><trkpt lat="45.40950148852843" lon="9.15968772027827"><ele>105.0</ele><time>2026-04-04T08:58:06.995Z</time></trkpt><trkpt lat="45.40959505225338" lon="9.159736674004076"><ele>105.0</ele><time>2026-04-04T08:58:08.995Z</time></trkpt><trkpt lat="45.409688977948775" lon="9.159795861203717"><ele>105.0</ele><time>2026-04-04T08:58:10.995Z</time></trkpt><trkpt lat="45.409779655818234" lon="9.159852611690775"><ele>105.0</ele><time>2026-04-04T08:58:12.995Z</time></trkpt><trkpt lat="45.409866015854014" lon="9.15990873187688"><ele>104.8</ele><time>2026-04-04T08:58:14.995Z</time></trkpt><trkpt lat="45.40995521892684" lon="9.159969138878191"><ele>104.6</ele><time>2026-04-04T08:58:16.995Z</time></trkpt><trkpt lat="45.41004445685024" lon="9.160022044937312"><ele>104.4</ele><time>2026-04-04T08:58:18.995Z</time></trkpt><trkpt lat="45.410137590097136" lon="9.160074771150535"><ele>104.2</ele><time>2026-04-04T08:58:20.995Z</time></trkpt><trkpt lat="45.41023103806768" lon="9.160135175325241"><ele>104.0</ele><time>2026-04-04T08:58:22.995Z</time></trkpt><trkpt lat="45.41032918967386" lon="9.160196657955861"><ele>104.0</ele><time>2026-04-04T08:58:24.995Z</time></trkpt><trkpt lat="45.41042746053202" lon="9.16024865581976"><ele>104.0</ele><time>2026-04-04T08:58:26.995Z</time></trkpt><trkpt lat="45.41051955303092" lon="9.160303429463108"><ele>104.0</ele><time>2026-04-04T08:58:28.995Z</time></trkpt><trkpt lat="45.41061295689243" lon="9.160365460367979"><ele>104.0</ele><time>2026-04-04T08:58:30.995Z</time></trkpt><trkpt lat="45.41070575413853" lon="9.160418707089736"><ele>104.0</ele><time>2026-04-04T08:58:32.995Z</time></trkpt><trkpt lat="45.41079706380944" lon="9.160479276604812"><ele>104.0</ele><time>2026-04-04T08:58:34.995Z</time></trkpt><trkpt lat="45.41089753445661" lon="9.160533081251987"><ele>104.0</ele><time>2026-04-04T08:58:36.995Z</time></trkpt><trkpt lat="45.410996353237415" lon="9.160597395431758"><ele>104.0</ele><time>2026-04-04T08:58:38.995Z</time></trkpt><trkpt lat="45.41109407423856" lon="9.160655925588362"><ele>104.0</ele><time>2026-04-04T08:58:40.995Z</time></trkpt><trkpt lat="45.411191111102376" lon="9.160714607214446"><ele>104.0</ele><time>2026-04-04T08:58:42.995Z</time></trkpt><trkpt lat="45.41128998877647" lon="9.160777741396112"><ele>104.2</ele><time>2026-04-04T08:58:44.995Z</time></trkpt><trkpt lat="45.411396564386216" lon="9.160842868551063"><ele>104.4</ele><time>2026-04-04T08:58:46.995Z</time></trkpt><trkpt lat="45.41149327103093" lon="9.16090790266548"><ele>104.6</ele><time>2026-04-04T08:58:48.995Z</time></trkpt><trkpt lat="45.411591102965396" lon="9.160967500320618"><ele>104.8</ele><time>2026-04-04T08:58:50.995Z</time></trkpt><trkpt lat="45.41169512060481" lon="9.161026304103192"><ele>105.0</ele><time>2026-04-04T08:58:52.995Z</time></trkpt><trkpt lat="45.41179409188725" lon="9.161086175489705"><ele>105.0</ele><time>2026-04-04T08:58:54.995Z</time></trkpt><trkpt lat="45.41189654304993" lon="9.161147799762992"><ele>105.0</ele><time>2026-04-04T08:58:56.995Z</time></trkpt><trkpt lat="45.41199720062184" lon="9.161198942675842"><ele>105.0</ele><time>2026-04-04T08:58:58.995Z</time></trkpt><trkpt lat="45.41209948204217" lon="9.161258943472333"><ele>105.0</ele><time>2026-04-04T08:59:00.995Z</time></trkpt><trkpt lat="45.41219537933291" lon="9.16131671161463"><ele>105.0</ele><time>2026-04-04T08:59:02.995Z</time></trkpt><trkpt lat="45.41230266605897" lon="9.161380810531837"><ele>105.2</ele><time>2026-04-04T08:59:04.995Z</time></trkpt><trkpt lat="45.412401882018344" lon="9.161447894981803"><ele>105.4</ele><time>2026-04-04T08:59:06.995Z</time></trkpt><trkpt lat="45.412508607746986" lon="9.161513119857185"><ele>105.6</ele><time>2026-04-04T08:59:08.995Z</time></trkpt><trkpt lat="45.41261601574645" lon="9.161571411990892"><ele>105.8</ele><time>2026-04-04T08:59:10.994Z</time></trkpt><trkpt lat="45.412716568127834" lon="9.161625687565959"><ele>106.0</ele><time>2026-04-04T08:59:12.994Z</time></trkpt><trkpt lat="45.412811081156136" lon="9.161683118070286"><ele>106.0</ele><time>2026-04-04T08:59:14.994Z</time></trkpt><trkpt lat="45.41290690758942" lon="9.161744980356607"><ele>106.0</ele><time>2026-04-04T08:59:16.994Z</time></trkpt><trkpt lat="45.41300409178572" lon="9.16180557298689"><ele>106.0</ele><time>2026-04-04T08:59:18.994Z</time></trkpt><trkpt lat="45.41310869839239" lon="9.16186925704607"><ele>106.0</ele><time>2026-04-04T08:59:20.994Z</time></trkpt><trkpt lat="45.413213790095575" lon="9.161932195135739"><ele>106.0</ele><time>2026-04-04T08:59:22.994Z</time></trkpt><trkpt lat="45.413316374927" lon="9.161994559913"><ele>105.8</ele><time>2026-04-04T08:59:24.994Z</time></trkpt><trkpt lat="45.413416693428395" lon="9.162045282464174"><ele>105.6</ele><time>2026-04-04T08:59:26.994Z</time></trkpt><trkpt lat="45.41350834339255" lon="9.162097154880657"><ele>105.4</ele><time>2026-04-04T08:59:28.994Z</time></trkpt><trkpt lat="45.41359271254376" lon="9.162146027168202"><ele>105.2</ele><time>2026-04-04T08:59:30.994Z</time></trkpt><trkpt lat="45.41366727749421" lon="9.162191809263437"><ele>105.0</ele><time>2026-04-04T08:59:32.994Z</time></trkpt><trkpt lat="45.41375117053635" lon="9.162240092875637"><ele>105.16666666666667</ele><time>2026-04-04T08:59:34.994Z</time></trkpt><trkpt lat="45.41382787397406" lon="9.16227431300273"><ele>105.33333333333334</ele><time>2026-04-04T08:59:36.994Z</time></trkpt><trkpt lat="45.41389737379012" lon="9.162312217770342"><ele>105.5</ele><time>2026-04-04T08:59:38.994Z</time></trkpt><trkpt lat="45.41396431554426" lon="9.162360294026795"><ele>105.66666666666667</ele><time>2026-04-04T08:59:40.994Z</time></trkpt><trkpt lat="45.41402938812206" lon="9.162405133140748"><ele>105.83333333333334</ele><time>2026-04-04T08:59:42.994Z</time></trkpt><trkpt lat="45.41409709958783" lon="9.162443212254535"><ele>106.0</ele><time>2026-04-04T08:59:44.994Z</time></trkpt><trkpt lat="45.41417555136811" lon="9.162473767270416"><ele>106.4</ele><time>2026-04-04T08:59:46.994Z</time></trkpt><trkpt lat="45.41424968645869" lon="9.162533759122127"><ele>106.8</ele><time>2026-04-04T08:59:48.994Z</time></trkpt><trkpt lat="45.41432992835742" lon="9.162588798063036"><ele>107.20000000000002</ele><time>2026-04-04T08:59:50.994Z</time></trkpt><trkpt lat="45.414419863623344" lon="9.162644663230282"><ele>107.60000000000001</ele><time>2026-04-04T08:59:52.994Z</time></trkpt><trkpt lat="45.41451204224092" lon="9.162693335306482"><ele>108.0</ele><time>2026-04-04T08:59:54.994Z</time></trkpt><trkpt lat="45.41460750510171" lon="9.162752051520698"><ele>107.80000000000001</ele><time>2026-04-04T08:59:56.994Z</time></trkpt><trkpt lat="45.41470002628597" lon="9.162796424734967"><ele>107.60000000000001</ele><time>2026-04-04T08:59:58.994Z</time></trkpt><trkpt lat="45.41479167110959" lon="9.162853846728611"><ele>107.39999999999999</ele><time>2026-04-04T09:00:00.994Z</time></trkpt><trkpt lat="45.41487766400934" lon="9.162915994046173"><ele>107.19999999999999</ele><time>2026-04-04T09:00:02.994Z</time></trkpt><trkpt lat="45.414971375829055" lon="9.162970672943448"><ele>107.0</ele><time>2026-04-04T09:00:04.994Z</time></trkpt><trkpt lat="45.41505976478236" lon="9.163023558202164"><ele>107.0</ele><time>2026-04-04T09:00:06.994Z</time></trkpt><trkpt lat="45.415156991802924" lon="9.16306677893157"><ele>106.99999999999999</ele><time>2026-04-04T09:00:08.994Z</time></trkpt><trkpt lat="45.415259029806954" lon="9.163118364127891"><ele>106.99999999999999</ele><time>2026-04-04T09:00:10.994Z</time></trkpt><trkpt lat="45.415357454198606" lon="9.163176451487777"><ele>107.0</ele><time>2026-04-04T09:00:12.994Z</time></trkpt><trkpt lat="45.41545505151126" lon="9.163235741729867"><ele>107.0</ele><time>2026-04-04T09:00:14.994Z</time></trkpt><trkpt lat="45.415552813861325" lon="9.163289729493268"><ele>106.8</ele><time>2026-04-04T09:00:16.994Z</time></trkpt><trkpt lat="45.41565289062635" lon="9.1633435601404"><ele>106.6</ele><time>2026-04-04T09:00:18.994Z</time></trkpt><trkpt lat="45.415749006338466" lon="9.163404848256167"><ele>106.39999999999999</ele><time>2026-04-04T09:00:20.994Z</time></trkpt><trkpt lat="45.415831365320386" lon="9.163459626049843"><ele>106.19999999999999</ele><time>2026-04-04T09:00:22.994Z</time></trkpt><trkpt lat="45.415923607056946" lon="9.163511424222884"><ele>106.0</ele><time>2026-04-04T09:00:24.994Z</time></trkpt><trkpt lat="45.41601638261905" lon="9.163566867821503"><ele>106.0</ele><time>2026-04-04T09:00:26.993Z</time></trkpt><trkpt lat="45.416106003684334" lon="9.163614368011787"><ele>106.0</ele><time>2026-04-04T09:00:28.993Z</time></trkpt><trkpt lat="45.41619663146002" lon="9.163668328644647"><ele>106.0</ele><time>2026-04-04T09:00:30.993Z</time></trkpt><trkpt lat="45.416287311404766" lon="9.163728216915613"><ele>106.0</ele><time>2026-04-04T09:00:32.993Z</time></trkpt><trkpt lat="45.416379235184884" lon="9.16378295293171"><ele>106.0</ele><time>2026-04-04T09:00:34.993Z</time></trkpt><trkpt lat="45.41646833337483" lon="9.16383845126404"><ele>105.6</ele><time>2026-04-04T09:00:36.993Z</time></trkpt><trkpt lat="45.41656913115627" lon="9.163893553834022"><ele>105.19999999999999</ele><time>2026-04-04T09:00:38.993Z</time></trkpt><trkpt lat="45.41665826646653" lon="9.163961901188236"><ele>104.80000000000001</ele><time>2026-04-04T09:00:40.993Z</time></trkpt><trkpt lat="45.41675408568048" lon="9.164013998115314"><ele>104.4</ele><time>2026-04-04T09:00:42.993Z</time></trkpt><trkpt lat="45.41684838543345" lon="9.164067911109447"><ele>104.0</ele><time>2026-04-04T09:00:44.993Z</time></trkpt><trkpt lat="45.41694390144712" lon="9.164125919443059"><ele>104.0</ele><time>2026-04-04T09:00:46.993Z</time></trkpt><trkpt lat="45.417041655196144" lon="9.164180216866887"><ele>104.0</ele><time>2026-04-04T09:00:48.993Z</time></trkpt><trkpt lat="45.41713302833338" lon="9.164239327693531"><ele>104.0</ele><time>2026-04-04T09:00:50.993Z</time></trkpt><trkpt lat="45.417225504666156" lon="9.164288204195552"><ele>104.0</ele><time>2026-04-04T09:00:52.993Z</time></trkpt><trkpt lat="45.417316910248765" lon="9.164342470804131"><ele>104.0</ele><time>2026-04-04T09:00:54.993Z</time></trkpt><trkpt lat="45.417412959614715" lon="9.164390928411997"><ele>104.4</ele><time>2026-04-04T09:00:56.993Z</time></trkpt><trkpt lat="45.417502744583906" lon="9.164444375089309"><ele>104.80000000000001</ele><time>2026-04-04T09:00:58.993Z</time></trkpt><trkpt lat="45.41759744839708" lon="9.164491276643627"><ele>105.19999999999999</ele><time>2026-04-04T09:01:00.993Z</time></trkpt><trkpt lat="45.4176929401636" lon="9.164551249944804"><ele>105.6</ele><time>2026-04-04T09:01:02.993Z</time></trkpt><trkpt lat="45.41778718463219" lon="9.164607242715094"><ele>106.0</ele><time>2026-04-04T09:01:04.993Z</time></trkpt><trkpt lat="45.417887601492446" lon="9.164662421687673"><ele>106.4</ele><time>2026-04-04T09:01:06.993Z</time></trkpt><trkpt lat="45.417988565978284" lon="9.164716871690281"><ele>106.8</ele><time>2026-04-04T09:01:08.993Z</time></trkpt><trkpt lat="45.41808666743941" lon="9.164774549093234"><ele>107.20000000000002</ele><time>2026-04-04T09:01:10.993Z</time></trkpt><trkpt lat="45.418186324308635" lon="9.164827783706599"><ele>107.60000000000001</ele><time>2026-04-04T09:01:12.993Z</time></trkpt><trkpt lat="45.41828460862557" lon="9.164892693464754"><ele>108.0</ele><time>2026-04-04T09:01:14.993Z</time></trkpt><trkpt lat="45.418385897208616" lon="9.164946193484315"><ele>108.2</ele><time>2026-04-04T09:01:16.993Z</time></trkpt><trkpt lat="45.418483913990876" lon="9.164986094007922"><ele>108.4</ele><time>2026-04-04T09:01:18.993Z</time></trkpt><trkpt lat="45.4185757449063" lon="9.165039448056675"><ele>108.60000000000001</ele><time>2026-04-04T09:01:20.993Z</time></trkpt><trkpt lat="45.418675873619065" lon="9.165098487054824"><ele>108.80000000000001</ele><time>2026-04-04T09:01:22.993Z</time></trkpt><trkpt lat="45.41877527138505" lon="9.165151953615897"><ele>109.0</ele><time>2026-04-04T09:01:24.993Z</time></trkpt><trkpt lat="45.41887060340763" lon="9.16519629332362"><ele>108.2</ele><time>2026-04-04T09:01:26.993Z</time></trkpt><trkpt lat="45.41896692366322" lon="9.165258413229761"><ele>107.4</ele><time>2026-04-04T09:01:28.993Z</time></trkpt><trkpt lat="45.419060268777805" lon="9.165314326344804"><ele>106.6</ele><time>2026-04-04T09:01:30.993Z</time></trkpt><trkpt lat="45.4191596481376" lon="9.165374385317438"><ele>105.8</ele><time>2026-04-04T09:01:32.993Z</time></trkpt><trkpt lat="45.41924686887212" lon="9.165426455537936"><ele>105.0</ele><time>2026-04-04T09:01:34.993Z</time></trkpt><trkpt lat="45.419344814205" lon="9.165477827512913"><ele>105.0</ele><time>2026-04-04T09:01:36.993Z</time></trkpt><trkpt lat="45.41941865207519" lon="9.165527308512786"><ele>105.0</ele><time>2026-04-04T09:01:38.993Z</time></trkpt><trkpt lat="45.41951321698322" lon="9.165574462668523"><ele>105.0</ele><time>2026-04-04T09:01:40.993Z</time></trkpt><trkpt lat="45.41960650306801" lon="9.165619037072947"><ele>105.0</ele><time>2026-04-04T09:01:42.992Z</time></trkpt><trkpt lat="45.419703288527" lon="9.165673114796215"><ele>105.0</ele><time>2026-04-04T09:01:44.992Z</time></trkpt><trkpt lat="45.4197978214459" lon="9.165726815449062"><ele>105.2</ele><time>2026-04-04T09:01:46.992Z</time></trkpt><trkpt lat="45.4198950701631" lon="9.165772338385338"><ele>105.4</ele><time>2026-04-04T09:01:48.992Z</time></trkpt><trkpt lat="45.41998697457821" lon="9.165831088988062"><ele>105.6</ele><time>2026-04-04T09:01:50.992Z</time></trkpt><trkpt lat="45.420084582722446" lon="9.165879483536537"><ele>105.8</ele><time>2026-04-04T09:01:52.992Z</time></trkpt><trkpt lat="45.420169924560724" lon="9.165940655789036"><ele>106.0</ele><time>2026-04-04T09:01:54.992Z</time></trkpt><trkpt lat="45.42025795713431" lon="9.165999252623866"><ele>106.00000000000001</ele><time>2026-04-04T09:01:56.992Z</time></trkpt><trkpt lat="45.42035215258347" lon="9.166049121176185"><ele>106.0</ele><time>2026-04-04T09:01:58.992Z</time></trkpt><trkpt lat="45.420421419790316" lon="9.166083310569816"><ele>106.0</ele><time>2026-04-04T09:02:00.992Z</time></trkpt><trkpt lat="45.420500340687475" lon="9.166128338642613"><ele>106.0</ele><time>2026-04-04T09:02:02.992Z</time></trkpt><trkpt lat="45.42058127336032" lon="9.166176335022465"><ele>106.00000000000001</ele><time>2026-04-04T09:02:04.992Z</time></trkpt><trkpt lat="45.42065700081987" lon="9.166219631133604"><ele>106.0</ele><time>2026-04-04T09:02:06.992Z</time></trkpt><trkpt lat="45.420736920652956" lon="9.166274995434875"><ele>106.0</ele><time>2026-04-04T09:02:08.992Z</time></trkpt><trkpt lat="45.42082934763005" lon="9.16632763920863"><ele>106.0</ele><time>2026-04-04T09:02:10.992Z</time></trkpt><trkpt lat="45.42092369897663" lon="9.166376773856344"><ele>106.0</ele><time>2026-04-04T09:02:12.992Z</time></trkpt><trkpt lat="45.42101124848918" lon="9.166424568059751"><ele>106.0</ele><time>2026-04-04T09:02:14.992Z</time></trkpt><trkpt lat="45.42110328986827" lon="9.166490794361229"><ele>106.0</ele><time>2026-04-04T09:02:16.992Z</time></trkpt><trkpt lat="45.42119092264861" lon="9.166546107213847"><ele>106.4</ele><time>2026-04-04T09:02:18.992Z</time></trkpt><trkpt lat="45.42128335715818" lon="9.166601450312585"><ele>106.8</ele><time>2026-04-04T09:02:20.992Z</time></trkpt><trkpt lat="45.42137091711683" lon="9.166650296794954"><ele>107.20000000000002</ele><time>2026-04-04T09:02:22.992Z</time></trkpt><trkpt lat="45.42146535445992" lon="9.16669890749081"><ele>107.60000000000001</ele><time>2026-04-04T09:02:24.992Z</time></trkpt><trkpt lat="45.421557429807024" lon="9.166758567200336"><ele>108.0</ele><time>2026-04-04T09:02:26.992Z</time></trkpt><trkpt lat="45.42165319526789" lon="9.166810499159705"><ele>108.0</ele><time>2026-04-04T09:02:28.992Z</time></trkpt><trkpt lat="45.42175243347" lon="9.16686698839287"><ele>108.00000000000001</ele><time>2026-04-04T09:02:30.992Z</time></trkpt><trkpt lat="45.42183768722303" lon="9.166924928432497"><ele>108.00000000000001</ele><time>2026-04-04T09:02:32.992Z</time></trkpt><trkpt lat="45.42193415642057" lon="9.166986068734097"><ele>108.0</ele><time>2026-04-04T09:02:34.992Z</time></trkpt><trkpt lat="45.4220274652091" lon="9.167040467073871"><ele>108.0</ele><time>2026-04-04T09:02:36.992Z</time></trkpt><trkpt lat="45.422115199363034" lon="9.167093277073134"><ele>107.4</ele><time>2026-04-04T09:02:38.992Z</time></trkpt><trkpt lat="45.422198499919894" lon="9.167139133617392"><ele>106.80000000000001</ele><time>2026-04-04T09:02:40.992Z</time></trkpt><trkpt lat="45.42229417055173" lon="9.167191730559365"><ele>106.2</ele><time>2026-04-04T09:02:42.992Z</time></trkpt><trkpt lat="45.42238395843222" lon="9.167239722689459"><ele>105.6</ele><time>2026-04-04T09:02:44.992Z</time></trkpt><trkpt lat="45.422476874800566" lon="9.167287559767376"><ele>105.0</ele><time>2026-04-04T09:02:46.992Z</time></trkpt><trkpt lat="45.422567877580384" lon="9.16733463000077"><ele>105.4</ele><time>2026-04-04T09:02:48.992Z</time></trkpt><trkpt lat="45.42265174656712" lon="9.167390157462528"><ele>105.8</ele><time>2026-04-04T09:02:50.992Z</time></trkpt><trkpt lat="45.42274080002905" lon="9.167430780547585"><ele>106.19999999999999</ele><time>2026-04-04T09:02:52.992Z</time></trkpt><trkpt lat="45.42282645203357" lon="9.167481287821936"><ele>106.6</ele><time>2026-04-04T09:02:54.992Z</time></trkpt><trkpt lat="45.422915188785844" lon="9.16753931208717"><ele>107.0</ele><time>2026-04-04T09:02:56.992Z</time></trkpt><trkpt lat="45.423009618472385" lon="9.167583357672386"><ele>107.19999999999999</ele><time>2026-04-04T09:02:58.991Z</time></trkpt><trkpt lat="45.42310033283411" lon="9.167644529051731"><ele>107.39999999999999</ele><time>2026-04-04T09:03:00.991Z</time></trkpt><trkpt lat="45.423187575032394" lon="9.167703198988171"><ele>107.60000000000001</ele><time>2026-04-04T09:03:02.991Z</time></trkpt><trkpt lat="45.4232813156842" lon="9.167747444429374"><ele>107.80000000000001</ele><time>2026-04-04T09:03:04.991Z</time></trkpt><trkpt lat="45.42336848149867" lon="9.167796792382946"><ele>108.0</ele><time>2026-04-04T09:03:06.991Z</time></trkpt><trkpt lat="45.423460637125494" lon="9.16785361041002"><ele>108.0</ele><time>2026-04-04T09:03:08.991Z</time></trkpt><trkpt lat="45.42355898208934" lon="9.167905580866428"><ele>108.00000000000001</ele><time>2026-04-04T09:03:10.991Z</time></trkpt><trkpt lat="45.42365367630336" lon="9.167964331404185"><ele>108.00000000000001</ele><time>2026-04-04T09:03:12.991Z</time></trkpt><trkpt lat="45.42374973158093" lon="9.168029855231756"><ele>108.0</ele><time>2026-04-04T09:03:14.991Z</time></trkpt><trkpt lat="45.42385054090971" lon="9.168090991029628"><ele>108.0</ele><time>2026-04-04T09:03:16.991Z</time></trkpt><trkpt lat="45.42394847184922" lon="9.168154163549056"><ele>108.2</ele><time>2026-04-04T09:03:18.991Z</time></trkpt><trkpt lat="45.424056544324124" lon="9.168199923700955"><ele>108.4</ele><time>2026-04-04T09:03:20.991Z</time></trkpt><trkpt lat="45.424147468125916" lon="9.168256654200308"><ele>108.60000000000001</ele><time>2026-04-04T09:03:22.991Z</time></trkpt><trkpt lat="45.424246883316144" lon="9.168302969574862"><ele>108.80000000000001</ele><time>2026-04-04T09:03:24.991Z</time></trkpt><trkpt lat="45.424330417232305" lon="9.168349261423943"><ele>109.0</ele><time>2026-04-04T09:03:26.991Z</time></trkpt><trkpt lat="45.424406520723444" lon="9.16839094202329"><ele>109.0</ele><time>2026-04-04T09:03:28.991Z</time></trkpt><trkpt lat="45.424481882940825" lon="9.168437894633882"><ele>109.0</ele><time>2026-04-04T09:03:30.991Z</time></trkpt><trkpt lat="45.424565275480916" lon="9.168486705287552"><ele>109.0</ele><time>2026-04-04T09:03:32.991Z</time></trkpt><trkpt lat="45.42465705060047" lon="9.168539729515725"><ele>109.0</ele><time>2026-04-04T09:03:34.991Z</time></trkpt><trkpt lat="45.424743570679645" lon="9.1685932130756"><ele>109.0</ele><time>2026-04-04T09:03:36.991Z</time></trkpt><trkpt lat="45.42483414940982" lon="9.168638812896928"><ele>109.0</ele><time>2026-04-04T09:03:38.991Z</time></trkpt><trkpt lat="45.42491654980085" lon="9.168682776184943"><ele>109.0</ele><time>2026-04-04T09:03:40.991Z</time></trkpt><trkpt lat="45.42500060036935" lon="9.168738441237943"><ele>109.0</ele><time>2026-04-04T09:03:42.991Z</time></trkpt><trkpt lat="45.42508806826311" lon="9.168785767285907"><ele>109.0</ele><time>2026-04-04T09:03:44.991Z</time></trkpt><trkpt lat="45.42518360912377" lon="9.168841856547349"><ele>109.0</ele><time>2026-04-04T09:03:46.991Z</time></trkpt><trkpt lat="45.425274072174936" lon="9.168896558597593"><ele>109.0</ele><time>2026-04-04T09:03:48.991Z</time></trkpt><trkpt lat="45.42536090107948" lon="9.168943285822573"><ele>109.0</ele><time>2026-04-04T09:03:50.991Z</time></trkpt><trkpt lat="45.42545056223998" lon="9.168997172758349"><ele>109.0</ele><time>2026-04-04T09:03:52.991Z</time></trkpt><trkpt lat="45.42554488397865" lon="9.169041659731347"><ele>109.0</ele><time>2026-04-04T09:03:54.991Z</time></trkpt><trkpt lat="45.42563359112911" lon="9.169086951809666"><ele>109.0</ele><time>2026-04-04T09:03:56.991Z</time></trkpt><trkpt lat="45.425719888651045" lon="9.16912866711887"><ele>109.33333333333334</ele><time>2026-04-04T09:03:58.991Z</time></trkpt><trkpt lat="45.42580215784552" lon="9.169172525267985"><ele>109.66666666666667</ele><time>2026-04-04T09:04:00.991Z</time></trkpt><trkpt lat="45.42588732524902" lon="9.169210155302252"><ele>110.0</ele><time>2026-04-04T09:04:02.991Z</time></trkpt><trkpt lat="45.425965763874714" lon="9.169242612616788"><ele>110.33333333333334</ele><time>2026-04-04T09:04:04.991Z</time></trkpt><trkpt lat="45.426039149638214" lon="9.169284034550339"><ele>110.66666666666667</ele><time>2026-04-04T09:04:06.991Z</time></trkpt><trkpt lat="45.4261140375834" lon="9.169327669449734"><ele>111.0</ele><time>2026-04-04T09:04:08.991Z</time></trkpt><trkpt lat="45.42618701165465" lon="9.16936925337028"><ele>111.0</ele><time>2026-04-04T09:04:10.991Z</time></trkpt><trkpt lat="45.42625826752469" lon="9.169406865134144"><ele>111.0</ele><time>2026-04-04T09:04:12.991Z</time></trkpt><trkpt lat="45.42631946399676" lon="9.169448547622867"><ele>111.0</ele><time>2026-04-04T09:04:14.99Z</time></trkpt><trkpt lat="45.426373453720444" lon="9.16949885491736"><ele>111.0</ele><time>2026-04-04T09:04:16.99Z</time></trkpt><trkpt lat="45.42644220645226" lon="9.169539758460186"><ele>111.0</ele><time>2026-04-04T09:04:18.99Z</time></trkpt><trkpt lat="45.426507181732006" lon="9.169576834766199"><ele>111.0</ele><time>2026-04-04T09:04:20.99Z</time></trkpt><trkpt lat="45.42657489718528" lon="9.169614986072988"><ele>111.0</ele><time>2026-04-04T09:04:22.99Z</time></trkpt><trkpt lat="45.426641147448855" lon="9.169640364591338"><ele>110.83333333333333</ele><time>2026-04-04T09:04:24.99Z</time></trkpt><trkpt lat="45.42670741448554" lon="9.16968700353352"><ele>110.66666666666666</ele><time>2026-04-04T09:04:26.99Z</time></trkpt><trkpt lat="45.426775889434104" lon="9.169739846586229"><ele>110.5</ele><time>2026-04-04T09:04:28.99Z</time></trkpt><trkpt lat="45.426847781429395" lon="9.169777869589078"><ele>110.33333333333333</ele><time>2026-04-04T09:04:30.99Z</time></trkpt><trkpt lat="45.42692756434698" lon="9.16981556404292"><ele>110.16666666666666</ele><time>2026-04-04T09:04:32.99Z</time></trkpt><trkpt lat="45.42700511612936" lon="9.169858263384997"><ele>110.0</ele><time>2026-04-04T09:04:34.99Z</time></trkpt><trkpt lat="45.427077196405925" lon="9.169905756635055"><ele>110.33333333333333</ele><time>2026-04-04T09:04:36.99Z</time></trkpt><trkpt lat="45.427160199632915" lon="9.169955287238015"><ele>110.66666666666666</ele><time>2026-04-04T09:04:38.99Z</time></trkpt><trkpt lat="45.427245710248506" lon="9.170005936887154"><ele>111.0</ele><time>2026-04-04T09:04:40.99Z</time></trkpt><trkpt lat="45.42733027356154" lon="9.170056025429842"><ele>111.33333333333334</ele><time>2026-04-04T09:04:42.99Z</time></trkpt><trkpt lat="45.42741126487394" lon="9.1701039982037"><ele>111.66666666666667</ele><time>2026-04-04T09:04:44.99Z</time></trkpt><trkpt lat="45.42748519814479" lon="9.170147727063734"><ele>112.0</ele><time>2026-04-04T09:04:46.99Z</time></trkpt><trkpt lat="45.4275489745271" lon="9.170185436286753"><ele>112.00000000000001</ele><time>2026-04-04T09:04:48.99Z</time></trkpt><trkpt lat="45.427618561459795" lon="9.170226581131672"><ele>112.0</ele><time>2026-04-04T09:04:50.99Z</time></trkpt><trkpt lat="45.42770113103465" lon="9.170275402254752"><ele>112.0</ele><time>2026-04-04T09:04:52.99Z</time></trkpt><trkpt lat="45.42778266626606" lon="9.170323611799047"><ele>112.0</ele><time>2026-04-04T09:04:54.99Z</time></trkpt><trkpt lat="45.427868373200425" lon="9.170374287949514"><ele>112.00000000000001</ele><time>2026-04-04T09:04:56.99Z</time></trkpt><trkpt lat="45.42795527337176" lon="9.1704250718897"><ele>112.0</ele><time>2026-04-04T09:04:58.99Z</time></trkpt><trkpt lat="45.428052585667245" lon="9.170481983123162"><ele>112.0</ele><time>2026-04-04T09:05:00.99Z</time></trkpt><trkpt lat="45.42815894575766" lon="9.17054418578736"><ele>111.99999999999999</ele><time>2026-04-04T09:05:02.99Z</time></trkpt><trkpt lat="45.42826122328341" lon="9.170604004264026"><ele>111.99999999999999</ele><time>2026-04-04T09:05:04.99Z</time></trkpt><trkpt lat="45.4283538556252" lon="9.170658194108508"><ele>112.0</ele><time>2026-04-04T09:05:06.99Z</time></trkpt><trkpt lat="45.42844294867872" lon="9.170710313469895"><ele>112.0</ele><time>2026-04-04T09:05:08.99Z</time></trkpt><trkpt lat="45.428537211403686" lon="9.170765457085945"><ele>112.0</ele><time>2026-04-04T09:05:10.99Z</time></trkpt><trkpt lat="45.42862737225369" lon="9.170818201108025"><ele>111.99999999999999</ele><time>2026-04-04T09:05:12.99Z</time></trkpt><trkpt lat="45.428723068379036" lon="9.170874183264399"><ele>111.99999999999999</ele><time>2026-04-04T09:05:14.99Z</time></trkpt><trkpt lat="45.42881814526873" lon="9.170929803251"><ele>112.0</ele><time>2026-04-04T09:05:16.99Z</time></trkpt><trkpt lat="45.4289116878093" lon="9.170984028993734"><ele>112.0</ele><time>2026-04-04T09:05:18.99Z</time></trkpt><trkpt lat="45.42901339244923" lon="9.171042755017012"><ele>111.8</ele><time>2026-04-04T09:05:20.99Z</time></trkpt><trkpt lat="45.429118081906495" lon="9.171103204655891"><ele>111.6</ele><time>2026-04-04T09:05:22.99Z</time></trkpt><trkpt lat="45.42922186707534" lon="9.17116313205054"><ele>111.39999999999999</ele><time>2026-04-04T09:05:24.99Z</time></trkpt><trkpt lat="45.42932497863218" lon="9.171222536436236"><ele>111.19999999999999</ele><time>2026-04-04T09:05:26.99Z</time></trkpt><trkpt lat="45.42942389560903" lon="9.171279179276828"><ele>111.0</ele><time>2026-04-04T09:05:28.989Z</time></trkpt><trkpt lat="45.42952942093092" lon="9.17133960572615"><ele>111.0</ele><time>2026-04-04T09:05:30.989Z</time></trkpt><trkpt lat="45.42963461608281" lon="9.171399843102868"><ele>111.0</ele><time>2026-04-04T09:05:32.989Z</time></trkpt><trkpt lat="45.42973223178284" lon="9.171455740307476"><ele>111.0</ele><time>2026-04-04T09:05:34.989Z</time></trkpt><trkpt lat="45.42984264918718" lon="9.171518357978195"><ele>111.0</ele><time>2026-04-04T09:05:36.989Z</time></trkpt><trkpt lat="45.429944639026886" lon="9.171576821855508"><ele>111.0</ele><time>2026-04-04T09:05:38.989Z</time></trkpt><trkpt lat="45.43004676054507" lon="9.171635361191266"><ele>111.4</ele><time>2026-04-04T09:05:40.989Z</time></trkpt><trkpt lat="45.430158437902236" lon="9.171699378273235"><ele>111.8</ele><time>2026-04-04T09:05:42.989Z</time></trkpt><trkpt lat="45.430253252468994" lon="9.171753729051845"><ele>112.20000000000002</ele><time>2026-04-04T09:05:44.989Z</time></trkpt><trkpt lat="45.43031257174963" lon="9.171787732777862"><ele>112.60000000000001</ele><time>2026-04-04T09:05:45.989Z</time></trkpt><trkpt lat="45.430416301458116" lon="9.17184707813915"><ele>113.0</ele><time>2026-04-04T09:05:47.989Z</time></trkpt><trkpt lat="45.43052508940829" lon="9.171909299619303"><ele>112.0</ele><time>2026-04-04T09:05:49.989Z</time></trkpt><trkpt lat="45.43062820577878" lon="9.171968277212363"><ele>111.00000000000001</ele><time>2026-04-04T09:05:51.989Z</time></trkpt><trkpt lat="45.43072997628517" lon="9.17202651148193"><ele>110.00000000000001</ele><time>2026-04-04T09:05:53.989Z</time></trkpt><trkpt lat="45.430832006087904" lon="9.172084990290651"><ele>109.0</ele><time>2026-04-04T09:05:55.989Z</time></trkpt><trkpt lat="45.43093041982717" lon="9.172141396592748"><ele>108.0</ele><time>2026-04-04T09:05:57.989Z</time></trkpt><trkpt lat="45.43101989609808" lon="9.172192680321283"><ele>108.0</ele><time>2026-04-04T09:05:59.989Z</time></trkpt><trkpt lat="45.43110926083247" lon="9.172243900118463"><ele>108.00000000000001</ele><time>2026-04-04T09:06:01.989Z</time></trkpt><trkpt lat="45.431198530378545" lon="9.17229506537195"><ele>108.00000000000001</ele><time>2026-04-04T09:06:03.989Z</time></trkpt><trkpt lat="45.43128214978704" lon="9.17234299222205"><ele>108.0</ele><time>2026-04-04T09:06:05.989Z</time></trkpt><trkpt lat="45.431359744357685" lon="9.172387465895335"><ele>108.0</ele><time>2026-04-04T09:06:07.989Z</time></trkpt><trkpt lat="45.43143978816327" lon="9.172433585873328"><ele>108.60000000000001</ele><time>2026-04-04T09:06:09.989Z</time></trkpt><trkpt lat="45.43153085842729" lon="9.172486199289699"><ele>109.20000000000002</ele><time>2026-04-04T09:06:11.989Z</time></trkpt><trkpt lat="45.431623508932795" lon="9.172539725658439"><ele>109.8</ele><time>2026-04-04T09:06:13.989Z</time></trkpt><trkpt lat="45.43172540754104" lon="9.172611772059415"><ele>110.4</ele><time>2026-04-04T09:06:15.989Z</time></trkpt><trkpt lat="45.431807222538616" lon="9.172657794435414"><ele>111.0</ele><time>2026-04-04T09:06:17.989Z</time></trkpt><trkpt lat="45.431886713896745" lon="9.17271086738479"><ele>111.0</ele><time>2026-04-04T09:06:19.989Z</time></trkpt><trkpt lat="45.431967328855286" lon="9.17276278880595"><ele>111.0</ele><time>2026-04-04T09:06:21.989Z</time></trkpt><trkpt lat="45.432025242142416" lon="9.1728025973653"><ele>111.0</ele><time>2026-04-04T09:06:23.989Z</time></trkpt><trkpt lat="45.43209480100886" lon="9.172835884718465"><ele>111.0</ele><time>2026-04-04T09:06:25.989Z</time></trkpt><trkpt lat="45.43217424144424" lon="9.172876994260442"><ele>111.0</ele><time>2026-04-04T09:06:27.989Z</time></trkpt><trkpt lat="45.43225830869003" lon="9.172925681509694"><ele>111.0</ele><time>2026-04-04T09:06:29.989Z</time></trkpt><trkpt lat="45.43235089108364" lon="9.172962162973684"><ele>111.4</ele><time>2026-04-04T09:06:31.989Z</time></trkpt><trkpt lat="45.43244995741667" lon="9.173008951369356"><ele>111.8</ele><time>2026-04-04T09:06:33.989Z</time></trkpt><trkpt lat="45.43254899942236" lon="9.173047732653949"><ele>112.20000000000002</ele><time>2026-04-04T09:06:35.989Z</time></trkpt><trkpt lat="45.43265054349691" lon="9.173092062439805"><ele>112.60000000000001</ele><time>2026-04-04T09:06:37.989Z</time></trkpt><trkpt lat="45.43274457711986" lon="9.173128249240763"><ele>113.0</ele><time>2026-04-04T09:06:39.989Z</time></trkpt><trkpt lat="45.43280596458525" lon="9.173166690153767"><ele>112.83333333333333</ele><time>2026-04-04T09:06:41.989Z</time></trkpt><trkpt lat="45.432895642523995" lon="9.173231599147755"><ele>112.66666666666666</ele><time>2026-04-04T09:06:43.989Z</time></trkpt><trkpt lat="45.432980846136985" lon="9.173312560324195"><ele>112.5</ele><time>2026-04-04T09:06:45.988Z</time></trkpt><trkpt lat="45.43305635417636" lon="9.17336907461908"><ele>112.33333333333334</ele><time>2026-04-04T09:06:47.988Z</time></trkpt><trkpt lat="45.43312752241759" lon="9.173412259477784"><ele>112.16666666666667</ele><time>2026-04-04T09:06:49.988Z</time></trkpt><trkpt lat="45.43320067714318" lon="9.173446658678673"><ele>112.0</ele><time>2026-04-04T09:06:51.988Z</time></trkpt><trkpt lat="45.43327609334541" lon="9.17350813030755"><ele>112.50000000000001</ele><time>2026-04-04T09:06:54.988Z</time></trkpt><trkpt lat="45.433341601644436" lon="9.17354100972887"><ele>113.0</ele><time>2026-04-04T09:06:56.988Z</time></trkpt><trkpt lat="45.43341684724113" lon="9.173555931548554"><ele>113.5</ele><time>2026-04-04T09:06:58.988Z</time></trkpt><trkpt lat="45.43349300270059" lon="9.173574287458777"><ele>114.0</ele><time>2026-04-04T09:07:00.988Z</time></trkpt><trkpt lat="45.433575504374275" lon="9.173598187986205"><ele>114.50000000000001</ele><time>2026-04-04T09:07:02.988Z</time></trkpt><trkpt lat="45.43365714017484" lon="9.17362680605233"><ele>115.0</ele><time>2026-04-04T09:07:04.988Z</time></trkpt><trkpt lat="45.43374110281291" lon="9.173642401086619"><ele>115.8</ele><time>2026-04-04T09:07:06.988Z</time></trkpt><trkpt lat="45.4338338046368" lon="9.173657572452129"><ele>116.6</ele><time>2026-04-04T09:07:08.988Z</time></trkpt><trkpt lat="45.43394258794032" lon="9.173676135221626"><ele>117.4</ele><time>2026-04-04T09:07:10.988Z</time></trkpt><trkpt lat="45.43404473614022" lon="9.173688830002805"><ele>118.2</ele><time>2026-04-04T09:07:12.988Z</time></trkpt><trkpt lat="45.4341380025291" lon="9.173713644980403"><ele>119.0</ele><time>2026-04-04T09:07:14.988Z</time></trkpt><trkpt lat="45.43423785190715" lon="9.173743643385448"><ele>119.0</ele><time>2026-04-04T09:07:16.988Z</time></trkpt><trkpt lat="45.434337075387624" lon="9.173762289875881"><ele>119.0</ele><time>2026-04-04T09:07:18.988Z</time></trkpt><trkpt lat="45.43443886952812" lon="9.173787818540047"><ele>119.0</ele><time>2026-04-04T09:07:20.988Z</time></trkpt><trkpt lat="45.43453941811276" lon="9.173812681791535"><ele>119.0</ele><time>2026-04-04T09:07:22.988Z</time></trkpt><trkpt lat="45.43464319186652" lon="9.173833336600826"><ele>119.0</ele><time>2026-04-04T09:07:24.988Z</time></trkpt><trkpt lat="45.43474288951955" lon="9.173863424381313"><ele>119.0</ele><time>2026-04-04T09:07:26.988Z</time></trkpt><trkpt lat="45.43484201741256" lon="9.173881854525844"><ele>119.0</ele><time>2026-04-04T09:07:28.988Z</time></trkpt><trkpt lat="45.43494627949277" lon="9.173920040491232"><ele>119.0</ele><time>2026-04-04T09:07:30.988Z</time></trkpt><trkpt lat="45.43504911623348" lon="9.173937790976083"><ele>119.0</ele><time>2026-04-04T09:07:32.988Z</time></trkpt><trkpt lat="45.435145811003935" lon="9.173958752282035"><ele>119.0</ele><time>2026-04-04T09:07:34.988Z</time></trkpt><trkpt lat="45.43523964985124" lon="9.17398813036593"><ele>119.0</ele><time>2026-04-04T09:07:36.988Z</time></trkpt><trkpt lat="45.43533483638672" lon="9.174010953922847"><ele>119.0</ele><time>2026-04-04T09:07:38.988Z</time></trkpt><trkpt lat="45.43543613528808" lon="9.174031020879095"><ele>119.0</ele><time>2026-04-04T09:07:40.988Z</time></trkpt><trkpt lat="45.43554173354005" lon="9.174058763731582"><ele>119.0</ele><time>2026-04-04T09:07:42.988Z</time></trkpt><trkpt lat="45.435650459036374" lon="9.174083129377593"><ele>119.0</ele><time>2026-04-04T09:07:44.988Z</time></trkpt><trkpt lat="45.43576051099724" lon="9.174100496818788"><ele>118.2</ele><time>2026-04-04T09:07:46.988Z</time></trkpt><trkpt lat="45.43586550840261" lon="9.174123619126991"><ele>117.4</ele><time>2026-04-04T09:07:48.988Z</time></trkpt><trkpt lat="45.43597087101984" lon="9.174148012641266"><ele>116.6</ele><time>2026-04-04T09:07:50.988Z</time></trkpt><trkpt lat="45.436077741714755" lon="9.174174811721024"><ele>115.8</ele><time>2026-04-04T09:07:52.988Z</time></trkpt><trkpt lat="45.43618060496889" lon="9.174206086900217"><ele>115.0</ele><time>2026-04-04T09:07:54.988Z</time></trkpt><trkpt lat="45.4362922021873" lon="9.174224109777677"><ele>114.8</ele><time>2026-04-04T09:07:56.988Z</time></trkpt><trkpt lat="45.43640344905426" lon="9.174253191497877"><ele>114.6</ele><time>2026-04-04T09:07:58.988Z</time></trkpt><trkpt lat="45.43651333110723" lon="9.174288739173287"><ele>114.4</ele><time>2026-04-04T09:08:00.987Z</time></trkpt><trkpt lat="45.436619427432625" lon="9.174305628667556"><ele>114.2</ele><time>2026-04-04T09:08:02.987Z</time></trkpt><trkpt lat="45.43672626073665" lon="9.1743230766938"><ele>114.0</ele><time>2026-04-04T09:08:04.987Z</time></trkpt><trkpt lat="45.436833127381504" lon="9.17434369247886"><ele>114.0</ele><time>2026-04-04T09:08:06.987Z</time></trkpt><trkpt lat="45.43693104390997" lon="9.174379431712174"><ele>114.0</ele><time>2026-04-04T09:08:08.987Z</time></trkpt><trkpt lat="45.43703204427102" lon="9.174395142596273"><ele>114.0</ele><time>2026-04-04T09:08:10.987Z</time></trkpt><trkpt lat="45.43712433717109" lon="9.174431238402216"><ele>114.0</ele><time>2026-04-04T09:08:12.987Z</time></trkpt><trkpt lat="45.43721619644316" lon="9.174458337228156"><ele>114.0</ele><time>2026-04-04T09:08:14.987Z</time></trkpt><trkpt lat="45.43732381465835" lon="9.174482542727599"><ele>114.6</ele><time>2026-04-04T09:08:16.987Z</time></trkpt><trkpt lat="45.43742384870808" lon="9.174519753848685"><ele>115.2</ele><time>2026-04-04T09:08:18.987Z</time></trkpt><trkpt lat="45.437504637296286" lon="9.174555640350299"><ele>115.79999999999998</ele><time>2026-04-04T09:08:20.987Z</time></trkpt><trkpt lat="45.43756785243407" lon="9.17464070661649"><ele>116.39999999999999</ele><time>2026-04-04T09:08:23.987Z</time></trkpt><trkpt lat="45.43773824104095" lon="9.174613480877744"><ele>117.0</ele><time>2026-04-04T09:08:25.987Z</time></trkpt><trkpt lat="45.43780763514357" lon="9.17461038294431"><ele>117.0</ele><time>2026-04-04T09:08:26.987Z</time></trkpt><trkpt lat="45.43787556430769" lon="9.174613903962367"><ele>116.99999999999999</ele><time>2026-04-04T09:08:27.987Z</time></trkpt><trkpt lat="45.437936225021815" lon="9.174639974283968"><ele>116.99999999999999</ele><time>2026-04-04T09:08:28.987Z</time></trkpt><trkpt lat="45.43805308040565" lon="9.174674297940907"><ele>117.0</ele><time>2026-04-04T09:08:30.987Z</time></trkpt><trkpt lat="45.438164812181526" lon="9.174709636682518"><ele>117.0</ele><time>2026-04-04T09:08:32.987Z</time></trkpt><trkpt lat="45.4382700884133" lon="9.174725776699615"><ele>117.0</ele><time>2026-04-04T09:08:34.987Z</time></trkpt><trkpt lat="45.438379361409886" lon="9.17475111053507"><ele>116.99999999999999</ele><time>2026-04-04T09:08:36.987Z</time></trkpt><trkpt lat="45.43848297501065" lon="9.17477514021065"><ele>116.99999999999999</ele><time>2026-04-04T09:08:38.987Z</time></trkpt><trkpt lat="45.43858392419281" lon="9.174796482614786"><ele>117.0</ele><time>2026-04-04T09:08:40.987Z</time></trkpt><trkpt lat="45.4386845484623" lon="9.17481675317228"><ele>117.0</ele><time>2026-04-04T09:08:42.987Z</time></trkpt><trkpt lat="45.43878552640186" lon="9.174842719549503"><ele>116.19999999999999</ele><time>2026-04-04T09:08:44.987Z</time></trkpt><trkpt lat="45.438886887487094" lon="9.174862082035819"><ele>115.39999999999999</ele><time>2026-04-04T09:08:46.987Z</time></trkpt><trkpt lat="45.43898920909365" lon="9.174888864178602"><ele>114.60000000000001</ele><time>2026-04-04T09:08:48.987Z</time></trkpt><trkpt lat="45.439087845831736" lon="9.174918988417637"><ele>113.80000000000001</ele><time>2026-04-04T09:08:50.987Z</time></trkpt><trkpt lat="45.43918470659656" lon="9.174940039033372"><ele>113.0</ele><time>2026-04-04T09:08:52.987Z</time></trkpt><trkpt lat="45.43928932437787" lon="9.174942929401029"><ele>113.0</ele><time>2026-04-04T09:08:54.987Z</time></trkpt><trkpt lat="45.43937579570469" lon="9.174968915600427"><ele>113.00000000000001</ele><time>2026-04-04T09:08:56.987Z</time></trkpt><trkpt lat="45.439467957841075" lon="9.175000637458151"><ele>113.00000000000001</ele><time>2026-04-04T09:08:58.987Z</time></trkpt><trkpt lat="45.43955688761083" lon="9.175033870239007"><ele>113.0</ele><time>2026-04-04T09:09:00.987Z</time></trkpt><trkpt lat="45.43965634589431" lon="9.175062918885489"><ele>113.0</ele><time>2026-04-04T09:09:02.987Z</time></trkpt><trkpt lat="45.43975481262944" lon="9.175065233890969"><ele>113.4</ele><time>2026-04-04T09:09:04.987Z</time></trkpt><trkpt lat="45.43985141810558" lon="9.175081538225715"><ele>113.80000000000001</ele><time>2026-04-04T09:09:06.987Z</time></trkpt><trkpt lat="45.43994396057962" lon="9.175124863695672"><ele>114.2</ele><time>2026-04-04T09:09:08.987Z</time></trkpt><trkpt lat="45.44004574841464" lon="9.175153922492429"><ele>114.6</ele><time>2026-04-04T09:09:10.987Z</time></trkpt><trkpt lat="45.440148858484015" lon="9.17517655775342"><ele>115.0</ele><time>2026-04-04T09:09:12.987Z</time></trkpt><trkpt lat="45.440249780668054" lon="9.175197864908988"><ele>115.0</ele><time>2026-04-04T09:09:14.987Z</time></trkpt><trkpt lat="45.44034624604779" lon="9.175208656344443"><ele>115.0</ele><time>2026-04-04T09:09:16.986Z</time></trkpt><trkpt lat="45.440446907277455" lon="9.175240861156183"><ele>115.0</ele><time>2026-04-04T09:09:18.986Z</time></trkpt><trkpt lat="45.44054712102047" lon="9.175254240040204"><ele>115.0</ele><time>2026-04-04T09:09:20.986Z</time></trkpt><trkpt lat="45.440652636863284" lon="9.175276394475661"><ele>115.0</ele><time>2026-04-04T09:09:22.986Z</time></trkpt><trkpt lat="45.440752978380935" lon="9.1753159635864"><ele>115.2</ele><time>2026-04-04T09:09:24.986Z</time></trkpt><trkpt lat="45.4408502935554" lon="9.175339660322608"><ele>115.4</ele><time>2026-04-04T09:09:26.986Z</time></trkpt><trkpt lat="45.44095051304666" lon="9.175362382147624"><ele>115.6</ele><time>2026-04-04T09:09:28.986Z</time></trkpt><trkpt lat="45.44104899093313" lon="9.175379269646216"><ele>115.8</ele><time>2026-04-04T09:09:30.986Z</time></trkpt><trkpt lat="45.44115061916279" lon="9.1753991168122"><ele>116.0</ele><time>2026-04-04T09:09:32.986Z</time></trkpt><trkpt lat="45.441251532497624" lon="9.175423328059452"><ele>115.8</ele><time>2026-04-04T09:09:34.986Z</time></trkpt><trkpt lat="45.44135056651263" lon="9.17543925849338"><ele>115.6</ele><time>2026-04-04T09:09:36.986Z</time></trkpt><trkpt lat="45.44144693134726" lon="9.175461460483262"><ele>115.4</ele><time>2026-04-04T09:09:38.986Z</time></trkpt><trkpt lat="45.44154645510882" lon="9.175487381081087"><ele>115.2</ele><time>2026-04-04T09:09:40.986Z</time></trkpt><trkpt lat="45.441648713599605" lon="9.175506575533975"><ele>115.0</ele><time>2026-04-04T09:09:42.986Z</time></trkpt><trkpt lat="45.44175448417651" lon="9.175524132522101"><ele>115.0</ele><time>2026-04-04T09:09:44.986Z</time></trkpt><trkpt lat="45.44185928330412" lon="9.175548390108654"><ele>115.0</ele><time>2026-04-04T09:09:46.986Z</time></trkpt><trkpt lat="45.441961463643445" lon="9.175572566567723"><ele>115.0</ele><time>2026-04-04T09:09:48.986Z</time></trkpt><trkpt lat="45.44206070392638" lon="9.17560337008017"><ele>115.0</ele><time>2026-04-04T09:09:50.986Z</time></trkpt><trkpt lat="45.44215462275912" lon="9.175629154792837"><ele>115.0</ele><time>2026-04-04T09:09:52.986Z</time></trkpt><trkpt lat="45.44224748337061" lon="9.175649833297221"><ele>115.2</ele><time>2026-04-04T09:09:54.986Z</time></trkpt><trkpt lat="45.442343810712934" lon="9.175672681854573"><ele>115.4</ele><time>2026-04-04T09:09:56.986Z</time></trkpt><trkpt lat="45.44244162346163" lon="9.175694517152548"><ele>115.6</ele><time>2026-04-04T09:09:58.986Z</time></trkpt><trkpt lat="45.44254145771308" lon="9.175719823945025"><ele>115.8</ele><time>2026-04-04T09:10:00.986Z</time></trkpt><trkpt lat="45.44264289645825" lon="9.175740335287296"><ele>116.0</ele><time>2026-04-04T09:10:02.986Z</time></trkpt><trkpt lat="45.44274873329514" lon="9.175762817463417"><ele>115.99999999999999</ele><time>2026-04-04T09:10:04.986Z</time></trkpt><trkpt lat="45.44284975145363" lon="9.175790509754028"><ele>116.0</ele><time>2026-04-04T09:10:06.986Z</time></trkpt><trkpt lat="45.44294633950887" lon="9.175800658292037"><ele>116.0</ele><time>2026-04-04T09:10:09.986Z</time></trkpt><trkpt lat="45.44301007358101" lon="9.17581673252588"><ele>116.0</ele><time>2026-04-04T09:10:10.986Z</time></trkpt><trkpt lat="45.443107282039854" lon="9.175820911260718"><ele>115.99999999999999</ele><time>2026-04-04T09:10:12.986Z</time></trkpt><trkpt lat="45.44318904955265" lon="9.175836148861377"><ele>116.0</ele><time>2026-04-04T09:10:14.986Z</time></trkpt><trkpt lat="45.443264478511324" lon="9.175850099264773"><ele>116.00000000000001</ele><time>2026-04-04T09:10:16.986Z</time></trkpt><trkpt lat="45.44333439956808" lon="9.175860009888707"><ele>116.0</ele><time>2026-04-04T09:10:18.986Z</time></trkpt><trkpt lat="45.44339719506322" lon="9.175874063469942"><ele>116.00000000000001</ele><time>2026-04-04T09:10:20.986Z</time></trkpt><trkpt lat="45.44346887044036" lon="9.175898356882925"><ele>116.00000000000001</ele><time>2026-04-04T09:10:23.986Z</time></trkpt><trkpt lat="45.443529614588606" lon="9.175925443930772"><ele>116.0</ele><time>2026-04-04T09:10:56.985Z</time></trkpt><trkpt lat="45.44358699018971" lon="9.175964444324034"><ele>116.00000000000001</ele><time>2026-04-04T09:10:59.985Z</time></trkpt><trkpt lat="45.44366929103118" lon="9.175993398891448"><ele>116.00000000000001</ele><time>2026-04-04T09:11:02.985Z</time></trkpt><trkpt lat="45.44374437204847" lon="9.17598386630666"><ele>115.99999999999999</ele><time>2026-04-04T09:11:05.985Z</time></trkpt><trkpt lat="45.44379512698498" lon="9.175909683117213"><ele>116.0</ele><time>2026-04-04T09:11:08.985Z</time></trkpt><trkpt lat="45.443795423945375" lon="9.175815769048246"><ele>116.0</ele><time>2026-04-04T09:11:10.985Z</time></trkpt><trkpt lat="45.44378874003919" lon="9.175714645554928"><ele>116.0</ele><time>2026-04-04T09:11:12.985Z</time></trkpt><trkpt lat="45.4438077109388" lon="9.175570041622503"><ele>115.99999999999999</ele><time>2026-04-04T09:11:14.985Z</time></trkpt><trkpt lat="45.443827235351904" lon="9.175408999386319"><ele>116.0</ele><time>2026-04-04T09:11:16.985Z</time></trkpt><trkpt lat="45.44383547503817" lon="9.17524619575988"><ele>116.0</ele><time>2026-04-04T09:11:18.985Z</time></trkpt><trkpt lat="45.443850798500804" lon="9.175083549695318"><ele>116.0</ele><time>2026-04-04T09:11:20.985Z</time></trkpt><trkpt lat="45.44385002246419" lon="9.17499134798642"><ele>116.0</ele><time>2026-04-04T09:11:21.985Z</time></trkpt><trkpt lat="45.44384098611396" lon="9.174890287944956"><ele>116.0</ele><time>2026-04-04T09:11:22.985Z</time></trkpt><trkpt lat="45.443841107773736" lon="9.174744630350006"><ele>116.0</ele><time>2026-04-04T09:11:24.985Z</time></trkpt><trkpt lat="45.443839511389925" lon="9.174582593546475"><ele>116.0</ele><time>2026-04-04T09:11:26.985Z</time></trkpt><trkpt lat="45.443844438666" lon="9.174445943986818"><ele>116.0</ele><time>2026-04-04T09:11:28.985Z</time></trkpt><trkpt lat="45.443845885501155" lon="9.174318669586025"><ele>116.0</ele><time>2026-04-04T09:11:30.985Z</time></trkpt><trkpt lat="45.443842893015876" lon="9.174170233396651"><ele>116.0</ele><time>2026-04-04T09:11:32.985Z</time></trkpt><trkpt lat="45.44384758066319" lon="9.173997207260914"><ele>116.0</ele><time>2026-04-04T09:11:34.985Z</time></trkpt><trkpt lat="45.443861079375154" lon="9.173841930152664"><ele>115.99999999999999</ele><time>2026-04-04T09:11:36.985Z</time></trkpt><trkpt lat="45.443873718881875" lon="9.173753858772935"><ele>116.0</ele><time>2026-04-04T09:11:37.985Z</time></trkpt><trkpt lat="45.443872312600604" lon="9.173663517152999"><ele>116.0</ele><time>2026-04-04T09:11:38.985Z</time></trkpt><trkpt lat="45.443874645392945" lon="9.173561186667225"><ele>116.0</ele><time>2026-04-04T09:11:39.985Z</time></trkpt><trkpt lat="45.443888343508235" lon="9.17337961003316"><ele>115.99999999999999</ele><time>2026-04-04T09:11:41.985Z</time></trkpt><trkpt lat="45.44391922865806" lon="9.173261598511626"><ele>116.0</ele><time>2026-04-04T09:11:43Z</time></trkpt><trkpt lat="45.443943132648364" lon="9.173157200998535"><ele>116.19999999999999</ele><time>2026-04-04T09:11:44Z</time></trkpt><trkpt lat="45.44395355781845" lon="9.173059226581755"><ele>116.39999999999999</ele><time>2026-04-04T09:11:45Z</time></trkpt><trkpt lat="45.44395797594542" lon="9.172954325931167"><ele>116.6</ele><time>2026-04-04T09:11:46Z</time></trkpt><trkpt lat="45.44396062507386" lon="9.172856761448624"><ele>116.8</ele><time>2026-04-04T09:11:47Z</time></trkpt><trkpt lat="45.443949920307645" lon="9.172703978164927"><ele>117.0</ele><time>2026-04-04T09:11:49Z</time></trkpt><trkpt lat="45.44396922473776" lon="9.172517443018588"><ele>117.0</ele><time>2026-04-04T09:11:51Z</time></trkpt><trkpt lat="45.44397557746398" lon="9.172407034902891"><ele>117.0</ele><time>2026-04-04T09:11:52Z</time></trkpt><trkpt lat="45.44397665309321" lon="9.17230941511312"><ele>117.0</ele><time>2026-04-04T09:11:53Z</time></trkpt><trkpt lat="45.443979276889934" lon="9.172212628944795"><ele>117.0</ele><time>2026-04-04T09:11:54Z</time></trkpt><trkpt lat="45.44397842978158" lon="9.172121865368446"><ele>117.0</ele><time>2026-04-04T09:11:55Z</time></trkpt><trkpt lat="45.44399389875522" lon="9.171944032512839"><ele>117.0</ele><time>2026-04-04T09:11:57Z</time></trkpt><trkpt lat="45.44398884015601" lon="9.171848914680986"><ele>116.33333333333333</ele><time>2026-04-04T09:11:58Z</time></trkpt><trkpt lat="45.444003873010594" lon="9.17167144346735"><ele>115.66666666666666</ele><time>2026-04-04T09:12:00Z</time></trkpt><trkpt lat="45.44400753805698" lon="9.171581144323312"><ele>115.0</ele><time>2026-04-04T09:12:01Z</time></trkpt><trkpt lat="45.44401371635055" lon="9.17148864948709"><ele>114.33333333333333</ele><time>2026-04-04T09:12:02Z</time></trkpt><trkpt lat="45.44402552384875" lon="9.171394307359467"><ele>113.66666666666666</ele><time>2026-04-04T09:12:03Z</time></trkpt><trkpt lat="45.4440305744263" lon="9.171304689405106"><ele>113.0</ele><time>2026-04-04T09:12:04Z</time></trkpt><trkpt lat="45.444054917263614" lon="9.171123109328802"><ele>112.80000000000001</ele><time>2026-04-04T09:12:06Z</time></trkpt><trkpt lat="45.44405747559242" lon="9.1710226918303"><ele>112.60000000000001</ele><time>2026-04-04T09:12:07Z</time></trkpt><trkpt lat="45.444075221078435" lon="9.170837791678563"><ele>112.39999999999999</ele><time>2026-04-04T09:12:09Z</time></trkpt><trkpt lat="45.44409074300224" lon="9.170650999939102"><ele>112.19999999999999</ele><time>2026-04-04T09:12:11Z</time></trkpt><trkpt lat="45.44409221522961" lon="9.170557236793726"><ele>112.0</ele><time>2026-04-04T09:12:12Z</time></trkpt><trkpt lat="45.44409946265525" lon="9.170410658327235"><ele>112.75</ele><time>2026-04-04T09:12:14Z</time></trkpt><trkpt lat="45.44410317048089" lon="9.170256960395825"><ele>113.5</ele><time>2026-04-04T09:12:16Z</time></trkpt><trkpt lat="45.44410839812445" lon="9.170097392602647"><ele>114.25</ele><time>2026-04-04T09:12:17.999Z</time></trkpt><trkpt lat="45.4441187407274" lon="9.169950327504212"><ele>115.0</ele><time>2026-04-04T09:12:19.999Z</time></trkpt><trkpt lat="45.44412630849936" lon="9.169769693137109"><ele>115.0</ele><time>2026-04-04T09:12:21.999Z</time></trkpt><trkpt lat="45.44412823740146" lon="9.169596191748335"><ele>115.0</ele><time>2026-04-04T09:12:23.999Z</time></trkpt><trkpt lat="45.44413858803568" lon="9.169425109473414"><ele>115.0</ele><time>2026-04-04T09:12:25.999Z</time></trkpt><trkpt lat="45.44414199575486" lon="9.169262558811054"><ele>115.0</ele><time>2026-04-04T09:12:27.999Z</time></trkpt><trkpt lat="45.44414086669335" lon="9.169093881507221"><ele>115.2</ele><time>2026-04-04T09:12:30Z</time></trkpt><trkpt lat="45.444157251192415" lon="9.168936640619625"><ele>115.4</ele><time>2026-04-04T09:12:32Z</time></trkpt><trkpt lat="45.44416182425451" lon="9.168774823236769"><ele>115.6</ele><time>2026-04-04T09:12:34.001Z</time></trkpt><trkpt lat="45.44416732227004" lon="9.168615798570595"><ele>115.8</ele><time>2026-04-04T09:12:36Z</time></trkpt><trkpt lat="45.44417718366697" lon="9.168461761049365"><ele>116.0</ele><time>2026-04-04T09:12:38Z</time></trkpt><trkpt lat="45.44418788354333" lon="9.168316433247856"><ele>116.0</ele><time>2026-04-04T09:12:40.001Z</time></trkpt><trkpt lat="45.44419397294738" lon="9.168177500764982"><ele>116.0</ele><time>2026-04-04T09:12:42.001Z</time></trkpt><trkpt lat="45.44419776004728" lon="9.168054248767367"><ele>116.0</ele><time>2026-04-04T09:12:44Z</time></trkpt><trkpt lat="45.4441995175282" lon="9.167933410136678"><ele>116.0</ele><time>2026-04-04T09:12:46Z</time></trkpt><trkpt lat="45.444217300714975" lon="9.167764847683623"><ele>116.0</ele><time>2026-04-04T09:12:48Z</time></trkpt><trkpt lat="45.44422824905623" lon="9.167602244869544"><ele>116.0</ele><time>2026-04-04T09:12:50Z</time></trkpt><trkpt lat="45.44423601970758" lon="9.167447813218715"><ele>116.0</ele><time>2026-04-04T09:12:52Z</time></trkpt><trkpt lat="45.4442436439365" lon="9.167301619244862"><ele>116.0</ele><time>2026-04-04T09:12:54Z</time></trkpt><trkpt lat="45.44424310536068" lon="9.16714705510875"><ele>116.0</ele><time>2026-04-04T09:12:56Z</time></trkpt><trkpt lat="45.44425400334282" lon="9.166994554173504"><ele>116.0</ele><time>2026-04-04T09:12:58Z</time></trkpt><trkpt lat="45.444263278067204" lon="9.166847360951252"><ele>116.19999999999999</ele><time>2026-04-04T09:13:00Z</time></trkpt><trkpt lat="45.44426532712984" lon="9.166715594287579"><ele>116.39999999999999</ele><time>2026-04-04T09:13:02Z</time></trkpt><trkpt lat="45.44428532683744" lon="9.166539640551694"><ele>116.6</ele><time>2026-04-04T09:13:04Z</time></trkpt><trkpt lat="45.44430874260936" lon="9.166368494775282"><ele>116.8</ele><time>2026-04-04T09:13:06Z</time></trkpt><trkpt lat="45.444330566325554" lon="9.166275606894382"><ele>117.0</ele><time>2026-04-04T09:13:07Z</time></trkpt><trkpt lat="45.44434638177469" lon="9.166185611171535"><ele>117.0</ele><time>2026-04-04T09:13:08Z</time></trkpt><trkpt lat="45.444358663161246" lon="9.166095043335046"><ele>117.0</ele><time>2026-04-04T09:13:09Z</time></trkpt><trkpt lat="45.444401861124994" lon="9.165860553667883"><ele>117.0</ele><time>2026-04-04T09:13:12Z</time></trkpt><trkpt lat="45.444422297554375" lon="9.165749268795581"><ele>117.0</ele><time>2026-04-04T09:13:14Z</time></trkpt><trkpt lat="45.44445852734713" lon="9.165555459118817"><ele>117.0</ele><time>2026-04-04T09:13:16Z</time></trkpt><trkpt lat="45.44447821215621" lon="9.165453090272877"><ele>117.0</ele><time>2026-04-04T09:13:17Z</time></trkpt><trkpt lat="45.44450659301811" lon="9.165259689854135"><ele>117.0</ele><time>2026-04-04T09:13:19Z</time></trkpt><trkpt lat="45.444518137305465" lon="9.16516155891504"><ele>117.0</ele><time>2026-04-04T09:13:20Z</time></trkpt><trkpt lat="45.44453723899208" lon="9.165071509422647"><ele>117.0</ele><time>2026-04-04T09:13:21Z</time></trkpt><trkpt lat="45.44455698064228" lon="9.164984494705484"><ele>117.0</ele><time>2026-04-04T09:13:22Z</time></trkpt><trkpt lat="45.444570374089494" lon="9.164884532736309"><ele>116.85714285714286</ele><time>2026-04-04T09:13:23Z</time></trkpt><trkpt lat="45.444590601522656" lon="9.164789360273963"><ele>116.71428571428572</ele><time>2026-04-04T09:13:24Z</time></trkpt><trkpt lat="45.44461718644124" lon="9.164689032458837"><ele>116.57142857142858</ele><time>2026-04-04T09:13:24.999Z</time></trkpt><trkpt lat="45.444629478326796" lon="9.16458572901012"><ele>116.42857142857144</ele><time>2026-04-04T09:13:25.999Z</time></trkpt><trkpt lat="45.44464763275634" lon="9.16449523371408"><ele>116.28571428571429</ele><time>2026-04-04T09:13:26.999Z</time></trkpt><trkpt lat="45.44466397596561" lon="9.164385986476024"><ele>116.14285714285717</ele><time>2026-04-04T09:13:27.999Z</time></trkpt><trkpt lat="45.4446860753222" lon="9.164297909761645"><ele>116.00000000000001</ele><time>2026-04-04T09:13:28.999Z</time></trkpt><trkpt lat="45.44470867610166" lon="9.16419590008364"><ele>116.00000000000001</ele><time>2026-04-04T09:13:29.999Z</time></trkpt><trkpt lat="45.4447236325799" lon="9.164097945727047"><ele>116.0</ele><time>2026-04-04T09:13:30.999Z</time></trkpt><trkpt lat="45.44474456265079" lon="9.164002790337605"><ele>116.00000000000001</ele><time>2026-04-04T09:13:31.999Z</time></trkpt><trkpt lat="45.44476274788474" lon="9.163908604569224"><ele>116.00000000000001</ele><time>2026-04-04T09:13:32.999Z</time></trkpt><trkpt lat="45.444786922310435" lon="9.163817038607517"><ele>116.0</ele><time>2026-04-04T09:13:33.999Z</time></trkpt><trkpt lat="45.44480616662503" lon="9.163729519955552"><ele>116.00000000000001</ele><time>2026-04-04T09:13:34.999Z</time></trkpt><trkpt lat="45.44481025382013" lon="9.163633864976665"><ele>116.00000000000001</ele><time>2026-04-04T09:13:35.999Z</time></trkpt><trkpt lat="45.44483954068802" lon="9.163538534729224"><ele>116.14285714285717</ele><time>2026-04-04T09:13:36.999Z</time></trkpt><trkpt lat="45.44486191379813" lon="9.163454012713732"><ele>116.28571428571429</ele><time>2026-04-04T09:13:37.999Z</time></trkpt><trkpt lat="45.44489102746285" lon="9.16336984706156"><ele>116.42857142857144</ele><time>2026-04-04T09:13:38.999Z</time></trkpt><trkpt lat="45.444916926713624" lon="9.16328034068808"><ele>116.57142857142858</ele><time>2026-04-04T09:13:39.999Z</time></trkpt><trkpt lat="45.444937718051634" lon="9.163187000821805"><ele>116.71428571428572</ele><time>2026-04-04T09:13:40.999Z</time></trkpt><trkpt lat="45.44495681328442" lon="9.163097094287478"><ele>116.85714285714286</ele><time>2026-04-04T09:13:41.999Z</time></trkpt><trkpt lat="45.444980196426414" lon="9.163009883596388"><ele>117.0</ele><time>2026-04-04T09:13:42.999Z</time></trkpt><trkpt lat="45.44500634252304" lon="9.162924649841536"><ele>117.0</ele><time>2026-04-04T09:13:43.999Z</time></trkpt><trkpt lat="45.44502333638808" lon="9.16283534342535"><ele>117.0</ele><time>2026-04-04T09:13:44.999Z</time></trkpt><trkpt lat="45.44504570377358" lon="9.162747190698974"><ele>117.0</ele><time>2026-04-04T09:13:45.999Z</time></trkpt><trkpt lat="45.4450787554264" lon="9.162668243844907"><ele>117.0</ele><time>2026-04-04T09:13:46.999Z</time></trkpt><trkpt lat="45.44511062694769" lon="9.162589671144696"><ele>117.0</ele><time>2026-04-04T09:13:47.999Z</time></trkpt><trkpt lat="45.44516754848094" lon="9.162427158923153"><ele>117.0</ele><time>2026-04-04T09:13:49.999Z</time></trkpt><trkpt lat="45.44519365003421" lon="9.16234355500268"><ele>116.6</ele><time>2026-04-04T09:13:50.999Z</time></trkpt><trkpt lat="45.445246268193486" lon="9.162178872852309"><ele>116.19999999999999</ele><time>2026-04-04T09:13:52.999Z</time></trkpt><trkpt lat="45.44527653091505" lon="9.162097763175536"><ele>115.8</ele><time>2026-04-04T09:13:53.999Z</time></trkpt><trkpt lat="45.445335721106645" lon="9.161938677647345"><ele>115.4</ele><time>2026-04-04T09:13:55.999Z</time></trkpt><trkpt lat="45.44536949480368" lon="9.161861464359326"><ele>115.0</ele><time>2026-04-04T09:13:56.999Z</time></trkpt><trkpt lat="45.4454319964731" lon="9.161706103397675"><ele>115.2</ele><time>2026-04-04T09:13:58.999Z</time></trkpt><trkpt lat="45.44548881868819" lon="9.161558718131408"><ele>115.4</ele><time>2026-04-04T09:14:00.999Z</time></trkpt><trkpt lat="45.445515282994265" lon="9.161475039501495"><ele>115.6</ele><time>2026-04-04T09:14:01.999Z</time></trkpt><trkpt lat="45.445547841265835" lon="9.161395178870954"><ele>115.8</ele><time>2026-04-04T09:14:02.999Z</time></trkpt><trkpt lat="45.445611830727906" lon="9.161247222436591"><ele>116.0</ele><time>2026-04-04T09:14:04.999Z</time></trkpt><trkpt lat="45.445672080569295" lon="9.161114331232254"><ele>116.19999999999999</ele><time>2026-04-04T09:14:06.999Z</time></trkpt><trkpt lat="45.445731797125795" lon="9.16097772668813"><ele>116.39999999999999</ele><time>2026-04-04T09:14:08.999Z</time></trkpt><trkpt lat="45.44580477676031" lon="9.160847119981826"><ele>116.6</ele><time>2026-04-04T09:14:10.999Z</time></trkpt><trkpt lat="45.44584620121404" lon="9.160723395604046"><ele>116.8</ele><time>2026-04-04T09:14:12.999Z</time></trkpt><trkpt lat="45.44590902005524" lon="9.160618626603034"><ele>117.0</ele><time>2026-04-04T09:14:14.999Z</time></trkpt><trkpt lat="45.44595413362381" lon="9.160503808005405"><ele>116.5</ele><time>2026-04-04T09:14:16.999Z</time></trkpt><trkpt lat="45.44601584556378" lon="9.160412342865284"><ele>116.0</ele><time>2026-04-04T09:14:17.999Z</time></trkpt><trkpt lat="45.44609722637708" lon="9.160276329276293"><ele>115.5</ele><time>2026-04-04T09:14:19.999Z</time></trkpt><trkpt lat="45.44612489614009" lon="9.16019388867589"><ele>115.0</ele><time>2026-04-04T09:14:20.999Z</time></trkpt><trkpt lat="45.44616617333246" lon="9.160117349490113"><ele>114.5</ele><time>2026-04-04T09:14:21.999Z</time></trkpt><trkpt lat="45.44619576210895" lon="9.160037857205408"><ele>114.0</ele><time>2026-04-04T09:14:22.999Z</time></trkpt><trkpt lat="45.44624274357624" lon="9.159962285527799"><ele>114.0</ele><time>2026-04-04T09:14:23.999Z</time></trkpt><trkpt lat="45.44627809291776" lon="9.159886975323513"><ele>114.0</ele><time>2026-04-04T09:14:24.999Z</time></trkpt><trkpt lat="45.446312658942674" lon="9.159808595734216"><ele>114.0</ele><time>2026-04-04T09:14:25.999Z</time></trkpt><trkpt lat="45.44635055366542" lon="9.159735746404019"><ele>114.0</ele><time>2026-04-04T09:14:26.999Z</time></trkpt><trkpt lat="45.446425089134976" lon="9.159595707078276"><ele>114.0</ele><time>2026-04-04T09:14:28.999Z</time></trkpt><trkpt lat="45.4464906194531" lon="9.15945173409629"><ele>114.0</ele><time>2026-04-04T09:14:30.999Z</time></trkpt><trkpt lat="45.446563194085606" lon="9.159322648470052"><ele>114.4</ele><time>2026-04-04T09:14:32.999Z</time></trkpt><trkpt lat="45.44663403038342" lon="9.159188464568132"><ele>114.80000000000001</ele><time>2026-04-04T09:14:34.999Z</time></trkpt><trkpt lat="45.446702773371214" lon="9.159077616162985"><ele>115.19999999999999</ele><time>2026-04-04T09:14:37Z</time></trkpt><trkpt lat="45.446779926535534" lon="9.158990303963783"><ele>115.6</ele><time>2026-04-04T09:14:39.001Z</time></trkpt><trkpt lat="45.4468539782665" lon="9.158906961625327"><ele>116.0</ele><time>2026-04-04T09:14:41Z</time></trkpt><trkpt lat="45.44692455393632" lon="9.15882003126246"><ele>115.99999999999999</ele><time>2026-04-04T09:14:43Z</time></trkpt><trkpt lat="45.44700045420975" lon="9.158746063319777"><ele>116.0</ele><time>2026-04-04T09:14:45Z</time></trkpt><trkpt lat="45.44708025905434" lon="9.158664308386003"><ele>116.0</ele><time>2026-04-04T09:14:47Z</time></trkpt><trkpt lat="45.44715509985471" lon="9.15860868991629"><ele>116.0</ele><time>2026-04-04T09:14:49Z</time></trkpt><trkpt lat="45.44723318909789" lon="9.158555841704732"><ele>115.99999999999999</ele><time>2026-04-04T09:14:51Z</time></trkpt><trkpt lat="45.44731117891436" lon="9.15851373591581"><ele>116.0</ele><time>2026-04-04T09:14:53Z</time></trkpt><trkpt lat="45.44739158683699" lon="9.158466305331084"><ele>116.16666666666666</ele><time>2026-04-04T09:14:55Z</time></trkpt><trkpt lat="45.447466166020476" lon="9.158421875204652"><ele>116.33333333333333</ele><time>2026-04-04T09:14:57Z</time></trkpt><trkpt lat="45.447543877205966" lon="9.158384755167818"><ele>116.5</ele><time>2026-04-04T09:14:59Z</time></trkpt><trkpt lat="45.447621531464534" lon="9.158346141009895"><ele>116.66666666666666</ele><time>2026-04-04T09:15:01Z</time></trkpt><trkpt lat="45.44769193974348" lon="9.158310973183523"><ele>116.83333333333333</ele><time>2026-04-04T09:15:03Z</time></trkpt><trkpt lat="45.447767386076166" lon="9.158274144636598"><ele>117.0</ele><time>2026-04-04T09:15:05Z</time></trkpt><trkpt lat="45.447850340826875" lon="9.158249227428996"><ele>117.0</ele><time>2026-04-04T09:15:07Z</time></trkpt><trkpt lat="45.44794339072129" lon="9.158202144968243"><ele>117.0</ele><time>2026-04-04T09:15:10Z</time></trkpt><trkpt lat="45.44801764603613" lon="9.158169569130848"><ele>117.0</ele><time>2026-04-04T09:15:12Z</time></trkpt><trkpt lat="45.44810964646316" lon="9.158141496538773"><ele>117.0</ele><time>2026-04-04T09:15:15Z</time></trkpt><trkpt lat="45.448172904427665" lon="9.158097881285851"><ele>117.0</ele><time>2026-04-04T09:15:17Z</time></trkpt><trkpt lat="45.44823563059571" lon="9.1580723933831"><ele>117.0</ele><time>2026-04-04T09:15:19Z</time></trkpt><trkpt lat="45.44830511751778" lon="9.158029532313419"><ele>117.19999999999999</ele><time>2026-04-04T09:15:21Z</time></trkpt><trkpt lat="45.44838261726462" lon="9.157984500091889"><ele>117.39999999999999</ele><time>2026-04-04T09:15:23Z</time></trkpt><trkpt lat="45.44846835404271" lon="9.157936322566297"><ele>117.60000000000001</ele><time>2026-04-04T09:15:25Z</time></trkpt><trkpt lat="45.44856699518568" lon="9.157881145827922"><ele>117.80000000000001</ele><time>2026-04-04T09:15:26.999Z</time></trkpt><trkpt lat="45.44866533145323" lon="9.157813928095756"><ele>118.0</ele><time>2026-04-04T09:15:28.999Z</time></trkpt><trkpt lat="45.44875736649582" lon="9.157754487456705"><ele>117.83333333333334</ele><time>2026-04-04T09:15:30.999Z</time></trkpt><trkpt lat="45.44883608699484" lon="9.157710833999992"><ele>117.66666666666667</ele><time>2026-04-04T09:15:32.999Z</time></trkpt><trkpt lat="45.448916927369424" lon="9.157652406856972"><ele>117.5</ele><time>2026-04-04T09:15:34.999Z</time></trkpt><trkpt lat="45.44899003550195" lon="9.157596696555068"><ele>117.33333333333334</ele><time>2026-04-04T09:15:36.999Z</time></trkpt><trkpt lat="45.44908153947958" lon="9.157525006286363"><ele>117.16666666666667</ele><time>2026-04-04T09:15:38.999Z</time></trkpt><trkpt lat="45.449151956080144" lon="9.157461400600303"><ele>117.0</ele><time>2026-04-04T09:15:40.999Z</time></trkpt><trkpt lat="45.44923284823882" lon="9.15739096225239"><ele>117.0</ele><time>2026-04-04T09:15:42.999Z</time></trkpt><trkpt lat="45.449311981954054" lon="9.157295528139997"><ele>116.99999999999999</ele><time>2026-04-04T09:15:44.999Z</time></trkpt><trkpt lat="45.449402224879805" lon="9.1571941662054"><ele>116.99999999999999</ele><time>2026-04-04T09:15:46.999Z</time></trkpt><trkpt lat="45.44948658203829" lon="9.157078733727465"><ele>117.0</ele><time>2026-04-04T09:15:48.999Z</time></trkpt><trkpt lat="45.4495295909429" lon="9.157009732291717"><ele>117.0</ele><time>2026-04-04T09:15:49.999Z</time></trkpt><trkpt lat="45.44956961099316" lon="9.156935336937028"><ele>117.0</ele><time>2026-04-04T09:15:50.999Z</time></trkpt><trkpt lat="45.449618620515444" lon="9.156850286401335"><ele>117.00000000000001</ele><time>2026-04-04T09:15:51.999Z</time></trkpt><trkpt lat="45.44966742119879" lon="9.156767195925484"><ele>117.0</ele><time>2026-04-04T09:15:52.999Z</time></trkpt><trkpt lat="45.4497121725315" lon="9.156691086341555"><ele>117.0</ele><time>2026-04-04T09:15:53.999Z</time></trkpt><trkpt lat="45.449754144061416" lon="9.15661715492626"><ele>117.00000000000001</ele><time>2026-04-04T09:15:54.999Z</time></trkpt><trkpt lat="45.44979528949138" lon="9.156540077594041"><ele>117.0</ele><time>2026-04-04T09:15:55.999Z</time></trkpt><trkpt lat="45.44983972844927" lon="9.15646491023874"><ele>117.0</ele><time>2026-04-04T09:15:56.999Z</time></trkpt><trkpt lat="45.44988636309448" lon="9.15639455177092"><ele>117.39999999999999</ele><time>2026-04-04T09:15:57.999Z</time></trkpt><trkpt lat="45.449990603822584" lon="9.156302087767694"><ele>117.79999999999998</ele><time>2026-04-04T09:15:59.999Z</time></trkpt><trkpt lat="45.45007846796502" lon="9.156227530279123"><ele>118.2</ele><time>2026-04-04T09:16:01.999Z</time></trkpt><trkpt lat="45.45014332514531" lon="9.156223723609754"><ele>118.6</ele><time>2026-04-04T09:16:02.999Z</time></trkpt><trkpt lat="45.4502161793147" lon="9.156228702118748"><ele>119.0</ele><time>2026-04-04T09:16:03.999Z</time></trkpt><trkpt lat="45.450309220707204" lon="9.156270018887737"><ele>118.99999999999999</ele><time>2026-04-04T09:16:04.999Z</time></trkpt><trkpt lat="45.450379224687254" lon="9.156347020067727"><ele>119.0</ele><time>2026-04-04T09:16:05.999Z</time></trkpt><trkpt lat="45.45043861231172" lon="9.156435575800373"><ele>119.0</ele><time>2026-04-04T09:16:06.999Z</time></trkpt><trkpt lat="45.45047938916504" lon="9.156523791610375"><ele>119.0</ele><time>2026-04-04T09:16:07.999Z</time></trkpt><trkpt lat="45.45050714156124" lon="9.156636487968239"><ele>118.99999999999999</ele><time>2026-04-04T09:16:08.999Z</time></trkpt><trkpt lat="45.45051884535097" lon="9.156733866939103"><ele>119.0</ele><time>2026-04-04T09:16:09.999Z</time></trkpt><trkpt lat="45.450532339280144" lon="9.156823957921443"><ele>119.33333333333333</ele><time>2026-04-04T09:16:10.999Z</time></trkpt><trkpt lat="45.45054684741485" lon="9.156911566877682"><ele>119.66666666666666</ele><time>2026-04-04T09:16:11.999Z</time></trkpt><trkpt lat="45.45056348343814" lon="9.157012649158426"><ele>120.0</ele><time>2026-04-04T09:16:12.999Z</time></trkpt><trkpt lat="45.450578547048096" lon="9.157107410767273"><ele>120.33333333333334</ele><time>2026-04-04T09:16:13.999Z</time></trkpt><trkpt lat="45.45059350607722" lon="9.157202220569015"><ele>120.66666666666667</ele><time>2026-04-04T09:16:14.999Z</time></trkpt><trkpt lat="45.45062061823589" lon="9.15737404866773"><ele>121.0</ele><time>2026-04-04T09:16:16.999Z</time></trkpt><trkpt lat="45.450641545332374" lon="9.157547867436055"><ele>121.19999999999999</ele><time>2026-04-04T09:16:18.999Z</time></trkpt><trkpt lat="45.450668019340135" lon="9.157630748470048"><ele>121.39999999999999</ele><time>2026-04-04T09:16:19.999Z</time></trkpt><trkpt lat="45.45069505861912" lon="9.157785541336848"><ele>121.6</ele><time>2026-04-04T09:16:21.999Z</time></trkpt><trkpt lat="45.45071223466231" lon="9.157942405392054"><ele>121.8</ele><time>2026-04-04T09:16:23.999Z</time></trkpt><trkpt lat="45.450729438733845" lon="9.158085093233737"><ele>122.0</ele><time>2026-04-04T09:16:25.999Z</time></trkpt><trkpt lat="45.45077678414192" lon="9.158217887710169"><ele>122.0</ele><time>2026-04-04T09:16:27.999Z</time></trkpt><trkpt lat="45.45079444486281" lon="9.158356348302052"><ele>121.99999999999999</ele><time>2026-04-04T09:16:29.999Z</time></trkpt><trkpt lat="45.4507930867891" lon="9.158498792037305"><ele>121.99999999999999</ele><time>2026-04-04T09:16:31.999Z</time></trkpt><trkpt lat="45.45083278782034" lon="9.158662016629332"><ele>122.0</ele><time>2026-04-04T09:16:33.999Z</time></trkpt><trkpt lat="45.45085849336212" lon="9.158820180874258"><ele>122.0</ele><time>2026-04-04T09:16:35.999Z</time></trkpt><trkpt lat="45.450876884389345" lon="9.158968160097842"><ele>122.0</ele><time>2026-04-04T09:16:37.999Z</time></trkpt><trkpt lat="45.450891181859674" lon="9.159115573532167"><ele>121.99999999999999</ele><time>2026-04-04T09:16:39.999Z</time></trkpt><trkpt lat="45.45091469301578" lon="9.159278422802245"><ele>121.99999999999999</ele><time>2026-04-04T09:16:41.999Z</time></trkpt><trkpt lat="45.45093309572085" lon="9.159431979421779"><ele>122.0</ele><time>2026-04-04T09:16:44Z</time></trkpt><trkpt lat="45.45096055163239" lon="9.159582501756669"><ele>122.0</ele><time>2026-04-04T09:16:46Z</time></trkpt><trkpt lat="45.45099027765022" lon="9.159737810284932"><ele>122.39999999999999</ele><time>2026-04-04T09:16:47.999Z</time></trkpt><trkpt lat="45.45102952340981" lon="9.159883341203793"><ele>122.79999999999998</ele><time>2026-04-04T09:16:50Z</time></trkpt><trkpt lat="45.45105722312515" lon="9.160036034296969"><ele>123.2</ele><time>2026-04-04T09:16:52Z</time></trkpt><trkpt lat="45.451084467005735" lon="9.160182904570634"><ele>123.6</ele><time>2026-04-04T09:16:54Z</time></trkpt><trkpt lat="45.45111710898006" lon="9.160336092115216"><ele>124.0</ele><time>2026-04-04T09:16:56Z</time></trkpt><trkpt lat="45.45113950377588" lon="9.160478798125098"><ele>124.00000000000001</ele><time>2026-04-04T09:16:58Z</time></trkpt><trkpt lat="45.45117649992916" lon="9.160610111156297"><ele>124.0</ele><time>2026-04-04T09:17:00Z</time></trkpt><trkpt lat="45.451213797000165" lon="9.16073727752918"><ele>124.0</ele><time>2026-04-04T09:17:02Z</time></trkpt><trkpt lat="45.45129419343361" lon="9.160727979357137"><ele>124.0</ele><time>2026-04-04T09:17:04Z</time></trkpt><trkpt lat="45.451352859382204" lon="9.160649742246886"><ele>124.00000000000001</ele><time>2026-04-04T09:17:06Z</time></trkpt><trkpt lat="45.4514284359593" lon="9.160594155148583"><ele>124.0</ele><time>2026-04-04T09:17:08Z</time></trkpt><trkpt lat="45.45150376554271" lon="9.16052966075778"><ele>124.2</ele><time>2026-04-04T09:17:10Z</time></trkpt><trkpt lat="45.45158559045787" lon="9.160478007078535"><ele>124.4</ele><time>2026-04-04T09:17:12Z</time></trkpt><trkpt lat="45.451687332401384" lon="9.160407371820757"><ele>124.6</ele><time>2026-04-04T09:17:14Z</time></trkpt><trkpt lat="45.45177938293758" lon="9.160343653337716"><ele>124.8</ele><time>2026-04-04T09:17:16Z</time></trkpt><trkpt lat="45.45187822712514" lon="9.160276312122939"><ele>125.0</ele><time>2026-04-04T09:17:18Z</time></trkpt><trkpt lat="45.45197890693118" lon="9.160223598218206"><ele>125.0</ele><time>2026-04-04T09:17:20Z</time></trkpt><trkpt lat="45.45207285595628" lon="9.160161311541783"><ele>125.0</ele><time>2026-04-04T09:17:22Z</time></trkpt><trkpt lat="45.45216212735288" lon="9.160099019439778"><ele>125.0</ele><time>2026-04-04T09:17:24Z</time></trkpt><trkpt lat="45.45226717913122" lon="9.160038471107207"><ele>125.0</ele><time>2026-04-04T09:17:26Z</time></trkpt><trkpt lat="45.4523696595681" lon="9.159961528804441"><ele>125.0</ele><time>2026-04-04T09:17:28Z</time></trkpt><trkpt lat="45.45242892619959" lon="9.159903118238464"><ele>124.6</ele><time>2026-04-04T09:17:29Z</time></trkpt><trkpt lat="45.45255515478499" lon="9.159840965872876"><ele>124.2</ele><time>2026-04-04T09:17:31Z</time></trkpt><trkpt lat="45.45262328772074" lon="9.159793218672833"><ele>123.80000000000001</ele><time>2026-04-04T09:17:32Z</time></trkpt><trkpt lat="45.452686537779414" lon="9.159762717004305"><ele>123.4</ele><time>2026-04-04T09:17:33Z</time></trkpt><trkpt lat="45.452801630515964" lon="9.159700719826136"><ele>123.0</ele><time>2026-04-04T09:17:34.999Z</time></trkpt><trkpt lat="45.452862714146846" lon="9.1596716063237"><ele>123.0</ele><time>2026-04-04T09:17:35.999Z</time></trkpt><trkpt lat="45.45295033224616" lon="9.159623606652815"><ele>123.00000000000001</ele><time>2026-04-04T09:17:37.999Z</time></trkpt><trkpt lat="45.45304063483824" lon="9.159561332984659"><ele>123.00000000000001</ele><time>2026-04-04T09:17:39.999Z</time></trkpt><trkpt lat="45.45313824400315" lon="9.159510277875016"><ele>123.0</ele><time>2026-04-04T09:17:41.999Z</time></trkpt><trkpt lat="45.45323226163874" lon="9.15943997213751"><ele>123.0</ele><time>2026-04-04T09:17:43.999Z</time></trkpt><trkpt lat="45.453320461574116" lon="9.15938631662042"><ele>122.4</ele><time>2026-04-04T09:17:45.999Z</time></trkpt><trkpt lat="45.453417991876606" lon="9.159323132708552"><ele>121.80000000000001</ele><time>2026-04-04T09:17:47.999Z</time></trkpt><trkpt lat="45.453531206514384" lon="9.159250679942659"><ele>121.2</ele><time>2026-04-04T09:17:49.999Z</time></trkpt><trkpt lat="45.45361115814406" lon="9.159186092599862"><ele>120.6</ele><time>2026-04-04T09:17:51.999Z</time></trkpt><trkpt lat="45.453702985848025" lon="9.159124602176199"><ele>120.0</ele><time>2026-04-04T09:17:53.999Z</time></trkpt><trkpt lat="45.45378517838823" lon="9.159088849474736"><ele>120.5</ele><time>2026-04-04T09:17:55.999Z</time></trkpt><trkpt lat="45.45385416006707" lon="9.159060392234688"><ele>121.0</ele><time>2026-04-04T09:17:58.999Z</time></trkpt><trkpt lat="45.45393706188769" lon="9.159047145588215"><ele>121.5</ele><time>2026-04-04T09:18:21.999Z</time></trkpt><trkpt lat="45.45400333934824" lon="9.158989012047499"><ele>122.0</ele><time>2026-04-04T09:18:25.999Z</time></trkpt><trkpt lat="45.45407869729968" lon="9.158928476995166"><ele>122.5</ele><time>2026-04-04T09:18:28.999Z</time></trkpt><trkpt lat="45.454145761633356" lon="9.158889059886382"><ele>123.0</ele><time>2026-04-04T09:18:30.999Z</time></trkpt><trkpt lat="45.454212037406755" lon="9.15883169814132"><ele>123.0</ele><time>2026-04-04T09:18:32.999Z</time></trkpt><trkpt lat="45.45430160623341" lon="9.158741327127256"><ele>123.0</ele><time>2026-04-04T09:18:35.999Z</time></trkpt><trkpt lat="45.45437923325492" lon="9.15869969835054"><ele>123.0</ele><time>2026-04-04T09:18:37.999Z</time></trkpt><trkpt lat="45.45443565509901" lon="9.158634993352948"><ele>123.0</ele><time>2026-04-04T09:18:39.999Z</time></trkpt><trkpt lat="45.45449018310612" lon="9.158579093949381"><ele>123.0</ele><time>2026-04-04T09:18:41.999Z</time></trkpt><trkpt lat="45.4545562372398" lon="9.158537477644861"><ele>123.0</ele><time>2026-04-04T09:18:43.999Z</time></trkpt><trkpt lat="45.45463149652523" lon="9.158461778680289"><ele>122.80000000000001</ele><time>2026-04-04T09:18:45.999Z</time></trkpt><trkpt lat="45.454720752374826" lon="9.158431578630346"><ele>122.60000000000001</ele><time>2026-04-04T09:18:47.999Z</time></trkpt><trkpt lat="45.454795319990914" lon="9.158377045534223"><ele>122.39999999999999</ele><time>2026-04-04T09:18:50Z</time></trkpt><trkpt lat="45.45489668160479" lon="9.158331677771699"><ele>122.19999999999999</ele><time>2026-04-04T09:18:51.999Z</time></trkpt><trkpt lat="45.45498170225486" lon="9.158255376519355"><ele>122.0</ele><time>2026-04-04T09:18:53.999Z</time></trkpt><trkpt lat="45.45509122888002" lon="9.158223343992825"><ele>122.16666666666666</ele><time>2026-04-04T09:18:56Z</time></trkpt><trkpt lat="45.45517723876747" lon="9.158164398315382"><ele>122.33333333333333</ele><time>2026-04-04T09:18:58Z</time></trkpt><trkpt lat="45.45525340365284" lon="9.158102087718122"><ele>122.5</ele><time>2026-04-04T09:18:59.999Z</time></trkpt><trkpt lat="45.45531760591268" lon="9.158068859137053"><ele>122.66666666666666</ele><time>2026-04-04T09:19:01.999Z</time></trkpt><trkpt lat="45.455374338712" lon="9.158021951663617"><ele>122.83333333333333</ele><time>2026-04-04T09:19:03.999Z</time></trkpt><trkpt lat="45.45543686089736" lon="9.15800268141788"><ele>123.0</ele><time>2026-04-04T09:19:05.999Z</time></trkpt><trkpt lat="45.45553727706731" lon="9.157975482573088"><ele>123.80000000000001</ele><time>2026-04-04T09:19:07.999Z</time></trkpt><trkpt lat="45.455634993137664" lon="9.157934045445316"><ele>124.60000000000001</ele><time>2026-04-04T09:19:09.999Z</time></trkpt><trkpt lat="45.455710316605455" lon="9.157877611696954"><ele>125.39999999999999</ele><time>2026-04-04T09:19:11.999Z</time></trkpt><trkpt lat="45.45578402380496" lon="9.157814034930444"><ele>126.19999999999999</ele><time>2026-04-04T09:19:13.999Z</time></trkpt><trkpt lat="45.45586102579258" lon="9.157746422564468"><ele>127.0</ele><time>2026-04-04T09:19:15.999Z</time></trkpt><trkpt lat="45.455936919519075" lon="9.1576826527019"><ele>127.00000000000001</ele><time>2026-04-04T09:19:17.999Z</time></trkpt><trkpt lat="45.45601326502602" lon="9.157626035197396"><ele>127.0</ele><time>2026-04-04T09:19:19.999Z</time></trkpt><trkpt lat="45.45608183689024" lon="9.157558413621755"><ele>127.0</ele><time>2026-04-04T09:19:21.999Z</time></trkpt><trkpt lat="45.45616151009182" lon="9.157504721297318"><ele>127.0</ele><time>2026-04-04T09:19:23.999Z</time></trkpt><trkpt lat="45.45622339032496" lon="9.157439451076314"><ele>127.00000000000001</ele><time>2026-04-04T09:19:25.999Z</time></trkpt><trkpt lat="45.456288142693026" lon="9.157395614051389"><ele>127.0</ele><time>2026-04-04T09:19:27.999Z</time></trkpt><trkpt lat="45.45635745103561" lon="9.157349055639678"><ele>127.33333333333334</ele><time>2026-04-04T09:19:29.999Z</time></trkpt><trkpt lat="45.456409869370844" lon="9.157293755473352"><ele>127.66666666666667</ele><time>2026-04-04T09:19:31.999Z</time></trkpt><trkpt lat="45.45646587436948" lon="9.157235204296262"><ele>128.0</ele><time>2026-04-04T09:19:34.999Z</time></trkpt><trkpt lat="45.456617873669124" lon="9.157183326383901"><ele>128.33333333333334</ele><time>2026-04-04T09:19:39.999Z</time></trkpt><trkpt lat="45.456683460369725" lon="9.15714300166411"><ele>128.66666666666666</ele><time>2026-04-04T09:19:41.999Z</time></trkpt><trkpt lat="45.45675847536344" lon="9.157087626412455"><ele>129.0</ele><time>2026-04-04T09:19:43.999Z</time></trkpt><trkpt lat="45.45683114821835" lon="9.157019137154384"><ele>129.0</ele><time>2026-04-04T09:19:45.999Z</time></trkpt><trkpt lat="45.456919929580366" lon="9.156989661661237"><ele>129.0</ele><time>2026-04-04T09:19:47.999Z</time></trkpt><trkpt lat="45.456978849396634" lon="9.156919688346703"><ele>129.0</ele><time>2026-04-04T09:19:49.999Z</time></trkpt><trkpt lat="45.4570713677026" lon="9.15685418395748"><ele>129.0</ele><time>2026-04-04T09:19:52.998Z</time></trkpt><trkpt lat="45.45713578793935" lon="9.156820172909306"><ele>129.0</ele><time>2026-04-04T09:19:54.998Z</time></trkpt><trkpt lat="45.457193415956695" lon="9.156773695049107"><ele>129.0</ele><time>2026-04-04T09:19:56.998Z</time></trkpt><trkpt lat="45.45728922941618" lon="9.156724025230147"><ele>129.2</ele><time>2026-04-04T09:19:59.998Z</time></trkpt><trkpt lat="45.4573788685736" lon="9.15666531954078"><ele>129.4</ele><time>2026-04-04T09:20:01.998Z</time></trkpt><trkpt lat="45.45745902780399" lon="9.15662379735167"><ele>129.6</ele><time>2026-04-04T09:20:03.998Z</time></trkpt><trkpt lat="45.4575414940386" lon="9.156565850057556"><ele>129.8</ele><time>2026-04-04T09:20:05.998Z</time></trkpt><trkpt lat="45.45764654107667" lon="9.156490176144843"><ele>130.0</ele><time>2026-04-04T09:20:07.998Z</time></trkpt><trkpt lat="45.45773693254999" lon="9.156459116526202"><ele>129.83333333333334</ele><time>2026-04-04T09:20:09.998Z</time></trkpt><trkpt lat="45.45782586916232" lon="9.156406715631949"><ele>129.66666666666669</ele><time>2026-04-04T09:20:11.998Z</time></trkpt><trkpt lat="45.457929416719715" lon="9.156431294448314"><ele>129.5</ele><time>2026-04-04T09:20:13.998Z</time></trkpt><trkpt lat="45.45799406525723" lon="9.156452593162651"><ele>129.33333333333334</ele><time>2026-04-04T09:20:14.998Z</time></trkpt><trkpt lat="45.458057300230735" lon="9.156465908727021"><ele>129.16666666666666</ele><time>2026-04-04T09:20:15.998Z</time></trkpt><trkpt lat="45.45815407126993" lon="9.156463074090649"><ele>129.0</ele><time>2026-04-04T09:20:17.998Z</time></trkpt><trkpt lat="45.45823958120219" lon="9.156407514436108"><ele>129.0</ele><time>2026-04-04T09:20:19.998Z</time></trkpt><trkpt lat="45.458340202064136" lon="9.15633814728211"><ele>129.0</ele><time>2026-04-04T09:20:21.998Z</time></trkpt><trkpt lat="45.45841786929363" lon="9.156307898732734"><ele>129.0</ele><time>2026-04-04T09:20:23.998Z</time></trkpt><trkpt lat="45.458491709836046" lon="9.156357456646997"><ele>129.0</ele><time>2026-04-04T09:20:25.998Z</time></trkpt><trkpt lat="45.45861329906767" lon="9.156402074405179"><ele>129.0</ele><time>2026-04-04T09:20:27.998Z</time></trkpt><trkpt lat="45.45869050632566" lon="9.156444131202464"><ele>129.0</ele><time>2026-04-04T09:20:29.998Z</time></trkpt><trkpt lat="45.45878413894089" lon="9.156474010524876"><ele>129.0</ele><time>2026-04-04T09:20:31.998Z</time></trkpt><trkpt lat="45.458887337704766" lon="9.156515769433316"><ele>129.0</ele><time>2026-04-04T09:20:33.998Z</time></trkpt><trkpt lat="45.45899425446513" lon="9.156546540824486"><ele>129.0</ele><time>2026-04-04T09:20:35.998Z</time></trkpt><trkpt lat="45.45908463952524" lon="9.156575983888311"><ele>129.0</ele><time>2026-04-04T09:20:37.998Z</time></trkpt><trkpt lat="45.4591601556128" lon="9.156620929611423"><ele>129.0</ele><time>2026-04-04T09:20:39.998Z</time></trkpt><trkpt lat="45.45926470494133" lon="9.156643386119342"><ele>129.0</ele><time>2026-04-04T09:20:41.998Z</time></trkpt><trkpt lat="45.45936959213924" lon="9.156686214127488"><ele>129.0</ele><time>2026-04-04T09:20:43.998Z</time></trkpt><trkpt lat="45.45947209168617" lon="9.156712694175098"><ele>129.0</ele><time>2026-04-04T09:20:46.998Z</time></trkpt><trkpt lat="45.45958958862318" lon="9.156767488048507"><ele>129.0</ele><time>2026-04-04T09:20:48.998Z</time></trkpt><trkpt lat="45.459645174970944" lon="9.156814929044387"><ele>129.0</ele><time>2026-04-04T09:20:49.998Z</time></trkpt><trkpt lat="45.459762596314235" lon="9.15686701126598"><ele>129.0</ele><time>2026-04-04T09:20:51.998Z</time></trkpt><trkpt lat="45.45987968977745" lon="9.15689696118091"><ele>129.0</ele><time>2026-04-04T09:20:53.999Z</time></trkpt><trkpt lat="45.4599818531432" lon="9.156921128968285"><ele>129.0</ele><time>2026-04-04T09:20:55.998Z</time></trkpt><trkpt lat="45.46007651652141" lon="9.156950732313382"><ele>129.0</ele><time>2026-04-04T09:20:57.999Z</time></trkpt><trkpt lat="45.460173846625295" lon="9.156983288875752"><ele>129.0</ele><time>2026-04-04T09:20:59.999Z</time></trkpt><trkpt lat="45.46025360355984" lon="9.157006678648274"><ele>129.0</ele><time>2026-04-04T09:21:01.999Z</time></trkpt><trkpt lat="45.460324668042624" lon="9.157051589496561"><ele>129.0</ele><time>2026-04-04T09:21:02.999Z</time></trkpt><trkpt lat="45.46038525936834" lon="9.15709109144322"><ele>129.0</ele><time>2026-04-04T09:21:03.999Z</time></trkpt><trkpt lat="45.46050311842079" lon="9.157124756082757"><ele>129.0</ele><time>2026-04-04T09:21:05.999Z</time></trkpt><trkpt lat="45.460601163838284" lon="9.157168411977908"><ele>129.0</ele><time>2026-04-04T09:21:08.999Z</time></trkpt><trkpt lat="45.46071316474197" lon="9.157222274081585"><ele>128.5</ele><time>2026-04-04T09:21:10.999Z</time></trkpt><trkpt lat="45.4607782530742" lon="9.157245525404424"><ele>128.0</ele><time>2026-04-04T09:21:11.999Z</time></trkpt><trkpt lat="45.46084406719944" lon="9.157267737755756"><ele>127.5</ele><time>2026-04-04T09:21:12.999Z</time></trkpt><trkpt lat="45.460917534136584" lon="9.15728977531235"><ele>127.0</ele><time>2026-04-04T09:21:13.999Z</time></trkpt><trkpt lat="45.461025041201474" lon="9.157335028887681"><ele>126.5</ele><time>2026-04-04T09:21:15.999Z</time></trkpt><trkpt lat="45.46113008761276" lon="9.157363965418615"><ele>126.0</ele><time>2026-04-04T09:21:17.999Z</time></trkpt><trkpt lat="45.4612429131756" lon="9.157409550845925"><ele>125.6</ele><time>2026-04-04T09:21:19.999Z</time></trkpt><trkpt lat="45.46135238129463" lon="9.157464864824522"><ele>125.19999999999999</ele><time>2026-04-04T09:21:21.999Z</time></trkpt><trkpt lat="45.46143713897172" lon="9.157561505336675"><ele>124.80000000000001</ele><time>2026-04-04T09:21:23.999Z</time></trkpt><trkpt lat="45.46146527481202" lon="9.15764243058231"><ele>124.4</ele><time>2026-04-04T09:21:24.999Z</time></trkpt><trkpt lat="45.46151480499598" lon="9.157791951543603"><ele>124.0</ele><time>2026-04-04T09:21:26.999Z</time></trkpt><trkpt lat="45.46156444343442" lon="9.157927792969144"><ele>124.00000000000001</ele><time>2026-04-04T09:21:28.999Z</time></trkpt><trkpt lat="45.46160629696084" lon="9.158049533569077"><ele>124.0</ele><time>2026-04-04T09:21:30.999Z</time></trkpt><trkpt lat="45.46164941644677" lon="9.158180358634782"><ele>124.0</ele><time>2026-04-04T09:21:32.999Z</time></trkpt><trkpt lat="45.46168702320948" lon="9.158286576858668"><ele>124.0</ele><time>2026-04-04T09:21:34.999Z</time></trkpt><trkpt lat="45.46169985928982" lon="9.158406461013385"><ele>124.00000000000001</ele><time>2026-04-04T09:21:38.999Z</time></trkpt><trkpt lat="45.46170133299064" lon="9.158516895033069"><ele>124.0</ele><time>2026-04-04T09:21:40.999Z</time></trkpt><trkpt lat="45.46174252845408" lon="9.158630661736552"><ele>123.5</ele><time>2026-04-04T09:21:42.999Z</time></trkpt><trkpt lat="45.46192424639756" lon="9.15856934951118"><ele>123.0</ele><time>2026-04-04T09:21:46.999Z</time></trkpt><trkpt lat="45.462001302731665" lon="9.1584704640413"><ele>122.5</ele><time>2026-04-04T09:21:48.999Z</time></trkpt><trkpt lat="45.462092110667015" lon="9.158423005114495"><ele>122.0</ele><time>2026-04-04T09:21:50.998Z</time></trkpt><trkpt lat="45.46218040544651" lon="9.158372590299464"><ele>122.0</ele><time>2026-04-04T09:21:52.998Z</time></trkpt><trkpt lat="45.46227097038735" lon="9.15831097900585"><ele>121.99999999999999</ele><time>2026-04-04T09:21:54.998Z</time></trkpt><trkpt lat="45.46235915340221" lon="9.158255068574332"><ele>121.99999999999999</ele><time>2026-04-04T09:21:56.998Z</time></trkpt><trkpt lat="45.46244004804693" lon="9.158205806704443"><ele>122.0</ele><time>2026-04-04T09:21:58.998Z</time></trkpt><trkpt lat="45.46253007427147" lon="9.158153390872778"><ele>122.0</ele><time>2026-04-04T09:22:00.998Z</time></trkpt><trkpt lat="45.462625235294624" lon="9.158112283562648"><ele>122.16666666666666</ele><time>2026-04-04T09:22:02.998Z</time></trkpt><trkpt lat="45.46270867943616" lon="9.158046561559328"><ele>122.33333333333333</ele><time>2026-04-04T09:22:04.998Z</time></trkpt><trkpt lat="45.462796273170376" lon="9.158012034190048"><ele>122.5</ele><time>2026-04-04T09:22:06.998Z</time></trkpt><trkpt lat="45.462881638896704" lon="9.158028798045706"><ele>122.66666666666666</ele><time>2026-04-04T09:22:08.998Z</time></trkpt><trkpt lat="45.462958069584296" lon="9.158061992693344"><ele>122.83333333333333</ele><time>2026-04-04T09:22:10.998Z</time></trkpt><trkpt lat="45.463021884175575" lon="9.158087425834896"><ele>123.0</ele><time>2026-04-04T09:22:11.998Z</time></trkpt><trkpt lat="45.4631113026822" lon="9.158121995547818"><ele>123.0</ele><time>2026-04-04T09:22:13.998Z</time></trkpt><trkpt lat="45.463205253648574" lon="9.15815517171303"><ele>123.00000000000001</ele><time>2026-04-04T09:22:15.998Z</time></trkpt><trkpt lat="45.4633095589856" lon="9.158188166479398"><ele>123.00000000000001</ele><time>2026-04-04T09:22:17.998Z</time></trkpt><trkpt lat="45.463410323975374" lon="9.158203426735046"><ele>123.0</ele><time>2026-04-04T09:22:19.998Z</time></trkpt><trkpt lat="45.4635103866389" lon="9.158227533411786"><ele>123.0</ele><time>2026-04-04T09:22:21.998Z</time></trkpt><trkpt lat="45.46360858880142" lon="9.158265885729046"><ele>123.60000000000001</ele><time>2026-04-04T09:22:23.998Z</time></trkpt><trkpt lat="45.463696885840776" lon="9.158299550515236"><ele>124.20000000000002</ele><time>2026-04-04T09:22:25.998Z</time></trkpt><trkpt lat="45.463783974683864" lon="9.158329377530752"><ele>124.8</ele><time>2026-04-04T09:22:27.998Z</time></trkpt><trkpt lat="45.46387134427053" lon="9.15835797905482"><ele>125.4</ele><time>2026-04-04T09:22:29.998Z</time></trkpt><trkpt lat="45.463963892327676" lon="9.158386100946759"><ele>126.0</ele><time>2026-04-04T09:22:31.998Z</time></trkpt><trkpt lat="45.46405336895358" lon="9.158414669269348"><ele>126.0</ele><time>2026-04-04T09:22:33.998Z</time></trkpt><trkpt lat="45.46413895501671" lon="9.158455070948431"><ele>126.0</ele><time>2026-04-04T09:22:35.998Z</time></trkpt><trkpt lat="45.46425200198356" lon="9.158498098444909"><ele>126.0</ele><time>2026-04-04T09:22:37.998Z</time></trkpt><trkpt lat="45.464344796556716" lon="9.158527939081816"><ele>126.0</ele><time>2026-04-04T09:22:39.998Z</time></trkpt><trkpt lat="45.46445658246162" lon="9.15856962376668"><ele>126.0</ele><time>2026-04-04T09:22:41.998Z</time></trkpt><trkpt lat="45.464554774608644" lon="9.158617575475887"><ele>126.0</ele><time>2026-04-04T09:22:43.998Z</time></trkpt><trkpt lat="45.464665593231544" lon="9.158671382003298"><ele>126.0</ele><time>2026-04-04T09:22:45.998Z</time></trkpt><trkpt lat="45.464760431178696" lon="9.158731090138998"><ele>126.0</ele><time>2026-04-04T09:22:47.998Z</time></trkpt><trkpt lat="45.46486015676426" lon="9.158775077289302"><ele>126.0</ele><time>2026-04-04T09:22:49.998Z</time></trkpt><trkpt lat="45.46495454473149" lon="9.158811554825531"><ele>126.0</ele><time>2026-04-04T09:22:51.998Z</time></trkpt><trkpt lat="45.46503746529765" lon="9.158842856368777"><ele>126.0</ele><time>2026-04-04T09:22:53.998Z</time></trkpt><trkpt lat="45.46518238260177" lon="9.158895179938977"><ele>126.0</ele><time>2026-04-04T09:22:56.998Z</time></trkpt><trkpt lat="45.465272135759534" lon="9.158933921295972"><ele>126.0</ele><time>2026-04-04T09:22:58.998Z</time></trkpt><trkpt lat="45.46535446422252" lon="9.158980932858878"><ele>126.0</ele><time>2026-04-04T09:23:00.999Z</time></trkpt><trkpt lat="45.46542640718113" lon="9.15900926393434"><ele>126.0</ele><time>2026-04-04T09:23:02.999Z</time></trkpt><trkpt lat="45.465529268140266" lon="9.159037946469427"><ele>126.83333333333333</ele><time>2026-04-04T09:23:04.998Z</time></trkpt><trkpt lat="45.46560735503585" lon="9.159067454621418"><ele>127.66666666666666</ele><time>2026-04-04T09:23:06.998Z</time></trkpt><trkpt lat="45.46567093010024" lon="9.159104819041174"><ele>128.5</ele><time>2026-04-04T09:23:08.998Z</time></trkpt><trkpt lat="45.465758020270535" lon="9.159150759360038"><ele>129.33333333333331</ele><time>2026-04-04T09:23:10.998Z</time></trkpt><trkpt lat="45.4658416271966" lon="9.159158832174365"><ele>130.16666666666666</ele><time>2026-04-04T09:23:12.999Z</time></trkpt><trkpt lat="45.46591067289214" lon="9.159179885512605"><ele>131.0</ele><time>2026-04-04T09:23:14.999Z</time></trkpt><trkpt lat="45.465995446254134" lon="9.159210078859658"><ele>131.0</ele><time>2026-04-04T09:23:17.999Z</time></trkpt><trkpt lat="45.46606462636472" lon="9.159231751197153"><ele>131.0</ele><time>2026-04-04T09:23:19.998Z</time></trkpt><trkpt lat="45.46615134391048" lon="9.159302874049535"><ele>131.0</ele><time>2026-04-04T09:23:21.998Z</time></trkpt><trkpt lat="45.46625841837039" lon="9.159333343714334"><ele>131.0</ele><time>2026-04-04T09:23:23.998Z</time></trkpt><trkpt lat="45.466355802906435" lon="9.159375833811614"><ele>131.0</ele><time>2026-04-04T09:23:25.998Z</time></trkpt><trkpt lat="45.46646891562349" lon="9.159420816413363"><ele>130.83333333333331</ele><time>2026-04-04T09:23:27.998Z</time></trkpt><trkpt lat="45.466571689246805" lon="9.159456065646898"><ele>130.66666666666666</ele><time>2026-04-04T09:23:29.998Z</time></trkpt><trkpt lat="45.466649175947886" lon="9.159475836952085"><ele>130.5</ele><time>2026-04-04T09:23:31.998Z</time></trkpt><trkpt lat="45.46674730173014" lon="9.15949610872688"><ele>130.33333333333334</ele><time>2026-04-04T09:23:34.998Z</time></trkpt><trkpt lat="45.4668143685656" lon="9.15953066752641"><ele>130.16666666666669</ele><time>2026-04-04T09:23:36.998Z</time></trkpt><trkpt lat="45.46688880486545" lon="9.159557037038224"><ele>130.0</ele><time>2026-04-04T09:23:38.998Z</time></trkpt><trkpt lat="45.46696349043955" lon="9.159592507043241"><ele>130.0</ele><time>2026-04-04T09:23:40.998Z</time></trkpt><trkpt lat="45.46701999715994" lon="9.15965036973581"><ele>130.0</ele><time>2026-04-04T09:23:44.998Z</time></trkpt><trkpt lat="45.467085987495196" lon="9.159715337726903"><ele>130.0</ele><time>2026-04-04T09:23:55.998Z</time></trkpt><trkpt lat="45.46716874073407" lon="9.15975554946745"><ele>130.0</ele><time>2026-04-04T09:23:57.998Z</time></trkpt><trkpt lat="45.46726587788926" lon="9.159830111457804"><ele>130.0</ele><time>2026-04-04T09:23:58.998Z</time></trkpt><trkpt lat="45.46735863870944" lon="9.159863905594424"><ele>130.0</ele><time>2026-04-04T09:24:00.998Z</time></trkpt><trkpt lat="45.4674177113657" lon="9.159909664960947"><ele>130.0</ele><time>2026-04-04T09:24:02.998Z</time></trkpt><trkpt lat="45.46748119431749" lon="9.15997503383438"><ele>130.0</ele><time>2026-04-04T09:24:04.998Z</time></trkpt><trkpt lat="45.46751802444749" lon="9.160062181570035"><ele>130.0</ele><time>2026-04-04T09:24:05.998Z</time></trkpt><trkpt lat="45.467561129844206" lon="9.160141740011772"><ele>130.0</ele><time>2026-04-04T09:24:11.998Z</time></trkpt><trkpt lat="45.467522044129154" lon="9.16024477450587"><ele>130.0</ele><time>2026-04-04T09:24:26.998Z</time></trkpt><trkpt lat="45.46744436020272" lon="9.160308538552433"><ele>130.0</ele><time>2026-04-04T09:24:29.998Z</time></trkpt><trkpt lat="45.46739523537141" lon="9.160380899398078"><ele>130.0</ele><time>2026-04-04T09:24:36.997Z</time></trkpt><trkpt lat="45.46730003367235" lon="9.160481129153936"><ele>130.0</ele><time>2026-04-04T09:24:39.997Z</time></trkpt><trkpt lat="45.467271662142586" lon="9.160561792875795"><ele>130.0</ele><time>2026-04-04T09:24:45.997Z</time></trkpt><trkpt lat="45.4671890227203" lon="9.160490745727"><ele>130.0</ele><time>2026-04-04T09:24:46.997Z</time></trkpt><trkpt lat="45.46724406429833" lon="9.160705596587881"><ele>130.0</ele><time>2026-04-04T09:24:55.141Z</time></trkpt></trkseg></trk></gpx>